<?xml version='1.0' encoding='UTF-8'?><gpx version="1.1" creator="JPX - https://github.com/jenetics/jpx" xmlns="http://www.topografix.com/GPX/1/1"><trk><trkseg><trkpt lat="43.6272467" lon="11.5167367"><ele>147.0</ele><time>2026-04-04T13:38:44.01Z</time></trkpt><trkpt lat="43.6272033" lon="11.5168167"><ele>147.0</ele><time>2026-04-04T13:38:46.011Z</time></trkpt><trkpt lat="43.6271217" lon="11.5168767"><ele>147.0</ele><time>2026-04-04T13:38:48.011Z</time></trkpt><trkpt lat="43.6270567" lon="11.5169417"><ele>147.0</ele><time>2026-04-04T13:38:51.011Z</time></trkpt><trkpt lat="43.62698" lon="11.5170033"><ele>147.0</ele><time>2026-04-04T13:38:54.011Z</time></trkpt><trkpt lat="43.6269333" lon="11.517085"><ele>147.0</ele><time>2026-04-04T13:38:57.013Z</time></trkpt><trkpt lat="43.627" lon="11.517125"><ele>147.6</ele><time>2026-04-04T13:39:00.013Z</time></trkpt><trkpt lat="43.62709" lon="11.5171467"><ele>148.2</ele><time>2026-04-04T13:39:02.011Z</time></trkpt><trkpt lat="43.6271817" lon="11.5171767"><ele>148.8</ele><time>2026-04-04T13:39:04.011Z</time></trkpt><trkpt lat="43.627275" lon="11.5172083"><ele>149.4</ele><time>2026-04-04T13:39:06.012Z</time></trkpt><trkpt lat="43.62738" lon="11.517245"><ele>150.0</ele><time>2026-04-04T13:39:08.011Z</time></trkpt><trkpt lat="43.627475" lon="11.5172767"><ele>150.0</ele><time>2026-04-04T13:39:10.011Z</time></trkpt><trkpt lat="43.6275783" lon="11.51732"><ele>150.0</ele><time>2026-04-04T13:39:13.011Z</time></trkpt><trkpt lat="43.6276467" lon="11.5173533"><ele>150.0</ele><time>2026-04-04T13:39:16.011Z</time></trkpt><trkpt lat="43.6277117" lon="11.5173733"><ele>150.0</ele><time>2026-04-04T13:39:20.011Z</time></trkpt><trkpt lat="43.6277767" lon="11.5173733"><ele>150.0</ele><time>2026-04-04T13:39:23.012Z</time></trkpt><trkpt lat="43.6278567" lon="11.5173633"><ele>150.0</ele><time>2026-04-04T13:39:27.009Z</time></trkpt><trkpt lat="43.6279067" lon="11.5172383"><ele>150.66666666666666</ele><time>2026-04-04T13:39:30.011Z</time></trkpt><trkpt lat="43.6279183" lon="11.5170883"><ele>151.33333333333334</ele><time>2026-04-04T13:39:32.011Z</time></trkpt><trkpt lat="43.6279183" lon="11.5169983"><ele>152.0</ele><time>2026-04-04T13:39:33.013Z</time></trkpt><trkpt lat="43.6279133" lon="11.5168983"><ele>152.66666666666669</ele><time>2026-04-04T13:39:34.011Z</time></trkpt><trkpt lat="43.627905" lon="11.5167917"><ele>153.33333333333334</ele><time>2026-04-04T13:39:35.012Z</time></trkpt><trkpt lat="43.6278983" lon="11.51668"><ele>154.0</ele><time>2026-04-04T13:39:36.012Z</time></trkpt><trkpt lat="43.6278933" lon="11.5165667"><ele>154.0</ele><time>2026-04-04T13:39:37.011Z</time></trkpt><trkpt lat="43.6278883" lon="11.516445"><ele>154.0</ele><time>2026-04-04T13:39:38.013Z</time></trkpt><trkpt lat="43.6278817" lon="11.51632"><ele>154.0</ele><time>2026-04-04T13:39:39.012Z</time></trkpt><trkpt lat="43.62787" lon="11.5161933"><ele>154.0</ele><time>2026-04-04T13:39:40.011Z</time></trkpt><trkpt lat="43.6278617" lon="11.5160733"><ele>154.0</ele><time>2026-04-04T13:39:41.012Z</time></trkpt><trkpt lat="43.62786" lon="11.5159533"><ele>154.0</ele><time>2026-04-04T13:39:42.012Z</time></trkpt><trkpt lat="43.6278617" lon="11.515835"><ele>154.0</ele><time>2026-04-04T13:39:43.011Z</time></trkpt><trkpt lat="43.6278617" lon="11.51572"><ele>154.0</ele><time>2026-04-04T13:39:44.012Z</time></trkpt><trkpt lat="43.6278583" lon="11.5156067"><ele>154.0</ele><time>2026-04-04T13:39:45.013Z</time></trkpt><trkpt lat="43.6278517" lon="11.515495"><ele>154.0</ele><time>2026-04-04T13:39:46.013Z</time></trkpt><trkpt lat="43.6278433" lon="11.5153883"><ele>154.0</ele><time>2026-04-04T13:39:47.013Z</time></trkpt><trkpt lat="43.627835" lon="11.51528"><ele>154.0</ele><time>2026-04-04T13:39:48.011Z</time></trkpt><trkpt lat="43.6278267" lon="11.5151717"><ele>154.0</ele><time>2026-04-04T13:39:49.011Z</time></trkpt><trkpt lat="43.6278217" lon="11.5150567"><ele>154.0</ele><time>2026-04-04T13:39:50.012Z</time></trkpt><trkpt lat="43.6278167" lon="11.5149417"><ele>154.0</ele><time>2026-04-04T13:39:51.011Z</time></trkpt><trkpt lat="43.6278133" lon="11.51483"><ele>154.0</ele><time>2026-04-04T13:39:52.012Z</time></trkpt><trkpt lat="43.6278083" lon="11.51472"><ele>154.0</ele><time>2026-04-04T13:39:53.011Z</time></trkpt><trkpt lat="43.6278017" lon="11.5146133"><ele>154.0</ele><time>2026-04-04T13:39:54.012Z</time></trkpt><trkpt lat="43.6277933" lon="11.5145067"><ele>152.5</ele><time>2026-04-04T13:39:55.012Z</time></trkpt><trkpt lat="43.6277833" lon="11.5143967"><ele>151.0</ele><time>2026-04-04T13:39:56.013Z</time></trkpt><trkpt lat="43.6277733" lon="11.5142883"><ele>149.5</ele><time>2026-04-04T13:39:57.011Z</time></trkpt><trkpt lat="43.627765" lon="11.5141783"><ele>148.0</ele><time>2026-04-04T13:39:58.012Z</time></trkpt><trkpt lat="43.62775" lon="11.514065"><ele>146.5</ele><time>2026-04-04T13:39:59.011Z</time></trkpt><trkpt lat="43.62774" lon="11.513955"><ele>145.0</ele><time>2026-04-04T13:40:00.013Z</time></trkpt><trkpt lat="43.6277283" lon="11.5138417"><ele>144.4</ele><time>2026-04-04T13:40:01.013Z</time></trkpt><trkpt lat="43.6277267" lon="11.51373"><ele>143.8</ele><time>2026-04-04T13:40:02.012Z</time></trkpt><trkpt lat="43.627725" lon="11.5136317"><ele>143.2</ele><time>2026-04-04T13:40:03.011Z</time></trkpt><trkpt lat="43.62773" lon="11.513545"><ele>142.6</ele><time>2026-04-04T13:40:04.012Z</time></trkpt><trkpt lat="43.6277517" lon="11.5133767"><ele>142.0</ele><time>2026-04-04T13:40:06.011Z</time></trkpt><trkpt lat="43.62771" lon="11.5132133"><ele>142.0</ele><time>2026-04-04T13:40:08.012Z</time></trkpt><trkpt lat="43.6276533" lon="11.5131567"><ele>142.0</ele><time>2026-04-04T13:40:09.011Z</time></trkpt><trkpt lat="43.627585" lon="11.5131133"><ele>142.0</ele><time>2026-04-04T13:40:10.012Z</time></trkpt><trkpt lat="43.62751" lon="11.5130767"><ele>142.0</ele><time>2026-04-04T13:40:11.011Z</time></trkpt><trkpt lat="43.6274317" lon="11.51305"><ele>142.0</ele><time>2026-04-04T13:40:12.012Z</time></trkpt><trkpt lat="43.6273533" lon="11.513025"><ele>142.0</ele><time>2026-04-04T13:40:13.011Z</time></trkpt><trkpt lat="43.62727" lon="11.5130017"><ele>142.0</ele><time>2026-04-04T13:40:14.012Z</time></trkpt><trkpt lat="43.6271917" lon="11.5129783"><ele>142.0</ele><time>2026-04-04T13:40:15.01Z</time></trkpt><trkpt lat="43.6271083" lon="11.5129533"><ele>142.0</ele><time>2026-04-04T13:40:16.012Z</time></trkpt><trkpt lat="43.6270267" lon="11.5129233"><ele>142.0</ele><time>2026-04-04T13:40:17.012Z</time></trkpt><trkpt lat="43.626945" lon="11.5128883"><ele>142.0</ele><time>2026-04-04T13:40:18.011Z</time></trkpt><trkpt lat="43.6268683" lon="11.5128433"><ele>142.0</ele><time>2026-04-04T13:40:19.012Z</time></trkpt><trkpt lat="43.626795" lon="11.5127867"><ele>141.83333333333334</ele><time>2026-04-04T13:40:20.011Z</time></trkpt><trkpt lat="43.6267267" lon="11.5127283"><ele>141.66666666666669</ele><time>2026-04-04T13:40:21.01Z</time></trkpt><trkpt lat="43.6266567" lon="11.51267"><ele>141.5</ele><time>2026-04-04T13:40:22.013Z</time></trkpt><trkpt lat="43.6265817" lon="11.5126183"><ele>141.33333333333334</ele><time>2026-04-04T13:40:23.013Z</time></trkpt><trkpt lat="43.6265117" lon="11.512575"><ele>141.16666666666666</ele><time>2026-04-04T13:40:24.011Z</time></trkpt><trkpt lat="43.626435" lon="11.5125367"><ele>141.0</ele><time>2026-04-04T13:40:25.011Z</time></trkpt><trkpt lat="43.6263633" lon="11.5125033"><ele>141.0</ele><time>2026-04-04T13:40:26.013Z</time></trkpt><trkpt lat="43.6262867" lon="11.5124717"><ele>141.0</ele><time>2026-04-04T13:40:27.013Z</time></trkpt><trkpt lat="43.6262117" lon="11.5124417"><ele>141.0</ele><time>2026-04-04T13:40:28.011Z</time></trkpt><trkpt lat="43.6261283" lon="11.51241"><ele>141.0</ele><time>2026-04-04T13:40:29.012Z</time></trkpt><trkpt lat="43.6260467" lon="11.51238"><ele>141.0</ele><time>2026-04-04T13:40:30.013Z</time></trkpt><trkpt lat="43.625975" lon="11.5123517"><ele>141.0</ele><time>2026-04-04T13:40:31.013Z</time></trkpt><trkpt lat="43.6258983" lon="11.5123217"><ele>140.83333333333334</ele><time>2026-04-04T13:40:32.012Z</time></trkpt><trkpt lat="43.625825" lon="11.5122883"><ele>140.66666666666666</ele><time>2026-04-04T13:40:33.012Z</time></trkpt><trkpt lat="43.6257517" lon="11.5122417"><ele>140.5</ele><time>2026-04-04T13:40:34.013Z</time></trkpt><trkpt lat="43.6256833" lon="11.51219"><ele>140.33333333333331</ele><time>2026-04-04T13:40:35.012Z</time></trkpt><trkpt lat="43.6256083" lon="11.5121283"><ele>140.16666666666666</ele><time>2026-04-04T13:40:36.012Z</time></trkpt><trkpt lat="43.6255433" lon="11.5120683"><ele>140.0</ele><time>2026-04-04T13:40:37.011Z</time></trkpt><trkpt lat="43.62548" lon="11.512005"><ele>140.0</ele><time>2026-04-04T13:40:38.012Z</time></trkpt><trkpt lat="43.6254133" lon="11.5119367"><ele>140.0</ele><time>2026-04-04T13:40:39.011Z</time></trkpt><trkpt lat="43.6253467" lon="11.5118683"><ele>140.0</ele><time>2026-04-04T13:40:40.014Z</time></trkpt><trkpt lat="43.62528" lon="11.5118"><ele>140.0</ele><time>2026-04-04T13:40:41.014Z</time></trkpt><trkpt lat="43.625215" lon="11.5117333"><ele>140.0</ele><time>2026-04-04T13:40:42.017Z</time></trkpt><trkpt lat="43.6251517" lon="11.5116667"><ele>140.0</ele><time>2026-04-04T13:40:43.012Z</time></trkpt><trkpt lat="43.6250867" lon="11.5116"><ele>139.66666666666666</ele><time>2026-04-04T13:40:44.013Z</time></trkpt><trkpt lat="43.6250217" lon="11.5115317"><ele>139.33333333333331</ele><time>2026-04-04T13:40:45.011Z</time></trkpt><trkpt lat="43.6249617" lon="11.5114617"><ele>139.0</ele><time>2026-04-04T13:40:46.01Z</time></trkpt><trkpt lat="43.6249033" lon="11.5113883"><ele>138.66666666666666</ele><time>2026-04-04T13:40:47.011Z</time></trkpt><trkpt lat="43.624845" lon="11.5113133"><ele>138.33333333333334</ele><time>2026-04-04T13:40:48.013Z</time></trkpt><trkpt lat="43.6247867" lon="11.5112367"><ele>138.0</ele><time>2026-04-04T13:40:49.012Z</time></trkpt><trkpt lat="43.624735" lon="11.5111517"><ele>138.0</ele><time>2026-04-04T13:40:50.012Z</time></trkpt><trkpt lat="43.6246933" lon="11.5110633"><ele>138.0</ele><time>2026-04-04T13:40:51.012Z</time></trkpt><trkpt lat="43.624655" lon="11.5109583"><ele>138.0</ele><time>2026-04-04T13:40:52.013Z</time></trkpt><trkpt lat="43.6246233" lon="11.510855"><ele>138.0</ele><time>2026-04-04T13:40:53.013Z</time></trkpt><trkpt lat="43.6245933" lon="11.51075"><ele>138.0</ele><time>2026-04-04T13:40:54.013Z</time></trkpt><trkpt lat="43.6245617" lon="11.510645"><ele>138.0</ele><time>2026-04-04T13:40:55.011Z</time></trkpt><trkpt lat="43.624535" lon="11.5105367"><ele>138.0</ele><time>2026-04-04T13:40:56.011Z</time></trkpt><trkpt lat="43.6245083" lon="11.5104317"><ele>138.0</ele><time>2026-04-04T13:40:57.013Z</time></trkpt><trkpt lat="43.6244833" lon="11.5103283"><ele>138.0</ele><time>2026-04-04T13:40:58.012Z</time></trkpt><trkpt lat="43.6244533" lon="11.5102217"><ele>138.0</ele><time>2026-04-04T13:40:59.011Z</time></trkpt><trkpt lat="43.6244267" lon="11.510115"><ele>138.0</ele><time>2026-04-04T13:41:00.013Z</time></trkpt><trkpt lat="43.6243983" lon="11.5100067"><ele>138.0</ele><time>2026-04-04T13:41:01.013Z</time></trkpt><trkpt lat="43.6243717" lon="11.5098983"><ele>137.83333333333334</ele><time>2026-04-04T13:41:02.012Z</time></trkpt><trkpt lat="43.6243433" lon="11.50979"><ele>137.66666666666666</ele><time>2026-04-04T13:41:03.014Z</time></trkpt><trkpt lat="43.6243117" lon="11.50968"><ele>137.5</ele><time>2026-04-04T13:41:04.012Z</time></trkpt><trkpt lat="43.624285" lon="11.5095733"><ele>137.33333333333331</ele><time>2026-04-04T13:41:05.012Z</time></trkpt><trkpt lat="43.6242583" lon="11.50946"><ele>137.16666666666666</ele><time>2026-04-04T13:41:06.011Z</time></trkpt><trkpt lat="43.6242317" lon="11.5093517"><ele>137.0</ele><time>2026-04-04T13:41:07.011Z</time></trkpt><trkpt lat="43.6242017" lon="11.5092417"><ele>136.83333333333331</ele><time>2026-04-04T13:41:08.013Z</time></trkpt><trkpt lat="43.624175" lon="11.5091383"><ele>136.66666666666666</ele><time>2026-04-04T13:41:09.011Z</time></trkpt><trkpt lat="43.624145" lon="11.5090317"><ele>136.5</ele><time>2026-04-04T13:41:10.013Z</time></trkpt><trkpt lat="43.624115" lon="11.5089217"><ele>136.33333333333334</ele><time>2026-04-04T13:41:11.013Z</time></trkpt><trkpt lat="43.62408" lon="11.5088117"><ele>136.16666666666669</ele><time>2026-04-04T13:41:12.013Z</time></trkpt><trkpt lat="43.6240517" lon="11.5087067"><ele>136.0</ele><time>2026-04-04T13:41:13.014Z</time></trkpt><trkpt lat="43.6240133" lon="11.5085967"><ele>135.83333333333334</ele><time>2026-04-04T13:41:14.011Z</time></trkpt><trkpt lat="43.62398" lon="11.5084933"><ele>135.66666666666669</ele><time>2026-04-04T13:41:15.012Z</time></trkpt><trkpt lat="43.6239367" lon="11.5083867"><ele>135.5</ele><time>2026-04-04T13:41:16.012Z</time></trkpt><trkpt lat="43.6238917" lon="11.5082833"><ele>135.33333333333334</ele><time>2026-04-04T13:41:17.011Z</time></trkpt><trkpt lat="43.6238467" lon="11.5081833"><ele>135.16666666666666</ele><time>2026-04-04T13:41:18.012Z</time></trkpt><trkpt lat="43.6238017" lon="11.5080817"><ele>135.0</ele><time>2026-04-04T13:41:19.012Z</time></trkpt><trkpt lat="43.6237517" lon="11.5079833"><ele>135.0</ele><time>2026-04-04T13:41:20.011Z</time></trkpt><trkpt lat="43.6237017" lon="11.5078933"><ele>135.0</ele><time>2026-04-04T13:41:21.012Z</time></trkpt><trkpt lat="43.6236483" lon="11.5078067"><ele>135.0</ele><time>2026-04-04T13:41:22.013Z</time></trkpt><trkpt lat="43.6235967" lon="11.5077267"><ele>135.0</ele><time>2026-04-04T13:41:23.011Z</time></trkpt><trkpt lat="43.6235417" lon="11.507645"><ele>135.0</ele><time>2026-04-04T13:41:24.011Z</time></trkpt><trkpt lat="43.6234833" lon="11.507565"><ele>135.0</ele><time>2026-04-04T13:41:25.012Z</time></trkpt><trkpt lat="43.6234233" lon="11.50749"><ele>134.66666666666666</ele><time>2026-04-04T13:41:26.013Z</time></trkpt><trkpt lat="43.62336" lon="11.507415"><ele>134.33333333333334</ele><time>2026-04-04T13:41:27.012Z</time></trkpt><trkpt lat="43.6232933" lon="11.507345"><ele>134.0</ele><time>2026-04-04T13:41:28.01Z</time></trkpt><trkpt lat="43.6232267" lon="11.507275"><ele>133.66666666666669</ele><time>2026-04-04T13:41:29.01Z</time></trkpt><trkpt lat="43.62316" lon="11.5072083"><ele>133.33333333333334</ele><time>2026-04-04T13:41:30.009Z</time></trkpt><trkpt lat="43.6230917" lon="11.507145"><ele>133.0</ele><time>2026-04-04T13:41:31.011Z</time></trkpt><trkpt lat="43.6230217" lon="11.5070833"><ele>133.16666666666669</ele><time>2026-04-04T13:41:32.012Z</time></trkpt><trkpt lat="43.6229517" lon="11.5070267"><ele>133.33333333333334</ele><time>2026-04-04T13:41:33.013Z</time></trkpt><trkpt lat="43.6228783" lon="11.5069683"><ele>133.5</ele><time>2026-04-04T13:41:34.013Z</time></trkpt><trkpt lat="43.622805" lon="11.5069183"><ele>133.66666666666666</ele><time>2026-04-04T13:41:35.01Z</time></trkpt><trkpt lat="43.6227317" lon="11.50687"><ele>133.83333333333331</ele><time>2026-04-04T13:41:36.012Z</time></trkpt><trkpt lat="43.62266" lon="11.50682"><ele>134.0</ele><time>2026-04-04T13:41:37.011Z</time></trkpt><trkpt lat="43.6225817" lon="11.506765"><ele>134.0</ele><time>2026-04-04T13:41:38.013Z</time></trkpt><trkpt lat="43.6225067" lon="11.506715"><ele>134.0</ele><time>2026-04-04T13:41:39.012Z</time></trkpt><trkpt lat="43.6224333" lon="11.5066667"><ele>134.0</ele><time>2026-04-04T13:41:40.01Z</time></trkpt><trkpt lat="43.62236" lon="11.506615"><ele>134.0</ele><time>2026-04-04T13:41:41.015Z</time></trkpt><trkpt lat="43.6222917" lon="11.5065617"><ele>134.0</ele><time>2026-04-04T13:41:42.01Z</time></trkpt><trkpt lat="43.6222183" lon="11.50651"><ele>134.0</ele><time>2026-04-04T13:41:43.011Z</time></trkpt><trkpt lat="43.6221483" lon="11.50646"><ele>134.0</ele><time>2026-04-04T13:41:44.01Z</time></trkpt><trkpt lat="43.6220733" lon="11.50641"><ele>134.0</ele><time>2026-04-04T13:41:45.01Z</time></trkpt><trkpt lat="43.6220017" lon="11.50636"><ele>134.0</ele><time>2026-04-04T13:41:46.012Z</time></trkpt><trkpt lat="43.6219283" lon="11.5063083"><ele>134.0</ele><time>2026-04-04T13:41:47.011Z</time></trkpt><trkpt lat="43.6218533" lon="11.5062583"><ele>134.0</ele><time>2026-04-04T13:41:48.012Z</time></trkpt><trkpt lat="43.6217833" lon="11.5062083"><ele>134.0</ele><time>2026-04-04T13:41:49.013Z</time></trkpt><trkpt lat="43.6217083" lon="11.506155"><ele>134.16666666666666</ele><time>2026-04-04T13:41:50.011Z</time></trkpt><trkpt lat="43.6216367" lon="11.506105"><ele>134.33333333333331</ele><time>2026-04-04T13:41:51.01Z</time></trkpt><trkpt lat="43.6215667" lon="11.5060533"><ele>134.5</ele><time>2026-04-04T13:41:52.011Z</time></trkpt><trkpt lat="43.6214933" lon="11.5059983"><ele>134.66666666666666</ele><time>2026-04-04T13:41:53.012Z</time></trkpt><trkpt lat="43.62142" lon="11.5059483"><ele>134.83333333333334</ele><time>2026-04-04T13:41:54.013Z</time></trkpt><trkpt lat="43.6213483" lon="11.5058967"><ele>135.0</ele><time>2026-04-04T13:41:55.012Z</time></trkpt><trkpt lat="43.6212767" lon="11.5058467"><ele>135.0</ele><time>2026-04-04T13:41:56.013Z</time></trkpt><trkpt lat="43.621205" lon="11.505795"><ele>135.0</ele><time>2026-04-04T13:41:57.011Z</time></trkpt><trkpt lat="43.621135" lon="11.505745"><ele>135.0</ele><time>2026-04-04T13:41:58.013Z</time></trkpt><trkpt lat="43.62106" lon="11.505695"><ele>135.0</ele><time>2026-04-04T13:41:59.012Z</time></trkpt><trkpt lat="43.6209883" lon="11.50565"><ele>135.0</ele><time>2026-04-04T13:42:00.012Z</time></trkpt><trkpt lat="43.620915" lon="11.505605"><ele>135.0</ele><time>2026-04-04T13:42:01.011Z</time></trkpt><trkpt lat="43.6208417" lon="11.5055633"><ele>134.66666666666666</ele><time>2026-04-04T13:42:02.011Z</time></trkpt><trkpt lat="43.6207633" lon="11.505525"><ele>134.33333333333334</ele><time>2026-04-04T13:42:03.012Z</time></trkpt><trkpt lat="43.620685" lon="11.50549"><ele>134.0</ele><time>2026-04-04T13:42:04.013Z</time></trkpt><trkpt lat="43.6206033" lon="11.5054583"><ele>133.66666666666669</ele><time>2026-04-04T13:42:05.011Z</time></trkpt><trkpt lat="43.6205233" lon="11.5054317"><ele>133.33333333333334</ele><time>2026-04-04T13:42:06.012Z</time></trkpt><trkpt lat="43.62044" lon="11.50541"><ele>133.0</ele><time>2026-04-04T13:42:07.012Z</time></trkpt><trkpt lat="43.620355" lon="11.5053933"><ele>133.5</ele><time>2026-04-04T13:42:08.012Z</time></trkpt><trkpt lat="43.6202717" lon="11.5053783"><ele>134.0</ele><time>2026-04-04T13:42:09.011Z</time></trkpt><trkpt lat="43.6201883" lon="11.5053667"><ele>134.5</ele><time>2026-04-04T13:42:10.012Z</time></trkpt><trkpt lat="43.620105" lon="11.5053583"><ele>135.0</ele><time>2026-04-04T13:42:11.012Z</time></trkpt><trkpt lat="43.6200183" lon="11.5053533"><ele>135.5</ele><time>2026-04-04T13:42:12.011Z</time></trkpt><trkpt lat="43.6199317" lon="11.50535"><ele>136.0</ele><time>2026-04-04T13:42:13.011Z</time></trkpt><trkpt lat="43.6198467" lon="11.5053517"><ele>136.0</ele><time>2026-04-04T13:42:14.013Z</time></trkpt><trkpt lat="43.61976" lon="11.5053567"><ele>136.0</ele><time>2026-04-04T13:42:15.014Z</time></trkpt><trkpt lat="43.6196767" lon="11.505365"><ele>136.0</ele><time>2026-04-04T13:42:16.012Z</time></trkpt><trkpt lat="43.61959" lon="11.5053733"><ele>136.0</ele><time>2026-04-04T13:42:17.011Z</time></trkpt><trkpt lat="43.619505" lon="11.50538"><ele>136.0</ele><time>2026-04-04T13:42:18.011Z</time></trkpt><trkpt lat="43.6194217" lon="11.5053867"><ele>136.0</ele><time>2026-04-04T13:42:19.01Z</time></trkpt><trkpt lat="43.6193367" lon="11.5053933"><ele>136.33333333333334</ele><time>2026-04-04T13:42:20.012Z</time></trkpt><trkpt lat="43.6192533" lon="11.5053967"><ele>136.66666666666669</ele><time>2026-04-04T13:42:21.012Z</time></trkpt><trkpt lat="43.6191667" lon="11.5054"><ele>137.0</ele><time>2026-04-04T13:42:22.012Z</time></trkpt><trkpt lat="43.6190833" lon="11.5054017"><ele>137.33333333333334</ele><time>2026-04-04T13:42:23.011Z</time></trkpt><trkpt lat="43.6190033" lon="11.5054"><ele>137.66666666666666</ele><time>2026-04-04T13:42:24.012Z</time></trkpt><trkpt lat="43.6189217" lon="11.5053917"><ele>138.0</ele><time>2026-04-04T13:42:25.012Z</time></trkpt><trkpt lat="43.6188333" lon="11.5053817"><ele>138.0</ele><time>2026-04-04T13:42:26.01Z</time></trkpt><trkpt lat="43.6187483" lon="11.5053683"><ele>138.0</ele><time>2026-04-04T13:42:27.011Z</time></trkpt><trkpt lat="43.618665" lon="11.5053533"><ele>138.0</ele><time>2026-04-04T13:42:28.012Z</time></trkpt><trkpt lat="43.618585" lon="11.505335"><ele>138.0</ele><time>2026-04-04T13:42:29.011Z</time></trkpt><trkpt lat="43.6185033" lon="11.5053083"><ele>138.0</ele><time>2026-04-04T13:42:30.011Z</time></trkpt><trkpt lat="43.6184233" lon="11.5052817"><ele>138.0</ele><time>2026-04-04T13:42:31.012Z</time></trkpt><trkpt lat="43.6183433" lon="11.505255"><ele>138.33333333333334</ele><time>2026-04-04T13:42:32.011Z</time></trkpt><trkpt lat="43.618265" lon="11.505225"><ele>138.66666666666666</ele><time>2026-04-04T13:42:33.011Z</time></trkpt><trkpt lat="43.6181883" lon="11.5051933"><ele>139.0</ele><time>2026-04-04T13:42:34.012Z</time></trkpt><trkpt lat="43.6181117" lon="11.50516"><ele>139.33333333333331</ele><time>2026-04-04T13:42:35.011Z</time></trkpt><trkpt lat="43.6180333" lon="11.5051283"><ele>139.66666666666666</ele><time>2026-04-04T13:42:36.01Z</time></trkpt><trkpt lat="43.6179567" lon="11.5050967"><ele>140.0</ele><time>2026-04-04T13:42:37.011Z</time></trkpt><trkpt lat="43.61788" lon="11.5050633"><ele>138.83333333333331</ele><time>2026-04-04T13:42:38.009Z</time></trkpt><trkpt lat="43.6178017" lon="11.505025"><ele>137.66666666666666</ele><time>2026-04-04T13:42:39.009Z</time></trkpt><trkpt lat="43.6177233" lon="11.5049883"><ele>136.5</ele><time>2026-04-04T13:42:40.01Z</time></trkpt><trkpt lat="43.6176467" lon="11.5049533"><ele>135.33333333333334</ele><time>2026-04-04T13:42:41.009Z</time></trkpt><trkpt lat="43.6175683" lon="11.5049133"><ele>134.16666666666669</ele><time>2026-04-04T13:42:42.009Z</time></trkpt><trkpt lat="43.61749" lon="11.5048767"><ele>133.0</ele><time>2026-04-04T13:42:43.01Z</time></trkpt><trkpt lat="43.6174067" lon="11.50484"><ele>133.0</ele><time>2026-04-04T13:42:44.011Z</time></trkpt><trkpt lat="43.6173183" lon="11.5048033"><ele>133.0</ele><time>2026-04-04T13:42:45.01Z</time></trkpt><trkpt lat="43.6172333" lon="11.504765"><ele>133.0</ele><time>2026-04-04T13:42:46.01Z</time></trkpt><trkpt lat="43.61715" lon="11.5047267"><ele>133.0</ele><time>2026-04-04T13:42:47.012Z</time></trkpt><trkpt lat="43.6170667" lon="11.5046933"><ele>133.0</ele><time>2026-04-04T13:42:48.011Z</time></trkpt><trkpt lat="43.6169833" lon="11.5046583"><ele>133.0</ele><time>2026-04-04T13:42:49.011Z</time></trkpt><trkpt lat="43.6169067" lon="11.504625"><ele>133.33333333333334</ele><time>2026-04-04T13:42:50.011Z</time></trkpt><trkpt lat="43.6168267" lon="11.5045917"><ele>133.66666666666669</ele><time>2026-04-04T13:42:51.012Z</time></trkpt><trkpt lat="43.616745" lon="11.5045567"><ele>134.0</ele><time>2026-04-04T13:42:52.01Z</time></trkpt><trkpt lat="43.616665" lon="11.5045217"><ele>134.33333333333334</ele><time>2026-04-04T13:42:53.011Z</time></trkpt><trkpt lat="43.616585" lon="11.5044817"><ele>134.66666666666666</ele><time>2026-04-04T13:42:54.011Z</time></trkpt><trkpt lat="43.616515" lon="11.5044433"><ele>135.0</ele><time>2026-04-04T13:42:55.012Z</time></trkpt><trkpt lat="43.6164333" lon="11.5044067"><ele>135.0</ele><time>2026-04-04T13:42:56.011Z</time></trkpt><trkpt lat="43.6163517" lon="11.5043717"><ele>135.0</ele><time>2026-04-04T13:42:57.012Z</time></trkpt><trkpt lat="43.6162767" lon="11.50433"><ele>135.0</ele><time>2026-04-04T13:42:58.012Z</time></trkpt><trkpt lat="43.6161967" lon="11.5042867"><ele>135.0</ele><time>2026-04-04T13:42:59.012Z</time></trkpt><trkpt lat="43.6161233" lon="11.5042383"><ele>135.0</ele><time>2026-04-04T13:43:00.012Z</time></trkpt><trkpt lat="43.6160567" lon="11.504185"><ele>135.0</ele><time>2026-04-04T13:43:01.012Z</time></trkpt><trkpt lat="43.6159817" lon="11.504125"><ele>134.16666666666666</ele><time>2026-04-04T13:43:02.011Z</time></trkpt><trkpt lat="43.6159033" lon="11.504065"><ele>133.33333333333334</ele><time>2026-04-04T13:43:03.012Z</time></trkpt><trkpt lat="43.6158267" lon="11.5040017"><ele>132.5</ele><time>2026-04-04T13:43:04.011Z</time></trkpt><trkpt lat="43.6157633" lon="11.5039333"><ele>131.66666666666669</ele><time>2026-04-04T13:43:05.012Z</time></trkpt><trkpt lat="43.6157017" lon="11.5038617"><ele>130.83333333333334</ele><time>2026-04-04T13:43:06.012Z</time></trkpt><trkpt lat="43.615635" lon="11.5037867"><ele>130.0</ele><time>2026-04-04T13:43:07.011Z</time></trkpt><trkpt lat="43.6155733" lon="11.5037083"><ele>130.0</ele><time>2026-04-04T13:43:08.01Z</time></trkpt><trkpt lat="43.615515" lon="11.5036267"><ele>130.0</ele><time>2026-04-04T13:43:09.01Z</time></trkpt><trkpt lat="43.6154483" lon="11.50354"><ele>130.0</ele><time>2026-04-04T13:43:10.01Z</time></trkpt><trkpt lat="43.615385" lon="11.50345"><ele>130.0</ele><time>2026-04-04T13:43:11.011Z</time></trkpt><trkpt lat="43.6153333" lon="11.5033567"><ele>130.0</ele><time>2026-04-04T13:43:12.011Z</time></trkpt><trkpt lat="43.6152833" lon="11.5032617"><ele>130.0</ele><time>2026-04-04T13:43:13.012Z</time></trkpt><trkpt lat="43.6152233" lon="11.503165"><ele>129.83333333333334</ele><time>2026-04-04T13:43:14.012Z</time></trkpt><trkpt lat="43.6151733" lon="11.503065"><ele>129.66666666666669</ele><time>2026-04-04T13:43:15.011Z</time></trkpt><trkpt lat="43.6151267" lon="11.5029633"><ele>129.5</ele><time>2026-04-04T13:43:16.011Z</time></trkpt><trkpt lat="43.6150833" lon="11.5028583"><ele>129.33333333333334</ele><time>2026-04-04T13:43:17.013Z</time></trkpt><trkpt lat="43.615045" lon="11.5027533"><ele>129.16666666666666</ele><time>2026-04-04T13:43:18.011Z</time></trkpt><trkpt lat="43.6150067" lon="11.5026433"><ele>129.0</ele><time>2026-04-04T13:43:19.014Z</time></trkpt><trkpt lat="43.6149783" lon="11.5025367"><ele>128.66666666666666</ele><time>2026-04-04T13:43:20.013Z</time></trkpt><trkpt lat="43.6149517" lon="11.50243"><ele>128.33333333333334</ele><time>2026-04-04T13:43:21.012Z</time></trkpt><trkpt lat="43.61493" lon="11.5023183"><ele>128.0</ele><time>2026-04-04T13:43:22.011Z</time></trkpt><trkpt lat="43.61491" lon="11.5022067"><ele>127.66666666666667</ele><time>2026-04-04T13:43:23.012Z</time></trkpt><trkpt lat="43.614895" lon="11.5020917"><ele>127.33333333333334</ele><time>2026-04-04T13:43:24.012Z</time></trkpt><trkpt lat="43.6148833" lon="11.5019767"><ele>127.0</ele><time>2026-04-04T13:43:25.013Z</time></trkpt><trkpt lat="43.614875" lon="11.50186"><ele>127.00000000000001</ele><time>2026-04-04T13:43:26.011Z</time></trkpt><trkpt lat="43.6148667" lon="11.5017433"><ele>127.0</ele><time>2026-04-04T13:43:27.012Z</time></trkpt><trkpt lat="43.6148617" lon="11.5016267"><ele>127.0</ele><time>2026-04-04T13:43:28.011Z</time></trkpt><trkpt lat="43.614855" lon="11.50151"><ele>127.0</ele><time>2026-04-04T13:43:29.01Z</time></trkpt><trkpt lat="43.6148567" lon="11.5013983"><ele>127.00000000000001</ele><time>2026-04-04T13:43:30.011Z</time></trkpt><trkpt lat="43.6148583" lon="11.501285"><ele>127.0</ele><time>2026-04-04T13:43:31.011Z</time></trkpt><trkpt lat="43.6148633" lon="11.5011717"><ele>126.83333333333334</ele><time>2026-04-04T13:43:32.01Z</time></trkpt><trkpt lat="43.6148733" lon="11.5010567"><ele>126.66666666666667</ele><time>2026-04-04T13:43:33.013Z</time></trkpt><trkpt lat="43.6148833" lon="11.5009467"><ele>126.5</ele><time>2026-04-04T13:43:34.01Z</time></trkpt><trkpt lat="43.614895" lon="11.500835"><ele>126.33333333333334</ele><time>2026-04-04T13:43:35.012Z</time></trkpt><trkpt lat="43.61491" lon="11.5007283"><ele>126.16666666666667</ele><time>2026-04-04T13:43:36.012Z</time></trkpt><trkpt lat="43.6149267" lon="11.5006217"><ele>126.0</ele><time>2026-04-04T13:43:37.013Z</time></trkpt><trkpt lat="43.6149383" lon="11.50052"><ele>126.0</ele><time>2026-04-04T13:43:38.012Z</time></trkpt><trkpt lat="43.6149417" lon="11.5004183"><ele>126.0</ele><time>2026-04-04T13:43:39.013Z</time></trkpt><trkpt lat="43.61493" lon="11.500325"><ele>126.0</ele><time>2026-04-04T13:43:40.013Z</time></trkpt><trkpt lat="43.6149033" lon="11.500235"><ele>126.0</ele><time>2026-04-04T13:43:41.014Z</time></trkpt><trkpt lat="43.6148667" lon="11.5001533"><ele>126.0</ele><time>2026-04-04T13:43:42.01Z</time></trkpt><trkpt lat="43.6148267" lon="11.5000817"><ele>126.0</ele><time>2026-04-04T13:43:43.012Z</time></trkpt><trkpt lat="43.61476" lon="11.4999833"><ele>126.0</ele><time>2026-04-04T13:43:45.01Z</time></trkpt><trkpt lat="43.6147067" lon="11.4999333"><ele>125.83333333333333</ele><time>2026-04-04T13:43:47.012Z</time></trkpt><trkpt lat="43.6146483" lon="11.4998967"><ele>125.66666666666666</ele><time>2026-04-04T13:44:02.014Z</time></trkpt><trkpt lat="43.6145783" lon="11.49989"><ele>125.5</ele><time>2026-04-04T13:44:05.011Z</time></trkpt><trkpt lat="43.6145133" lon="11.499915"><ele>125.33333333333333</ele><time>2026-04-04T13:44:07.012Z</time></trkpt><trkpt lat="43.614425" lon="11.499955"><ele>125.16666666666666</ele><time>2026-04-04T13:44:09.012Z</time></trkpt><trkpt lat="43.6143267" lon="11.500005"><ele>125.0</ele><time>2026-04-04T13:44:11.01Z</time></trkpt><trkpt lat="43.6142183" lon="11.5000633"><ele>124.8</ele><time>2026-04-04T13:44:13.012Z</time></trkpt><trkpt lat="43.61416" lon="11.5000967"><ele>124.6</ele><time>2026-04-04T13:44:14.012Z</time></trkpt><trkpt lat="43.61405" lon="11.5001567"><ele>124.4</ele><time>2026-04-04T13:44:16.011Z</time></trkpt><trkpt lat="43.61394" lon="11.5002067"><ele>124.2</ele><time>2026-04-04T13:44:18.011Z</time></trkpt><trkpt lat="43.61383" lon="11.5002633"><ele>124.0</ele><time>2026-04-04T13:44:20.011Z</time></trkpt><trkpt lat="43.6137183" lon="11.500315"><ele>124.33333333333334</ele><time>2026-04-04T13:44:22.011Z</time></trkpt><trkpt lat="43.6135983" lon="11.5003633"><ele>124.66666666666667</ele><time>2026-04-04T13:44:24.011Z</time></trkpt><trkpt lat="43.6135333" lon="11.5003883"><ele>125.0</ele><time>2026-04-04T13:44:25.012Z</time></trkpt><trkpt lat="43.613465" lon="11.5004067"><ele>125.33333333333334</ele><time>2026-04-04T13:44:26.014Z</time></trkpt><trkpt lat="43.6133917" lon="11.500435"><ele>125.66666666666667</ele><time>2026-04-04T13:44:27.012Z</time></trkpt><trkpt lat="43.6133167" lon="11.5004667"><ele>126.0</ele><time>2026-04-04T13:44:28.011Z</time></trkpt><trkpt lat="43.6132467" lon="11.5004917"><ele>126.0</ele><time>2026-04-04T13:44:29.011Z</time></trkpt><trkpt lat="43.6131683" lon="11.500515"><ele>126.0</ele><time>2026-04-04T13:44:30.012Z</time></trkpt><trkpt lat="43.613085" lon="11.5005383"><ele>126.0</ele><time>2026-04-04T13:44:31.012Z</time></trkpt><trkpt lat="43.613005" lon="11.5005667"><ele>126.0</ele><time>2026-04-04T13:44:32.012Z</time></trkpt><trkpt lat="43.6129117" lon="11.50059"><ele>126.0</ele><time>2026-04-04T13:44:33.012Z</time></trkpt><trkpt lat="43.6128267" lon="11.5006133"><ele>126.0</ele><time>2026-04-04T13:44:34.011Z</time></trkpt><trkpt lat="43.6127433" lon="11.50064"><ele>126.0</ele><time>2026-04-04T13:44:35.012Z</time></trkpt><trkpt lat="43.612665" lon="11.5006617"><ele>126.0</ele><time>2026-04-04T13:44:36.011Z</time></trkpt><trkpt lat="43.6125867" lon="11.5006817"><ele>126.0</ele><time>2026-04-04T13:44:37.013Z</time></trkpt><trkpt lat="43.6125033" lon="11.500705"><ele>126.0</ele><time>2026-04-04T13:44:38.011Z</time></trkpt><trkpt lat="43.6124217" lon="11.5007283"><ele>126.0</ele><time>2026-04-04T13:44:39.012Z</time></trkpt><trkpt lat="43.6123433" lon="11.5007517"><ele>126.0</ele><time>2026-04-04T13:44:40.012Z</time></trkpt><trkpt lat="43.61226" lon="11.500775"><ele>126.0</ele><time>2026-04-04T13:44:41.013Z</time></trkpt><trkpt lat="43.6121817" lon="11.5008"><ele>126.0</ele><time>2026-04-04T13:44:42.011Z</time></trkpt><trkpt lat="43.6121067" lon="11.5008217"><ele>126.0</ele><time>2026-04-04T13:44:43.011Z</time></trkpt><trkpt lat="43.6120317" lon="11.500845"><ele>126.0</ele><time>2026-04-04T13:44:44.011Z</time></trkpt><trkpt lat="43.6119567" lon="11.50087"><ele>126.0</ele><time>2026-04-04T13:44:45.013Z</time></trkpt><trkpt lat="43.6118783" lon="11.500895"><ele>126.0</ele><time>2026-04-04T13:44:46.012Z</time></trkpt><trkpt lat="43.6118" lon="11.5009233"><ele>125.66666666666667</ele><time>2026-04-04T13:44:47.012Z</time></trkpt><trkpt lat="43.6117217" lon="11.5009533"><ele>125.33333333333334</ele><time>2026-04-04T13:44:48.012Z</time></trkpt><trkpt lat="43.6116433" lon="11.50098"><ele>125.0</ele><time>2026-04-04T13:44:49.012Z</time></trkpt><trkpt lat="43.6115617" lon="11.501005"><ele>124.66666666666667</ele><time>2026-04-04T13:44:50.013Z</time></trkpt><trkpt lat="43.6114817" lon="11.5010333"><ele>124.33333333333334</ele><time>2026-04-04T13:44:51.011Z</time></trkpt><trkpt lat="43.6113983" lon="11.5010617"><ele>124.0</ele><time>2026-04-04T13:44:52.011Z</time></trkpt><trkpt lat="43.61132" lon="11.5010917"><ele>124.00000000000001</ele><time>2026-04-04T13:44:53.012Z</time></trkpt><trkpt lat="43.6112383" lon="11.501125"><ele>124.0</ele><time>2026-04-04T13:44:54.012Z</time></trkpt><trkpt lat="43.61115" lon="11.50116"><ele>124.0</ele><time>2026-04-04T13:44:55.014Z</time></trkpt><trkpt lat="43.6110733" lon="11.5012017"><ele>124.0</ele><time>2026-04-04T13:44:56.013Z</time></trkpt><trkpt lat="43.610995" lon="11.5012433"><ele>124.00000000000001</ele><time>2026-04-04T13:44:57.014Z</time></trkpt><trkpt lat="43.6109133" lon="11.5012817"><ele>124.0</ele><time>2026-04-04T13:44:58.011Z</time></trkpt><trkpt lat="43.610835" lon="11.50132"><ele>124.50000000000001</ele><time>2026-04-04T13:44:59.012Z</time></trkpt><trkpt lat="43.610755" lon="11.5013583"><ele>125.0</ele><time>2026-04-04T13:45:00.011Z</time></trkpt><trkpt lat="43.61067" lon="11.5013983"><ele>125.5</ele><time>2026-04-04T13:45:01.011Z</time></trkpt><trkpt lat="43.6105867" lon="11.5014333"><ele>126.0</ele><time>2026-04-04T13:45:02.011Z</time></trkpt><trkpt lat="43.6105067" lon="11.5014717"><ele>126.50000000000001</ele><time>2026-04-04T13:45:03.012Z</time></trkpt><trkpt lat="43.6104267" lon="11.50151"><ele>127.0</ele><time>2026-04-04T13:45:04.012Z</time></trkpt><trkpt lat="43.6103483" lon="11.5015467"><ele>126.83333333333334</ele><time>2026-04-04T13:45:05.012Z</time></trkpt><trkpt lat="43.61027" lon="11.5015833"><ele>126.66666666666667</ele><time>2026-04-04T13:45:06.011Z</time></trkpt><trkpt lat="43.61019" lon="11.5016233"><ele>126.5</ele><time>2026-04-04T13:45:07.011Z</time></trkpt><trkpt lat="43.61011" lon="11.5016617"><ele>126.33333333333334</ele><time>2026-04-04T13:45:08.012Z</time></trkpt><trkpt lat="43.6100317" lon="11.5017"><ele>126.16666666666667</ele><time>2026-04-04T13:45:09.012Z</time></trkpt><trkpt lat="43.6099583" lon="11.50174"><ele>126.0</ele><time>2026-04-04T13:45:10.013Z</time></trkpt><trkpt lat="43.6098833" lon="11.5017783"><ele>126.0</ele><time>2026-04-04T13:45:11.013Z</time></trkpt><trkpt lat="43.6097983" lon="11.5018167"><ele>126.0</ele><time>2026-04-04T13:45:12.011Z</time></trkpt><trkpt lat="43.6097117" lon="11.5018517"><ele>126.0</ele><time>2026-04-04T13:45:13.012Z</time></trkpt><trkpt lat="43.6096283" lon="11.5018883"><ele>126.0</ele><time>2026-04-04T13:45:14.012Z</time></trkpt><trkpt lat="43.6095483" lon="11.5019267"><ele>126.0</ele><time>2026-04-04T13:45:15.011Z</time></trkpt><trkpt lat="43.6094717" lon="11.5019667"><ele>126.0</ele><time>2026-04-04T13:45:16.013Z</time></trkpt><trkpt lat="43.609395" lon="11.50201"><ele>126.16666666666667</ele><time>2026-04-04T13:45:17.011Z</time></trkpt><trkpt lat="43.6093233" lon="11.5020517"><ele>126.33333333333334</ele><time>2026-04-04T13:45:18.012Z</time></trkpt><trkpt lat="43.6092483" lon="11.5021"><ele>126.5</ele><time>2026-04-04T13:45:19.012Z</time></trkpt><trkpt lat="43.6091783" lon="11.5021517"><ele>126.66666666666667</ele><time>2026-04-04T13:45:20.012Z</time></trkpt><trkpt lat="43.6091083" lon="11.5022133"><ele>126.83333333333334</ele><time>2026-04-04T13:45:21.012Z</time></trkpt><trkpt lat="43.6090433" lon="11.5022833"><ele>127.0</ele><time>2026-04-04T13:45:22.011Z</time></trkpt><trkpt lat="43.6089833" lon="11.5023583"><ele>127.00000000000001</ele><time>2026-04-04T13:45:23.012Z</time></trkpt><trkpt lat="43.6089233" lon="11.502435"><ele>127.0</ele><time>2026-04-04T13:45:24.012Z</time></trkpt><trkpt lat="43.608865" lon="11.5025117"><ele>127.0</ele><time>2026-04-04T13:45:25.012Z</time></trkpt><trkpt lat="43.6088067" lon="11.50259"><ele>127.0</ele><time>2026-04-04T13:45:26.013Z</time></trkpt><trkpt lat="43.608745" lon="11.5026567"><ele>127.00000000000001</ele><time>2026-04-04T13:45:27.011Z</time></trkpt><trkpt lat="43.6086767" lon="11.50272"><ele>127.0</ele><time>2026-04-04T13:45:28.011Z</time></trkpt><trkpt lat="43.6086133" lon="11.502785"><ele>127.00000000000001</ele><time>2026-04-04T13:45:29.012Z</time></trkpt><trkpt lat="43.60854" lon="11.5028467"><ele>127.0</ele><time>2026-04-04T13:45:30.01Z</time></trkpt><trkpt lat="43.60847" lon="11.5029067"><ele>127.0</ele><time>2026-04-04T13:45:31.012Z</time></trkpt><trkpt lat="43.608405" lon="11.50297"><ele>127.0</ele><time>2026-04-04T13:45:32.012Z</time></trkpt><trkpt lat="43.6083383" lon="11.50303"><ele>127.00000000000001</ele><time>2026-04-04T13:45:33.011Z</time></trkpt><trkpt lat="43.6082667" lon="11.5030867"><ele>127.0</ele><time>2026-04-04T13:45:34.011Z</time></trkpt><trkpt lat="43.6081967" lon="11.5031417"><ele>127.00000000000001</ele><time>2026-04-04T13:45:35.012Z</time></trkpt><trkpt lat="43.6081267" lon="11.5031983"><ele>127.0</ele><time>2026-04-04T13:45:36.011Z</time></trkpt><trkpt lat="43.6080567" lon="11.50325"><ele>127.0</ele><time>2026-04-04T13:45:37.011Z</time></trkpt><trkpt lat="43.6079867" lon="11.5033017"><ele>127.0</ele><time>2026-04-04T13:45:38.014Z</time></trkpt><trkpt lat="43.6079183" lon="11.5033467"><ele>127.00000000000001</ele><time>2026-04-04T13:45:39.012Z</time></trkpt><trkpt lat="43.6078467" lon="11.5033817"><ele>127.0</ele><time>2026-04-04T13:45:40.011Z</time></trkpt><trkpt lat="43.6077733" lon="11.5034067"><ele>127.42857142857143</ele><time>2026-04-04T13:45:41.013Z</time></trkpt><trkpt lat="43.6077" lon="11.503425"><ele>127.85714285714286</ele><time>2026-04-04T13:45:42.013Z</time></trkpt><trkpt lat="43.607625" lon="11.5034367"><ele>128.28571428571428</ele><time>2026-04-04T13:45:43.011Z</time></trkpt><trkpt lat="43.6075517" lon="11.50344"><ele>128.71428571428572</ele><time>2026-04-04T13:45:44.013Z</time></trkpt><trkpt lat="43.60748" lon="11.5034433"><ele>129.14285714285714</ele><time>2026-04-04T13:45:45.011Z</time></trkpt><trkpt lat="43.6074017" lon="11.503445"><ele>129.57142857142858</ele><time>2026-04-04T13:45:46.011Z</time></trkpt><trkpt lat="43.6073267" lon="11.5034483"><ele>130.0</ele><time>2026-04-04T13:45:47.012Z</time></trkpt><trkpt lat="43.60725" lon="11.5034567"><ele>130.0</ele><time>2026-04-04T13:45:48.011Z</time></trkpt><trkpt lat="43.6071717" lon="11.503465"><ele>130.0</ele><time>2026-04-04T13:45:49.011Z</time></trkpt><trkpt lat="43.6070933" lon="11.5034717"><ele>130.0</ele><time>2026-04-04T13:45:50.011Z</time></trkpt><trkpt lat="43.607015" lon="11.50348"><ele>130.0</ele><time>2026-04-04T13:45:51.012Z</time></trkpt><trkpt lat="43.606935" lon="11.5034917"><ele>130.0</ele><time>2026-04-04T13:45:52.012Z</time></trkpt><trkpt lat="43.6068583" lon="11.5035067"><ele>130.0</ele><time>2026-04-04T13:45:53.012Z</time></trkpt><trkpt lat="43.6067767" lon="11.5035283"><ele>129.83333333333334</ele><time>2026-04-04T13:45:54.012Z</time></trkpt><trkpt lat="43.6066967" lon="11.5035583"><ele>129.66666666666669</ele><time>2026-04-04T13:45:55.011Z</time></trkpt><trkpt lat="43.60662" lon="11.5035967"><ele>129.5</ele><time>2026-04-04T13:45:56.012Z</time></trkpt><trkpt lat="43.6065417" lon="11.5036433"><ele>129.33333333333334</ele><time>2026-04-04T13:45:57.011Z</time></trkpt><trkpt lat="43.606465" lon="11.5036917"><ele>129.16666666666666</ele><time>2026-04-04T13:45:58.011Z</time></trkpt><trkpt lat="43.6063883" lon="11.503745"><ele>129.0</ele><time>2026-04-04T13:45:59.013Z</time></trkpt><trkpt lat="43.606315" lon="11.5038"><ele>129.33333333333334</ele><time>2026-04-04T13:46:00.013Z</time></trkpt><trkpt lat="43.6062383" lon="11.5038617"><ele>129.66666666666666</ele><time>2026-04-04T13:46:01.011Z</time></trkpt><trkpt lat="43.6061617" lon="11.5039283"><ele>130.0</ele><time>2026-04-04T13:46:02.013Z</time></trkpt><trkpt lat="43.6060883" lon="11.5039933"><ele>130.33333333333331</ele><time>2026-04-04T13:46:03.011Z</time></trkpt><trkpt lat="43.606015" lon="11.5040617"><ele>130.66666666666666</ele><time>2026-04-04T13:46:04.012Z</time></trkpt><trkpt lat="43.605945" lon="11.504125"><ele>131.0</ele><time>2026-04-04T13:46:05.011Z</time></trkpt><trkpt lat="43.6058767" lon="11.5041867"><ele>131.0</ele><time>2026-04-04T13:46:06.012Z</time></trkpt><trkpt lat="43.6058083" lon="11.5042533"><ele>131.0</ele><time>2026-04-04T13:46:07.012Z</time></trkpt><trkpt lat="43.6057433" lon="11.50433"><ele>131.0</ele><time>2026-04-04T13:46:08.013Z</time></trkpt><trkpt lat="43.6056783" lon="11.5044117"><ele>131.0</ele><time>2026-04-04T13:46:09.012Z</time></trkpt><trkpt lat="43.6056117" lon="11.504495"><ele>131.0</ele><time>2026-04-04T13:46:10.011Z</time></trkpt><trkpt lat="43.6055483" lon="11.5045733"><ele>131.0</ele><time>2026-04-04T13:46:11.012Z</time></trkpt><trkpt lat="43.6054867" lon="11.5046517"><ele>130.5</ele><time>2026-04-04T13:46:12.011Z</time></trkpt><trkpt lat="43.6054233" lon="11.5047283"><ele>130.0</ele><time>2026-04-04T13:46:13.01Z</time></trkpt><trkpt lat="43.6053583" lon="11.5048183"><ele>129.5</ele><time>2026-04-04T13:46:14.01Z</time></trkpt><trkpt lat="43.605295" lon="11.5049017"><ele>129.0</ele><time>2026-04-04T13:46:15.011Z</time></trkpt><trkpt lat="43.605235" lon="11.5049867"><ele>128.5</ele><time>2026-04-04T13:46:16.011Z</time></trkpt><trkpt lat="43.6051767" lon="11.5050633"><ele>128.0</ele><time>2026-04-04T13:46:17.012Z</time></trkpt><trkpt lat="43.6051167" lon="11.505145"><ele>127.99999999999999</ele><time>2026-04-04T13:46:18.011Z</time></trkpt><trkpt lat="43.60506" lon="11.5052233"><ele>128.0</ele><time>2026-04-04T13:46:19.01Z</time></trkpt><trkpt lat="43.6050017" lon="11.5053033"><ele>128.0</ele><time>2026-04-04T13:46:20.011Z</time></trkpt><trkpt lat="43.6049467" lon="11.5053833"><ele>128.0</ele><time>2026-04-04T13:46:21.011Z</time></trkpt><trkpt lat="43.6048883" lon="11.5054683"><ele>127.99999999999999</ele><time>2026-04-04T13:46:22.01Z</time></trkpt><trkpt lat="43.60483" lon="11.5055467"><ele>128.0</ele><time>2026-04-04T13:46:23.011Z</time></trkpt><trkpt lat="43.6047767" lon="11.50562"><ele>127.66666666666666</ele><time>2026-04-04T13:46:24.011Z</time></trkpt><trkpt lat="43.6047267" lon="11.5056967"><ele>127.33333333333333</ele><time>2026-04-04T13:46:25.01Z</time></trkpt><trkpt lat="43.60467" lon="11.505775"><ele>127.0</ele><time>2026-04-04T13:46:26.012Z</time></trkpt><trkpt lat="43.604615" lon="11.5058583"><ele>126.66666666666666</ele><time>2026-04-04T13:46:27.011Z</time></trkpt><trkpt lat="43.6045583" lon="11.5059417"><ele>126.33333333333333</ele><time>2026-04-04T13:46:28.011Z</time></trkpt><trkpt lat="43.6045017" lon="11.5060267"><ele>126.0</ele><time>2026-04-04T13:46:29.012Z</time></trkpt><trkpt lat="43.60444" lon="11.506115"><ele>126.0</ele><time>2026-04-04T13:46:30.012Z</time></trkpt><trkpt lat="43.6043867" lon="11.5062067"><ele>126.0</ele><time>2026-04-04T13:46:31.011Z</time></trkpt><trkpt lat="43.60434" lon="11.506295"><ele>126.0</ele><time>2026-04-04T13:46:32.012Z</time></trkpt><trkpt lat="43.6043017" lon="11.5063883"><ele>126.0</ele><time>2026-04-04T13:46:33.011Z</time></trkpt><trkpt lat="43.6042683" lon="11.5064867"><ele>126.0</ele><time>2026-04-04T13:46:34.012Z</time></trkpt><trkpt lat="43.6042417" lon="11.5065917"><ele>126.0</ele><time>2026-04-04T13:46:35.011Z</time></trkpt><trkpt lat="43.6042167" lon="11.5066933"><ele>126.33333333333333</ele><time>2026-04-04T13:46:36.011Z</time></trkpt><trkpt lat="43.6041917" lon="11.5067967"><ele>126.66666666666666</ele><time>2026-04-04T13:46:37.012Z</time></trkpt><trkpt lat="43.60417" lon="11.5069017"><ele>127.0</ele><time>2026-04-04T13:46:38.011Z</time></trkpt><trkpt lat="43.6041483" lon="11.5070117"><ele>127.33333333333333</ele><time>2026-04-04T13:46:39.012Z</time></trkpt><trkpt lat="43.6041283" lon="11.5071217"><ele>127.66666666666666</ele><time>2026-04-04T13:46:40.011Z</time></trkpt><trkpt lat="43.6041067" lon="11.5072333"><ele>128.0</ele><time>2026-04-04T13:46:41.011Z</time></trkpt><trkpt lat="43.60409" lon="11.50734"><ele>128.5</ele><time>2026-04-04T13:46:42.011Z</time></trkpt><trkpt lat="43.6040717" lon="11.507445"><ele>129.0</ele><time>2026-04-04T13:46:43.012Z</time></trkpt><trkpt lat="43.6040483" lon="11.5075533"><ele>129.5</ele><time>2026-04-04T13:46:44.011Z</time></trkpt><trkpt lat="43.6040283" lon="11.5076567"><ele>130.0</ele><time>2026-04-04T13:46:45.011Z</time></trkpt><trkpt lat="43.6040033" lon="11.5077667"><ele>130.5</ele><time>2026-04-04T13:46:46.01Z</time></trkpt><trkpt lat="43.6039783" lon="11.5078717"><ele>131.0</ele><time>2026-04-04T13:46:47.012Z</time></trkpt><trkpt lat="43.6039517" lon="11.507985"><ele>131.16666666666666</ele><time>2026-04-04T13:46:48.011Z</time></trkpt><trkpt lat="43.6039233" lon="11.508095"><ele>131.33333333333331</ele><time>2026-04-04T13:46:49.013Z</time></trkpt><trkpt lat="43.603895" lon="11.5082033"><ele>131.5</ele><time>2026-04-04T13:46:50.011Z</time></trkpt><trkpt lat="43.6038617" lon="11.508305"><ele>131.66666666666666</ele><time>2026-04-04T13:46:51.01Z</time></trkpt><trkpt lat="43.603825" lon="11.5084133"><ele>131.83333333333334</ele><time>2026-04-04T13:46:52.01Z</time></trkpt><trkpt lat="43.6037833" lon="11.5085133"><ele>132.0</ele><time>2026-04-04T13:46:53.011Z</time></trkpt><trkpt lat="43.6037383" lon="11.50861"><ele>132.0</ele><time>2026-04-04T13:46:54.011Z</time></trkpt><trkpt lat="43.6036883" lon="11.508705"><ele>132.0</ele><time>2026-04-04T13:46:55.012Z</time></trkpt><trkpt lat="43.6036333" lon="11.5087883"><ele>132.0</ele><time>2026-04-04T13:46:56.011Z</time></trkpt><trkpt lat="43.60357" lon="11.50887"><ele>132.0</ele><time>2026-04-04T13:46:57.013Z</time></trkpt><trkpt lat="43.6035033" lon="11.5089467"><ele>132.0</ele><time>2026-04-04T13:46:58.011Z</time></trkpt><trkpt lat="43.60344" lon="11.5090217"><ele>132.0</ele><time>2026-04-04T13:46:59.011Z</time></trkpt><trkpt lat="43.6033783" lon="11.5090983"><ele>131.66666666666666</ele><time>2026-04-04T13:47:00.011Z</time></trkpt><trkpt lat="43.6033183" lon="11.509175"><ele>131.33333333333334</ele><time>2026-04-04T13:47:01.011Z</time></trkpt><trkpt lat="43.603265" lon="11.5092417"><ele>131.0</ele><time>2026-04-04T13:47:02.011Z</time></trkpt><trkpt lat="43.6032083" lon="11.50933"><ele>130.66666666666669</ele><time>2026-04-04T13:47:03.011Z</time></trkpt><trkpt lat="43.6031617" lon="11.50942"><ele>130.33333333333334</ele><time>2026-04-04T13:47:04.011Z</time></trkpt><trkpt lat="43.60312" lon="11.509515"><ele>130.0</ele><time>2026-04-04T13:47:05.011Z</time></trkpt><trkpt lat="43.60308" lon="11.509615"><ele>131.0</ele><time>2026-04-04T13:47:06.01Z</time></trkpt><trkpt lat="43.60304" lon="11.5097083"><ele>132.0</ele><time>2026-04-04T13:47:07.011Z</time></trkpt><trkpt lat="43.603005" lon="11.509805"><ele>133.0</ele><time>2026-04-04T13:47:08.012Z</time></trkpt><trkpt lat="43.6029667" lon="11.50991"><ele>134.0</ele><time>2026-04-04T13:47:09.012Z</time></trkpt><trkpt lat="43.6029267" lon="11.5100067"><ele>135.0</ele><time>2026-04-04T13:47:10.01Z</time></trkpt><trkpt lat="43.6028883" lon="11.510105"><ele>136.0</ele><time>2026-04-04T13:47:11.011Z</time></trkpt><trkpt lat="43.6028483" lon="11.510195"><ele>135.16666666666669</ele><time>2026-04-04T13:47:12.011Z</time></trkpt><trkpt lat="43.6028033" lon="11.5102867"><ele>134.33333333333334</ele><time>2026-04-04T13:47:13.011Z</time></trkpt><trkpt lat="43.6027517" lon="11.510395"><ele>133.5</ele><time>2026-04-04T13:47:14.011Z</time></trkpt><trkpt lat="43.6026917" lon="11.51047"><ele>132.66666666666666</ele><time>2026-04-04T13:47:15.012Z</time></trkpt><trkpt lat="43.6026233" lon="11.510535"><ele>131.83333333333331</ele><time>2026-04-04T13:47:16.012Z</time></trkpt><trkpt lat="43.6025517" lon="11.5105933"><ele>131.0</ele><time>2026-04-04T13:47:17.013Z</time></trkpt><trkpt lat="43.6024783" lon="11.5106483"><ele>131.0</ele><time>2026-04-04T13:47:18.011Z</time></trkpt><trkpt lat="43.6024067" lon="11.510705"><ele>131.0</ele><time>2026-04-04T13:47:19.011Z</time></trkpt><trkpt lat="43.6023367" lon="11.5107617"><ele>131.0</ele><time>2026-04-04T13:47:20.011Z</time></trkpt><trkpt lat="43.6022667" lon="11.5108117"><ele>131.0</ele><time>2026-04-04T13:47:21.01Z</time></trkpt><trkpt lat="43.6021933" lon="11.5108683"><ele>131.0</ele><time>2026-04-04T13:47:22.01Z</time></trkpt><trkpt lat="43.602125" lon="11.5109267"><ele>131.0</ele><time>2026-04-04T13:47:23.012Z</time></trkpt><trkpt lat="43.6020517" lon="11.5109833"><ele>131.16666666666666</ele><time>2026-04-04T13:47:24.011Z</time></trkpt><trkpt lat="43.6019783" lon="11.5110367"><ele>131.33333333333331</ele><time>2026-04-04T13:47:25.01Z</time></trkpt><trkpt lat="43.6019067" lon="11.5110933"><ele>131.5</ele><time>2026-04-04T13:47:26.013Z</time></trkpt><trkpt lat="43.601835" lon="11.51115"><ele>131.66666666666666</ele><time>2026-04-04T13:47:27.01Z</time></trkpt><trkpt lat="43.601765" lon="11.5112117"><ele>131.83333333333334</ele><time>2026-04-04T13:47:28.012Z</time></trkpt><trkpt lat="43.6016983" lon="11.5112683"><ele>132.0</ele><time>2026-04-04T13:47:29.01Z</time></trkpt><trkpt lat="43.6016283" lon="11.5113217"><ele>132.0</ele><time>2026-04-04T13:47:30.011Z</time></trkpt><trkpt lat="43.6015567" lon="11.5113767"><ele>132.0</ele><time>2026-04-04T13:47:31.011Z</time></trkpt><trkpt lat="43.60148" lon="11.5114317"><ele>132.0</ele><time>2026-04-04T13:47:32.011Z</time></trkpt><trkpt lat="43.6014067" lon="11.5114867"><ele>132.0</ele><time>2026-04-04T13:47:33.01Z</time></trkpt><trkpt lat="43.6013367" lon="11.5115417"><ele>132.0</ele><time>2026-04-04T13:47:34.01Z</time></trkpt><trkpt lat="43.60127" lon="11.5115983"><ele>132.0</ele><time>2026-04-04T13:47:35.013Z</time></trkpt><trkpt lat="43.6012017" lon="11.5116617"><ele>132.33333333333334</ele><time>2026-04-04T13:47:36.012Z</time></trkpt><trkpt lat="43.601135" lon="11.5117333"><ele>132.66666666666666</ele><time>2026-04-04T13:47:37.013Z</time></trkpt><trkpt lat="43.601075" lon="11.5118033"><ele>133.0</ele><time>2026-04-04T13:47:38.012Z</time></trkpt><trkpt lat="43.6010167" lon="11.5118817"><ele>133.33333333333331</ele><time>2026-04-04T13:47:39.012Z</time></trkpt><trkpt lat="43.60096" lon="11.5119583"><ele>133.66666666666666</ele><time>2026-04-04T13:47:40.011Z</time></trkpt><trkpt lat="43.6009017" lon="11.5120383"><ele>134.0</ele><time>2026-04-04T13:47:41.01Z</time></trkpt><trkpt lat="43.600845" lon="11.51211"><ele>134.0</ele><time>2026-04-04T13:47:42.011Z</time></trkpt><trkpt lat="43.6007867" lon="11.51218"><ele>134.0</ele><time>2026-04-04T13:47:43.011Z</time></trkpt><trkpt lat="43.6007283" lon="11.51226"><ele>134.0</ele><time>2026-04-04T13:47:44.011Z</time></trkpt><trkpt lat="43.6006717" lon="11.5123367"><ele>134.0</ele><time>2026-04-04T13:47:45.011Z</time></trkpt><trkpt lat="43.6006167" lon="11.51241"><ele>134.0</ele><time>2026-04-04T13:47:46.01Z</time></trkpt><trkpt lat="43.6005617" lon="11.512485"><ele>134.0</ele><time>2026-04-04T13:47:47.011Z</time></trkpt><trkpt lat="43.6005033" lon="11.5125583"><ele>134.0</ele><time>2026-04-04T13:47:48.011Z</time></trkpt><trkpt lat="43.6004433" lon="11.51262"><ele>134.0</ele><time>2026-04-04T13:47:49.012Z</time></trkpt><trkpt lat="43.60038" lon="11.5126817"><ele>134.0</ele><time>2026-04-04T13:47:50.011Z</time></trkpt><trkpt lat="43.600315" lon="11.512745"><ele>134.0</ele><time>2026-04-04T13:47:51.011Z</time></trkpt><trkpt lat="43.6002517" lon="11.51281"><ele>134.0</ele><time>2026-04-04T13:47:52.012Z</time></trkpt><trkpt lat="43.60019" lon="11.5128717"><ele>134.0</ele><time>2026-04-04T13:47:53.011Z</time></trkpt><trkpt lat="43.600125" lon="11.512935"><ele>134.16666666666666</ele><time>2026-04-04T13:47:54.012Z</time></trkpt><trkpt lat="43.6000617" lon="11.5129967"><ele>134.33333333333331</ele><time>2026-04-04T13:47:55.01Z</time></trkpt><trkpt lat="43.5999983" lon="11.51306"><ele>134.5</ele><time>2026-04-04T13:47:56.013Z</time></trkpt><trkpt lat="43.599935" lon="11.5131183"><ele>134.66666666666666</ele><time>2026-04-04T13:47:57.012Z</time></trkpt><trkpt lat="43.5998717" lon="11.51318"><ele>134.83333333333334</ele><time>2026-04-04T13:47:58.012Z</time></trkpt><trkpt lat="43.5998083" lon="11.51324"><ele>135.0</ele><time>2026-04-04T13:47:59.012Z</time></trkpt><trkpt lat="43.5997517" lon="11.5132917"><ele>135.0</ele><time>2026-04-04T13:48:00.01Z</time></trkpt><trkpt lat="43.599695" lon="11.5133467"><ele>135.0</ele><time>2026-04-04T13:48:01.011Z</time></trkpt><trkpt lat="43.5996333" lon="11.5134"><ele>135.0</ele><time>2026-04-04T13:48:02.01Z</time></trkpt><trkpt lat="43.5995717" lon="11.5134617"><ele>135.0</ele><time>2026-04-04T13:48:03.011Z</time></trkpt><trkpt lat="43.5995117" lon="11.5135267"><ele>135.0</ele><time>2026-04-04T13:48:04.012Z</time></trkpt><trkpt lat="43.59945" lon="11.5135917"><ele>135.0</ele><time>2026-04-04T13:48:05.011Z</time></trkpt><trkpt lat="43.59939" lon="11.51365"><ele>135.0</ele><time>2026-04-04T13:48:06.011Z</time></trkpt><trkpt lat="43.5993317" lon="11.5137083"><ele>135.28571428571428</ele><time>2026-04-04T13:48:07.011Z</time></trkpt><trkpt lat="43.5992683" lon="11.5137533"><ele>135.57142857142856</ele><time>2026-04-04T13:48:08.013Z</time></trkpt><trkpt lat="43.5992067" lon="11.5138033"><ele>135.85714285714286</ele><time>2026-04-04T13:48:09.011Z</time></trkpt><trkpt lat="43.5991417" lon="11.513855"><ele>136.14285714285714</ele><time>2026-04-04T13:48:10.011Z</time></trkpt><trkpt lat="43.5990783" lon="11.5139033"><ele>136.42857142857144</ele><time>2026-04-04T13:48:11.012Z</time></trkpt><trkpt lat="43.59901" lon="11.5139583"><ele>136.71428571428572</ele><time>2026-04-04T13:48:12.012Z</time></trkpt><trkpt lat="43.59894" lon="11.5140083"><ele>137.0</ele><time>2026-04-04T13:48:13.013Z</time></trkpt><trkpt lat="43.598865" lon="11.5140633"><ele>137.0</ele><time>2026-04-04T13:48:14.011Z</time></trkpt><trkpt lat="43.59879" lon="11.5141117"><ele>137.0</ele><time>2026-04-04T13:48:15.01Z</time></trkpt><trkpt lat="43.5987117" lon="11.514155"><ele>137.0</ele><time>2026-04-04T13:48:16.012Z</time></trkpt><trkpt lat="43.598635" lon="11.5142033"><ele>137.0</ele><time>2026-04-04T13:48:17.011Z</time></trkpt><trkpt lat="43.59856" lon="11.514255"><ele>137.0</ele><time>2026-04-04T13:48:18.01Z</time></trkpt><trkpt lat="43.59849" lon="11.5143133"><ele>137.0</ele><time>2026-04-04T13:48:19.013Z</time></trkpt><trkpt lat="43.598425" lon="11.5143817"><ele>136.83333333333331</ele><time>2026-04-04T13:48:20.012Z</time></trkpt><trkpt lat="43.5983533" lon="11.51445"><ele>136.66666666666666</ele><time>2026-04-04T13:48:21.012Z</time></trkpt><trkpt lat="43.5982883" lon="11.5145133"><ele>136.5</ele><time>2026-04-04T13:48:22.01Z</time></trkpt><trkpt lat="43.5982283" lon="11.5145817"><ele>136.33333333333334</ele><time>2026-04-04T13:48:23.011Z</time></trkpt><trkpt lat="43.5981583" lon="11.5146483"><ele>136.16666666666669</ele><time>2026-04-04T13:48:24.016Z</time></trkpt><trkpt lat="43.59809" lon="11.5147083"><ele>136.0</ele><time>2026-04-04T13:48:25.013Z</time></trkpt><trkpt lat="43.598025" lon="11.5147783"><ele>136.0</ele><time>2026-04-04T13:48:26.011Z</time></trkpt><trkpt lat="43.5979567" lon="11.514845"><ele>136.0</ele><time>2026-04-04T13:48:27.011Z</time></trkpt><trkpt lat="43.5978883" lon="11.5149133"><ele>136.0</ele><time>2026-04-04T13:48:28.01Z</time></trkpt><trkpt lat="43.5978167" lon="11.5149817"><ele>136.0</ele><time>2026-04-04T13:48:29.011Z</time></trkpt><trkpt lat="43.59775" lon="11.5150517"><ele>136.0</ele><time>2026-04-04T13:48:30.011Z</time></trkpt><trkpt lat="43.5976867" lon="11.51512"><ele>136.0</ele><time>2026-04-04T13:48:31.011Z</time></trkpt><trkpt lat="43.5976183" lon="11.5151833"><ele>135.5</ele><time>2026-04-04T13:48:32.012Z</time></trkpt><trkpt lat="43.5975483" lon="11.5152433"><ele>135.0</ele><time>2026-04-04T13:48:33.012Z</time></trkpt><trkpt lat="43.5974767" lon="11.515305"><ele>134.5</ele><time>2026-04-04T13:48:34.011Z</time></trkpt><trkpt lat="43.5974017" lon="11.51537"><ele>134.0</ele><time>2026-04-04T13:48:35.011Z</time></trkpt><trkpt lat="43.5973317" lon="11.515435"><ele>133.5</ele><time>2026-04-04T13:48:36.012Z</time></trkpt><trkpt lat="43.5972667" lon="11.5154933"><ele>133.0</ele><time>2026-04-04T13:48:37.012Z</time></trkpt><trkpt lat="43.5971917" lon="11.5155533"><ele>134.0</ele><time>2026-04-04T13:48:38.011Z</time></trkpt><trkpt lat="43.5971183" lon="11.515615"><ele>135.0</ele><time>2026-04-04T13:48:39.012Z</time></trkpt><trkpt lat="43.597045" lon="11.5156817"><ele>136.0</ele><time>2026-04-04T13:48:40.013Z</time></trkpt><trkpt lat="43.596975" lon="11.515745"><ele>137.0</ele><time>2026-04-04T13:48:41.011Z</time></trkpt><trkpt lat="43.5969067" lon="11.5158167"><ele>138.0</ele><time>2026-04-04T13:48:42.011Z</time></trkpt><trkpt lat="43.596835" lon="11.5158783"><ele>139.0</ele><time>2026-04-04T13:48:43.01Z</time></trkpt><trkpt lat="43.5967633" lon="11.5159433"><ele>139.0</ele><time>2026-04-04T13:48:44.012Z</time></trkpt><trkpt lat="43.5966933" lon="11.5160083"><ele>139.0</ele><time>2026-04-04T13:48:45.012Z</time></trkpt><trkpt lat="43.5966217" lon="11.5160733"><ele>139.0</ele><time>2026-04-04T13:48:46.011Z</time></trkpt><trkpt lat="43.5965483" lon="11.5161367"><ele>139.0</ele><time>2026-04-04T13:48:47.011Z</time></trkpt><trkpt lat="43.5964733" lon="11.5161983"><ele>139.0</ele><time>2026-04-04T13:48:48.012Z</time></trkpt><trkpt lat="43.5964" lon="11.5162517"><ele>139.0</ele><time>2026-04-04T13:48:49.011Z</time></trkpt><trkpt lat="43.596325" lon="11.516295"><ele>139.0</ele><time>2026-04-04T13:48:50.012Z</time></trkpt><trkpt lat="43.5962517" lon="11.516335"><ele>139.0</ele><time>2026-04-04T13:48:51.015Z</time></trkpt><trkpt lat="43.5961783" lon="11.516375"><ele>139.0</ele><time>2026-04-04T13:48:52.011Z</time></trkpt><trkpt lat="43.596105" lon="11.5164083"><ele>139.0</ele><time>2026-04-04T13:48:53.011Z</time></trkpt><trkpt lat="43.596025" lon="11.5164483"><ele>139.0</ele><time>2026-04-04T13:48:54.011Z</time></trkpt><trkpt lat="43.59595" lon="11.5164867"><ele>139.0</ele><time>2026-04-04T13:48:55.011Z</time></trkpt><trkpt lat="43.59588" lon="11.5165267"><ele>139.0</ele><time>2026-04-04T13:48:56.011Z</time></trkpt><trkpt lat="43.59579" lon="11.5165533"><ele>139.0</ele><time>2026-04-04T13:48:57.011Z</time></trkpt><trkpt lat="43.595715" lon="11.5165717"><ele>139.0</ele><time>2026-04-04T13:48:58.014Z</time></trkpt><trkpt lat="43.5956367" lon="11.5165917"><ele>139.0</ele><time>2026-04-04T13:48:59.011Z</time></trkpt><trkpt lat="43.59556" lon="11.5166017"><ele>139.0</ele><time>2026-04-04T13:49:00.011Z</time></trkpt><trkpt lat="43.5954833" lon="11.5166067"><ele>139.0</ele><time>2026-04-04T13:49:01.013Z</time></trkpt><trkpt lat="43.59541" lon="11.51661"><ele>139.0</ele><time>2026-04-04T13:49:02.013Z</time></trkpt><trkpt lat="43.5953433" lon="11.5166133"><ele>139.0</ele><time>2026-04-04T13:49:03.01Z</time></trkpt><trkpt lat="43.5952717" lon="11.5166167"><ele>139.0</ele><time>2026-04-04T13:49:04.012Z</time></trkpt><trkpt lat="43.595195" lon="11.5166217"><ele>139.0</ele><time>2026-04-04T13:49:05.011Z</time></trkpt><trkpt lat="43.5951167" lon="11.5166283"><ele>139.0</ele><time>2026-04-04T13:49:06.011Z</time></trkpt><trkpt lat="43.5950367" lon="11.51664"><ele>139.0</ele><time>2026-04-04T13:49:07.012Z</time></trkpt><trkpt lat="43.5949483" lon="11.5166567"><ele>138.6</ele><time>2026-04-04T13:49:08.012Z</time></trkpt><trkpt lat="43.5948567" lon="11.5166767"><ele>138.2</ele><time>2026-04-04T13:49:09.012Z</time></trkpt><trkpt lat="43.594765" lon="11.516695"><ele>137.79999999999998</ele><time>2026-04-04T13:49:10.012Z</time></trkpt><trkpt lat="43.5946683" lon="11.5167083"><ele>137.4</ele><time>2026-04-04T13:49:11.012Z</time></trkpt><trkpt lat="43.5945683" lon="11.5167183"><ele>137.0</ele><time>2026-04-04T13:49:12.013Z</time></trkpt><trkpt lat="43.5944633" lon="11.5167233"><ele>136.4</ele><time>2026-04-04T13:49:13.01Z</time></trkpt><trkpt lat="43.5943517" lon="11.5167183"><ele>135.79999999999998</ele><time>2026-04-04T13:49:14.012Z</time></trkpt><trkpt lat="43.5942467" lon="11.5167017"><ele>135.2</ele><time>2026-04-04T13:49:15.011Z</time></trkpt><trkpt lat="43.5941467" lon="11.51668"><ele>134.6</ele><time>2026-04-04T13:49:16.012Z</time></trkpt><trkpt lat="43.59406" lon="11.5166583"><ele>134.0</ele><time>2026-04-04T13:49:17.012Z</time></trkpt><trkpt lat="43.59397" lon="11.5166267"><ele>134.0</ele><time>2026-04-04T13:49:18.012Z</time></trkpt><trkpt lat="43.5938767" lon="11.51658"><ele>134.0</ele><time>2026-04-04T13:49:19.013Z</time></trkpt><trkpt lat="43.5937883" lon="11.5165233"><ele>134.0</ele><time>2026-04-04T13:49:20.013Z</time></trkpt><trkpt lat="43.5937017" lon="11.51646"><ele>134.0</ele><time>2026-04-04T13:49:21.012Z</time></trkpt><trkpt lat="43.5936133" lon="11.5163967"><ele>134.0</ele><time>2026-04-04T13:49:22.01Z</time></trkpt><trkpt lat="43.5935267" lon="11.5163383"><ele>133.6</ele><time>2026-04-04T13:49:23.014Z</time></trkpt><trkpt lat="43.5934333" lon="11.5162933"><ele>133.2</ele><time>2026-04-04T13:49:24.014Z</time></trkpt><trkpt lat="43.5933367" lon="11.51627"><ele>132.79999999999998</ele><time>2026-04-04T13:49:25.012Z</time></trkpt><trkpt lat="43.59324" lon="11.51628"><ele>132.4</ele><time>2026-04-04T13:49:26.013Z</time></trkpt><trkpt lat="43.5931533" lon="11.5163233"><ele>132.0</ele><time>2026-04-04T13:49:27.012Z</time></trkpt><trkpt lat="43.5930733" lon="11.5163833"><ele>132.0</ele><time>2026-04-04T13:49:28.012Z</time></trkpt><trkpt lat="43.593" lon="11.5164483"><ele>132.0</ele><time>2026-04-04T13:49:29.011Z</time></trkpt><trkpt lat="43.5929217" lon="11.5165117"><ele>132.0</ele><time>2026-04-04T13:49:30.012Z</time></trkpt><trkpt lat="43.5928467" lon="11.516565"><ele>132.0</ele><time>2026-04-04T13:49:31.012Z</time></trkpt><trkpt lat="43.59277" lon="11.5166017"><ele>132.0</ele><time>2026-04-04T13:49:32.012Z</time></trkpt><trkpt lat="43.5926917" lon="11.5166217"><ele>132.0</ele><time>2026-04-04T13:49:33.011Z</time></trkpt><trkpt lat="43.592615" lon="11.5166183"><ele>132.16666666666666</ele><time>2026-04-04T13:49:34.011Z</time></trkpt><trkpt lat="43.5925433" lon="11.51659"><ele>132.33333333333334</ele><time>2026-04-04T13:49:35.011Z</time></trkpt><trkpt lat="43.5924783" lon="11.5165283"><ele>132.5</ele><time>2026-04-04T13:49:36.011Z</time></trkpt><trkpt lat="43.5924333" lon="11.516445"><ele>132.66666666666669</ele><time>2026-04-04T13:49:37.011Z</time></trkpt><trkpt lat="43.5924033" lon="11.51635"><ele>132.83333333333334</ele><time>2026-04-04T13:49:38.012Z</time></trkpt><trkpt lat="43.5923733" lon="11.5162517"><ele>133.0</ele><time>2026-04-04T13:49:39.011Z</time></trkpt><trkpt lat="43.592335" lon="11.516165"><ele>133.33333333333334</ele><time>2026-04-04T13:49:40.012Z</time></trkpt><trkpt lat="43.592275" lon="11.516095"><ele>133.66666666666669</ele><time>2026-04-04T13:49:41.01Z</time></trkpt><trkpt lat="43.5922033" lon="11.5160533"><ele>134.0</ele><time>2026-04-04T13:49:42.011Z</time></trkpt><trkpt lat="43.5921267" lon="11.5160517"><ele>134.33333333333334</ele><time>2026-04-04T13:49:43.013Z</time></trkpt><trkpt lat="43.59205" lon="11.51607"><ele>134.66666666666666</ele><time>2026-04-04T13:49:44.012Z</time></trkpt><trkpt lat="43.5919783" lon="11.5161"><ele>135.0</ele><time>2026-04-04T13:49:45.011Z</time></trkpt><trkpt lat="43.591905" lon="11.5161183"><ele>135.0</ele><time>2026-04-04T13:49:46.011Z</time></trkpt><trkpt lat="43.5918317" lon="11.5161033"><ele>135.0</ele><time>2026-04-04T13:49:47.011Z</time></trkpt><trkpt lat="43.59177" lon="11.5160533"><ele>135.0</ele><time>2026-04-04T13:49:48.012Z</time></trkpt><trkpt lat="43.5917117" lon="11.5159883"><ele>135.0</ele><time>2026-04-04T13:49:49.011Z</time></trkpt><trkpt lat="43.59166" lon="11.5159217"><ele>135.0</ele><time>2026-04-04T13:49:50.011Z</time></trkpt><trkpt lat="43.59161" lon="11.51586"><ele>135.0</ele><time>2026-04-04T13:49:51.011Z</time></trkpt><trkpt lat="43.5915567" lon="11.5157983"><ele>135.0</ele><time>2026-04-04T13:49:52.011Z</time></trkpt><trkpt lat="43.5915" lon="11.5157317"><ele>135.0</ele><time>2026-04-04T13:49:53.012Z</time></trkpt><trkpt lat="43.591445" lon="11.5156733"><ele>135.0</ele><time>2026-04-04T13:49:54.011Z</time></trkpt><trkpt lat="43.5913883" lon="11.5156117"><ele>135.0</ele><time>2026-04-04T13:49:55.01Z</time></trkpt><trkpt lat="43.59133" lon="11.5155483"><ele>135.0</ele><time>2026-04-04T13:49:56.011Z</time></trkpt><trkpt lat="43.5912683" lon="11.51549"><ele>135.0</ele><time>2026-04-04T13:49:57.012Z</time></trkpt><trkpt lat="43.5912067" lon="11.5154317"><ele>135.0</ele><time>2026-04-04T13:49:58.01Z</time></trkpt><trkpt lat="43.5911417" lon="11.5153733"><ele>135.0</ele><time>2026-04-04T13:49:59.01Z</time></trkpt><trkpt lat="43.59108" lon="11.51532"><ele>134.33333333333334</ele><time>2026-04-04T13:50:00.01Z</time></trkpt><trkpt lat="43.5910133" lon="11.5152683"><ele>133.66666666666666</ele><time>2026-04-04T13:50:01.012Z</time></trkpt><trkpt lat="43.590945" lon="11.51522"><ele>133.0</ele><time>2026-04-04T13:50:02.013Z</time></trkpt><trkpt lat="43.5908733" lon="11.5151783"><ele>132.33333333333331</ele><time>2026-04-04T13:50:03.011Z</time></trkpt><trkpt lat="43.5908017" lon="11.5151417"><ele>131.66666666666666</ele><time>2026-04-04T13:50:04.012Z</time></trkpt><trkpt lat="43.5907283" lon="11.51511"><ele>131.0</ele><time>2026-04-04T13:50:05.011Z</time></trkpt><trkpt lat="43.5906567" lon="11.5150833"><ele>131.0</ele><time>2026-04-04T13:50:06.012Z</time></trkpt><trkpt lat="43.59058" lon="11.5150583"><ele>131.0</ele><time>2026-04-04T13:50:07.012Z</time></trkpt><trkpt lat="43.5905" lon="11.51504"><ele>131.0</ele><time>2026-04-04T13:50:08.011Z</time></trkpt><trkpt lat="43.5904217" lon="11.5150317"><ele>131.0</ele><time>2026-04-04T13:50:09.012Z</time></trkpt><trkpt lat="43.5903417" lon="11.51503"><ele>131.0</ele><time>2026-04-04T13:50:10.011Z</time></trkpt><trkpt lat="43.5902617" lon="11.515035"><ele>131.0</ele><time>2026-04-04T13:50:11.012Z</time></trkpt><trkpt lat="43.5901817" lon="11.5150417"><ele>131.16666666666666</ele><time>2026-04-04T13:50:12.011Z</time></trkpt><trkpt lat="43.590105" lon="11.5150533"><ele>131.33333333333331</ele><time>2026-04-04T13:50:13.013Z</time></trkpt><trkpt lat="43.590025" lon="11.51507"><ele>131.5</ele><time>2026-04-04T13:50:14.012Z</time></trkpt><trkpt lat="43.589945" lon="11.5150933"><ele>131.66666666666666</ele><time>2026-04-04T13:50:15.011Z</time></trkpt><trkpt lat="43.5898617" lon="11.5151217"><ele>131.83333333333334</ele><time>2026-04-04T13:50:16.012Z</time></trkpt><trkpt lat="43.5897867" lon="11.51516"><ele>132.0</ele><time>2026-04-04T13:50:17.011Z</time></trkpt><trkpt lat="43.5897117" lon="11.5152033"><ele>132.0</ele><time>2026-04-04T13:50:18.011Z</time></trkpt><trkpt lat="43.5896367" lon="11.5152517"><ele>132.0</ele><time>2026-04-04T13:50:19.012Z</time></trkpt><trkpt lat="43.589565" lon="11.5153067"><ele>132.0</ele><time>2026-04-04T13:50:20.012Z</time></trkpt><trkpt lat="43.589495" lon="11.5153633"><ele>132.0</ele><time>2026-04-04T13:50:21.011Z</time></trkpt><trkpt lat="43.5894267" lon="11.5154217"><ele>132.0</ele><time>2026-04-04T13:50:22.011Z</time></trkpt><trkpt lat="43.5893617" lon="11.5154833"><ele>132.0</ele><time>2026-04-04T13:50:23.011Z</time></trkpt><trkpt lat="43.5892967" lon="11.5155483"><ele>132.33333333333334</ele><time>2026-04-04T13:50:24.012Z</time></trkpt><trkpt lat="43.5892333" lon="11.51562"><ele>132.66666666666666</ele><time>2026-04-04T13:50:25.011Z</time></trkpt><trkpt lat="43.5891667" lon="11.515695"><ele>133.0</ele><time>2026-04-04T13:50:26.013Z</time></trkpt><trkpt lat="43.5891033" lon="11.5157683"><ele>133.33333333333331</ele><time>2026-04-04T13:50:27.012Z</time></trkpt><trkpt lat="43.589045" lon="11.5158517"><ele>133.66666666666666</ele><time>2026-04-04T13:50:28.01Z</time></trkpt><trkpt lat="43.588985" lon="11.5159367"><ele>134.0</ele><time>2026-04-04T13:50:29.012Z</time></trkpt><trkpt lat="43.5889217" lon="11.5160167"><ele>134.0</ele><time>2026-04-04T13:50:30.011Z</time></trkpt><trkpt lat="43.58886" lon="11.5161017"><ele>134.0</ele><time>2026-04-04T13:50:31.011Z</time></trkpt><trkpt lat="43.5888017" lon="11.516185"><ele>134.0</ele><time>2026-04-04T13:50:32.011Z</time></trkpt><trkpt lat="43.5887383" lon="11.51627"><ele>134.0</ele><time>2026-04-04T13:50:33.012Z</time></trkpt><trkpt lat="43.5886767" lon="11.5163483"><ele>134.0</ele><time>2026-04-04T13:50:34.01Z</time></trkpt><trkpt lat="43.5886183" lon="11.51643"><ele>134.0</ele><time>2026-04-04T13:50:35.011Z</time></trkpt><trkpt lat="43.5885583" lon="11.5165117"><ele>133.66666666666666</ele><time>2026-04-04T13:50:36.012Z</time></trkpt><trkpt lat="43.588495" lon="11.5166"><ele>133.33333333333331</ele><time>2026-04-04T13:50:37.012Z</time></trkpt><trkpt lat="43.5884317" lon="11.51669"><ele>133.0</ele><time>2026-04-04T13:50:38.012Z</time></trkpt><trkpt lat="43.58837" lon="11.5167767"><ele>132.66666666666666</ele><time>2026-04-04T13:50:39.013Z</time></trkpt><trkpt lat="43.588305" lon="11.516865"><ele>132.33333333333334</ele><time>2026-04-04T13:50:40.01Z</time></trkpt><trkpt lat="43.588245" lon="11.51695"><ele>132.0</ele><time>2026-04-04T13:50:41.011Z</time></trkpt><trkpt lat="43.5881817" lon="11.5170367"><ele>132.16666666666666</ele><time>2026-04-04T13:50:42.012Z</time></trkpt><trkpt lat="43.58812" lon="11.5171267"><ele>132.33333333333334</ele><time>2026-04-04T13:50:43.011Z</time></trkpt><trkpt lat="43.5880567" lon="11.5172167"><ele>132.5</ele><time>2026-04-04T13:50:44.012Z</time></trkpt><trkpt lat="43.5879917" lon="11.5173033"><ele>132.66666666666669</ele><time>2026-04-04T13:50:45.012Z</time></trkpt><trkpt lat="43.58793" lon="11.51739"><ele>132.83333333333334</ele><time>2026-04-04T13:50:46.011Z</time></trkpt><trkpt lat="43.58787" lon="11.517475"><ele>133.0</ele><time>2026-04-04T13:50:47.011Z</time></trkpt><trkpt lat="43.5878067" lon="11.5175633"><ele>132.66666666666669</ele><time>2026-04-04T13:50:48.012Z</time></trkpt><trkpt lat="43.587745" lon="11.5176533"><ele>132.33333333333334</ele><time>2026-04-04T13:50:49.011Z</time></trkpt><trkpt lat="43.5876817" lon="11.517745"><ele>132.0</ele><time>2026-04-04T13:50:50.012Z</time></trkpt><trkpt lat="43.58762" lon="11.5178333"><ele>131.66666666666666</ele><time>2026-04-04T13:50:51.01Z</time></trkpt><trkpt lat="43.5875583" lon="11.5179183"><ele>131.33333333333331</ele><time>2026-04-04T13:50:52.013Z</time></trkpt><trkpt lat="43.5874967" lon="11.518005"><ele>131.0</ele><time>2026-04-04T13:50:53.014Z</time></trkpt><trkpt lat="43.5874333" lon="11.5180917"><ele>131.0</ele><time>2026-04-04T13:50:54.01Z</time></trkpt><trkpt lat="43.58737" lon="11.5181783"><ele>131.0</ele><time>2026-04-04T13:50:55.011Z</time></trkpt><trkpt lat="43.5873083" lon="11.5182667"><ele>131.0</ele><time>2026-04-04T13:50:56.011Z</time></trkpt><trkpt lat="43.5872417" lon="11.5183533"><ele>131.0</ele><time>2026-04-04T13:50:57.012Z</time></trkpt><trkpt lat="43.58718" lon="11.5184367"><ele>131.0</ele><time>2026-04-04T13:50:58.012Z</time></trkpt><trkpt lat="43.5871183" lon="11.518525"><ele>131.0</ele><time>2026-04-04T13:50:59.012Z</time></trkpt><trkpt lat="43.587055" lon="11.518615"><ele>131.0</ele><time>2026-04-04T13:51:00.012Z</time></trkpt><trkpt lat="43.5869933" lon="11.5187"><ele>131.0</ele><time>2026-04-04T13:51:01.012Z</time></trkpt><trkpt lat="43.5869283" lon="11.5187883"><ele>131.0</ele><time>2026-04-04T13:51:02.012Z</time></trkpt><trkpt lat="43.586865" lon="11.518875"><ele>131.0</ele><time>2026-04-04T13:51:03.012Z</time></trkpt><trkpt lat="43.5868033" lon="11.5189633"><ele>131.0</ele><time>2026-04-04T13:51:04.013Z</time></trkpt><trkpt lat="43.58674" lon="11.519055"><ele>131.0</ele><time>2026-04-04T13:51:05.014Z</time></trkpt><trkpt lat="43.5866767" lon="11.5191417"><ele>130.83333333333331</ele><time>2026-04-04T13:51:06.011Z</time></trkpt><trkpt lat="43.586615" lon="11.5192267"><ele>130.66666666666666</ele><time>2026-04-04T13:51:07.011Z</time></trkpt><trkpt lat="43.5865517" lon="11.5193167"><ele>130.5</ele><time>2026-04-04T13:51:08.013Z</time></trkpt><trkpt lat="43.5864933" lon="11.519405"><ele>130.33333333333334</ele><time>2026-04-04T13:51:09.011Z</time></trkpt><trkpt lat="43.58643" lon="11.519495"><ele>130.16666666666669</ele><time>2026-04-04T13:51:10.01Z</time></trkpt><trkpt lat="43.5863683" lon="11.5195817"><ele>130.0</ele><time>2026-04-04T13:51:11.011Z</time></trkpt><trkpt lat="43.5863083" lon="11.51967"><ele>130.4</ele><time>2026-04-04T13:51:12.01Z</time></trkpt><trkpt lat="43.586245" lon="11.5197633"><ele>130.8</ele><time>2026-04-04T13:51:13.011Z</time></trkpt><trkpt lat="43.58618" lon="11.519855"><ele>131.2</ele><time>2026-04-04T13:51:14.012Z</time></trkpt><trkpt lat="43.5861167" lon="11.5199483"><ele>131.6</ele><time>2026-04-04T13:51:15.012Z</time></trkpt><trkpt lat="43.5860533" lon="11.5200383"><ele>132.0</ele><time>2026-04-04T13:51:16.013Z</time></trkpt><trkpt lat="43.5859867" lon="11.5201317"><ele>132.0</ele><time>2026-04-04T13:51:17.011Z</time></trkpt><trkpt lat="43.5859233" lon="11.5202217"><ele>132.0</ele><time>2026-04-04T13:51:18.012Z</time></trkpt><trkpt lat="43.5858617" lon="11.5203117"><ele>132.0</ele><time>2026-04-04T13:51:19.012Z</time></trkpt><trkpt lat="43.5857983" lon="11.5204"><ele>132.0</ele><time>2026-04-04T13:51:20.012Z</time></trkpt><trkpt lat="43.585735" lon="11.52049"><ele>132.0</ele><time>2026-04-04T13:51:21.01Z</time></trkpt><trkpt lat="43.5856717" lon="11.5205817"><ele>131.79999999999998</ele><time>2026-04-04T13:51:22.012Z</time></trkpt><trkpt lat="43.5856067" lon="11.5206683"><ele>131.6</ele><time>2026-04-04T13:51:23.013Z</time></trkpt><trkpt lat="43.58554" lon="11.5207617"><ele>131.39999999999998</ele><time>2026-04-04T13:51:24.01Z</time></trkpt><trkpt lat="43.5854733" lon="11.5208583"><ele>131.2</ele><time>2026-04-04T13:51:25.013Z</time></trkpt><trkpt lat="43.5854083" lon="11.5209567"><ele>131.0</ele><time>2026-04-04T13:51:26.01Z</time></trkpt><trkpt lat="43.5853417" lon="11.5210567"><ele>131.0</ele><time>2026-04-04T13:51:27.01Z</time></trkpt><trkpt lat="43.5852767" lon="11.52115"><ele>131.0</ele><time>2026-04-04T13:51:28.012Z</time></trkpt><trkpt lat="43.5852117" lon="11.5212433"><ele>131.0</ele><time>2026-04-04T13:51:29.011Z</time></trkpt><trkpt lat="43.585145" lon="11.5213383"><ele>131.0</ele><time>2026-04-04T13:51:30.012Z</time></trkpt><trkpt lat="43.5850783" lon="11.52143"><ele>131.0</ele><time>2026-04-04T13:51:31.011Z</time></trkpt><trkpt lat="43.5850133" lon="11.5215217"><ele>131.2</ele><time>2026-04-04T13:51:32.011Z</time></trkpt><trkpt lat="43.58495" lon="11.521615"><ele>131.39999999999998</ele><time>2026-04-04T13:51:33.012Z</time></trkpt><trkpt lat="43.5848833" lon="11.52171"><ele>131.6</ele><time>2026-04-04T13:51:34.011Z</time></trkpt><trkpt lat="43.584815" lon="11.5218017"><ele>131.79999999999998</ele><time>2026-04-04T13:51:35.009Z</time></trkpt><trkpt lat="43.5847517" lon="11.5218933"><ele>132.0</ele><time>2026-04-04T13:51:36.011Z</time></trkpt><trkpt lat="43.584685" lon="11.52199"><ele>131.79999999999998</ele><time>2026-04-04T13:51:37.011Z</time></trkpt><trkpt lat="43.5846183" lon="11.5220833"><ele>131.6</ele><time>2026-04-04T13:51:38.011Z</time></trkpt><trkpt lat="43.584555" lon="11.5221717"><ele>131.39999999999998</ele><time>2026-04-04T13:51:39.008Z</time></trkpt><trkpt lat="43.58449" lon="11.5222567"><ele>131.2</ele><time>2026-04-04T13:51:40.01Z</time></trkpt><trkpt lat="43.5844217" lon="11.5223467"><ele>131.0</ele><time>2026-04-04T13:51:41.01Z</time></trkpt><trkpt lat="43.5843583" lon="11.5224367"><ele>131.0</ele><time>2026-04-04T13:51:42.01Z</time></trkpt><trkpt lat="43.5842933" lon="11.5225267"><ele>131.0</ele><time>2026-04-04T13:51:43.011Z</time></trkpt><trkpt lat="43.58423" lon="11.5226133"><ele>131.0</ele><time>2026-04-04T13:51:44.012Z</time></trkpt><trkpt lat="43.5841667" lon="11.5227"><ele>131.0</ele><time>2026-04-04T13:51:45.01Z</time></trkpt><trkpt lat="43.5841" lon="11.522795"><ele>131.0</ele><time>2026-04-04T13:51:46.011Z</time></trkpt><trkpt lat="43.584035" lon="11.5228917"><ele>131.8</ele><time>2026-04-04T13:51:47.013Z</time></trkpt><trkpt lat="43.58397" lon="11.5229867"><ele>132.6</ele><time>2026-04-04T13:51:48.01Z</time></trkpt><trkpt lat="43.583905" lon="11.5230817"><ele>133.4</ele><time>2026-04-04T13:51:49.014Z</time></trkpt><trkpt lat="43.58384" lon="11.52317"><ele>134.2</ele><time>2026-04-04T13:51:50.01Z</time></trkpt><trkpt lat="43.583775" lon="11.52326"><ele>135.0</ele><time>2026-04-04T13:51:51.01Z</time></trkpt><trkpt lat="43.5837117" lon="11.523355"><ele>134.66666666666666</ele><time>2026-04-04T13:51:52.012Z</time></trkpt><trkpt lat="43.58365" lon="11.523445"><ele>134.33333333333334</ele><time>2026-04-04T13:51:53.012Z</time></trkpt><trkpt lat="43.5835883" lon="11.5235317"><ele>134.0</ele><time>2026-04-04T13:51:54.012Z</time></trkpt><trkpt lat="43.58353" lon="11.5236133"><ele>133.66666666666669</ele><time>2026-04-04T13:51:55.012Z</time></trkpt><trkpt lat="43.5834683" lon="11.5237033"><ele>133.33333333333334</ele><time>2026-04-04T13:51:56.014Z</time></trkpt><trkpt lat="43.5834067" lon="11.52379"><ele>133.0</ele><time>2026-04-04T13:51:57.012Z</time></trkpt><trkpt lat="43.5833433" lon="11.5238817"><ele>133.0</ele><time>2026-04-04T13:51:58.01Z</time></trkpt><trkpt lat="43.5832817" lon="11.5239733"><ele>133.0</ele><time>2026-04-04T13:51:59.011Z</time></trkpt><trkpt lat="43.5832217" lon="11.5240667"><ele>133.0</ele><time>2026-04-04T13:52:00.011Z</time></trkpt><trkpt lat="43.5831633" lon="11.5241467"><ele>133.0</ele><time>2026-04-04T13:52:01.012Z</time></trkpt><trkpt lat="43.5831067" lon="11.5242317"><ele>133.0</ele><time>2026-04-04T13:52:02.013Z</time></trkpt><trkpt lat="43.5830483" lon="11.5243183"><ele>133.0</ele><time>2026-04-04T13:52:03.011Z</time></trkpt><trkpt lat="43.582995" lon="11.5243967"><ele>133.0</ele><time>2026-04-04T13:52:04.011Z</time></trkpt><trkpt lat="43.5829383" lon="11.5244783"><ele>133.0</ele><time>2026-04-04T13:52:05.011Z</time></trkpt><trkpt lat="43.5828867" lon="11.5245517"><ele>133.0</ele><time>2026-04-04T13:52:06.01Z</time></trkpt><trkpt lat="43.5828317" lon="11.524635"><ele>133.0</ele><time>2026-04-04T13:52:07.01Z</time></trkpt><trkpt lat="43.5827783" lon="11.5247183"><ele>133.0</ele><time>2026-04-04T13:52:08.011Z</time></trkpt><trkpt lat="43.582725" lon="11.5248"><ele>133.0</ele><time>2026-04-04T13:52:09.01Z</time></trkpt><trkpt lat="43.58267" lon="11.5248817"><ele>132.83333333333334</ele><time>2026-04-04T13:52:10.011Z</time></trkpt><trkpt lat="43.5826183" lon="11.5249617"><ele>132.66666666666669</ele><time>2026-04-04T13:52:11.01Z</time></trkpt><trkpt lat="43.5825667" lon="11.5250467"><ele>132.5</ele><time>2026-04-04T13:52:12.01Z</time></trkpt><trkpt lat="43.582515" lon="11.5251267"><ele>132.33333333333334</ele><time>2026-04-04T13:52:13.011Z</time></trkpt><trkpt lat="43.5824667" lon="11.5252067"><ele>132.16666666666666</ele><time>2026-04-04T13:52:14.013Z</time></trkpt><trkpt lat="43.5824183" lon="11.5252883"><ele>132.0</ele><time>2026-04-04T13:52:15.009Z</time></trkpt><trkpt lat="43.582375" lon="11.525365"><ele>132.5</ele><time>2026-04-04T13:52:16.012Z</time></trkpt><trkpt lat="43.5823217" lon="11.5254583"><ele>133.0</ele><time>2026-04-04T13:52:17.012Z</time></trkpt><trkpt lat="43.5822717" lon="11.525545"><ele>133.5</ele><time>2026-04-04T13:52:18.011Z</time></trkpt><trkpt lat="43.5822233" lon="11.5256267"><ele>134.0</ele><time>2026-04-04T13:52:19.011Z</time></trkpt><trkpt lat="43.5821767" lon="11.525715"><ele>134.5</ele><time>2026-04-04T13:52:20.013Z</time></trkpt><trkpt lat="43.5821317" lon="11.5258"><ele>135.0</ele><time>2026-04-04T13:52:21.011Z</time></trkpt><trkpt lat="43.582085" lon="11.52589"><ele>135.0</ele><time>2026-04-04T13:52:22.01Z</time></trkpt><trkpt lat="43.58204" lon="11.5259767"><ele>135.0</ele><time>2026-04-04T13:52:23.01Z</time></trkpt><trkpt lat="43.5819933" lon="11.52607"><ele>135.0</ele><time>2026-04-04T13:52:24.01Z</time></trkpt><trkpt lat="43.58195" lon="11.52616"><ele>135.0</ele><time>2026-04-04T13:52:25.012Z</time></trkpt><trkpt lat="43.581905" lon="11.5262567"><ele>135.0</ele><time>2026-04-04T13:52:26.016Z</time></trkpt><trkpt lat="43.5818617" lon="11.52635"><ele>135.0</ele><time>2026-04-04T13:52:27.013Z</time></trkpt><trkpt lat="43.5818183" lon="11.5264467"><ele>134.66666666666666</ele><time>2026-04-04T13:52:28.011Z</time></trkpt><trkpt lat="43.5817767" lon="11.5265417"><ele>134.33333333333334</ele><time>2026-04-04T13:52:29.011Z</time></trkpt><trkpt lat="43.5817333" lon="11.5266367"><ele>134.0</ele><time>2026-04-04T13:52:30.012Z</time></trkpt><trkpt lat="43.58169" lon="11.5267333"><ele>133.66666666666669</ele><time>2026-04-04T13:52:31.01Z</time></trkpt><trkpt lat="43.58165" lon="11.5268317"><ele>133.33333333333334</ele><time>2026-04-04T13:52:32.012Z</time></trkpt><trkpt lat="43.58161" lon="11.5269267"><ele>133.0</ele><time>2026-04-04T13:52:33.011Z</time></trkpt><trkpt lat="43.58157" lon="11.5270233"><ele>133.16666666666669</ele><time>2026-04-04T13:52:34.01Z</time></trkpt><trkpt lat="43.58153" lon="11.5271233"><ele>133.33333333333334</ele><time>2026-04-04T13:52:35.009Z</time></trkpt><trkpt lat="43.5814867" lon="11.5272267"><ele>133.5</ele><time>2026-04-04T13:52:36.011Z</time></trkpt><trkpt lat="43.58145" lon="11.52733"><ele>133.66666666666666</ele><time>2026-04-04T13:52:37.012Z</time></trkpt><trkpt lat="43.5814133" lon="11.52743"><ele>133.83333333333331</ele><time>2026-04-04T13:52:38.012Z</time></trkpt><trkpt lat="43.5813767" lon="11.527535"><ele>134.0</ele><time>2026-04-04T13:52:39.011Z</time></trkpt><trkpt lat="43.581335" lon="11.5276433"><ele>134.0</ele><time>2026-04-04T13:52:40.01Z</time></trkpt><trkpt lat="43.581295" lon="11.52775"><ele>134.0</ele><time>2026-04-04T13:52:41.009Z</time></trkpt><trkpt lat="43.5812567" lon="11.5278533"><ele>134.0</ele><time>2026-04-04T13:52:42.011Z</time></trkpt><trkpt lat="43.5812217" lon="11.527955"><ele>134.0</ele><time>2026-04-04T13:52:43.01Z</time></trkpt><trkpt lat="43.58119" lon="11.528055"><ele>134.0</ele><time>2026-04-04T13:52:44.012Z</time></trkpt><trkpt lat="43.581155" lon="11.5281583"><ele>134.0</ele><time>2026-04-04T13:52:45.011Z</time></trkpt><trkpt lat="43.5811217" lon="11.5282583"><ele>133.5</ele><time>2026-04-04T13:52:46.012Z</time></trkpt><trkpt lat="43.5810867" lon="11.5283633"><ele>133.0</ele><time>2026-04-04T13:52:47.01Z</time></trkpt><trkpt lat="43.5810517" lon="11.5284683"><ele>132.5</ele><time>2026-04-04T13:52:48.01Z</time></trkpt><trkpt lat="43.5810167" lon="11.5285683"><ele>132.0</ele><time>2026-04-04T13:52:49.01Z</time></trkpt><trkpt lat="43.5809783" lon="11.5286767"><ele>131.5</ele><time>2026-04-04T13:52:50.01Z</time></trkpt><trkpt lat="43.5809433" lon="11.528785"><ele>131.0</ele><time>2026-04-04T13:52:51.011Z</time></trkpt><trkpt lat="43.5809033" lon="11.52889"><ele>130.66666666666666</ele><time>2026-04-04T13:52:52.011Z</time></trkpt><trkpt lat="43.5808617" lon="11.5289917"><ele>130.33333333333331</ele><time>2026-04-04T13:52:53.014Z</time></trkpt><trkpt lat="43.5808167" lon="11.52909"><ele>130.0</ele><time>2026-04-04T13:52:54.012Z</time></trkpt><trkpt lat="43.5807667" lon="11.529185"><ele>129.66666666666666</ele><time>2026-04-04T13:52:55.011Z</time></trkpt><trkpt lat="43.580715" lon="11.529275"><ele>129.33333333333334</ele><time>2026-04-04T13:52:56.011Z</time></trkpt><trkpt lat="43.580655" lon="11.529365"><ele>129.0</ele><time>2026-04-04T13:52:57.011Z</time></trkpt><trkpt lat="43.5805967" lon="11.5294517"><ele>129.0</ele><time>2026-04-04T13:52:58.012Z</time></trkpt><trkpt lat="43.5805367" lon="11.5295333"><ele>129.0</ele><time>2026-04-04T13:52:59.014Z</time></trkpt><trkpt lat="43.5804733" lon="11.529605"><ele>129.0</ele><time>2026-04-04T13:53:00.011Z</time></trkpt><trkpt lat="43.580405" lon="11.529675"><ele>129.0</ele><time>2026-04-04T13:53:01.011Z</time></trkpt><trkpt lat="43.580335" lon="11.52974"><ele>129.0</ele><time>2026-04-04T13:53:02.011Z</time></trkpt><trkpt lat="43.5802633" lon="11.5298"><ele>129.0</ele><time>2026-04-04T13:53:03.011Z</time></trkpt><trkpt lat="43.58019" lon="11.5298567"><ele>129.0</ele><time>2026-04-04T13:53:04.011Z</time></trkpt><trkpt lat="43.5801133" lon="11.52991"><ele>129.0</ele><time>2026-04-04T13:53:05.011Z</time></trkpt><trkpt lat="43.580045" lon="11.529965"><ele>129.0</ele><time>2026-04-04T13:53:06.011Z</time></trkpt><trkpt lat="43.5799783" lon="11.5300283"><ele>129.0</ele><time>2026-04-04T13:53:07.01Z</time></trkpt><trkpt lat="43.579915" lon="11.5300983"><ele>129.0</ele><time>2026-04-04T13:53:08.011Z</time></trkpt><trkpt lat="43.5798533" lon="11.5301733"><ele>129.0</ele><time>2026-04-04T13:53:09.01Z</time></trkpt><trkpt lat="43.579795" lon="11.5302533"><ele>129.0</ele><time>2026-04-04T13:53:10.01Z</time></trkpt><trkpt lat="43.5797383" lon="11.530335"><ele>129.0</ele><time>2026-04-04T13:53:11.013Z</time></trkpt><trkpt lat="43.5796833" lon="11.53042"><ele>129.0</ele><time>2026-04-04T13:53:12.009Z</time></trkpt><trkpt lat="43.5796283" lon="11.5305117"><ele>129.0</ele><time>2026-04-04T13:53:13.011Z</time></trkpt><trkpt lat="43.5795733" lon="11.5305983"><ele>129.0</ele><time>2026-04-04T13:53:14.011Z</time></trkpt><trkpt lat="43.57952" lon="11.5306933"><ele>129.0</ele><time>2026-04-04T13:53:15.01Z</time></trkpt><trkpt lat="43.5794717" lon="11.53079"><ele>129.33333333333334</ele><time>2026-04-04T13:53:16.011Z</time></trkpt><trkpt lat="43.5794217" lon="11.5308783"><ele>129.66666666666666</ele><time>2026-04-04T13:53:17.012Z</time></trkpt><trkpt lat="43.5793683" lon="11.5309717"><ele>130.0</ele><time>2026-04-04T13:53:18.012Z</time></trkpt><trkpt lat="43.57932" lon="11.5310633"><ele>130.33333333333331</ele><time>2026-04-04T13:53:19.012Z</time></trkpt><trkpt lat="43.5792683" lon="11.5311583"><ele>130.66666666666666</ele><time>2026-04-04T13:53:20.013Z</time></trkpt><trkpt lat="43.57922" lon="11.5312483"><ele>131.0</ele><time>2026-04-04T13:53:21.01Z</time></trkpt><trkpt lat="43.5791733" lon="11.531345"><ele>131.0</ele><time>2026-04-04T13:53:22.009Z</time></trkpt><trkpt lat="43.5791233" lon="11.5314433"><ele>131.0</ele><time>2026-04-04T13:53:23.01Z</time></trkpt><trkpt lat="43.57907" lon="11.5315417"><ele>131.0</ele><time>2026-04-04T13:53:24.01Z</time></trkpt><trkpt lat="43.57902" lon="11.53163"><ele>131.0</ele><time>2026-04-04T13:53:25.01Z</time></trkpt><trkpt lat="43.5789733" lon="11.5317183"><ele>131.0</ele><time>2026-04-04T13:53:26.011Z</time></trkpt><trkpt lat="43.5789233" lon="11.53181"><ele>131.0</ele><time>2026-04-04T13:53:27.01Z</time></trkpt><trkpt lat="43.57887" lon="11.5319033"><ele>131.0</ele><time>2026-04-04T13:53:28.011Z</time></trkpt><trkpt lat="43.57882" lon="11.5319983"><ele>131.0</ele><time>2026-04-04T13:53:29.011Z</time></trkpt><trkpt lat="43.578775" lon="11.53208"><ele>131.0</ele><time>2026-04-04T13:53:30.011Z</time></trkpt><trkpt lat="43.57873" lon="11.53216"><ele>131.0</ele><time>2026-04-04T13:53:31.013Z</time></trkpt><trkpt lat="43.5786867" lon="11.5322433"><ele>131.0</ele><time>2026-04-04T13:53:32.011Z</time></trkpt><trkpt lat="43.578645" lon="11.532325"><ele>131.0</ele><time>2026-04-04T13:53:33.01Z</time></trkpt><trkpt lat="43.5786017" lon="11.53241"><ele>131.28571428571428</ele><time>2026-04-04T13:53:34.01Z</time></trkpt><trkpt lat="43.5785567" lon="11.5324917"><ele>131.57142857142858</ele><time>2026-04-04T13:53:35.01Z</time></trkpt><trkpt lat="43.5785133" lon="11.5325783"><ele>131.85714285714286</ele><time>2026-04-04T13:53:36.011Z</time></trkpt><trkpt lat="43.57847" lon="11.5326633"><ele>132.14285714285714</ele><time>2026-04-04T13:53:37.011Z</time></trkpt><trkpt lat="43.5784267" lon="11.5327433"><ele>132.42857142857144</ele><time>2026-04-04T13:53:38.011Z</time></trkpt><trkpt lat="43.578385" lon="11.5328233"><ele>132.71428571428572</ele><time>2026-04-04T13:53:39.013Z</time></trkpt><trkpt lat="43.5783483" lon="11.5329083"><ele>133.0</ele><time>2026-04-04T13:53:40.011Z</time></trkpt><trkpt lat="43.5783083" lon="11.532995"><ele>133.0</ele><time>2026-04-04T13:53:41.011Z</time></trkpt><trkpt lat="43.57827" lon="11.533075"><ele>133.0</ele><time>2026-04-04T13:53:42.01Z</time></trkpt><trkpt lat="43.57823" lon="11.5331617"><ele>133.0</ele><time>2026-04-04T13:53:43.01Z</time></trkpt><trkpt lat="43.57819" lon="11.533245"><ele>133.0</ele><time>2026-04-04T13:53:44.013Z</time></trkpt><trkpt lat="43.5781533" lon="11.5333333"><ele>133.0</ele><time>2026-04-04T13:53:45.011Z</time></trkpt><trkpt lat="43.5781167" lon="11.5334217"><ele>133.0</ele><time>2026-04-04T13:53:46.011Z</time></trkpt><trkpt lat="43.5780817" lon="11.5335133"><ele>133.0</ele><time>2026-04-04T13:53:47.012Z</time></trkpt><trkpt lat="43.5780417" lon="11.5336017"><ele>133.0</ele><time>2026-04-04T13:53:48.014Z</time></trkpt><trkpt lat="43.5780033" lon="11.5336967"><ele>133.0</ele><time>2026-04-04T13:53:49.012Z</time></trkpt><trkpt lat="43.577965" lon="11.533785"><ele>133.0</ele><time>2026-04-04T13:53:50.011Z</time></trkpt><trkpt lat="43.57793" lon="11.53386"><ele>133.0</ele><time>2026-04-04T13:53:51.011Z</time></trkpt><trkpt lat="43.577865" lon="11.533945"><ele>133.0</ele><time>2026-04-04T13:53:53.011Z</time></trkpt><trkpt lat="43.5777983" lon="11.5339783"><ele>133.0</ele><time>2026-04-04T13:53:55.01Z</time></trkpt><trkpt lat="43.5777267" lon="11.5340217"><ele>133.5</ele><time>2026-04-04T13:53:57.011Z</time></trkpt><trkpt lat="43.5776383" lon="11.5341267"><ele>134.0</ele><time>2026-04-04T13:53:59.011Z</time></trkpt><trkpt lat="43.5775783" lon="11.5342783"><ele>134.5</ele><time>2026-04-04T13:54:01.011Z</time></trkpt><trkpt lat="43.57756" lon="11.5343667"><ele>135.0</ele><time>2026-04-04T13:54:02.013Z</time></trkpt><trkpt lat="43.5775433" lon="11.53446"><ele>135.5</ele><time>2026-04-04T13:54:03.012Z</time></trkpt><trkpt lat="43.5775183" lon="11.53455"><ele>136.0</ele><time>2026-04-04T13:54:04.013Z</time></trkpt><trkpt lat="43.5774767" lon="11.5346383"><ele>136.0</ele><time>2026-04-04T13:54:05.012Z</time></trkpt><trkpt lat="43.5774217" lon="11.5347133"><ele>136.0</ele><time>2026-04-04T13:54:06.012Z</time></trkpt><trkpt lat="43.577365" lon="11.534785"><ele>136.0</ele><time>2026-04-04T13:54:07.014Z</time></trkpt><trkpt lat="43.5772983" lon="11.534855"><ele>136.0</ele><time>2026-04-04T13:54:08.014Z</time></trkpt><trkpt lat="43.5772333" lon="11.5349167"><ele>136.0</ele><time>2026-04-04T13:54:09.013Z</time></trkpt><trkpt lat="43.577165" lon="11.5349733"><ele>136.0</ele><time>2026-04-04T13:54:10.011Z</time></trkpt><trkpt lat="43.5770967" lon="11.5350333"><ele>136.0</ele><time>2026-04-04T13:54:11.012Z</time></trkpt><trkpt lat="43.5770267" lon="11.5350917"><ele>136.0</ele><time>2026-04-04T13:54:12.013Z</time></trkpt><trkpt lat="43.5769583" lon="11.53515"><ele>136.0</ele><time>2026-04-04T13:54:13.012Z</time></trkpt><trkpt lat="43.5768867" lon="11.5352133"><ele>136.0</ele><time>2026-04-04T13:54:14.011Z</time></trkpt><trkpt lat="43.576815" lon="11.5352783"><ele>136.0</ele><time>2026-04-04T13:54:15.01Z</time></trkpt><trkpt lat="43.576745" lon="11.5353433"><ele>136.0</ele><time>2026-04-04T13:54:16.011Z</time></trkpt><trkpt lat="43.5766717" lon="11.5354083"><ele>135.83333333333334</ele><time>2026-04-04T13:54:17.013Z</time></trkpt><trkpt lat="43.5765933" lon="11.5354633"><ele>135.66666666666669</ele><time>2026-04-04T13:54:18.012Z</time></trkpt><trkpt lat="43.576515" lon="11.535515"><ele>135.5</ele><time>2026-04-04T13:54:19.013Z</time></trkpt><trkpt lat="43.5764433" lon="11.5355783"><ele>135.33333333333334</ele><time>2026-04-04T13:54:20.012Z</time></trkpt><trkpt lat="43.5763833" lon="11.5356617"><ele>135.16666666666666</ele><time>2026-04-04T13:54:21.011Z</time></trkpt><trkpt lat="43.576345" lon="11.5357617"><ele>135.0</ele><time>2026-04-04T13:54:22.014Z</time></trkpt><trkpt lat="43.5763367" lon="11.5358667"><ele>135.0</ele><time>2026-04-04T13:54:23.013Z</time></trkpt><trkpt lat="43.5763233" lon="11.5359567"><ele>135.0</ele><time>2026-04-04T13:54:24.012Z</time></trkpt><trkpt lat="43.5763133" lon="11.5360433"><ele>135.0</ele><time>2026-04-04T13:54:25.013Z</time></trkpt><trkpt lat="43.576355" lon="11.5361317"><ele>135.0</ele><time>2026-04-04T13:54:26.013Z</time></trkpt><trkpt lat="43.57643" lon="11.5361883"><ele>135.0</ele><time>2026-04-04T13:54:27.012Z</time></trkpt><trkpt lat="43.5766067" lon="11.5361617"><ele>135.0</ele><time>2026-04-04T13:54:28.012Z</time></trkpt><trkpt lat="43.5767" lon="11.536145"><ele>135.0</ele><time>2026-04-04T13:54:29.013Z</time></trkpt><trkpt lat="43.576805" lon="11.5361383"><ele>135.0</ele><time>2026-04-04T13:54:30.011Z</time></trkpt><trkpt lat="43.5769017" lon="11.536155"><ele>135.0</ele><time>2026-04-04T13:54:31.012Z</time></trkpt><trkpt lat="43.5769833" lon="11.5361883"><ele>135.0</ele><time>2026-04-04T13:54:32.012Z</time></trkpt><trkpt lat="43.5770617" lon="11.5362367"><ele>135.83333333333334</ele><time>2026-04-04T13:54:33.014Z</time></trkpt><trkpt lat="43.5771333" lon="11.5362883"><ele>136.66666666666666</ele><time>2026-04-04T13:54:34.01Z</time></trkpt><trkpt lat="43.5772" lon="11.5363517"><ele>137.5</ele><time>2026-04-04T13:54:35.012Z</time></trkpt><trkpt lat="43.57727" lon="11.5364233"><ele>138.33333333333331</ele><time>2026-04-04T13:54:36.012Z</time></trkpt><trkpt lat="43.5773367" lon="11.536495"><ele>139.16666666666666</ele><time>2026-04-04T13:54:37.013Z</time></trkpt><trkpt lat="43.5773983" lon="11.53656"><ele>140.0</ele><time>2026-04-04T13:54:38.013Z</time></trkpt><trkpt lat="43.57746" lon="11.5366217"><ele>140.0</ele><time>2026-04-04T13:54:39.012Z</time></trkpt><trkpt lat="43.57752" lon="11.536675"><ele>140.0</ele><time>2026-04-04T13:54:40.014Z</time></trkpt><trkpt lat="43.5775817" lon="11.5367283"><ele>140.0</ele><time>2026-04-04T13:54:41.013Z</time></trkpt><trkpt lat="43.5776483" lon="11.5367783"><ele>140.0</ele><time>2026-04-04T13:54:42.013Z</time></trkpt><trkpt lat="43.5777183" lon="11.53682"><ele>140.0</ele><time>2026-04-04T13:54:43.012Z</time></trkpt><trkpt lat="43.5777917" lon="11.5368583"><ele>140.0</ele><time>2026-04-04T13:54:44.012Z</time></trkpt><trkpt lat="43.5778667" lon="11.536895"><ele>139.33333333333331</ele><time>2026-04-04T13:54:45.012Z</time></trkpt><trkpt lat="43.5779433" lon="11.53693"><ele>138.66666666666666</ele><time>2026-04-04T13:54:46.012Z</time></trkpt><trkpt lat="43.5780183" lon="11.5369667"><ele>138.0</ele><time>2026-04-04T13:54:47.014Z</time></trkpt><trkpt lat="43.5780983" lon="11.537"><ele>137.33333333333334</ele><time>2026-04-04T13:54:48.015Z</time></trkpt><trkpt lat="43.5781767" lon="11.5370333"><ele>136.66666666666669</ele><time>2026-04-04T13:54:49.013Z</time></trkpt><trkpt lat="43.5782633" lon="11.5370633"><ele>136.0</ele><time>2026-04-04T13:54:50.013Z</time></trkpt><trkpt lat="43.578345" lon="11.5371033"><ele>136.0</ele><time>2026-04-04T13:54:51.01Z</time></trkpt><trkpt lat="43.5784217" lon="11.5371417"><ele>136.0</ele><time>2026-04-04T13:54:52.011Z</time></trkpt><trkpt lat="43.5785" lon="11.53717"><ele>136.0</ele><time>2026-04-04T13:54:53.012Z</time></trkpt><trkpt lat="43.5785633" lon="11.5371917"><ele>136.0</ele><time>2026-04-04T13:54:54.013Z</time></trkpt><trkpt lat="43.578665" lon="11.5372667"><ele>136.0</ele><time>2026-04-04T13:54:56.011Z</time></trkpt><trkpt lat="43.5787" lon="11.5374167"><ele>136.0</ele><time>2026-04-04T13:54:58.011Z</time></trkpt><trkpt lat="43.5786917" lon="11.5375883"><ele>136.0</ele><time>2026-04-04T13:55:00.012Z</time></trkpt><trkpt lat="43.5786767" lon="11.5376817"><ele>136.0</ele><time>2026-04-04T13:55:01.012Z</time></trkpt><trkpt lat="43.5786667" lon="11.53778"><ele>136.0</ele><time>2026-04-04T13:55:02.011Z</time></trkpt><trkpt lat="43.578655" lon="11.53788"><ele>136.0</ele><time>2026-04-04T13:55:03.013Z</time></trkpt><trkpt lat="43.578645" lon="11.5379817"><ele>136.0</ele><time>2026-04-04T13:55:04.01Z</time></trkpt><trkpt lat="43.57863" lon="11.5380783"><ele>135.85714285714283</ele><time>2026-04-04T13:55:05.011Z</time></trkpt><trkpt lat="43.5786183" lon="11.5381767"><ele>135.71428571428572</ele><time>2026-04-04T13:55:06.01Z</time></trkpt><trkpt lat="43.5786083" lon="11.5382767"><ele>135.57142857142856</ele><time>2026-04-04T13:55:07.012Z</time></trkpt><trkpt lat="43.5785917" lon="11.53837"><ele>135.42857142857142</ele><time>2026-04-04T13:55:08.011Z</time></trkpt><trkpt lat="43.57858" lon="11.53847"><ele>135.28571428571428</ele><time>2026-04-04T13:55:09.012Z</time></trkpt><trkpt lat="43.57857" lon="11.5385683"><ele>135.14285714285714</ele><time>2026-04-04T13:55:10.012Z</time></trkpt><trkpt lat="43.57856" lon="11.5386683"><ele>135.0</ele><time>2026-04-04T13:55:11.012Z</time></trkpt><trkpt lat="43.57855" lon="11.538765"><ele>134.85714285714286</ele><time>2026-04-04T13:55:12.012Z</time></trkpt><trkpt lat="43.5785367" lon="11.5388617"><ele>134.7142857142857</ele><time>2026-04-04T13:55:13.014Z</time></trkpt><trkpt lat="43.578525" lon="11.5389583"><ele>134.57142857142856</ele><time>2026-04-04T13:55:14.012Z</time></trkpt><trkpt lat="43.578515" lon="11.53906"><ele>134.42857142857142</ele><time>2026-04-04T13:55:15.013Z</time></trkpt><trkpt lat="43.5785083" lon="11.5391633"><ele>134.28571428571428</ele><time>2026-04-04T13:55:16.016Z</time></trkpt><trkpt lat="43.578505" lon="11.5392633"><ele>134.14285714285714</ele><time>2026-04-04T13:55:17.012Z</time></trkpt><trkpt lat="43.578505" lon="11.539365"><ele>134.0</ele><time>2026-04-04T13:55:18.012Z</time></trkpt><trkpt lat="43.5785133" lon="11.5394617"><ele>134.0</ele><time>2026-04-04T13:55:19.012Z</time></trkpt><trkpt lat="43.578525" lon="11.5395583"><ele>134.0</ele><time>2026-04-04T13:55:20.012Z</time></trkpt><trkpt lat="43.5785417" lon="11.5396533"><ele>134.0</ele><time>2026-04-04T13:55:21.013Z</time></trkpt><trkpt lat="43.5785633" lon="11.5397483"><ele>134.0</ele><time>2026-04-04T13:55:22.012Z</time></trkpt><trkpt lat="43.5785883" lon="11.5398417"><ele>134.0</ele><time>2026-04-04T13:55:23.014Z</time></trkpt><trkpt lat="43.5786167" lon="11.5399333"><ele>134.0</ele><time>2026-04-04T13:55:24.014Z</time></trkpt><trkpt lat="43.578645" lon="11.540025"><ele>134.0</ele><time>2026-04-04T13:55:25.013Z</time></trkpt><trkpt lat="43.578675" lon="11.540115"><ele>133.8</ele><time>2026-04-04T13:55:26.011Z</time></trkpt><trkpt lat="43.5787067" lon="11.5402017"><ele>133.60000000000002</ele><time>2026-04-04T13:55:27.012Z</time></trkpt><trkpt lat="43.578735" lon="11.540285"><ele>133.4</ele><time>2026-04-04T13:55:28.011Z</time></trkpt><trkpt lat="43.578785" lon="11.5404417"><ele>133.20000000000002</ele><time>2026-04-04T13:55:30.011Z</time></trkpt><trkpt lat="43.5788367" lon="11.54059"><ele>133.0</ele><time>2026-04-04T13:55:32.013Z</time></trkpt><trkpt lat="43.578905" lon="11.5407367"><ele>133.0</ele><time>2026-04-04T13:55:34.012Z</time></trkpt><trkpt lat="43.57895" lon="11.5408"><ele>133.0</ele><time>2026-04-04T13:55:35.012Z</time></trkpt><trkpt lat="43.5789983" lon="11.5408583"><ele>133.0</ele><time>2026-04-04T13:55:36.011Z</time></trkpt><trkpt lat="43.57905" lon="11.5409083"><ele>133.0</ele><time>2026-04-04T13:55:37.012Z</time></trkpt><trkpt lat="43.5791083" lon="11.5409467"><ele>133.0</ele><time>2026-04-04T13:55:38.012Z</time></trkpt><trkpt lat="43.57917" lon="11.5409767"><ele>133.0</ele><time>2026-04-04T13:55:39.012Z</time></trkpt><trkpt lat="43.579235" lon="11.541"><ele>133.0</ele><time>2026-04-04T13:55:40.012Z</time></trkpt><trkpt lat="43.5793" lon="11.54101"><ele>133.0</ele><time>2026-04-04T13:55:41.012Z</time></trkpt><trkpt lat="43.579365" lon="11.5410183"><ele>133.0</ele><time>2026-04-04T13:55:42.011Z</time></trkpt><trkpt lat="43.5794283" lon="11.5410233"><ele>133.0</ele><time>2026-04-04T13:55:43.012Z</time></trkpt><trkpt lat="43.5795483" lon="11.5410217"><ele>133.0</ele><time>2026-04-04T13:55:45.014Z</time></trkpt><trkpt lat="43.5796683" lon="11.5410283"><ele>133.0</ele><time>2026-04-04T13:55:47.012Z</time></trkpt><trkpt lat="43.5797317" lon="11.5410317"><ele>133.0</ele><time>2026-04-04T13:55:48.012Z</time></trkpt><trkpt lat="43.579795" lon="11.5410317"><ele>133.4</ele><time>2026-04-04T13:55:49.012Z</time></trkpt><trkpt lat="43.5798583" lon="11.5410317"><ele>133.8</ele><time>2026-04-04T13:55:50.01Z</time></trkpt><trkpt lat="43.579985" lon="11.5410283"><ele>134.2</ele><time>2026-04-04T13:55:52.012Z</time></trkpt><trkpt lat="43.5801067" lon="11.5410467"><ele>134.6</ele><time>2026-04-04T13:55:54.012Z</time></trkpt><trkpt lat="43.58017" lon="11.5410617"><ele>135.0</ele><time>2026-04-04T13:55:55.011Z</time></trkpt><trkpt lat="43.5802867" lon="11.5411183"><ele>136.0</ele><time>2026-04-04T13:55:57.012Z</time></trkpt><trkpt lat="43.580375" lon="11.5412333"><ele>137.0</ele><time>2026-04-04T13:55:59.012Z</time></trkpt><trkpt lat="43.5804067" lon="11.5413283"><ele>138.0</ele><time>2026-04-04T13:56:00.011Z</time></trkpt><trkpt lat="43.5804317" lon="11.541425"><ele>139.0</ele><time>2026-04-04T13:56:01.012Z</time></trkpt><trkpt lat="43.5804583" lon="11.54152"><ele>140.0</ele><time>2026-04-04T13:56:02.013Z</time></trkpt><trkpt lat="43.5804917" lon="11.5416117"><ele>141.0</ele><time>2026-04-04T13:56:03.012Z</time></trkpt><trkpt lat="43.58053" lon="11.5416983"><ele>141.0</ele><time>2026-04-04T13:56:04.011Z</time></trkpt><trkpt lat="43.5805667" lon="11.541785"><ele>141.0</ele><time>2026-04-04T13:56:05.011Z</time></trkpt><trkpt lat="43.580605" lon="11.5418733"><ele>141.0</ele><time>2026-04-04T13:56:06.011Z</time></trkpt><trkpt lat="43.580645" lon="11.541965"><ele>141.0</ele><time>2026-04-04T13:56:07.013Z</time></trkpt><trkpt lat="43.5806833" lon="11.542055"><ele>141.0</ele><time>2026-04-04T13:56:08.013Z</time></trkpt><trkpt lat="43.5807183" lon="11.542145"><ele>141.0</ele><time>2026-04-04T13:56:09.013Z</time></trkpt><trkpt lat="43.5807533" lon="11.54224"><ele>140.5</ele><time>2026-04-04T13:56:10.011Z</time></trkpt><trkpt lat="43.5807867" lon="11.5423367"><ele>140.0</ele><time>2026-04-04T13:56:11.012Z</time></trkpt><trkpt lat="43.5808167" lon="11.5424333"><ele>139.5</ele><time>2026-04-04T13:56:12.012Z</time></trkpt><trkpt lat="43.580845" lon="11.5425333"><ele>139.0</ele><time>2026-04-04T13:56:13.011Z</time></trkpt><trkpt lat="43.5808717" lon="11.542635"><ele>138.5</ele><time>2026-04-04T13:56:14.01Z</time></trkpt><trkpt lat="43.5808967" lon="11.542735"><ele>138.0</ele><time>2026-04-04T13:56:15.012Z</time></trkpt><trkpt lat="43.5809183" lon="11.5428367"><ele>137.83333333333334</ele><time>2026-04-04T13:56:16.013Z</time></trkpt><trkpt lat="43.5809383" lon="11.5429417"><ele>137.66666666666666</ele><time>2026-04-04T13:56:17.013Z</time></trkpt><trkpt lat="43.5809517" lon="11.5430417"><ele>137.5</ele><time>2026-04-04T13:56:18.012Z</time></trkpt><trkpt lat="43.580965" lon="11.543145"><ele>137.33333333333331</ele><time>2026-04-04T13:56:19.013Z</time></trkpt><trkpt lat="43.5809783" lon="11.5432467"><ele>137.16666666666666</ele><time>2026-04-04T13:56:20.012Z</time></trkpt><trkpt lat="43.58099" lon="11.5433467"><ele>137.0</ele><time>2026-04-04T13:56:21.012Z</time></trkpt><trkpt lat="43.5810033" lon="11.5434533"><ele>137.0</ele><time>2026-04-04T13:56:22.015Z</time></trkpt><trkpt lat="43.5810133" lon="11.543555"><ele>137.0</ele><time>2026-04-04T13:56:23.013Z</time></trkpt><trkpt lat="43.5810267" lon="11.543665"><ele>137.0</ele><time>2026-04-04T13:56:24.012Z</time></trkpt><trkpt lat="43.5810417" lon="11.543775"><ele>137.0</ele><time>2026-04-04T13:56:25.012Z</time></trkpt><trkpt lat="43.5810583" lon="11.5438867"><ele>137.0</ele><time>2026-04-04T13:56:26.011Z</time></trkpt><trkpt lat="43.5810733" lon="11.5439967"><ele>137.0</ele><time>2026-04-04T13:56:27.013Z</time></trkpt><trkpt lat="43.5810883" lon="11.5441067"><ele>137.0</ele><time>2026-04-04T13:56:28.012Z</time></trkpt><trkpt lat="43.5811033" lon="11.5442167"><ele>137.0</ele><time>2026-04-04T13:56:29.013Z</time></trkpt><trkpt lat="43.5811183" lon="11.5443267"><ele>137.0</ele><time>2026-04-04T13:56:30.013Z</time></trkpt><trkpt lat="43.5811333" lon="11.5444383"><ele>137.0</ele><time>2026-04-04T13:56:31.013Z</time></trkpt><trkpt lat="43.58115" lon="11.5445517"><ele>137.0</ele><time>2026-04-04T13:56:32.014Z</time></trkpt><trkpt lat="43.581165" lon="11.5446667"><ele>137.0</ele><time>2026-04-04T13:56:33.014Z</time></trkpt><trkpt lat="43.581185" lon="11.544785"><ele>138.0</ele><time>2026-04-04T13:56:34.014Z</time></trkpt><trkpt lat="43.5812" lon="11.5448983"><ele>139.0</ele><time>2026-04-04T13:56:35.014Z</time></trkpt><trkpt lat="43.58121" lon="11.5450067"><ele>140.0</ele><time>2026-04-04T13:56:36.011Z</time></trkpt><trkpt lat="43.5812217" lon="11.5451217"><ele>141.0</ele><time>2026-04-04T13:56:37.014Z</time></trkpt><trkpt lat="43.5812317" lon="11.5452283"><ele>142.0</ele><time>2026-04-04T13:56:38.012Z</time></trkpt><trkpt lat="43.5812467" lon="11.5453417"><ele>143.0</ele><time>2026-04-04T13:56:39.01Z</time></trkpt><trkpt lat="43.5812617" lon="11.545455"><ele>143.16666666666666</ele><time>2026-04-04T13:56:40.012Z</time></trkpt><trkpt lat="43.5812783" lon="11.54556"><ele>143.33333333333331</ele><time>2026-04-04T13:56:41.012Z</time></trkpt><trkpt lat="43.581295" lon="11.545665"><ele>143.5</ele><time>2026-04-04T13:56:42.014Z</time></trkpt><trkpt lat="43.581315" lon="11.545765"><ele>143.66666666666666</ele><time>2026-04-04T13:56:43.011Z</time></trkpt><trkpt lat="43.5813367" lon="11.5458667"><ele>143.83333333333334</ele><time>2026-04-04T13:56:44.012Z</time></trkpt><trkpt lat="43.58136" lon="11.5459683"><ele>144.0</ele><time>2026-04-04T13:56:45.012Z</time></trkpt><trkpt lat="43.5813867" lon="11.546065"><ele>144.0</ele><time>2026-04-04T13:56:46.011Z</time></trkpt><trkpt lat="43.5814167" lon="11.5461683"><ele>144.0</ele><time>2026-04-04T13:56:47.011Z</time></trkpt><trkpt lat="43.5814517" lon="11.54627"><ele>144.0</ele><time>2026-04-04T13:56:48.011Z</time></trkpt><trkpt lat="43.581485" lon="11.5463717"><ele>144.0</ele><time>2026-04-04T13:56:49.011Z</time></trkpt><trkpt lat="43.5815217" lon="11.54647"><ele>144.0</ele><time>2026-04-04T13:56:50.012Z</time></trkpt><trkpt lat="43.5815617" lon="11.5465733"><ele>144.0</ele><time>2026-04-04T13:56:51.011Z</time></trkpt><trkpt lat="43.5815967" lon="11.5466717"><ele>143.5</ele><time>2026-04-04T13:56:52.011Z</time></trkpt><trkpt lat="43.581635" lon="11.5467717"><ele>143.0</ele><time>2026-04-04T13:56:53.011Z</time></trkpt><trkpt lat="43.5816717" lon="11.546875"><ele>142.5</ele><time>2026-04-04T13:56:54.011Z</time></trkpt><trkpt lat="43.5817083" lon="11.54698"><ele>142.0</ele><time>2026-04-04T13:56:55.011Z</time></trkpt><trkpt lat="43.5817383" lon="11.5470833"><ele>141.5</ele><time>2026-04-04T13:56:56.013Z</time></trkpt><trkpt lat="43.5817633" lon="11.5471933"><ele>141.0</ele><time>2026-04-04T13:56:57.011Z</time></trkpt><trkpt lat="43.5817867" lon="11.547305"><ele>140.5</ele><time>2026-04-04T13:56:58.011Z</time></trkpt><trkpt lat="43.58181" lon="11.5474217"><ele>140.0</ele><time>2026-04-04T13:56:59.011Z</time></trkpt><trkpt lat="43.5818267" lon="11.54754"><ele>139.5</ele><time>2026-04-04T13:57:00.011Z</time></trkpt><trkpt lat="43.58184" lon="11.5476583"><ele>139.0</ele><time>2026-04-04T13:57:01.011Z</time></trkpt><trkpt lat="43.5818483" lon="11.5477767"><ele>138.5</ele><time>2026-04-04T13:57:02.013Z</time></trkpt><trkpt lat="43.581855" lon="11.54789"><ele>138.0</ele><time>2026-04-04T13:57:03.012Z</time></trkpt><trkpt lat="43.5818617" lon="11.5480033"><ele>138.0</ele><time>2026-04-04T13:57:04.012Z</time></trkpt><trkpt lat="43.5818683" lon="11.5481183"><ele>138.0</ele><time>2026-04-04T13:57:05.011Z</time></trkpt><trkpt lat="43.5818783" lon="11.54823"><ele>138.0</ele><time>2026-04-04T13:57:06.011Z</time></trkpt><trkpt lat="43.5818917" lon="11.5483433"><ele>138.0</ele><time>2026-04-04T13:57:07.011Z</time></trkpt><trkpt lat="43.5819117" lon="11.5484533"><ele>138.0</ele><time>2026-04-04T13:57:08.011Z</time></trkpt><trkpt lat="43.581935" lon="11.5485617"><ele>138.0</ele><time>2026-04-04T13:57:09.012Z</time></trkpt><trkpt lat="43.5819617" lon="11.5486717"><ele>138.16666666666666</ele><time>2026-04-04T13:57:10.012Z</time></trkpt><trkpt lat="43.58199" lon="11.54878"><ele>138.33333333333334</ele><time>2026-04-04T13:57:11.011Z</time></trkpt><trkpt lat="43.58202" lon="11.5488867"><ele>138.5</ele><time>2026-04-04T13:57:12.014Z</time></trkpt><trkpt lat="43.5820517" lon="11.5489883"><ele>138.66666666666669</ele><time>2026-04-04T13:57:13.01Z</time></trkpt><trkpt lat="43.582085" lon="11.54909"><ele>138.83333333333334</ele><time>2026-04-04T13:57:14.011Z</time></trkpt><trkpt lat="43.5821267" lon="11.549195"><ele>139.0</ele><time>2026-04-04T13:57:15.01Z</time></trkpt><trkpt lat="43.58217" lon="11.5492967"><ele>139.0</ele><time>2026-04-04T13:57:16.011Z</time></trkpt><trkpt lat="43.5822133" lon="11.5494017"><ele>139.0</ele><time>2026-04-04T13:57:17.012Z</time></trkpt><trkpt lat="43.5822483" lon="11.5495"><ele>139.0</ele><time>2026-04-04T13:57:18.012Z</time></trkpt><trkpt lat="43.582285" lon="11.5495983"><ele>139.0</ele><time>2026-04-04T13:57:19.012Z</time></trkpt><trkpt lat="43.582325" lon="11.5496983"><ele>139.0</ele><time>2026-04-04T13:57:20.013Z</time></trkpt><trkpt lat="43.5823617" lon="11.5497933"><ele>139.0</ele><time>2026-04-04T13:57:21.011Z</time></trkpt><trkpt lat="43.5824" lon="11.5498933"><ele>139.0</ele><time>2026-04-04T13:57:22.011Z</time></trkpt><trkpt lat="43.5824383" lon="11.5499933"><ele>139.0</ele><time>2026-04-04T13:57:23.009Z</time></trkpt><trkpt lat="43.5824783" lon="11.550095"><ele>139.0</ele><time>2026-04-04T13:57:24.011Z</time></trkpt><trkpt lat="43.5825233" lon="11.5502033"><ele>139.0</ele><time>2026-04-04T13:57:25.012Z</time></trkpt><trkpt lat="43.582565" lon="11.55031"><ele>139.0</ele><time>2026-04-04T13:57:26.012Z</time></trkpt><trkpt lat="43.582605" lon="11.5504117"><ele>139.0</ele><time>2026-04-04T13:57:27.013Z</time></trkpt><trkpt lat="43.582645" lon="11.550515"><ele>139.0</ele><time>2026-04-04T13:57:28.012Z</time></trkpt><trkpt lat="43.5826833" lon="11.5506183"><ele>139.0</ele><time>2026-04-04T13:57:29.012Z</time></trkpt><trkpt lat="43.58272" lon="11.5507233"><ele>139.0</ele><time>2026-04-04T13:57:30.013Z</time></trkpt><trkpt lat="43.5827483" lon="11.550835"><ele>139.0</ele><time>2026-04-04T13:57:31.009Z</time></trkpt><trkpt lat="43.5827717" lon="11.5509417"><ele>139.0</ele><time>2026-04-04T13:57:32.011Z</time></trkpt><trkpt lat="43.5827933" lon="11.5510467"><ele>139.0</ele><time>2026-04-04T13:57:33.013Z</time></trkpt><trkpt lat="43.5828083" lon="11.5511533"><ele>139.0</ele><time>2026-04-04T13:57:34.011Z</time></trkpt><trkpt lat="43.58282" lon="11.5512633"><ele>139.0</ele><time>2026-04-04T13:57:35.011Z</time></trkpt><trkpt lat="43.5828333" lon="11.5513717"><ele>139.0</ele><time>2026-04-04T13:57:36.012Z</time></trkpt><trkpt lat="43.5828517" lon="11.5514817"><ele>139.0</ele><time>2026-04-04T13:57:37.014Z</time></trkpt><trkpt lat="43.5828683" lon="11.5515917"><ele>139.0</ele><time>2026-04-04T13:57:38.013Z</time></trkpt><trkpt lat="43.5828833" lon="11.551695"><ele>139.0</ele><time>2026-04-04T13:57:39.013Z</time></trkpt><trkpt lat="43.582905" lon="11.5517967"><ele>139.16666666666669</ele><time>2026-04-04T13:57:40.011Z</time></trkpt><trkpt lat="43.582925" lon="11.5518867"><ele>139.33333333333334</ele><time>2026-04-04T13:57:41.013Z</time></trkpt><trkpt lat="43.5829567" lon="11.5519917"><ele>139.5</ele><time>2026-04-04T13:57:42.011Z</time></trkpt><trkpt lat="43.58299" lon="11.5520883"><ele>139.66666666666666</ele><time>2026-04-04T13:57:43.012Z</time></trkpt><trkpt lat="43.5830267" lon="11.552175"><ele>139.83333333333331</ele><time>2026-04-04T13:57:44.01Z</time></trkpt><trkpt lat="43.5830683" lon="11.5522583"><ele>140.0</ele><time>2026-04-04T13:57:45.011Z</time></trkpt><trkpt lat="43.5831167" lon="11.5523383"><ele>140.0</ele><time>2026-04-04T13:57:46.012Z</time></trkpt><trkpt lat="43.5831717" lon="11.552405"><ele>140.0</ele><time>2026-04-04T13:57:47.012Z</time></trkpt><trkpt lat="43.5832317" lon="11.55247"><ele>140.0</ele><time>2026-04-04T13:57:48.011Z</time></trkpt><trkpt lat="43.5832933" lon="11.5525267"><ele>140.0</ele><time>2026-04-04T13:57:49.011Z</time></trkpt><trkpt lat="43.5833617" lon="11.55258"><ele>140.0</ele><time>2026-04-04T13:57:50.012Z</time></trkpt><trkpt lat="43.5834333" lon="11.5526317"><ele>140.0</ele><time>2026-04-04T13:57:51.012Z</time></trkpt><trkpt lat="43.583505" lon="11.5526783"><ele>140.0</ele><time>2026-04-04T13:57:52.012Z</time></trkpt><trkpt lat="43.5835783" lon="11.552715"><ele>140.0</ele><time>2026-04-04T13:57:53.012Z</time></trkpt><trkpt lat="43.5836533" lon="11.5527517"><ele>140.0</ele><time>2026-04-04T13:57:54.011Z</time></trkpt><trkpt lat="43.58373" lon="11.55279"><ele>140.0</ele><time>2026-04-04T13:57:55.013Z</time></trkpt><trkpt lat="43.5838067" lon="11.55283"><ele>140.0</ele><time>2026-04-04T13:57:56.01Z</time></trkpt><trkpt lat="43.583885" lon="11.5528667"><ele>140.0</ele><time>2026-04-04T13:57:57.011Z</time></trkpt><trkpt lat="43.5839633" lon="11.5529067"><ele>140.16666666666666</ele><time>2026-04-04T13:57:58.011Z</time></trkpt><trkpt lat="43.58404" lon="11.5529417"><ele>140.33333333333331</ele><time>2026-04-04T13:57:59.013Z</time></trkpt><trkpt lat="43.5841183" lon="11.552975"><ele>140.5</ele><time>2026-04-04T13:58:00.011Z</time></trkpt><trkpt lat="43.584195" lon="11.5530083"><ele>140.66666666666666</ele><time>2026-04-04T13:58:01.013Z</time></trkpt><trkpt lat="43.5842683" lon="11.55304"><ele>140.83333333333334</ele><time>2026-04-04T13:58:02.011Z</time></trkpt><trkpt lat="43.5843417" lon="11.55308"><ele>141.0</ele><time>2026-04-04T13:58:03.011Z</time></trkpt><trkpt lat="43.5844183" lon="11.55312"><ele>141.0</ele><time>2026-04-04T13:58:04.011Z</time></trkpt><trkpt lat="43.5845" lon="11.55316"><ele>141.0</ele><time>2026-04-04T13:58:05.01Z</time></trkpt><trkpt lat="43.584575" lon="11.5531933"><ele>141.0</ele><time>2026-04-04T13:58:06.012Z</time></trkpt><trkpt lat="43.5846483" lon="11.55323"><ele>141.0</ele><time>2026-04-04T13:58:07.011Z</time></trkpt><trkpt lat="43.5847183" lon="11.553265"><ele>141.0</ele><time>2026-04-04T13:58:08.013Z</time></trkpt><trkpt lat="43.5847883" lon="11.5533017"><ele>141.0</ele><time>2026-04-04T13:58:09.012Z</time></trkpt><trkpt lat="43.58486" lon="11.553345"><ele>141.33333333333334</ele><time>2026-04-04T13:58:10.011Z</time></trkpt><trkpt lat="43.5849317" lon="11.5533833"><ele>141.66666666666666</ele><time>2026-04-04T13:58:11.012Z</time></trkpt><trkpt lat="43.5849983" lon="11.5534283"><ele>142.0</ele><time>2026-04-04T13:58:12.011Z</time></trkpt><trkpt lat="43.5850683" lon="11.553475"><ele>142.33333333333331</ele><time>2026-04-04T13:58:13.013Z</time></trkpt><trkpt lat="43.5851333" lon="11.55353"><ele>142.66666666666666</ele><time>2026-04-04T13:58:14.012Z</time></trkpt><trkpt lat="43.5851933" lon="11.5535933"><ele>143.0</ele><time>2026-04-04T13:58:15.013Z</time></trkpt><trkpt lat="43.58525" lon="11.5536633"><ele>142.83333333333331</ele><time>2026-04-04T13:58:16.011Z</time></trkpt><trkpt lat="43.5853" lon="11.553745"><ele>142.66666666666666</ele><time>2026-04-04T13:58:17.012Z</time></trkpt><trkpt lat="43.5853367" lon="11.5538417"><ele>142.5</ele><time>2026-04-04T13:58:18.011Z</time></trkpt><trkpt lat="43.585355" lon="11.5539483"><ele>142.33333333333334</ele><time>2026-04-04T13:58:19.012Z</time></trkpt><trkpt lat="43.5853567" lon="11.5540617"><ele>142.16666666666669</ele><time>2026-04-04T13:58:20.012Z</time></trkpt><trkpt lat="43.5853467" lon="11.5541733"><ele>142.0</ele><time>2026-04-04T13:58:21.012Z</time></trkpt><trkpt lat="43.5853217" lon="11.5542817"><ele>142.0</ele><time>2026-04-04T13:58:22.011Z</time></trkpt><trkpt lat="43.5852883" lon="11.5543833"><ele>142.0</ele><time>2026-04-04T13:58:23.014Z</time></trkpt><trkpt lat="43.5852517" lon="11.55449"><ele>142.0</ele><time>2026-04-04T13:58:24.012Z</time></trkpt><trkpt lat="43.58521" lon="11.5545917"><ele>142.0</ele><time>2026-04-04T13:58:25.011Z</time></trkpt><trkpt lat="43.585165" lon="11.55469"><ele>142.0</ele><time>2026-04-04T13:58:26.011Z</time></trkpt><trkpt lat="43.5851183" lon="11.5547867"><ele>142.0</ele><time>2026-04-04T13:58:27.012Z</time></trkpt><trkpt lat="43.5850683" lon="11.5548833"><ele>141.83333333333334</ele><time>2026-04-04T13:58:28.011Z</time></trkpt><trkpt lat="43.5850233" lon="11.5549783"><ele>141.66666666666669</ele><time>2026-04-04T13:58:29.012Z</time></trkpt><trkpt lat="43.5849767" lon="11.5550717"><ele>141.5</ele><time>2026-04-04T13:58:30.011Z</time></trkpt><trkpt lat="43.584925" lon="11.5551633"><ele>141.33333333333334</ele><time>2026-04-04T13:58:31.013Z</time></trkpt><trkpt lat="43.5848733" lon="11.5552483"><ele>141.16666666666666</ele><time>2026-04-04T13:58:32.012Z</time></trkpt><trkpt lat="43.5848233" lon="11.5553333"><ele>141.0</ele><time>2026-04-04T13:58:33.011Z</time></trkpt><trkpt lat="43.5847767" lon="11.5554183"><ele>141.5</ele><time>2026-04-04T13:58:34.011Z</time></trkpt><trkpt lat="43.5847283" lon="11.5555033"><ele>142.0</ele><time>2026-04-04T13:58:35.012Z</time></trkpt><trkpt lat="43.58468" lon="11.5555933"><ele>142.5</ele><time>2026-04-04T13:58:36.012Z</time></trkpt><trkpt lat="43.5846267" lon="11.5556817"><ele>143.0</ele><time>2026-04-04T13:58:37.011Z</time></trkpt><trkpt lat="43.58457" lon="11.55577"><ele>143.5</ele><time>2026-04-04T13:58:38.011Z</time></trkpt><trkpt lat="43.5845133" lon="11.5558583"><ele>144.0</ele><time>2026-04-04T13:58:39.012Z</time></trkpt><trkpt lat="43.58446" lon="11.55595"><ele>144.16666666666666</ele><time>2026-04-04T13:58:40.01Z</time></trkpt><trkpt lat="43.5844083" lon="11.5560383"><ele>144.33333333333334</ele><time>2026-04-04T13:58:41.013Z</time></trkpt><trkpt lat="43.5843583" lon="11.5561167"><ele>144.5</ele><time>2026-04-04T13:58:42.011Z</time></trkpt><trkpt lat="43.5843083" lon="11.5562"><ele>144.66666666666669</ele><time>2026-04-04T13:58:43.015Z</time></trkpt><trkpt lat="43.5842567" lon="11.55628"><ele>144.83333333333334</ele><time>2026-04-04T13:58:44.011Z</time></trkpt><trkpt lat="43.584205" lon="11.55636"><ele>145.0</ele><time>2026-04-04T13:58:45.011Z</time></trkpt><trkpt lat="43.5841567" lon="11.5564433"><ele>145.0</ele><time>2026-04-04T13:58:46.012Z</time></trkpt><trkpt lat="43.5841067" lon="11.5565283"><ele>145.0</ele><time>2026-04-04T13:58:47.013Z</time></trkpt><trkpt lat="43.58406" lon="11.5566117"><ele>145.0</ele><time>2026-04-04T13:58:48.011Z</time></trkpt><trkpt lat="43.5840167" lon="11.556695"><ele>145.0</ele><time>2026-04-04T13:58:49.011Z</time></trkpt><trkpt lat="43.5839783" lon="11.556785"><ele>145.0</ele><time>2026-04-04T13:58:50.012Z</time></trkpt><trkpt lat="43.583945" lon="11.5568767"><ele>145.0</ele><time>2026-04-04T13:58:51.011Z</time></trkpt><trkpt lat="43.5839167" lon="11.55697"><ele>145.16666666666669</ele><time>2026-04-04T13:58:52.011Z</time></trkpt><trkpt lat="43.5838883" lon="11.5570617"><ele>145.33333333333334</ele><time>2026-04-04T13:58:53.012Z</time></trkpt><trkpt lat="43.5838633" lon="11.5571583"><ele>145.5</ele><time>2026-04-04T13:58:54.011Z</time></trkpt><trkpt lat="43.58384" lon="11.5572617"><ele>145.66666666666666</ele><time>2026-04-04T13:58:55.011Z</time></trkpt><trkpt lat="43.5838217" lon="11.5573633"><ele>145.83333333333331</ele><time>2026-04-04T13:58:56.012Z</time></trkpt><trkpt lat="43.5838033" lon="11.557465"><ele>146.0</ele><time>2026-04-04T13:58:57.012Z</time></trkpt><trkpt lat="43.5837867" lon="11.557585"><ele>146.0</ele><time>2026-04-04T13:58:58.011Z</time></trkpt><trkpt lat="43.5837817" lon="11.557695"><ele>146.0</ele><time>2026-04-04T13:58:59.011Z</time></trkpt><trkpt lat="43.5837833" lon="11.5577933"><ele>146.0</ele><time>2026-04-04T13:59:00.01Z</time></trkpt><trkpt lat="43.5837933" lon="11.5578917"><ele>146.0</ele><time>2026-04-04T13:59:01.011Z</time></trkpt><trkpt lat="43.5838067" lon="11.5579867"><ele>146.0</ele><time>2026-04-04T13:59:02.013Z</time></trkpt><trkpt lat="43.5838267" lon="11.5580833"><ele>146.0</ele><time>2026-04-04T13:59:03.011Z</time></trkpt><trkpt lat="43.583855" lon="11.5581783"><ele>146.0</ele><time>2026-04-04T13:59:04.008Z</time></trkpt><trkpt lat="43.5838867" lon="11.5582717"><ele>146.14285714285714</ele><time>2026-04-04T13:59:05.009Z</time></trkpt><trkpt lat="43.583915" lon="11.5583617"><ele>146.28571428571428</ele><time>2026-04-04T13:59:06.011Z</time></trkpt><trkpt lat="43.583945" lon="11.558445"><ele>146.42857142857144</ele><time>2026-04-04T13:59:07.009Z</time></trkpt><trkpt lat="43.5839817" lon="11.558535"><ele>146.57142857142856</ele><time>2026-04-04T13:59:08.01Z</time></trkpt><trkpt lat="43.5840117" lon="11.5586133"><ele>146.71428571428572</ele><time>2026-04-04T13:59:09.011Z</time></trkpt><trkpt lat="43.5840467" lon="11.5586967"><ele>146.85714285714286</ele><time>2026-04-04T13:59:10.009Z</time></trkpt><trkpt lat="43.5840833" lon="11.55878"><ele>147.0</ele><time>2026-04-04T13:59:11.01Z</time></trkpt><trkpt lat="43.5841217" lon="11.5588617"><ele>146.57142857142858</ele><time>2026-04-04T13:59:12.01Z</time></trkpt><trkpt lat="43.5841633" lon="11.558945"><ele>146.14285714285714</ele><time>2026-04-04T13:59:13.011Z</time></trkpt><trkpt lat="43.5841983" lon="11.55903"><ele>145.71428571428572</ele><time>2026-04-04T13:59:14.012Z</time></trkpt><trkpt lat="43.5842417" lon="11.5591183"><ele>145.28571428571428</ele><time>2026-04-04T13:59:15.01Z</time></trkpt><trkpt lat="43.5842817" lon="11.5592067"><ele>144.85714285714286</ele><time>2026-04-04T13:59:16.011Z</time></trkpt><trkpt lat="43.5843167" lon="11.55929"><ele>144.42857142857144</ele><time>2026-04-04T13:59:17.011Z</time></trkpt><trkpt lat="43.58436" lon="11.5593717"><ele>144.0</ele><time>2026-04-04T13:59:18.01Z</time></trkpt><trkpt lat="43.5844083" lon="11.559455"><ele>144.0</ele><time>2026-04-04T13:59:19.012Z</time></trkpt><trkpt lat="43.5844567" lon="11.5595483"><ele>144.0</ele><time>2026-04-04T13:59:20.01Z</time></trkpt><trkpt lat="43.5845033" lon="11.5596317"><ele>144.0</ele><time>2026-04-04T13:59:21.012Z</time></trkpt><trkpt lat="43.58455" lon="11.5597333"><ele>144.0</ele><time>2026-04-04T13:59:22.011Z</time></trkpt><trkpt lat="43.5846" lon="11.559815"><ele>144.0</ele><time>2026-04-04T13:59:23.01Z</time></trkpt><trkpt lat="43.58465" lon="11.5598967"><ele>144.0</ele><time>2026-04-04T13:59:24.01Z</time></trkpt><trkpt lat="43.5847" lon="11.5599767"><ele>144.0</ele><time>2026-04-04T13:59:25.01Z</time></trkpt><trkpt lat="43.5847517" lon="11.5600583"><ele>144.0</ele><time>2026-04-04T13:59:26.01Z</time></trkpt><trkpt lat="43.584805" lon="11.560135"><ele>144.0</ele><time>2026-04-04T13:59:27.01Z</time></trkpt><trkpt lat="43.5848517" lon="11.5602083"><ele>144.0</ele><time>2026-04-04T13:59:28.01Z</time></trkpt><trkpt lat="43.584905" lon="11.5602833"><ele>144.0</ele><time>2026-04-04T13:59:29.014Z</time></trkpt><trkpt lat="43.5849583" lon="11.56036"><ele>144.0</ele><time>2026-04-04T13:59:30.011Z</time></trkpt><trkpt lat="43.58501" lon="11.5604417"><ele>143.85714285714286</ele><time>2026-04-04T13:59:31.01Z</time></trkpt><trkpt lat="43.5850617" lon="11.5605183"><ele>143.71428571428572</ele><time>2026-04-04T13:59:32.011Z</time></trkpt><trkpt lat="43.585115" lon="11.560595"><ele>143.57142857142856</ele><time>2026-04-04T13:59:33.011Z</time></trkpt><trkpt lat="43.5851633" lon="11.5606667"><ele>143.42857142857144</ele><time>2026-04-04T13:59:34.011Z</time></trkpt><trkpt lat="43.5852167" lon="11.56074"><ele>143.28571428571428</ele><time>2026-04-04T13:59:35.01Z</time></trkpt><trkpt lat="43.5852633" lon="11.560815"><ele>143.14285714285714</ele><time>2026-04-04T13:59:36.01Z</time></trkpt><trkpt lat="43.5853117" lon="11.5608933"><ele>143.0</ele><time>2026-04-04T13:59:37.01Z</time></trkpt><trkpt lat="43.5853567" lon="11.5609717"><ele>143.57142857142856</ele><time>2026-04-04T13:59:38.011Z</time></trkpt><trkpt lat="43.5854083" lon="11.5610483"><ele>144.14285714285714</ele><time>2026-04-04T13:59:39.012Z</time></trkpt><trkpt lat="43.585455" lon="11.5611333"><ele>144.71428571428572</ele><time>2026-04-04T13:59:40.011Z</time></trkpt><trkpt lat="43.5855" lon="11.5612117"><ele>145.28571428571428</ele><time>2026-04-04T13:59:41.011Z</time></trkpt><trkpt lat="43.58555" lon="11.5612917"><ele>145.85714285714286</ele><time>2026-04-04T13:59:42.01Z</time></trkpt><trkpt lat="43.5855967" lon="11.5613717"><ele>146.42857142857142</ele><time>2026-04-04T13:59:43.009Z</time></trkpt><trkpt lat="43.58564" lon="11.561445"><ele>147.0</ele><time>2026-04-04T13:59:44.01Z</time></trkpt><trkpt lat="43.5856867" lon="11.5615317"><ele>147.0</ele><time>2026-04-04T13:59:45.009Z</time></trkpt><trkpt lat="43.585725" lon="11.5616133"><ele>147.0</ele><time>2026-04-04T13:59:46.009Z</time></trkpt><trkpt lat="43.58577" lon="11.561695"><ele>147.0</ele><time>2026-04-04T13:59:47.011Z</time></trkpt><trkpt lat="43.58581" lon="11.5617733"><ele>147.0</ele><time>2026-04-04T13:59:48.011Z</time></trkpt><trkpt lat="43.585855" lon="11.5618533"><ele>147.0</ele><time>2026-04-04T13:59:49.011Z</time></trkpt><trkpt lat="43.5859017" lon="11.561935"><ele>147.0</ele><time>2026-04-04T13:59:50.011Z</time></trkpt><trkpt lat="43.5859483" lon="11.5620117"><ele>147.0</ele><time>2026-04-04T13:59:51.01Z</time></trkpt><trkpt lat="43.5859933" lon="11.5620917"><ele>147.0</ele><time>2026-04-04T13:59:52.009Z</time></trkpt><trkpt lat="43.58604" lon="11.562175"><ele>147.0</ele><time>2026-04-04T13:59:53.011Z</time></trkpt><trkpt lat="43.58609" lon="11.56226"><ele>147.0</ele><time>2026-04-04T13:59:54.01Z</time></trkpt><trkpt lat="43.58614" lon="11.5623433"><ele>147.0</ele><time>2026-04-04T13:59:55.011Z</time></trkpt><trkpt lat="43.5861883" lon="11.562425"><ele>147.0</ele><time>2026-04-04T13:59:56.01Z</time></trkpt><trkpt lat="43.586235" lon="11.5625083"><ele>147.0</ele><time>2026-04-04T13:59:57.01Z</time></trkpt><trkpt lat="43.5862783" lon="11.5625933"><ele>147.0</ele><time>2026-04-04T13:59:58.01Z</time></trkpt><trkpt lat="43.58632" lon="11.5626767"><ele>147.0</ele><time>2026-04-04T13:59:59.011Z</time></trkpt><trkpt lat="43.5863617" lon="11.5627617"><ele>147.0</ele><time>2026-04-04T14:00:00.011Z</time></trkpt><trkpt lat="43.5864033" lon="11.562845"><ele>147.0</ele><time>2026-04-04T14:00:01.01Z</time></trkpt><trkpt lat="43.5864417" lon="11.5629317"><ele>147.0</ele><time>2026-04-04T14:00:02.011Z</time></trkpt><trkpt lat="43.5864867" lon="11.5630167"><ele>147.0</ele><time>2026-04-04T14:00:03.011Z</time></trkpt><trkpt lat="43.5865267" lon="11.5631"><ele>147.0</ele><time>2026-04-04T14:00:04.011Z</time></trkpt><trkpt lat="43.586565" lon="11.56319"><ele>147.0</ele><time>2026-04-04T14:00:05.011Z</time></trkpt><trkpt lat="43.586605" lon="11.5632783"><ele>147.0</ele><time>2026-04-04T14:00:06.012Z</time></trkpt><trkpt lat="43.5866367" lon="11.5633617"><ele>147.0</ele><time>2026-04-04T14:00:07.012Z</time></trkpt><trkpt lat="43.58667" lon="11.563445"><ele>147.0</ele><time>2026-04-04T14:00:08.013Z</time></trkpt><trkpt lat="43.5867017" lon="11.5635283"><ele>147.0</ele><time>2026-04-04T14:00:09.011Z</time></trkpt><trkpt lat="43.5867333" lon="11.5636133"><ele>147.0</ele><time>2026-04-04T14:00:10.011Z</time></trkpt><trkpt lat="43.5867633" lon="11.5636983"><ele>147.0</ele><time>2026-04-04T14:00:11.01Z</time></trkpt><trkpt lat="43.5867983" lon="11.5637867"><ele>147.0</ele><time>2026-04-04T14:00:12.013Z</time></trkpt><trkpt lat="43.586835" lon="11.563875"><ele>147.0</ele><time>2026-04-04T14:00:13.011Z</time></trkpt><trkpt lat="43.58687" lon="11.5639633"><ele>147.0</ele><time>2026-04-04T14:00:14.01Z</time></trkpt><trkpt lat="43.586905" lon="11.5640517"><ele>147.0</ele><time>2026-04-04T14:00:15.01Z</time></trkpt><trkpt lat="43.58694" lon="11.5641417"><ele>147.0</ele><time>2026-04-04T14:00:16.009Z</time></trkpt><trkpt lat="43.5869733" lon="11.56423"><ele>147.0</ele><time>2026-04-04T14:00:17.013Z</time></trkpt><trkpt lat="43.58701" lon="11.5643167"><ele>147.0</ele><time>2026-04-04T14:00:18.01Z</time></trkpt><trkpt lat="43.5870467" lon="11.5644083"><ele>147.0</ele><time>2026-04-04T14:00:19.011Z</time></trkpt><trkpt lat="43.58708" lon="11.5645033"><ele>147.0</ele><time>2026-04-04T14:00:20.012Z</time></trkpt><trkpt lat="43.5871133" lon="11.564595"><ele>147.0</ele><time>2026-04-04T14:00:21.011Z</time></trkpt><trkpt lat="43.5871417" lon="11.5646883"><ele>147.0</ele><time>2026-04-04T14:00:22.011Z</time></trkpt><trkpt lat="43.5871683" lon="11.5647867"><ele>147.0</ele><time>2026-04-04T14:00:23.01Z</time></trkpt><trkpt lat="43.5871933" lon="11.564885"><ele>147.0</ele><time>2026-04-04T14:00:24.011Z</time></trkpt><trkpt lat="43.5872233" lon="11.5649917"><ele>147.0</ele><time>2026-04-04T14:00:25.01Z</time></trkpt><trkpt lat="43.58725" lon="11.5650967"><ele>147.0</ele><time>2026-04-04T14:00:26.013Z</time></trkpt><trkpt lat="43.5872733" lon="11.5651967"><ele>147.0</ele><time>2026-04-04T14:00:27.011Z</time></trkpt><trkpt lat="43.5873" lon="11.565295"><ele>147.0</ele><time>2026-04-04T14:00:28.01Z</time></trkpt><trkpt lat="43.587325" lon="11.5653933"><ele>147.0</ele><time>2026-04-04T14:00:29.011Z</time></trkpt><trkpt lat="43.5873433" lon="11.5654883"><ele>147.0</ele><time>2026-04-04T14:00:30.01Z</time></trkpt><trkpt lat="43.587365" lon="11.5655833"><ele>147.14285714285714</ele><time>2026-04-04T14:00:31.012Z</time></trkpt><trkpt lat="43.58739" lon="11.56568"><ele>147.28571428571428</ele><time>2026-04-04T14:00:32.011Z</time></trkpt><trkpt lat="43.5874117" lon="11.5657733"><ele>147.42857142857144</ele><time>2026-04-04T14:00:33.01Z</time></trkpt><trkpt lat="43.5874317" lon="11.565865"><ele>147.57142857142856</ele><time>2026-04-04T14:00:34.01Z</time></trkpt><trkpt lat="43.5874567" lon="11.56596"><ele>147.71428571428572</ele><time>2026-04-04T14:00:35.011Z</time></trkpt><trkpt lat="43.58748" lon="11.5660567"><ele>147.85714285714286</ele><time>2026-04-04T14:00:36.014Z</time></trkpt><trkpt lat="43.5875033" lon="11.56615"><ele>148.0</ele><time>2026-04-04T14:00:37.012Z</time></trkpt><trkpt lat="43.5875267" lon="11.5662483"><ele>148.28571428571428</ele><time>2026-04-04T14:00:38.013Z</time></trkpt><trkpt lat="43.5875483" lon="11.566345"><ele>148.57142857142856</ele><time>2026-04-04T14:00:39.01Z</time></trkpt><trkpt lat="43.58757" lon="11.5664383"><ele>148.85714285714283</ele><time>2026-04-04T14:00:40.011Z</time></trkpt><trkpt lat="43.5875917" lon="11.56653"><ele>149.14285714285714</ele><time>2026-04-04T14:00:41.012Z</time></trkpt><trkpt lat="43.5876117" lon="11.566625"><ele>149.42857142857142</ele><time>2026-04-04T14:00:42.012Z</time></trkpt><trkpt lat="43.587635" lon="11.5667233"><ele>149.7142857142857</ele><time>2026-04-04T14:00:43.012Z</time></trkpt><trkpt lat="43.5876583" lon="11.5668183"><ele>150.0</ele><time>2026-04-04T14:00:44.011Z</time></trkpt><trkpt lat="43.5876833" lon="11.5669083"><ele>149.99999999999997</ele><time>2026-04-04T14:00:45.011Z</time></trkpt><trkpt lat="43.5877117" lon="11.5670033"><ele>150.0</ele><time>2026-04-04T14:00:46.012Z</time></trkpt><trkpt lat="43.587745" lon="11.5670917"><ele>150.0</ele><time>2026-04-04T14:00:47.011Z</time></trkpt><trkpt lat="43.587775" lon="11.5671817"><ele>150.0</ele><time>2026-04-04T14:00:48.011Z</time></trkpt><trkpt lat="43.58781" lon="11.56727"><ele>150.0</ele><time>2026-04-04T14:00:49.011Z</time></trkpt><trkpt lat="43.5878433" lon="11.5673533"><ele>149.99999999999997</ele><time>2026-04-04T14:00:50.011Z</time></trkpt><trkpt lat="43.5878783" lon="11.5674383"><ele>150.0</ele><time>2026-04-04T14:00:51.012Z</time></trkpt><trkpt lat="43.587915" lon="11.5675233"><ele>149.99999999999997</ele><time>2026-04-04T14:00:52.012Z</time></trkpt><trkpt lat="43.5879567" lon="11.567605"><ele>150.0</ele><time>2026-04-04T14:00:53.011Z</time></trkpt><trkpt lat="43.5879983" lon="11.567685"><ele>150.0</ele><time>2026-04-04T14:00:54.012Z</time></trkpt><trkpt lat="43.5880417" lon="11.567765"><ele>150.0</ele><time>2026-04-04T14:00:55.011Z</time></trkpt><trkpt lat="43.5880817" lon="11.5678467"><ele>150.0</ele><time>2026-04-04T14:00:56.012Z</time></trkpt><trkpt lat="43.588125" lon="11.5679283"><ele>149.99999999999997</ele><time>2026-04-04T14:00:57.011Z</time></trkpt><trkpt lat="43.5881683" lon="11.5680083"><ele>150.0</ele><time>2026-04-04T14:00:58.012Z</time></trkpt><trkpt lat="43.58821" lon="11.5680833"><ele>150.28571428571428</ele><time>2026-04-04T14:00:59.012Z</time></trkpt><trkpt lat="43.5882533" lon="11.5681617"><ele>150.57142857142856</ele><time>2026-04-04T14:01:00.014Z</time></trkpt><trkpt lat="43.5883" lon="11.5682383"><ele>150.85714285714283</ele><time>2026-04-04T14:01:01.013Z</time></trkpt><trkpt lat="43.588345" lon="11.568315"><ele>151.14285714285714</ele><time>2026-04-04T14:01:02.011Z</time></trkpt><trkpt lat="43.5883867" lon="11.5683917"><ele>151.42857142857144</ele><time>2026-04-04T14:01:03.012Z</time></trkpt><trkpt lat="43.5884283" lon="11.5684717"><ele>151.7142857142857</ele><time>2026-04-04T14:01:04.01Z</time></trkpt><trkpt lat="43.5884667" lon="11.5685567"><ele>152.0</ele><time>2026-04-04T14:01:05.012Z</time></trkpt><trkpt lat="43.5885" lon="11.5686383"><ele>151.83333333333331</ele><time>2026-04-04T14:01:06.011Z</time></trkpt><trkpt lat="43.588535" lon="11.568725"><ele>151.66666666666666</ele><time>2026-04-04T14:01:07.011Z</time></trkpt><trkpt lat="43.5885717" lon="11.5688133"><ele>151.5</ele><time>2026-04-04T14:01:08.01Z</time></trkpt><trkpt lat="43.58861" lon="11.5689"><ele>151.33333333333334</ele><time>2026-04-04T14:01:09.011Z</time></trkpt><trkpt lat="43.58865" lon="11.56899"><ele>151.16666666666669</ele><time>2026-04-04T14:01:10.01Z</time></trkpt><trkpt lat="43.5886933" lon="11.56908"><ele>151.0</ele><time>2026-04-04T14:01:11.011Z</time></trkpt><trkpt lat="43.588735" lon="11.5691683"><ele>151.0</ele><time>2026-04-04T14:01:12.012Z</time></trkpt><trkpt lat="43.5887767" lon="11.5692567"><ele>151.0</ele><time>2026-04-04T14:01:13.012Z</time></trkpt><trkpt lat="43.5888183" lon="11.569345"><ele>151.0</ele><time>2026-04-04T14:01:14.014Z</time></trkpt><trkpt lat="43.5888583" lon="11.56943"><ele>151.0</ele><time>2026-04-04T14:01:15.01Z</time></trkpt><trkpt lat="43.5889017" lon="11.5695167"><ele>151.0</ele><time>2026-04-04T14:01:16.011Z</time></trkpt><trkpt lat="43.588945" lon="11.5695967"><ele>151.0</ele><time>2026-04-04T14:01:17.011Z</time></trkpt><trkpt lat="43.588995" lon="11.569675"><ele>151.14285714285717</ele><time>2026-04-04T14:01:18.014Z</time></trkpt><trkpt lat="43.5890483" lon="11.569745"><ele>151.28571428571428</ele><time>2026-04-04T14:01:19.014Z</time></trkpt><trkpt lat="43.5891017" lon="11.569815"><ele>151.42857142857144</ele><time>2026-04-04T14:01:20.011Z</time></trkpt><trkpt lat="43.5891533" lon="11.56989"><ele>151.57142857142858</ele><time>2026-04-04T14:01:21.012Z</time></trkpt><trkpt lat="43.5891933" lon="11.56997"><ele>151.71428571428572</ele><time>2026-04-04T14:01:22.009Z</time></trkpt><trkpt lat="43.589225" lon="11.5700583"><ele>151.85714285714286</ele><time>2026-04-04T14:01:23.011Z</time></trkpt><trkpt lat="43.5892483" lon="11.5701517"><ele>152.0</ele><time>2026-04-04T14:01:24.01Z</time></trkpt><trkpt lat="43.5892567" lon="11.5702467"><ele>152.0</ele><time>2026-04-04T14:01:25.011Z</time></trkpt><trkpt lat="43.5892583" lon="11.5703433"><ele>152.0</ele><time>2026-04-04T14:01:26.011Z</time></trkpt><trkpt lat="43.5892517" lon="11.57044"><ele>152.0</ele><time>2026-04-04T14:01:27.012Z</time></trkpt><trkpt lat="43.589245" lon="11.57054"><ele>152.0</ele><time>2026-04-04T14:01:28.012Z</time></trkpt><trkpt lat="43.58923" lon="11.57063"><ele>152.0</ele><time>2026-04-04T14:01:29.011Z</time></trkpt><trkpt lat="43.5892083" lon="11.57072"><ele>152.0</ele><time>2026-04-04T14:01:30.012Z</time></trkpt><trkpt lat="43.5891817" lon="11.5708083"><ele>152.0</ele><time>2026-04-04T14:01:31.013Z</time></trkpt><trkpt lat="43.58915" lon="11.5708933"><ele>152.28571428571428</ele><time>2026-04-04T14:01:32.012Z</time></trkpt><trkpt lat="43.5891167" lon="11.5709817"><ele>152.57142857142858</ele><time>2026-04-04T14:01:33.012Z</time></trkpt><trkpt lat="43.5890833" lon="11.5710667"><ele>152.85714285714286</ele><time>2026-04-04T14:01:34.012Z</time></trkpt><trkpt lat="43.5890517" lon="11.5711533"><ele>153.14285714285714</ele><time>2026-04-04T14:01:35.013Z</time></trkpt><trkpt lat="43.5890117" lon="11.5712383"><ele>153.42857142857144</ele><time>2026-04-04T14:01:36.012Z</time></trkpt><trkpt lat="43.5889683" lon="11.57133"><ele>153.71428571428572</ele><time>2026-04-04T14:01:37.013Z</time></trkpt><trkpt lat="43.5889283" lon="11.571415"><ele>154.0</ele><time>2026-04-04T14:01:38.013Z</time></trkpt><trkpt lat="43.58889" lon="11.5715"><ele>154.0</ele><time>2026-04-04T14:01:39.012Z</time></trkpt><trkpt lat="43.5888517" lon="11.571585"><ele>154.0</ele><time>2026-04-04T14:01:40.014Z</time></trkpt><trkpt lat="43.588785" lon="11.57173"><ele>154.0</ele><time>2026-04-04T14:01:42.012Z</time></trkpt><trkpt lat="43.5887467" lon="11.5718067"><ele>154.0</ele><time>2026-04-04T14:01:43.013Z</time></trkpt><trkpt lat="43.5887067" lon="11.57189"><ele>154.0</ele><time>2026-04-04T14:01:44.012Z</time></trkpt><trkpt lat="43.5886667" lon="11.571975"><ele>154.0</ele><time>2026-04-04T14:01:45.011Z</time></trkpt><trkpt lat="43.5886317" lon="11.5720717"><ele>154.0</ele><time>2026-04-04T14:01:46.012Z</time></trkpt><trkpt lat="43.588595" lon="11.5721533"><ele>154.0</ele><time>2026-04-04T14:01:47.013Z</time></trkpt><trkpt lat="43.5885567" lon="11.572235"><ele>154.0</ele><time>2026-04-04T14:01:48.012Z</time></trkpt><trkpt lat="43.5885183" lon="11.5723383"><ele>154.0</ele><time>2026-04-04T14:01:49.012Z</time></trkpt><trkpt lat="43.58848" lon="11.5724167"><ele>154.0</ele><time>2026-04-04T14:01:50.014Z</time></trkpt><trkpt lat="43.5884383" lon="11.5724967"><ele>154.0</ele><time>2026-04-04T14:01:51.011Z</time></trkpt><trkpt lat="43.5884033" lon="11.57257"><ele>154.0</ele><time>2026-04-04T14:01:52.012Z</time></trkpt><trkpt lat="43.588365" lon="11.57265"><ele>154.0</ele><time>2026-04-04T14:01:53.01Z</time></trkpt><trkpt lat="43.5883283" lon="11.57273"><ele>154.0</ele><time>2026-04-04T14:01:54.011Z</time></trkpt><trkpt lat="43.5882917" lon="11.57281"><ele>154.0</ele><time>2026-04-04T14:01:55.01Z</time></trkpt><trkpt lat="43.58825" lon="11.5728883"><ele>154.0</ele><time>2026-04-04T14:01:56.013Z</time></trkpt><trkpt lat="43.58821" lon="11.5729683"><ele>154.0</ele><time>2026-04-04T14:01:57.013Z</time></trkpt><trkpt lat="43.5881733" lon="11.5730433"><ele>154.0</ele><time>2026-04-04T14:01:58.01Z</time></trkpt><trkpt lat="43.5881367" lon="11.5731283"><ele>154.0</ele><time>2026-04-04T14:01:59.011Z</time></trkpt><trkpt lat="43.5880933" lon="11.5732067"><ele>154.0</ele><time>2026-04-04T14:02:00.011Z</time></trkpt><trkpt lat="43.58805" lon="11.5732783"><ele>154.0</ele><time>2026-04-04T14:02:01.01Z</time></trkpt><trkpt lat="43.5880067" lon="11.5733483"><ele>154.0</ele><time>2026-04-04T14:02:02.011Z</time></trkpt><trkpt lat="43.5879667" lon="11.57343"><ele>154.0</ele><time>2026-04-04T14:02:03.011Z</time></trkpt><trkpt lat="43.58793" lon="11.5735133"><ele>154.0</ele><time>2026-04-04T14:02:04.011Z</time></trkpt><trkpt lat="43.58789" lon="11.5735983"><ele>154.0</ele><time>2026-04-04T14:02:05.011Z</time></trkpt><trkpt lat="43.5878517" lon="11.57368"><ele>154.0</ele><time>2026-04-04T14:02:06.011Z</time></trkpt><trkpt lat="43.5878133" lon="11.5737667"><ele>154.28571428571428</ele><time>2026-04-04T14:02:07.011Z</time></trkpt><trkpt lat="43.5877783" lon="11.5738567"><ele>154.57142857142856</ele><time>2026-04-04T14:02:08.014Z</time></trkpt><trkpt lat="43.5877433" lon="11.5739417"><ele>154.85714285714286</ele><time>2026-04-04T14:02:09.012Z</time></trkpt><trkpt lat="43.5877" lon="11.5740333"><ele>155.14285714285714</ele><time>2026-04-04T14:02:10.011Z</time></trkpt><trkpt lat="43.5876567" lon="11.5741167"><ele>155.42857142857142</ele><time>2026-04-04T14:02:11.012Z</time></trkpt><trkpt lat="43.58762" lon="11.5741983"><ele>155.71428571428572</ele><time>2026-04-04T14:02:12.011Z</time></trkpt><trkpt lat="43.58759" lon="11.5742783"><ele>156.0</ele><time>2026-04-04T14:02:13.013Z</time></trkpt><trkpt lat="43.5875567" lon="11.5743583"><ele>156.0</ele><time>2026-04-04T14:02:14.012Z</time></trkpt><trkpt lat="43.5875217" lon="11.5744517"><ele>156.0</ele><time>2026-04-04T14:02:15.011Z</time></trkpt><trkpt lat="43.587485" lon="11.5745367"><ele>156.0</ele><time>2026-04-04T14:02:16.011Z</time></trkpt><trkpt lat="43.5874467" lon="11.574615"><ele>156.0</ele><time>2026-04-04T14:02:17.011Z</time></trkpt><trkpt lat="43.5874067" lon="11.5746933"><ele>156.0</ele><time>2026-04-04T14:02:18.011Z</time></trkpt><trkpt lat="43.587365" lon="11.5747767"><ele>156.0</ele><time>2026-04-04T14:02:19.011Z</time></trkpt><trkpt lat="43.587325" lon="11.5748617"><ele>156.0</ele><time>2026-04-04T14:02:20.012Z</time></trkpt><trkpt lat="43.58728" lon="11.57495"><ele>156.16666666666666</ele><time>2026-04-04T14:02:21.014Z</time></trkpt><trkpt lat="43.5872333" lon="11.575035"><ele>156.33333333333334</ele><time>2026-04-04T14:02:22.01Z</time></trkpt><trkpt lat="43.58719" lon="11.5751167"><ele>156.5</ele><time>2026-04-04T14:02:23.012Z</time></trkpt><trkpt lat="43.58715" lon="11.5752"><ele>156.66666666666669</ele><time>2026-04-04T14:02:24.011Z</time></trkpt><trkpt lat="43.5871033" lon="11.5752867"><ele>156.83333333333334</ele><time>2026-04-04T14:02:25.011Z</time></trkpt><trkpt lat="43.5870533" lon="11.5753683"><ele>157.0</ele><time>2026-04-04T14:02:26.01Z</time></trkpt><trkpt lat="43.5870017" lon="11.5754467"><ele>156.99999999999997</ele><time>2026-04-04T14:02:27.012Z</time></trkpt><trkpt lat="43.5869517" lon="11.5755167"><ele>157.0</ele><time>2026-04-04T14:02:28.011Z</time></trkpt><trkpt lat="43.5869017" lon="11.5755867"><ele>157.0</ele><time>2026-04-04T14:02:29.009Z</time></trkpt><trkpt lat="43.5868533" lon="11.5756667"><ele>157.0</ele><time>2026-04-04T14:02:30.012Z</time></trkpt><trkpt lat="43.5868017" lon="11.5757383"><ele>157.0</ele><time>2026-04-04T14:02:31.011Z</time></trkpt><trkpt lat="43.5867483" lon="11.5758083"><ele>156.99999999999997</ele><time>2026-04-04T14:02:32.012Z</time></trkpt><trkpt lat="43.5866983" lon="11.5758783"><ele>157.0</ele><time>2026-04-04T14:02:33.012Z</time></trkpt><trkpt lat="43.58664" lon="11.5759517"><ele>156.99999999999997</ele><time>2026-04-04T14:02:34.012Z</time></trkpt><trkpt lat="43.5865883" lon="11.5760233"><ele>157.0</ele><time>2026-04-04T14:02:35.012Z</time></trkpt><trkpt lat="43.5865367" lon="11.576085"><ele>157.0</ele><time>2026-04-04T14:02:36.011Z</time></trkpt><trkpt lat="43.5864867" lon="11.5761433"><ele>157.0</ele><time>2026-04-04T14:02:37.012Z</time></trkpt><trkpt lat="43.5864267" lon="11.5762033"><ele>157.0</ele><time>2026-04-04T14:02:38.013Z</time></trkpt><trkpt lat="43.5863667" lon="11.5762633"><ele>156.99999999999997</ele><time>2026-04-04T14:02:39.012Z</time></trkpt><trkpt lat="43.586305" lon="11.576325"><ele>157.0</ele><time>2026-04-04T14:02:40.013Z</time></trkpt><trkpt lat="43.5862417" lon="11.5763833"><ele>156.99999999999997</ele><time>2026-04-04T14:02:41.012Z</time></trkpt><trkpt lat="43.5861783" lon="11.5764417"><ele>157.0</ele><time>2026-04-04T14:02:42.011Z</time></trkpt><trkpt lat="43.5861183" lon="11.5765"><ele>157.0</ele><time>2026-04-04T14:02:43.011Z</time></trkpt><trkpt lat="43.5860617" lon="11.576555"><ele>157.0</ele><time>2026-04-04T14:02:44.012Z</time></trkpt><trkpt lat="43.586" lon="11.5766133"><ele>157.0</ele><time>2026-04-04T14:02:45.013Z</time></trkpt><trkpt lat="43.58594" lon="11.57667"><ele>156.99999999999997</ele><time>2026-04-04T14:02:46.01Z</time></trkpt><trkpt lat="43.5858833" lon="11.5767267"><ele>157.0</ele><time>2026-04-04T14:02:47.011Z</time></trkpt><trkpt lat="43.5858183" lon="11.5767833"><ele>156.99999999999997</ele><time>2026-04-04T14:02:48.012Z</time></trkpt><trkpt lat="43.5857533" lon="11.5768333"><ele>157.0</ele><time>2026-04-04T14:02:49.011Z</time></trkpt><trkpt lat="43.5856917" lon="11.5768783"><ele>157.0</ele><time>2026-04-04T14:02:50.012Z</time></trkpt><trkpt lat="43.58563" lon="11.5769233"><ele>157.0</ele><time>2026-04-04T14:02:51.011Z</time></trkpt><trkpt lat="43.5855683" lon="11.5769633"><ele>157.0</ele><time>2026-04-04T14:02:52.011Z</time></trkpt><trkpt lat="43.5855083" lon="11.5770017"><ele>156.99999999999997</ele><time>2026-04-04T14:02:53.011Z</time></trkpt><trkpt lat="43.5854433" lon="11.5770417"><ele>157.0</ele><time>2026-04-04T14:02:54.012Z</time></trkpt><trkpt lat="43.5853783" lon="11.5770833"><ele>157.14285714285714</ele><time>2026-04-04T14:02:55.01Z</time></trkpt><trkpt lat="43.5853117" lon="11.5771267"><ele>157.28571428571428</ele><time>2026-04-04T14:02:56.012Z</time></trkpt><trkpt lat="43.585245" lon="11.5771617"><ele>157.42857142857144</ele><time>2026-04-04T14:02:57.011Z</time></trkpt><trkpt lat="43.585175" lon="11.5771983"><ele>157.57142857142856</ele><time>2026-04-04T14:02:58.01Z</time></trkpt><trkpt lat="43.5851067" lon="11.5772283"><ele>157.71428571428572</ele><time>2026-04-04T14:02:59.011Z</time></trkpt><trkpt lat="43.58504" lon="11.5772667"><ele>157.85714285714286</ele><time>2026-04-04T14:03:00.014Z</time></trkpt><trkpt lat="43.584975" lon="11.577305"><ele>158.0</ele><time>2026-04-04T14:03:01.013Z</time></trkpt><trkpt lat="43.5849083" lon="11.5773483"><ele>158.00000000000003</ele><time>2026-04-04T14:03:02.012Z</time></trkpt><trkpt lat="43.584845" lon="11.5773867"><ele>158.0</ele><time>2026-04-04T14:03:03.012Z</time></trkpt><trkpt lat="43.584785" lon="11.5774267"><ele>158.0</ele><time>2026-04-04T14:03:04.01Z</time></trkpt><trkpt lat="43.5847233" lon="11.5774717"><ele>158.0</ele><time>2026-04-04T14:03:05.01Z</time></trkpt><trkpt lat="43.58466" lon="11.5775133"><ele>158.0</ele><time>2026-04-04T14:03:06.013Z</time></trkpt><trkpt lat="43.5845917" lon="11.5775517"><ele>158.00000000000003</ele><time>2026-04-04T14:03:07.012Z</time></trkpt><trkpt lat="43.5845233" lon="11.57759"><ele>158.0</ele><time>2026-04-04T14:03:08.011Z</time></trkpt><trkpt lat="43.5844583" lon="11.57763"><ele>158.14285714285717</ele><time>2026-04-04T14:03:09.011Z</time></trkpt><trkpt lat="43.584395" lon="11.5776733"><ele>158.28571428571428</ele><time>2026-04-04T14:03:10.01Z</time></trkpt><trkpt lat="43.5843317" lon="11.577715"><ele>158.42857142857144</ele><time>2026-04-04T14:03:11.011Z</time></trkpt><trkpt lat="43.5842683" lon="11.5777617"><ele>158.57142857142858</ele><time>2026-04-04T14:03:12.013Z</time></trkpt><trkpt lat="43.584205" lon="11.577815"><ele>158.71428571428572</ele><time>2026-04-04T14:03:13.012Z</time></trkpt><trkpt lat="43.58414" lon="11.5778717"><ele>158.85714285714286</ele><time>2026-04-04T14:03:14.012Z</time></trkpt><trkpt lat="43.5840817" lon="11.57793"><ele>159.0</ele><time>2026-04-04T14:03:15.012Z</time></trkpt><trkpt lat="43.5840217" lon="11.57799"><ele>159.0</ele><time>2026-04-04T14:03:16.01Z</time></trkpt><trkpt lat="43.5839583" lon="11.5780433"><ele>159.0</ele><time>2026-04-04T14:03:17.011Z</time></trkpt><trkpt lat="43.5838967" lon="11.5780917"><ele>159.0</ele><time>2026-04-04T14:03:18.012Z</time></trkpt><trkpt lat="43.5838333" lon="11.5781433"><ele>159.0</ele><time>2026-04-04T14:03:19.011Z</time></trkpt><trkpt lat="43.5837733" lon="11.5781983"><ele>159.0</ele><time>2026-04-04T14:03:20.01Z</time></trkpt><trkpt lat="43.5837167" lon="11.57825"><ele>159.0</ele><time>2026-04-04T14:03:21.013Z</time></trkpt><trkpt lat="43.5836583" lon="11.5783033"><ele>159.0</ele><time>2026-04-04T14:03:22.012Z</time></trkpt><trkpt lat="43.583595" lon="11.5783583"><ele>158.83333333333334</ele><time>2026-04-04T14:03:23.01Z</time></trkpt><trkpt lat="43.5835433" lon="11.57842"><ele>158.66666666666666</ele><time>2026-04-04T14:03:24.011Z</time></trkpt><trkpt lat="43.5834883" lon="11.5784783"><ele>158.5</ele><time>2026-04-04T14:03:25.015Z</time></trkpt><trkpt lat="43.5834317" lon="11.578535"><ele>158.33333333333331</ele><time>2026-04-04T14:03:26.014Z</time></trkpt><trkpt lat="43.5833717" lon="11.57859"><ele>158.16666666666666</ele><time>2026-04-04T14:03:27.011Z</time></trkpt><trkpt lat="43.58332" lon="11.5786467"><ele>158.0</ele><time>2026-04-04T14:03:28.014Z</time></trkpt><trkpt lat="43.5832217" lon="11.5787433"><ele>158.2857142857143</ele><time>2026-04-04T14:03:30.012Z</time></trkpt><trkpt lat="43.5831683" lon="11.5787917"><ele>158.57142857142858</ele><time>2026-04-04T14:03:31.011Z</time></trkpt><trkpt lat="43.583115" lon="11.5788383"><ele>158.85714285714286</ele><time>2026-04-04T14:03:32.014Z</time></trkpt><trkpt lat="43.58306" lon="11.5788883"><ele>159.14285714285717</ele><time>2026-04-04T14:03:33.01Z</time></trkpt><trkpt lat="43.583" lon="11.5789417"><ele>159.42857142857144</ele><time>2026-04-04T14:03:34.012Z</time></trkpt><trkpt lat="43.5829483" lon="11.5789967"><ele>159.71428571428572</ele><time>2026-04-04T14:03:35.01Z</time></trkpt><trkpt lat="43.5828983" lon="11.57905"><ele>160.0</ele><time>2026-04-04T14:03:36.011Z</time></trkpt><trkpt lat="43.5828317" lon="11.579105"><ele>160.0</ele><time>2026-04-04T14:03:37.013Z</time></trkpt><trkpt lat="43.582775" lon="11.5791533"><ele>160.0</ele><time>2026-04-04T14:03:38.014Z</time></trkpt><trkpt lat="43.5827183" lon="11.5792067"><ele>160.0</ele><time>2026-04-04T14:03:39.012Z</time></trkpt><trkpt lat="43.5826583" lon="11.5792583"><ele>160.0</ele><time>2026-04-04T14:03:40.011Z</time></trkpt><trkpt lat="43.5826" lon="11.5793133"><ele>160.0</ele><time>2026-04-04T14:03:41.011Z</time></trkpt><trkpt lat="43.5825433" lon="11.5793717"><ele>160.0</ele><time>2026-04-04T14:03:42.015Z</time></trkpt><trkpt lat="43.582485" lon="11.5794283"><ele>160.0</ele><time>2026-04-04T14:03:43.011Z</time></trkpt><trkpt lat="43.582425" lon="11.5794867"><ele>160.28571428571428</ele><time>2026-04-04T14:03:44.013Z</time></trkpt><trkpt lat="43.5823667" lon="11.5795467"><ele>160.57142857142858</ele><time>2026-04-04T14:03:45.013Z</time></trkpt><trkpt lat="43.58231" lon="11.5796067"><ele>160.85714285714286</ele><time>2026-04-04T14:03:46.01Z</time></trkpt><trkpt lat="43.5822533" lon="11.5796717"><ele>161.14285714285714</ele><time>2026-04-04T14:03:47.013Z</time></trkpt><trkpt lat="43.5821983" lon="11.5797383"><ele>161.42857142857142</ele><time>2026-04-04T14:03:48.013Z</time></trkpt><trkpt lat="43.582145" lon="11.5798067"><ele>161.71428571428572</ele><time>2026-04-04T14:03:49.013Z</time></trkpt><trkpt lat="43.5820967" lon="11.579875"><ele>162.0</ele><time>2026-04-04T14:03:50.013Z</time></trkpt><trkpt lat="43.582055" lon="11.5799517"><ele>162.0</ele><time>2026-04-04T14:03:51.013Z</time></trkpt><trkpt lat="43.582015" lon="11.580025"><ele>162.0</ele><time>2026-04-04T14:03:52.014Z</time></trkpt><trkpt lat="43.5819783" lon="11.5800967"><ele>162.0</ele><time>2026-04-04T14:03:53.011Z</time></trkpt><trkpt lat="43.581945" lon="11.5801767"><ele>162.0</ele><time>2026-04-04T14:03:54.011Z</time></trkpt><trkpt lat="43.5819117" lon="11.5802533"><ele>162.0</ele><time>2026-04-04T14:03:55.012Z</time></trkpt><trkpt lat="43.5818783" lon="11.58034"><ele>162.0</ele><time>2026-04-04T14:03:56.011Z</time></trkpt><trkpt lat="43.5818467" lon="11.580425"><ele>162.0</ele><time>2026-04-04T14:03:57.013Z</time></trkpt><trkpt lat="43.5818167" lon="11.5805067"><ele>162.14285714285714</ele><time>2026-04-04T14:03:58.013Z</time></trkpt><trkpt lat="43.5817867" lon="11.5805867"><ele>162.28571428571428</ele><time>2026-04-04T14:03:59.011Z</time></trkpt><trkpt lat="43.581755" lon="11.5806683"><ele>162.42857142857144</ele><time>2026-04-04T14:04:00.012Z</time></trkpt><trkpt lat="43.5817217" lon="11.580755"><ele>162.57142857142856</ele><time>2026-04-04T14:04:01.013Z</time></trkpt><trkpt lat="43.5816883" lon="11.58084"><ele>162.7142857142857</ele><time>2026-04-04T14:04:02.011Z</time></trkpt><trkpt lat="43.5816533" lon="11.5809267"><ele>162.85714285714286</ele><time>2026-04-04T14:04:03.011Z</time></trkpt><trkpt lat="43.5816183" lon="11.581005"><ele>163.0</ele><time>2026-04-04T14:04:04.011Z</time></trkpt><trkpt lat="43.5815783" lon="11.5810817"><ele>163.0</ele><time>2026-04-04T14:04:05.011Z</time></trkpt><trkpt lat="43.581545" lon="11.5811633"><ele>163.0</ele><time>2026-04-04T14:04:06.01Z</time></trkpt><trkpt lat="43.5815117" lon="11.58124"><ele>163.0</ele><time>2026-04-04T14:04:07.011Z</time></trkpt><trkpt lat="43.5814767" lon="11.581315"><ele>163.0</ele><time>2026-04-04T14:04:08.01Z</time></trkpt><trkpt lat="43.5814433" lon="11.58139"><ele>163.0</ele><time>2026-04-04T14:04:09.014Z</time></trkpt><trkpt lat="43.581385" lon="11.5815433"><ele>163.0</ele><time>2026-04-04T14:04:11.011Z</time></trkpt><trkpt lat="43.5813567" lon="11.5816267"><ele>163.14285714285714</ele><time>2026-04-04T14:04:12.011Z</time></trkpt><trkpt lat="43.581325" lon="11.5817067"><ele>163.28571428571428</ele><time>2026-04-04T14:04:13.01Z</time></trkpt><trkpt lat="43.581295" lon="11.5817833"><ele>163.42857142857142</ele><time>2026-04-04T14:04:14.011Z</time></trkpt><trkpt lat="43.581225" lon="11.5819217"><ele>163.57142857142856</ele><time>2026-04-04T14:04:16.01Z</time></trkpt><trkpt lat="43.58117" lon="11.581975"><ele>163.71428571428572</ele><time>2026-04-04T14:04:17.01Z</time></trkpt><trkpt lat="43.5811133" lon="11.5820167"><ele>163.85714285714283</ele><time>2026-04-04T14:04:18.013Z</time></trkpt><trkpt lat="43.5810533" lon="11.582045"><ele>164.0</ele><time>2026-04-04T14:04:19.012Z</time></trkpt><trkpt lat="43.5809917" lon="11.5820767"><ele>165.66666666666666</ele><time>2026-04-04T14:04:20.011Z</time></trkpt><trkpt lat="43.5809267" lon="11.582105"><ele>167.33333333333331</ele><time>2026-04-04T14:04:21.01Z</time></trkpt><trkpt lat="43.5808633" lon="11.5821283"><ele>169.0</ele><time>2026-04-04T14:04:22.01Z</time></trkpt><trkpt lat="43.5807983" lon="11.5821483"><ele>170.66666666666666</ele><time>2026-04-04T14:04:23.011Z</time></trkpt><trkpt lat="43.5806867" lon="11.582185"><ele>172.33333333333334</ele><time>2026-04-04T14:04:25.012Z</time></trkpt><trkpt lat="43.5806183" lon="11.58221"><ele>174.0</ele><time>2026-04-04T14:04:26.013Z</time></trkpt><trkpt lat="43.5805467" lon="11.5822267"><ele>174.0</ele><time>2026-04-04T14:04:27.011Z</time></trkpt><trkpt lat="43.5804767" lon="11.5822417"><ele>174.0</ele><time>2026-04-04T14:04:28.009Z</time></trkpt><trkpt lat="43.58039" lon="11.5822583"><ele>174.0</ele><time>2026-04-04T14:04:29.013Z</time></trkpt><trkpt lat="43.5803133" lon="11.5822783"><ele>174.0</ele><time>2026-04-04T14:04:30.012Z</time></trkpt><trkpt lat="43.58024" lon="11.582305"><ele>174.0</ele><time>2026-04-04T14:04:31.011Z</time></trkpt><trkpt lat="43.5801733" lon="11.582325"><ele>174.0</ele><time>2026-04-04T14:04:32.013Z</time></trkpt><trkpt lat="43.58011" lon="11.582345"><ele>174.0</ele><time>2026-04-04T14:04:33.01Z</time></trkpt><trkpt lat="43.580045" lon="11.582365"><ele>172.83333333333334</ele><time>2026-04-04T14:04:34.012Z</time></trkpt><trkpt lat="43.57992" lon="11.5824033"><ele>171.66666666666666</ele><time>2026-04-04T14:04:36.01Z</time></trkpt><trkpt lat="43.5798517" lon="11.5824217"><ele>170.5</ele><time>2026-04-04T14:04:37.012Z</time></trkpt><trkpt lat="43.579785" lon="11.5824417"><ele>169.33333333333331</ele><time>2026-04-04T14:04:38.012Z</time></trkpt><trkpt lat="43.5797133" lon="11.5824617"><ele>168.16666666666666</ele><time>2026-04-04T14:04:39.011Z</time></trkpt><trkpt lat="43.579645" lon="11.582485"><ele>167.0</ele><time>2026-04-04T14:04:40.01Z</time></trkpt><trkpt lat="43.5795767" lon="11.5825067"><ele>166.85714285714286</ele><time>2026-04-04T14:04:41.012Z</time></trkpt><trkpt lat="43.5795067" lon="11.582525"><ele>166.71428571428572</ele><time>2026-04-04T14:04:42.01Z</time></trkpt><trkpt lat="43.579445" lon="11.582545"><ele>166.57142857142856</ele><time>2026-04-04T14:04:43.011Z</time></trkpt><trkpt lat="43.579375" lon="11.582565"><ele>166.42857142857144</ele><time>2026-04-04T14:04:44.011Z</time></trkpt><trkpt lat="43.579305" lon="11.5825883"><ele>166.2857142857143</ele><time>2026-04-04T14:04:45.011Z</time></trkpt><trkpt lat="43.579235" lon="11.582615"><ele>166.14285714285714</ele><time>2026-04-04T14:04:46.01Z</time></trkpt><trkpt lat="43.5791667" lon="11.58264"><ele>166.0</ele><time>2026-04-04T14:04:47.011Z</time></trkpt><trkpt lat="43.5790367" lon="11.58267"><ele>166.0</ele><time>2026-04-04T14:04:49.011Z</time></trkpt><trkpt lat="43.5789683" lon="11.58269"><ele>166.0</ele><time>2026-04-04T14:04:50.011Z</time></trkpt><trkpt lat="43.5788983" lon="11.5827133"><ele>166.0</ele><time>2026-04-04T14:04:51.011Z</time></trkpt><trkpt lat="43.5788283" lon="11.5827367"><ele>166.0</ele><time>2026-04-04T14:04:52.01Z</time></trkpt><trkpt lat="43.5787583" lon="11.582755"><ele>166.0</ele><time>2026-04-04T14:04:53.01Z</time></trkpt><trkpt lat="43.57869" lon="11.5827733"><ele>166.0</ele><time>2026-04-04T14:04:54.011Z</time></trkpt><trkpt lat="43.5786183" lon="11.5827933"><ele>166.0</ele><time>2026-04-04T14:04:55.011Z</time></trkpt><trkpt lat="43.5785467" lon="11.58281"><ele>166.14285714285714</ele><time>2026-04-04T14:04:56.011Z</time></trkpt><trkpt lat="43.57848" lon="11.58283"><ele>166.2857142857143</ele><time>2026-04-04T14:04:57.012Z</time></trkpt><trkpt lat="43.5784117" lon="11.5828517"><ele>166.42857142857144</ele><time>2026-04-04T14:04:58.012Z</time></trkpt><trkpt lat="43.5783433" lon="11.582875"><ele>166.57142857142856</ele><time>2026-04-04T14:04:59.01Z</time></trkpt><trkpt lat="43.578275" lon="11.5828983"><ele>166.71428571428572</ele><time>2026-04-04T14:05:00.01Z</time></trkpt><trkpt lat="43.578205" lon="11.5829233"><ele>166.85714285714286</ele><time>2026-04-04T14:05:01.011Z</time></trkpt><trkpt lat="43.5781333" lon="11.5829517"><ele>167.0</ele><time>2026-04-04T14:05:02.01Z</time></trkpt><trkpt lat="43.5780683" lon="11.5829817"><ele>167.0</ele><time>2026-04-04T14:05:03.01Z</time></trkpt><trkpt lat="43.5779983" lon="11.5830167"><ele>167.0</ele><time>2026-04-04T14:05:04.01Z</time></trkpt><trkpt lat="43.577935" lon="11.5830517"><ele>167.0</ele><time>2026-04-04T14:05:05.011Z</time></trkpt><trkpt lat="43.5778717" lon="11.5830933"><ele>167.0</ele><time>2026-04-04T14:05:06.012Z</time></trkpt><trkpt lat="43.5778117" lon="11.5831383"><ele>167.0</ele><time>2026-04-04T14:05:07.013Z</time></trkpt><trkpt lat="43.5777533" lon="11.583185"><ele>167.0</ele><time>2026-04-04T14:05:08.014Z</time></trkpt><trkpt lat="43.5776917" lon="11.5832367"><ele>167.0</ele><time>2026-04-04T14:05:09.012Z</time></trkpt><trkpt lat="43.5776367" lon="11.5832933"><ele>167.0</ele><time>2026-04-04T14:05:10.012Z</time></trkpt><trkpt lat="43.5775833" lon="11.5833533"><ele>167.0</ele><time>2026-04-04T14:05:11.011Z</time></trkpt><trkpt lat="43.57754" lon="11.58342"><ele>167.0</ele><time>2026-04-04T14:05:12.013Z</time></trkpt><trkpt lat="43.5775" lon="11.5834883"><ele>167.0</ele><time>2026-04-04T14:05:13.011Z</time></trkpt><trkpt lat="43.5774533" lon="11.5835533"><ele>167.0</ele><time>2026-04-04T14:05:14.012Z</time></trkpt><trkpt lat="43.577405" lon="11.58362"><ele>167.0</ele><time>2026-04-04T14:05:15.011Z</time></trkpt><trkpt lat="43.5773583" lon="11.58369"><ele>167.0</ele><time>2026-04-04T14:05:16.013Z</time></trkpt><trkpt lat="43.57731" lon="11.5837617"><ele>167.2</ele><time>2026-04-04T14:05:17.012Z</time></trkpt><trkpt lat="43.5772617" lon="11.5838267"><ele>167.39999999999998</ele><time>2026-04-04T14:05:18.01Z</time></trkpt><trkpt lat="43.5772133" lon="11.5838883"><ele>167.60000000000002</ele><time>2026-04-04T14:05:19.013Z</time></trkpt><trkpt lat="43.5771067" lon="11.5839967"><ele>167.8</ele><time>2026-04-04T14:05:21.01Z</time></trkpt><trkpt lat="43.57705" lon="11.58405"><ele>168.0</ele><time>2026-04-04T14:05:22.01Z</time></trkpt><trkpt lat="43.576945" lon="11.5841567"><ele>168.14285714285714</ele><time>2026-04-04T14:05:24.012Z</time></trkpt><trkpt lat="43.5768933" lon="11.5842117"><ele>168.28571428571428</ele><time>2026-04-04T14:05:25.011Z</time></trkpt><trkpt lat="43.57684" lon="11.5842633"><ele>168.42857142857144</ele><time>2026-04-04T14:05:26.01Z</time></trkpt><trkpt lat="43.5767783" lon="11.5843117"><ele>168.57142857142856</ele><time>2026-04-04T14:05:27.011Z</time></trkpt><trkpt lat="43.57672" lon="11.584365"><ele>168.71428571428572</ele><time>2026-04-04T14:05:28.009Z</time></trkpt><trkpt lat="43.5766633" lon="11.58442"><ele>168.85714285714286</ele><time>2026-04-04T14:05:29.012Z</time></trkpt><trkpt lat="43.5766083" lon="11.5844733"><ele>169.0</ele><time>2026-04-04T14:05:30.011Z</time></trkpt><trkpt lat="43.57655" lon="11.5845233"><ele>171.0</ele><time>2026-04-04T14:05:31.01Z</time></trkpt><trkpt lat="43.5764933" lon="11.58457"><ele>173.0</ele><time>2026-04-04T14:05:32.011Z</time></trkpt><trkpt lat="43.57644" lon="11.5846217"><ele>175.0</ele><time>2026-04-04T14:05:33.011Z</time></trkpt><trkpt lat="43.5763883" lon="11.584675"><ele>177.0</ele><time>2026-04-04T14:05:34.013Z</time></trkpt><trkpt lat="43.5763367" lon="11.5847333"><ele>179.0</ele><time>2026-04-04T14:05:35.011Z</time></trkpt><trkpt lat="43.5762467" lon="11.5848533"><ele>181.0</ele><time>2026-04-04T14:05:37.012Z</time></trkpt><trkpt lat="43.5762033" lon="11.58492"><ele>181.20000000000002</ele><time>2026-04-04T14:05:38.011Z</time></trkpt><trkpt lat="43.5761633" lon="11.5849883"><ele>181.4</ele><time>2026-04-04T14:05:39.01Z</time></trkpt><trkpt lat="43.57612" lon="11.5850533"><ele>181.6</ele><time>2026-04-04T14:05:40.011Z</time></trkpt><trkpt lat="43.5760383" lon="11.58517"><ele>181.8</ele><time>2026-04-04T14:05:42.012Z</time></trkpt><trkpt lat="43.5759517" lon="11.58529"><ele>182.0</ele><time>2026-04-04T14:05:44.011Z</time></trkpt><trkpt lat="43.5758683" lon="11.5854183"><ele>182.0</ele><time>2026-04-04T14:05:46.01Z</time></trkpt><trkpt lat="43.5757833" lon="11.5855367"><ele>182.0</ele><time>2026-04-04T14:05:48.012Z</time></trkpt><trkpt lat="43.5757" lon="11.5856733"><ele>182.0</ele><time>2026-04-04T14:05:50.011Z</time></trkpt><trkpt lat="43.575655" lon="11.5857517"><ele>182.0</ele><time>2026-04-04T14:05:51.012Z</time></trkpt><trkpt lat="43.57561" lon="11.5858317"><ele>182.0</ele><time>2026-04-04T14:05:52.011Z</time></trkpt><trkpt lat="43.5755667" lon="11.58591"><ele>182.0</ele><time>2026-04-04T14:05:53.011Z</time></trkpt><trkpt lat="43.5755217" lon="11.585985"><ele>182.0</ele><time>2026-04-04T14:05:54.01Z</time></trkpt><trkpt lat="43.5754767" lon="11.5860633"><ele>182.0</ele><time>2026-04-04T14:05:55.012Z</time></trkpt><trkpt lat="43.57543" lon="11.5861367"><ele>182.0</ele><time>2026-04-04T14:05:56.011Z</time></trkpt><trkpt lat="43.575385" lon="11.5862133"><ele>182.0</ele><time>2026-04-04T14:05:57.011Z</time></trkpt><trkpt lat="43.575335" lon="11.5862867"><ele>182.0</ele><time>2026-04-04T14:05:58.012Z</time></trkpt><trkpt lat="43.575285" lon="11.5863633"><ele>182.0</ele><time>2026-04-04T14:05:59.009Z</time></trkpt><trkpt lat="43.5752383" lon="11.5864367"><ele>181.14285714285714</ele><time>2026-04-04T14:06:00.01Z</time></trkpt><trkpt lat="43.5751917" lon="11.5865117"><ele>180.28571428571428</ele><time>2026-04-04T14:06:01.011Z</time></trkpt><trkpt lat="43.575145" lon="11.5865767"><ele>179.42857142857144</ele><time>2026-04-04T14:06:02.011Z</time></trkpt><trkpt lat="43.5750967" lon="11.5866517"><ele>178.57142857142856</ele><time>2026-04-04T14:06:03.01Z</time></trkpt><trkpt lat="43.57505" lon="11.5867267"><ele>177.71428571428572</ele><time>2026-04-04T14:06:04.011Z</time></trkpt><trkpt lat="43.575005" lon="11.5867983"><ele>176.85714285714286</ele><time>2026-04-04T14:06:05.01Z</time></trkpt><trkpt lat="43.57496" lon="11.5868667"><ele>176.0</ele><time>2026-04-04T14:06:06.011Z</time></trkpt><trkpt lat="43.5749183" lon="11.58694"><ele>176.0</ele><time>2026-04-04T14:06:07.011Z</time></trkpt><trkpt lat="43.574875" lon="11.5870033"><ele>176.0</ele><time>2026-04-04T14:06:08.012Z</time></trkpt><trkpt lat="43.574815" lon="11.5871367"><ele>176.0</ele><time>2026-04-04T14:06:10.009Z</time></trkpt><trkpt lat="43.57483" lon="11.587285"><ele>176.0</ele><time>2026-04-04T14:06:12.011Z</time></trkpt><trkpt lat="43.5748833" lon="11.5873933"><ele>176.0</ele><time>2026-04-04T14:06:14.011Z</time></trkpt><trkpt lat="43.5749533" lon="11.5875033"><ele>175.8</ele><time>2026-04-04T14:06:16.012Z</time></trkpt><trkpt lat="43.5750017" lon="11.5876217"><ele>175.60000000000002</ele><time>2026-04-04T14:06:18.011Z</time></trkpt><trkpt lat="43.5750467" lon="11.587735"><ele>175.4</ele><time>2026-04-04T14:06:20.011Z</time></trkpt><trkpt lat="43.5751017" lon="11.5878383"><ele>175.2</ele><time>2026-04-04T14:06:22.012Z</time></trkpt><trkpt lat="43.5751433" lon="11.5879667"><ele>175.0</ele><time>2026-04-04T14:06:24.011Z</time></trkpt><trkpt lat="43.5751817" lon="11.58811"><ele>175.2</ele><time>2026-04-04T14:06:26.013Z</time></trkpt><trkpt lat="43.5752283" lon="11.5882467"><ele>175.4</ele><time>2026-04-04T14:06:28.009Z</time></trkpt><trkpt lat="43.5752717" lon="11.5883717"><ele>175.60000000000002</ele><time>2026-04-04T14:06:30.011Z</time></trkpt><trkpt lat="43.5753267" lon="11.5885033"><ele>175.8</ele><time>2026-04-04T14:06:32.012Z</time></trkpt><trkpt lat="43.575385" lon="11.5886333"><ele>176.0</ele><time>2026-04-04T14:06:34.012Z</time></trkpt><trkpt lat="43.5754617" lon="11.58875"><ele>177.0</ele><time>2026-04-04T14:06:36.012Z</time></trkpt><trkpt lat="43.5755333" lon="11.5888583"><ele>178.0</ele><time>2026-04-04T14:06:38.011Z</time></trkpt><trkpt lat="43.57559" lon="11.58897"><ele>179.0</ele><time>2026-04-04T14:06:40.013Z</time></trkpt><trkpt lat="43.5756567" lon="11.58907"><ele>180.0</ele><time>2026-04-04T14:06:42.011Z</time></trkpt><trkpt lat="43.5757183" lon="11.5891633"><ele>181.0</ele><time>2026-04-04T14:06:44.011Z</time></trkpt><trkpt lat="43.5757817" lon="11.58927"><ele>181.0</ele><time>2026-04-04T14:06:46.012Z</time></trkpt><trkpt lat="43.5758517" lon="11.5893767"><ele>181.0</ele><time>2026-04-04T14:06:48.011Z</time></trkpt><trkpt lat="43.5759167" lon="11.589495"><ele>181.0</ele><time>2026-04-04T14:06:50.011Z</time></trkpt><trkpt lat="43.5759833" lon="11.589605"><ele>181.0</ele><time>2026-04-04T14:06:52.012Z</time></trkpt><trkpt lat="43.5760533" lon="11.5897217"><ele>181.0</ele><time>2026-04-04T14:06:54.011Z</time></trkpt><trkpt lat="43.5761183" lon="11.5898333"><ele>181.60000000000002</ele><time>2026-04-04T14:06:56.011Z</time></trkpt><trkpt lat="43.57618" lon="11.5899367"><ele>182.2</ele><time>2026-04-04T14:06:58.011Z</time></trkpt><trkpt lat="43.57624" lon="11.5900517"><ele>182.8</ele><time>2026-04-04T14:07:00.011Z</time></trkpt><trkpt lat="43.5763067" lon="11.590165"><ele>183.39999999999998</ele><time>2026-04-04T14:07:02.011Z</time></trkpt><trkpt lat="43.5763817" lon="11.5902867"><ele>184.0</ele><time>2026-04-04T14:07:04.01Z</time></trkpt><trkpt lat="43.57645" lon="11.590415"><ele>185.39999999999998</ele><time>2026-04-04T14:07:06.009Z</time></trkpt><trkpt lat="43.5765133" lon="11.59054"><ele>186.8</ele><time>2026-04-04T14:07:08.012Z</time></trkpt><trkpt lat="43.5765783" lon="11.59067"><ele>188.2</ele><time>2026-04-04T14:07:10.012Z</time></trkpt><trkpt lat="43.57665" lon="11.5908017"><ele>189.60000000000002</ele><time>2026-04-04T14:07:12.012Z</time></trkpt><trkpt lat="43.5766933" lon="11.5908667"><ele>191.0</ele><time>2026-04-04T14:07:13.011Z</time></trkpt><trkpt lat="43.576755" lon="11.5909633"><ele>191.0</ele><time>2026-04-04T14:07:15.009Z</time></trkpt><trkpt lat="43.576815" lon="11.5910767"><ele>191.0</ele><time>2026-04-04T14:07:17.012Z</time></trkpt><trkpt lat="43.57688" lon="11.591195"><ele>191.0</ele><time>2026-04-04T14:07:19.009Z</time></trkpt><trkpt lat="43.5769517" lon="11.5913133"><ele>191.0</ele><time>2026-04-04T14:07:21.011Z</time></trkpt><trkpt lat="43.5770183" lon="11.5914317"><ele>191.0</ele><time>2026-04-04T14:07:23.011Z</time></trkpt><trkpt lat="43.577085" lon="11.59155"><ele>190.20000000000002</ele><time>2026-04-04T14:07:25.012Z</time></trkpt><trkpt lat="43.5771533" lon="11.5916683"><ele>189.4</ele><time>2026-04-04T14:07:27.012Z</time></trkpt><trkpt lat="43.577215" lon="11.5917783"><ele>188.6</ele><time>2026-04-04T14:07:29.011Z</time></trkpt><trkpt lat="43.577295" lon="11.59189"><ele>187.8</ele><time>2026-04-04T14:07:31.011Z</time></trkpt><trkpt lat="43.5773717" lon="11.5919933"><ele>187.0</ele><time>2026-04-04T14:07:33.011Z</time></trkpt><trkpt lat="43.5774433" lon="11.592105"><ele>187.39999999999998</ele><time>2026-04-04T14:07:35.01Z</time></trkpt><trkpt lat="43.57752" lon="11.5922067"><ele>187.79999999999998</ele><time>2026-04-04T14:07:37.011Z</time></trkpt><trkpt lat="43.5776067" lon="11.5923083"><ele>188.2</ele><time>2026-04-04T14:07:39.01Z</time></trkpt><trkpt lat="43.5776933" lon="11.5924183"><ele>188.6</ele><time>2026-04-04T14:07:41.01Z</time></trkpt><trkpt lat="43.5777767" lon="11.592515"><ele>189.0</ele><time>2026-04-04T14:07:43.011Z</time></trkpt><trkpt lat="43.5778733" lon="11.5926267"><ele>189.0</ele><time>2026-04-04T14:07:45.01Z</time></trkpt><trkpt lat="43.5779633" lon="11.5927367"><ele>189.0</ele><time>2026-04-04T14:07:47.011Z</time></trkpt><trkpt lat="43.578035" lon="11.5928617"><ele>189.0</ele><time>2026-04-04T14:07:49.012Z</time></trkpt><trkpt lat="43.5781017" lon="11.5929717"><ele>189.0</ele><time>2026-04-04T14:07:51.009Z</time></trkpt><trkpt lat="43.5781717" lon="11.5930883"><ele>189.0</ele><time>2026-04-04T14:07:53.014Z</time></trkpt><trkpt lat="43.5782583" lon="11.593215"><ele>191.0</ele><time>2026-04-04T14:07:55.01Z</time></trkpt><trkpt lat="43.5783267" lon="11.5933433"><ele>193.0</ele><time>2026-04-04T14:07:57.011Z</time></trkpt><trkpt lat="43.578385" lon="11.5934733"><ele>195.0</ele><time>2026-04-04T14:07:59.011Z</time></trkpt><trkpt lat="43.5784433" lon="11.59361"><ele>197.0</ele><time>2026-04-04T14:08:01.012Z</time></trkpt><trkpt lat="43.57849" lon="11.593745"><ele>199.0</ele><time>2026-04-04T14:08:03.012Z</time></trkpt><trkpt lat="43.5785433" lon="11.5938833"><ele>198.75</ele><time>2026-04-04T14:08:05.01Z</time></trkpt><trkpt lat="43.578595" lon="11.594025"><ele>198.5</ele><time>2026-04-04T14:08:07.012Z</time></trkpt><trkpt lat="43.5786417" lon="11.5941717"><ele>198.25</ele><time>2026-04-04T14:08:09.011Z</time></trkpt><trkpt lat="43.5786867" lon="11.5943117"><ele>198.0</ele><time>2026-04-04T14:08:11.013Z</time></trkpt><trkpt lat="43.5787333" lon="11.5944533"><ele>197.60000000000002</ele><time>2026-04-04T14:08:13.011Z</time></trkpt><trkpt lat="43.5787767" lon="11.5945883"><ele>197.20000000000002</ele><time>2026-04-04T14:08:15.013Z</time></trkpt><trkpt lat="43.5788267" lon="11.5947267"><ele>196.8</ele><time>2026-04-04T14:08:17.012Z</time></trkpt><trkpt lat="43.578865" lon="11.5948733"><ele>196.4</ele><time>2026-04-04T14:08:19.011Z</time></trkpt><trkpt lat="43.5789033" lon="11.59501"><ele>196.0</ele><time>2026-04-04T14:08:21.012Z</time></trkpt><trkpt lat="43.5789467" lon="11.5951367"><ele>196.0</ele><time>2026-04-04T14:08:23.012Z</time></trkpt><trkpt lat="43.5789933" lon="11.5952733"><ele>196.0</ele><time>2026-04-04T14:08:25.013Z</time></trkpt><trkpt lat="43.5790383" lon="11.5954117"><ele>196.0</ele><time>2026-04-04T14:08:27.011Z</time></trkpt><trkpt lat="43.579075" lon="11.59554"><ele>196.0</ele><time>2026-04-04T14:08:29.011Z</time></trkpt><trkpt lat="43.5791183" lon="11.5956783"><ele>196.0</ele><time>2026-04-04T14:08:31.009Z</time></trkpt><trkpt lat="43.5791533" lon="11.5958117"><ele>197.4</ele><time>2026-04-04T14:08:33.011Z</time></trkpt><trkpt lat="43.5792" lon="11.5959367"><ele>198.8</ele><time>2026-04-04T14:08:35.01Z</time></trkpt><trkpt lat="43.5792483" lon="11.5960683"><ele>200.20000000000002</ele><time>2026-04-04T14:08:37.011Z</time></trkpt><trkpt lat="43.5793" lon="11.596185"><ele>201.60000000000002</ele><time>2026-04-04T14:08:39.011Z</time></trkpt><trkpt lat="43.57935" lon="11.5962983"><ele>203.0</ele><time>2026-04-04T14:08:41.01Z</time></trkpt><trkpt lat="43.57941" lon="11.5963967"><ele>204.2</ele><time>2026-04-04T14:08:43.01Z</time></trkpt><trkpt lat="43.5794833" lon="11.5964967"><ele>205.4</ele><time>2026-04-04T14:08:45.01Z</time></trkpt><trkpt lat="43.5795583" lon="11.5966"><ele>206.6</ele><time>2026-04-04T14:08:47.011Z</time></trkpt><trkpt lat="43.5796433" lon="11.5967067"><ele>207.79999999999998</ele><time>2026-04-04T14:08:49.012Z</time></trkpt><trkpt lat="43.5797217" lon="11.5967967"><ele>209.0</ele><time>2026-04-04T14:08:51.011Z</time></trkpt><trkpt lat="43.579805" lon="11.5968933"><ele>209.0</ele><time>2026-04-04T14:08:53.011Z</time></trkpt><trkpt lat="43.5798783" lon="11.596985"><ele>209.0</ele><time>2026-04-04T14:08:55.011Z</time></trkpt><trkpt lat="43.5799467" lon="11.5970733"><ele>209.0</ele><time>2026-04-04T14:08:57.011Z</time></trkpt><trkpt lat="43.58002" lon="11.597165"><ele>209.0</ele><time>2026-04-04T14:08:59.012Z</time></trkpt><trkpt lat="43.5800967" lon="11.59725"><ele>209.0</ele><time>2026-04-04T14:09:01.011Z</time></trkpt><trkpt lat="43.5801783" lon="11.5973333"><ele>208.79999999999998</ele><time>2026-04-04T14:09:03.01Z</time></trkpt><trkpt lat="43.5802533" lon="11.5974183"><ele>208.6</ele><time>2026-04-04T14:09:05.01Z</time></trkpt><trkpt lat="43.5803283" lon="11.597505"><ele>208.4</ele><time>2026-04-04T14:09:07.01Z</time></trkpt><trkpt lat="43.5804133" lon="11.5975967"><ele>208.2</ele><time>2026-04-04T14:09:09.011Z</time></trkpt><trkpt lat="43.580495" lon="11.5976883"><ele>208.0</ele><time>2026-04-04T14:09:11.012Z</time></trkpt><trkpt lat="43.5805733" lon="11.5977933"><ele>209.4</ele><time>2026-04-04T14:09:13.012Z</time></trkpt><trkpt lat="43.5806433" lon="11.5978833"><ele>210.8</ele><time>2026-04-04T14:09:15.01Z</time></trkpt><trkpt lat="43.580695" lon="11.5979667"><ele>212.2</ele><time>2026-04-04T14:09:17.013Z</time></trkpt><trkpt lat="43.5807717" lon="11.5980683"><ele>213.6</ele><time>2026-04-04T14:09:19.013Z</time></trkpt><trkpt lat="43.5808233" lon="11.5981283"><ele>215.0</ele><time>2026-04-04T14:09:20.013Z</time></trkpt><trkpt lat="43.5809017" lon="11.59823"><ele>215.0</ele><time>2026-04-04T14:09:22.011Z</time></trkpt><trkpt lat="43.5809867" lon="11.5983317"><ele>215.0</ele><time>2026-04-04T14:09:24.014Z</time></trkpt><trkpt lat="43.5810617" lon="11.5984217"><ele>215.0</ele><time>2026-04-04T14:09:26.011Z</time></trkpt><trkpt lat="43.58114" lon="11.5984833"><ele>215.0</ele><time>2026-04-04T14:09:28.011Z</time></trkpt><trkpt lat="43.5812367" lon="11.5985283"><ele>215.0</ele><time>2026-04-04T14:09:30.011Z</time></trkpt><trkpt lat="43.5813333" lon="11.5985833"><ele>214.8</ele><time>2026-04-04T14:09:32.011Z</time></trkpt><trkpt lat="43.5814333" lon="11.5986217"><ele>214.6</ele><time>2026-04-04T14:09:34.01Z</time></trkpt><trkpt lat="43.581535" lon="11.5986667"><ele>214.39999999999998</ele><time>2026-04-04T14:09:36.011Z</time></trkpt><trkpt lat="43.5816267" lon="11.5987467"><ele>214.2</ele><time>2026-04-04T14:09:38.01Z</time></trkpt><trkpt lat="43.581715" lon="11.598815"><ele>214.0</ele><time>2026-04-04T14:09:40.011Z</time></trkpt><trkpt lat="43.5818083" lon="11.59889"><ele>214.0</ele><time>2026-04-04T14:09:42.012Z</time></trkpt><trkpt lat="43.5818933" lon="11.5989733"><ele>213.99999999999997</ele><time>2026-04-04T14:09:44.011Z</time></trkpt><trkpt lat="43.58197" lon="11.59905"><ele>213.99999999999997</ele><time>2026-04-04T14:09:46.012Z</time></trkpt><trkpt lat="43.5820467" lon="11.5991233"><ele>214.0</ele><time>2026-04-04T14:09:48.01Z</time></trkpt><trkpt lat="43.582115" lon="11.5992233"><ele>214.0</ele><time>2026-04-04T14:09:50.013Z</time></trkpt><trkpt lat="43.5821617" lon="11.5993317"><ele>215.2</ele><time>2026-04-04T14:09:52.01Z</time></trkpt><trkpt lat="43.582205" lon="11.59946"><ele>216.39999999999998</ele><time>2026-04-04T14:09:54.012Z</time></trkpt><trkpt lat="43.5822733" lon="11.59958"><ele>217.6</ele><time>2026-04-04T14:09:56.011Z</time></trkpt><trkpt lat="43.5823467" lon="11.59971"><ele>218.8</ele><time>2026-04-04T14:09:58.01Z</time></trkpt><trkpt lat="43.5823833" lon="11.5998533"><ele>220.0</ele><time>2026-04-04T14:10:00.013Z</time></trkpt><trkpt lat="43.582425" lon="11.599985"><ele>220.0</ele><time>2026-04-04T14:10:02.012Z</time></trkpt><trkpt lat="43.5824617" lon="11.6001267"><ele>220.0</ele><time>2026-04-04T14:10:04.01Z</time></trkpt><trkpt lat="43.5824883" lon="11.600265"><ele>220.0</ele><time>2026-04-04T14:10:06.012Z</time></trkpt><trkpt lat="43.5824583" lon="11.6003717"><ele>220.0</ele><time>2026-04-04T14:10:08.012Z</time></trkpt><trkpt lat="43.5824633" lon="11.60053"><ele>220.0</ele><time>2026-04-04T14:10:10.012Z</time></trkpt><trkpt lat="43.58247" lon="11.6006733"><ele>220.2</ele><time>2026-04-04T14:10:12.01Z</time></trkpt><trkpt lat="43.5824783" lon="11.6008133"><ele>220.4</ele><time>2026-04-04T14:10:14.01Z</time></trkpt><trkpt lat="43.58248" lon="11.6009483"><ele>220.60000000000002</ele><time>2026-04-04T14:10:16.011Z</time></trkpt><trkpt lat="43.5824783" lon="11.601085"><ele>220.8</ele><time>2026-04-04T14:10:18.01Z</time></trkpt><trkpt lat="43.5824617" lon="11.601195"><ele>221.0</ele><time>2026-04-04T14:10:20.01Z</time></trkpt><trkpt lat="43.5824617" lon="11.6013267"><ele>222.20000000000002</ele><time>2026-04-04T14:10:22.009Z</time></trkpt><trkpt lat="43.58246" lon="11.6014533"><ele>223.40000000000003</ele><time>2026-04-04T14:10:24.01Z</time></trkpt><trkpt lat="43.5824567" lon="11.60157"><ele>224.6</ele><time>2026-04-04T14:10:26.011Z</time></trkpt><trkpt lat="43.5824667" lon="11.6016917"><ele>225.8</ele><time>2026-04-04T14:10:28.01Z</time></trkpt><trkpt lat="43.5824767" lon="11.6018283"><ele>227.0</ele><time>2026-04-04T14:10:30.01Z</time></trkpt><trkpt lat="43.582495" lon="11.6019433"><ele>227.16666666666669</ele><time>2026-04-04T14:10:32.011Z</time></trkpt><trkpt lat="43.5825283" lon="11.60206"><ele>227.33333333333334</ele><time>2026-04-04T14:10:34.009Z</time></trkpt><trkpt lat="43.582555" lon="11.6021683"><ele>227.5</ele><time>2026-04-04T14:10:36.01Z</time></trkpt><trkpt lat="43.58258" lon="11.6022733"><ele>227.66666666666669</ele><time>2026-04-04T14:10:38.012Z</time></trkpt><trkpt lat="43.5826217" lon="11.6023733"><ele>227.83333333333334</ele><time>2026-04-04T14:10:40.011Z</time></trkpt><trkpt lat="43.5826533" lon="11.60247"><ele>228.0</ele><time>2026-04-04T14:10:42.011Z</time></trkpt><trkpt lat="43.58268" lon="11.60256"><ele>228.0</ele><time>2026-04-04T14:10:44.011Z</time></trkpt><trkpt lat="43.582705" lon="11.6026483"><ele>228.0</ele><time>2026-04-04T14:10:46.012Z</time></trkpt><trkpt lat="43.58274" lon="11.6027383"><ele>228.0</ele><time>2026-04-04T14:10:48.012Z</time></trkpt><trkpt lat="43.5827717" lon="11.60284"><ele>228.0</ele><time>2026-04-04T14:10:50.012Z</time></trkpt><trkpt lat="43.5828083" lon="11.6029183"><ele>228.0</ele><time>2026-04-04T14:10:52.011Z</time></trkpt><trkpt lat="43.58284" lon="11.6030133"><ele>228.0</ele><time>2026-04-04T14:10:54.012Z</time></trkpt><trkpt lat="43.5828833" lon="11.60312"><ele>230.33333333333334</ele><time>2026-04-04T14:10:57.012Z</time></trkpt><trkpt lat="43.5829367" lon="11.6031983"><ele>232.66666666666669</ele><time>2026-04-04T14:10:59.012Z</time></trkpt><trkpt lat="43.58298" lon="11.6033"><ele>235.0</ele><time>2026-04-04T14:11:02.011Z</time></trkpt><trkpt lat="43.5830217" lon="11.6033733"><ele>237.33333333333334</ele><time>2026-04-04T14:11:04.012Z</time></trkpt><trkpt lat="43.5830717" lon="11.6034417"><ele>239.66666666666669</ele><time>2026-04-04T14:11:06.012Z</time></trkpt><trkpt lat="43.5831167" lon="11.6035117"><ele>242.0</ele><time>2026-04-04T14:11:08.012Z</time></trkpt><trkpt lat="43.5831733" lon="11.60361"><ele>241.00000000000003</ele><time>2026-04-04T14:11:11.013Z</time></trkpt><trkpt lat="43.5832367" lon="11.60367"><ele>240.0</ele><time>2026-04-04T14:11:13.013Z</time></trkpt><trkpt lat="43.5832933" lon="11.6037433"><ele>239.0</ele><time>2026-04-04T14:11:15.011Z</time></trkpt><trkpt lat="43.58334" lon="11.603815"><ele>238.0</ele><time>2026-04-04T14:11:17.012Z</time></trkpt><trkpt lat="43.5833983" lon="11.6038933"><ele>237.00000000000003</ele><time>2026-04-04T14:11:19.011Z</time></trkpt><trkpt lat="43.5834333" lon="11.6039867"><ele>236.0</ele><time>2026-04-04T14:11:21.013Z</time></trkpt><trkpt lat="43.58346" lon="11.60408"><ele>236.00000000000003</ele><time>2026-04-04T14:11:23.012Z</time></trkpt><trkpt lat="43.5834833" lon="11.6041833"><ele>236.0</ele><time>2026-04-04T14:11:25.012Z</time></trkpt><trkpt lat="43.5834917" lon="11.6042867"><ele>236.0</ele><time>2026-04-04T14:11:27.013Z</time></trkpt><trkpt lat="43.5835117" lon="11.6044"><ele>236.0</ele><time>2026-04-04T14:11:29.011Z</time></trkpt><trkpt lat="43.5835283" lon="11.6044983"><ele>236.00000000000003</ele><time>2026-04-04T14:11:31.011Z</time></trkpt><trkpt lat="43.58354" lon="11.6045867"><ele>236.0</ele><time>2026-04-04T14:11:33.012Z</time></trkpt><trkpt lat="43.583555" lon="11.6046933"><ele>235.83333333333334</ele><time>2026-04-04T14:11:36.01Z</time></trkpt><trkpt lat="43.5836033" lon="11.6047717"><ele>235.66666666666669</ele><time>2026-04-04T14:11:38.012Z</time></trkpt><trkpt lat="43.583675" lon="11.6048367"><ele>235.5</ele><time>2026-04-04T14:11:40.013Z</time></trkpt><trkpt lat="43.5837567" lon="11.6048817"><ele>235.33333333333331</ele><time>2026-04-04T14:11:42.013Z</time></trkpt><trkpt lat="43.58383" lon="11.6049233"><ele>235.16666666666666</ele><time>2026-04-04T14:11:44.013Z</time></trkpt><trkpt lat="43.583905" lon="11.6049533"><ele>235.0</ele><time>2026-04-04T14:11:46.011Z</time></trkpt><trkpt lat="43.5839767" lon="11.60499"><ele>237.33333333333331</ele><time>2026-04-04T14:11:48.012Z</time></trkpt><trkpt lat="43.58406" lon="11.6050267"><ele>239.66666666666666</ele><time>2026-04-04T14:11:50.011Z</time></trkpt><trkpt lat="43.584145" lon="11.60507"><ele>242.0</ele><time>2026-04-04T14:11:52.011Z</time></trkpt><trkpt lat="43.58421" lon="11.60513"><ele>244.33333333333331</ele><time>2026-04-04T14:11:54.011Z</time></trkpt><trkpt lat="43.5842617" lon="11.605215"><ele>246.66666666666666</ele><time>2026-04-04T14:11:56.011Z</time></trkpt><trkpt lat="43.5843133" lon="11.605295"><ele>249.0</ele><time>2026-04-04T14:11:58.011Z</time></trkpt><trkpt lat="43.5843633" lon="11.6053833"><ele>249.66666666666666</ele><time>2026-04-04T14:12:00.011Z</time></trkpt><trkpt lat="43.5844383" lon="11.6054683"><ele>250.33333333333331</ele><time>2026-04-04T14:12:02.01Z</time></trkpt><trkpt lat="43.5845033" lon="11.605545"><ele>251.0</ele><time>2026-04-04T14:12:04.011Z</time></trkpt><trkpt lat="43.584565" lon="11.6056117"><ele>251.66666666666666</ele><time>2026-04-04T14:12:06.01Z</time></trkpt><trkpt lat="43.58462" lon="11.6056767"><ele>252.33333333333331</ele><time>2026-04-04T14:12:08.01Z</time></trkpt><trkpt lat="43.5846733" lon="11.6057433"><ele>253.0</ele><time>2026-04-04T14:12:10.012Z</time></trkpt><trkpt lat="43.5847483" lon="11.6057983"><ele>253.99999999999997</ele><time>2026-04-04T14:12:12.012Z</time></trkpt><trkpt lat="43.5848183" lon="11.6058517"><ele>255.0</ele><time>2026-04-04T14:12:14.01Z</time></trkpt><trkpt lat="43.5848717" lon="11.6059067"><ele>256.0</ele><time>2026-04-04T14:12:16.01Z</time></trkpt><trkpt lat="43.5849217" lon="11.60597"><ele>257.0</ele><time>2026-04-04T14:12:18.012Z</time></trkpt><trkpt lat="43.5848983" lon="11.606075"><ele>258.0</ele><time>2026-04-04T14:12:20.011Z</time></trkpt><trkpt lat="43.5848567" lon="11.6061633"><ele>259.0</ele><time>2026-04-04T14:12:22.011Z</time></trkpt><trkpt lat="43.5848067" lon="11.6062517"><ele>259.3333333333333</ele><time>2026-04-04T14:12:24.01Z</time></trkpt><trkpt lat="43.5847433" lon="11.60634"><ele>259.66666666666663</ele><time>2026-04-04T14:12:26.011Z</time></trkpt><trkpt lat="43.5846767" lon="11.6063783"><ele>260.0</ele><time>2026-04-04T14:12:28.012Z</time></trkpt><trkpt lat="43.5846117" lon="11.606365"><ele>260.3333333333333</ele><time>2026-04-04T14:12:30.012Z</time></trkpt><trkpt lat="43.5845233" lon="11.60631"><ele>260.6666666666667</ele><time>2026-04-04T14:12:33.011Z</time></trkpt><trkpt lat="43.58445" lon="11.6062333"><ele>261.0</ele><time>2026-04-04T14:12:36.01Z</time></trkpt><trkpt lat="43.5843617" lon="11.6061567"><ele>259.6666666666667</ele><time>2026-04-04T14:12:39.01Z</time></trkpt><trkpt lat="43.584285" lon="11.6061233"><ele>258.3333333333333</ele><time>2026-04-04T14:12:41.01Z</time></trkpt><trkpt lat="43.5842117" lon="11.6060633"><ele>257.0</ele><time>2026-04-04T14:12:44.011Z</time></trkpt><trkpt lat="43.584135" lon="11.6060167"><ele>255.66666666666666</ele><time>2026-04-04T14:12:47.012Z</time></trkpt><trkpt lat="43.58407" lon="11.605985"><ele>254.33333333333331</ele><time>2026-04-04T14:12:50.011Z</time></trkpt><trkpt lat="43.5840083" lon="11.6059517"><ele>253.0</ele><time>2026-04-04T14:12:53.011Z</time></trkpt><trkpt lat="43.5839367" lon="11.6059267"><ele>252.99999999999997</ele><time>2026-04-04T14:12:56.012Z</time></trkpt><trkpt lat="43.5838467" lon="11.6058967"><ele>253.0</ele><time>2026-04-04T14:12:59.011Z</time></trkpt><trkpt lat="43.5837633" lon="11.6058783"><ele>253.0</ele><time>2026-04-04T14:13:01.01Z</time></trkpt><trkpt lat="43.5836767" lon="11.60589"><ele>253.0</ele><time>2026-04-04T14:13:03.01Z</time></trkpt><trkpt lat="43.5835967" lon="11.6059467"><ele>252.99999999999997</ele><time>2026-04-04T14:13:05.012Z</time></trkpt><trkpt lat="43.5835567" lon="11.6060383"><ele>253.0</ele><time>2026-04-04T14:13:07.011Z</time></trkpt><trkpt lat="43.5835617" lon="11.6061667"><ele>253.71428571428575</ele><time>2026-04-04T14:13:10.01Z</time></trkpt><trkpt lat="43.5836033" lon="11.6062417"><ele>254.42857142857144</ele><time>2026-04-04T14:13:12.012Z</time></trkpt><trkpt lat="43.5836533" lon="11.6063"><ele>255.14285714285714</ele><time>2026-04-04T14:13:14.012Z</time></trkpt><trkpt lat="43.5837183" lon="11.6063583"><ele>255.85714285714286</ele><time>2026-04-04T14:13:16.009Z</time></trkpt><trkpt lat="43.5837783" lon="11.6064067"><ele>256.57142857142856</ele><time>2026-04-04T14:13:18.011Z</time></trkpt><trkpt lat="43.5838367" lon="11.6064667"><ele>257.2857142857143</ele><time>2026-04-04T14:13:20.013Z</time></trkpt><trkpt lat="43.5838833" lon="11.6065333"><ele>258.0</ele><time>2026-04-04T14:13:22.012Z</time></trkpt><trkpt lat="43.5839267" lon="11.6066217"><ele>259.8333333333333</ele><time>2026-04-04T14:13:24.011Z</time></trkpt><trkpt lat="43.58397" lon="11.6067167"><ele>261.6666666666667</ele><time>2026-04-04T14:13:26.013Z</time></trkpt><trkpt lat="43.5840083" lon="11.6068083"><ele>263.5</ele><time>2026-04-04T14:13:28.011Z</time></trkpt><trkpt lat="43.5840367" lon="11.60689"><ele>265.33333333333337</ele><time>2026-04-04T14:13:30.011Z</time></trkpt><trkpt lat="43.5841217" lon="11.6070383"><ele>267.1666666666667</ele><time>2026-04-04T14:13:33.012Z</time></trkpt><trkpt lat="43.5841733" lon="11.6071333"><ele>269.0</ele><time>2026-04-04T14:13:35.01Z</time></trkpt><trkpt lat="43.5842267" lon="11.6072133"><ele>269.0</ele><time>2026-04-04T14:13:37.011Z</time></trkpt><trkpt lat="43.584265" lon="11.6073067"><ele>269.0</ele><time>2026-04-04T14:13:39.011Z</time></trkpt><trkpt lat="43.5843133" lon="11.60738"><ele>269.0</ele><time>2026-04-04T14:13:41.01Z</time></trkpt><trkpt lat="43.5843733" lon="11.6074433"><ele>269.0</ele><time>2026-04-04T14:13:43.011Z</time></trkpt><trkpt lat="43.5844367" lon="11.60753"><ele>269.0</ele><time>2026-04-04T14:13:45.01Z</time></trkpt><trkpt lat="43.5845317" lon="11.6076367"><ele>269.0</ele><time>2026-04-04T14:13:48.012Z</time></trkpt><trkpt lat="43.5845517" lon="11.60774"><ele>269.0</ele><time>2026-04-04T14:13:50.011Z</time></trkpt><trkpt lat="43.5845883" lon="11.6078233"><ele>269.0</ele><time>2026-04-04T14:13:53.01Z</time></trkpt><trkpt lat="43.584625" lon="11.607895"><ele>269.0</ele><time>2026-04-04T14:13:57.013Z</time></trkpt><trkpt lat="43.584645" lon="11.6080167"><ele>269.0</ele><time>2026-04-04T14:14:00.014Z</time></trkpt><trkpt lat="43.5846767" lon="11.608115"><ele>269.0</ele><time>2026-04-04T14:14:02.012Z</time></trkpt><trkpt lat="43.58471" lon="11.6082133"><ele>269.0</ele><time>2026-04-04T14:14:04.011Z</time></trkpt><trkpt lat="43.584755" lon="11.6082917"><ele>270.0</ele><time>2026-04-04T14:14:07.012Z</time></trkpt><trkpt lat="43.5848017" lon="11.6083967"><ele>271.0</ele><time>2026-04-04T14:14:10.011Z</time></trkpt><trkpt lat="43.5848583" lon="11.6084817"><ele>272.0</ele><time>2026-04-04T14:14:12.011Z</time></trkpt><trkpt lat="43.58491" lon="11.6085733"><ele>273.0</ele><time>2026-04-04T14:14:14.011Z</time></trkpt><trkpt lat="43.5849633" lon="11.6086733"><ele>274.0</ele><time>2026-04-04T14:14:16.011Z</time></trkpt><trkpt lat="43.58502" lon="11.6087817"><ele>275.0</ele><time>2026-04-04T14:14:18.01Z</time></trkpt><trkpt lat="43.5850817" lon="11.60889"><ele>275.1666666666667</ele><time>2026-04-04T14:14:20.012Z</time></trkpt><trkpt lat="43.5851467" lon="11.6089967"><ele>275.33333333333337</ele><time>2026-04-04T14:14:22.012Z</time></trkpt><trkpt lat="43.58521" lon="11.6090983"><ele>275.5</ele><time>2026-04-04T14:14:24.01Z</time></trkpt><trkpt lat="43.585265" lon="11.6091867"><ele>275.6666666666667</ele><time>2026-04-04T14:14:26.01Z</time></trkpt><trkpt lat="43.5853167" lon="11.6092717"><ele>275.8333333333333</ele><time>2026-04-04T14:14:28.01Z</time></trkpt><trkpt lat="43.5853833" lon="11.6093467"><ele>276.0</ele><time>2026-04-04T14:14:30.009Z</time></trkpt><trkpt lat="43.585455" lon="11.6094067"><ele>276.40000000000003</ele><time>2026-04-04T14:14:32.01Z</time></trkpt><trkpt lat="43.58553" lon="11.60946"><ele>276.8</ele><time>2026-04-04T14:14:34.01Z</time></trkpt><trkpt lat="43.5856117" lon="11.6095167"><ele>277.20000000000005</ele><time>2026-04-04T14:14:36.011Z</time></trkpt><trkpt lat="43.5856933" lon="11.6095717"><ele>277.6</ele><time>2026-04-04T14:14:38.012Z</time></trkpt><trkpt lat="43.5857833" lon="11.60963"><ele>278.0</ele><time>2026-04-04T14:14:40.009Z</time></trkpt><trkpt lat="43.5858633" lon="11.609685"><ele>278.5</ele><time>2026-04-04T14:14:42.01Z</time></trkpt><trkpt lat="43.5859417" lon="11.6097417"><ele>279.0</ele><time>2026-04-04T14:14:44.01Z</time></trkpt><trkpt lat="43.5860183" lon="11.6098017"><ele>279.5</ele><time>2026-04-04T14:14:46.011Z</time></trkpt><trkpt lat="43.5860983" lon="11.6098483"><ele>280.0</ele><time>2026-04-04T14:14:48.01Z</time></trkpt><trkpt lat="43.5861733" lon="11.6098983"><ele>280.5</ele><time>2026-04-04T14:14:50.01Z</time></trkpt><trkpt lat="43.5862467" lon="11.6099467"><ele>281.0</ele><time>2026-04-04T14:14:52.011Z</time></trkpt><trkpt lat="43.58633" lon="11.609995"><ele>281.6666666666667</ele><time>2026-04-04T14:14:54.009Z</time></trkpt><trkpt lat="43.5864133" lon="11.6100283"><ele>282.33333333333337</ele><time>2026-04-04T14:14:56.011Z</time></trkpt><trkpt lat="43.5865" lon="11.610045"><ele>283.0</ele><time>2026-04-04T14:14:58.011Z</time></trkpt><trkpt lat="43.586595" lon="11.6100667"><ele>283.6666666666667</ele><time>2026-04-04T14:15:00.01Z</time></trkpt><trkpt lat="43.5866817" lon="11.6100883"><ele>284.3333333333333</ele><time>2026-04-04T14:15:02.01Z</time></trkpt><trkpt lat="43.5867667" lon="11.6101167"><ele>285.0</ele><time>2026-04-04T14:15:04.01Z</time></trkpt><trkpt lat="43.5868567" lon="11.6101417"><ele>285.0</ele><time>2026-04-04T14:15:06.009Z</time></trkpt><trkpt lat="43.5869367" lon="11.61017"><ele>285.0</ele><time>2026-04-04T14:15:08.009Z</time></trkpt><trkpt lat="43.587015" lon="11.61019"><ele>285.0</ele><time>2026-04-04T14:15:10.009Z</time></trkpt><trkpt lat="43.5870983" lon="11.6102133"><ele>285.0</ele><time>2026-04-04T14:15:12.011Z</time></trkpt><trkpt lat="43.5871817" lon="11.610235"><ele>285.0</ele><time>2026-04-04T14:15:14.01Z</time></trkpt><trkpt lat="43.58727" lon="11.6102517"><ele>285.0</ele><time>2026-04-04T14:15:16.012Z</time></trkpt><trkpt lat="43.5873583" lon="11.61027"><ele>285.5</ele><time>2026-04-04T14:15:18.011Z</time></trkpt><trkpt lat="43.5874483" lon="11.6102867"><ele>286.0</ele><time>2026-04-04T14:15:20.011Z</time></trkpt><trkpt lat="43.58753" lon="11.610305"><ele>286.5</ele><time>2026-04-04T14:15:22.012Z</time></trkpt><trkpt lat="43.5875983" lon="11.610325"><ele>287.0</ele><time>2026-04-04T14:15:24.01Z</time></trkpt><trkpt lat="43.587665" lon="11.6103467"><ele>287.5</ele><time>2026-04-04T14:15:26.011Z</time></trkpt><trkpt lat="43.5877267" lon="11.6104033"><ele>288.0</ele><time>2026-04-04T14:15:29.009Z</time></trkpt><trkpt lat="43.5878167" lon="11.6103733"><ele>288.1666666666667</ele><time>2026-04-04T14:15:34.011Z</time></trkpt><trkpt lat="43.5878783" lon="11.6103083"><ele>288.3333333333333</ele><time>2026-04-04T14:15:36.01Z</time></trkpt><trkpt lat="43.5879617" lon="11.61023"><ele>288.5</ele><time>2026-04-04T14:15:38.01Z</time></trkpt><trkpt lat="43.588055" lon="11.6101467"><ele>288.66666666666663</ele><time>2026-04-04T14:15:40.011Z</time></trkpt><trkpt lat="43.588115" lon="11.6101"><ele>288.8333333333333</ele><time>2026-04-04T14:15:41.011Z</time></trkpt><trkpt lat="43.588175" lon="11.610055"><ele>289.0</ele><time>2026-04-04T14:15:42.011Z</time></trkpt><trkpt lat="43.5882433" lon="11.6100083"><ele>289.0</ele><time>2026-04-04T14:15:43.011Z</time></trkpt><trkpt lat="43.5883167" lon="11.6099533"><ele>289.0</ele><time>2026-04-04T14:15:44.011Z</time></trkpt><trkpt lat="43.5883883" lon="11.6099083"><ele>289.0</ele><time>2026-04-04T14:15:45.013Z</time></trkpt><trkpt lat="43.5884667" lon="11.609855"><ele>289.0</ele><time>2026-04-04T14:15:46.011Z</time></trkpt><trkpt lat="43.5885383" lon="11.6098017"><ele>289.0</ele><time>2026-04-04T14:15:47.012Z</time></trkpt><trkpt lat="43.5886067" lon="11.6097367"><ele>289.0</ele><time>2026-04-04T14:15:48.012Z</time></trkpt><trkpt lat="43.588665" lon="11.6096567"><ele>289.16666666666663</ele><time>2026-04-04T14:15:49.012Z</time></trkpt><trkpt lat="43.5887117" lon="11.6095633"><ele>289.3333333333333</ele><time>2026-04-04T14:15:50.014Z</time></trkpt><trkpt lat="43.5887467" lon="11.609465"><ele>289.5</ele><time>2026-04-04T14:15:51.011Z</time></trkpt><trkpt lat="43.5887717" lon="11.609365"><ele>289.6666666666667</ele><time>2026-04-04T14:15:52.011Z</time></trkpt><trkpt lat="43.5887867" lon="11.6092667"><ele>289.83333333333337</ele><time>2026-04-04T14:15:53.012Z</time></trkpt><trkpt lat="43.5888" lon="11.60917"><ele>290.0</ele><time>2026-04-04T14:15:54.012Z</time></trkpt><trkpt lat="43.5888117" lon="11.6090783"><ele>290.5</ele><time>2026-04-04T14:15:55.012Z</time></trkpt><trkpt lat="43.588825" lon="11.6089067"><ele>291.0</ele><time>2026-04-04T14:15:57.012Z</time></trkpt><trkpt lat="43.58882" lon="11.6087467"><ele>291.5</ele><time>2026-04-04T14:15:59.012Z</time></trkpt><trkpt lat="43.5888" lon="11.608595"><ele>292.0</ele><time>2026-04-04T14:16:01.011Z</time></trkpt><trkpt lat="43.5887717" lon="11.6084483"><ele>292.2</ele><time>2026-04-04T14:16:03.012Z</time></trkpt><trkpt lat="43.5887583" lon="11.6083033"><ele>292.4</ele><time>2026-04-04T14:16:05.012Z</time></trkpt><trkpt lat="43.5887533" lon="11.60817"><ele>292.6</ele><time>2026-04-04T14:16:07.012Z</time></trkpt><trkpt lat="43.5887783" lon="11.6080483"><ele>292.8</ele><time>2026-04-04T14:16:09.01Z</time></trkpt><trkpt lat="43.5888283" lon="11.6079333"><ele>293.0</ele><time>2026-04-04T14:16:11.011Z</time></trkpt><trkpt lat="43.588895" lon="11.6078183"><ele>293.2</ele><time>2026-04-04T14:16:13.012Z</time></trkpt><trkpt lat="43.5889567" lon="11.6077017"><ele>293.4</ele><time>2026-04-04T14:16:15.012Z</time></trkpt><trkpt lat="43.5890167" lon="11.6075933"><ele>293.59999999999997</ele><time>2026-04-04T14:16:17.013Z</time></trkpt><trkpt lat="43.5890783" lon="11.6074833"><ele>293.8</ele><time>2026-04-04T14:16:19.012Z</time></trkpt><trkpt lat="43.5891383" lon="11.6073617"><ele>294.0</ele><time>2026-04-04T14:16:21.011Z</time></trkpt><trkpt lat="43.5891967" lon="11.6072483"><ele>294.0</ele><time>2026-04-04T14:16:23.013Z</time></trkpt><trkpt lat="43.5892567" lon="11.6071333"><ele>294.0</ele><time>2026-04-04T14:16:25.011Z</time></trkpt><trkpt lat="43.5893183" lon="11.607025"><ele>294.0</ele><time>2026-04-04T14:16:27.01Z</time></trkpt><trkpt lat="43.5893817" lon="11.6069117"><ele>294.0</ele><time>2026-04-04T14:16:29.01Z</time></trkpt><trkpt lat="43.58944" lon="11.606795"><ele>294.0</ele><time>2026-04-04T14:16:31.017Z</time></trkpt><trkpt lat="43.5895033" lon="11.60668"><ele>294.4</ele><time>2026-04-04T14:16:33.01Z</time></trkpt><trkpt lat="43.5895833" lon="11.6065833"><ele>294.79999999999995</ele><time>2026-04-04T14:16:35.013Z</time></trkpt><trkpt lat="43.58968" lon="11.606515"><ele>295.20000000000005</ele><time>2026-04-04T14:16:37.012Z</time></trkpt><trkpt lat="43.5897867" lon="11.606465"><ele>295.6</ele><time>2026-04-04T14:16:39.012Z</time></trkpt><trkpt lat="43.5899017" lon="11.606425"><ele>296.0</ele><time>2026-04-04T14:16:41.012Z</time></trkpt><trkpt lat="43.5900167" lon="11.6063883"><ele>296.0</ele><time>2026-04-04T14:16:43.012Z</time></trkpt><trkpt lat="43.59008" lon="11.6063667"><ele>296.0</ele><time>2026-04-04T14:16:44.011Z</time></trkpt><trkpt lat="43.5901433" lon="11.6063517"><ele>296.0</ele><time>2026-04-04T14:16:45.012Z</time></trkpt><trkpt lat="43.5902133" lon="11.606335"><ele>296.0</ele><time>2026-04-04T14:16:46.011Z</time></trkpt><trkpt lat="43.59028" lon="11.6063333"><ele>296.0</ele><time>2026-04-04T14:16:47.012Z</time></trkpt><trkpt lat="43.59035" lon="11.6063417"><ele>296.0</ele><time>2026-04-04T14:16:48.013Z</time></trkpt><trkpt lat="43.5904217" lon="11.60636"><ele>296.0</ele><time>2026-04-04T14:16:49.011Z</time></trkpt><trkpt lat="43.5904783" lon="11.6064083"><ele>295.7142857142857</ele><time>2026-04-04T14:16:50.012Z</time></trkpt><trkpt lat="43.5905333" lon="11.606465"><ele>295.42857142857144</ele><time>2026-04-04T14:16:51.011Z</time></trkpt><trkpt lat="43.5905833" lon="11.6065367"><ele>295.1428571428571</ele><time>2026-04-04T14:16:52.014Z</time></trkpt><trkpt lat="43.590635" lon="11.6066183"><ele>294.8571428571429</ele><time>2026-04-04T14:16:53.013Z</time></trkpt><trkpt lat="43.590685" lon="11.6067"><ele>294.57142857142856</ele><time>2026-04-04T14:16:54.011Z</time></trkpt><trkpt lat="43.590735" lon="11.60678"><ele>294.2857142857143</ele><time>2026-04-04T14:16:55.012Z</time></trkpt><trkpt lat="43.5907883" lon="11.6068483"><ele>294.0</ele><time>2026-04-04T14:16:56.012Z</time></trkpt><trkpt lat="43.59085" lon="11.60691"><ele>294.0</ele><time>2026-04-04T14:16:57.011Z</time></trkpt><trkpt lat="43.590915" lon="11.60696"><ele>294.0</ele><time>2026-04-04T14:16:58.013Z</time></trkpt><trkpt lat="43.5909867" lon="11.607"><ele>294.0</ele><time>2026-04-04T14:16:59.013Z</time></trkpt><trkpt lat="43.5910567" lon="11.6070033"><ele>294.0</ele><time>2026-04-04T14:17:00.012Z</time></trkpt><trkpt lat="43.5911233" lon="11.60697"><ele>294.0</ele><time>2026-04-04T14:17:01.012Z</time></trkpt><trkpt lat="43.5911733" lon="11.6068867"><ele>294.0</ele><time>2026-04-04T14:17:02.012Z</time></trkpt><trkpt lat="43.5912133" lon="11.6067933"><ele>294.0</ele><time>2026-04-04T14:17:03.012Z</time></trkpt><trkpt lat="43.591235" lon="11.606695"><ele>294.0</ele><time>2026-04-04T14:17:04.011Z</time></trkpt><trkpt lat="43.5912283" lon="11.60659"><ele>294.0</ele><time>2026-04-04T14:17:05.012Z</time></trkpt><trkpt lat="43.5912033" lon="11.606495"><ele>294.0</ele><time>2026-04-04T14:17:06.012Z</time></trkpt><trkpt lat="43.59117" lon="11.6064067"><ele>294.0</ele><time>2026-04-04T14:17:07.012Z</time></trkpt><trkpt lat="43.5911367" lon="11.60632"><ele>294.0</ele><time>2026-04-04T14:17:08.013Z</time></trkpt><trkpt lat="43.5911033" lon="11.60623"><ele>294.0</ele><time>2026-04-04T14:17:09.012Z</time></trkpt><trkpt lat="43.591085" lon="11.606135"><ele>293.7142857142857</ele><time>2026-04-04T14:17:10.011Z</time></trkpt><trkpt lat="43.5910767" lon="11.606035"><ele>293.42857142857144</ele><time>2026-04-04T14:17:11.012Z</time></trkpt><trkpt lat="43.591075" lon="11.6059383"><ele>293.1428571428571</ele><time>2026-04-04T14:17:12.012Z</time></trkpt><trkpt lat="43.5910783" lon="11.6058383"><ele>292.8571428571429</ele><time>2026-04-04T14:17:13.014Z</time></trkpt><trkpt lat="43.59109" lon="11.605745"><ele>292.57142857142856</ele><time>2026-04-04T14:17:14.012Z</time></trkpt><trkpt lat="43.5911" lon="11.6056517"><ele>292.2857142857143</ele><time>2026-04-04T14:17:15.012Z</time></trkpt><trkpt lat="43.5911067" lon="11.6055583"><ele>292.0</ele><time>2026-04-04T14:17:16.013Z</time></trkpt><trkpt lat="43.5911133" lon="11.60547"><ele>292.0</ele><time>2026-04-04T14:17:17.012Z</time></trkpt><trkpt lat="43.5911183" lon="11.6053767"><ele>292.0</ele><time>2026-04-04T14:17:18.015Z</time></trkpt><trkpt lat="43.5911233" lon="11.6052883"><ele>292.0</ele><time>2026-04-04T14:17:19.012Z</time></trkpt><trkpt lat="43.591135" lon="11.6052017"><ele>292.0</ele><time>2026-04-04T14:17:20.013Z</time></trkpt><trkpt lat="43.5911567" lon="11.6050317"><ele>292.0</ele><time>2026-04-04T14:17:22.011Z</time></trkpt><trkpt lat="43.591175" lon="11.6049483"><ele>292.0</ele><time>2026-04-04T14:17:23.012Z</time></trkpt><trkpt lat="43.5912317" lon="11.6048067"><ele>292.8</ele><time>2026-04-04T14:17:25.012Z</time></trkpt><trkpt lat="43.5913133" lon="11.604695"><ele>293.6</ele><time>2026-04-04T14:17:27.012Z</time></trkpt><trkpt lat="43.5914117" lon="11.6045983"><ele>294.40000000000003</ele><time>2026-04-04T14:17:29.012Z</time></trkpt><trkpt lat="43.5914667" lon="11.6045483"><ele>295.2</ele><time>2026-04-04T14:17:30.012Z</time></trkpt><trkpt lat="43.5915167" lon="11.604495"><ele>296.0</ele><time>2026-04-04T14:17:31.013Z</time></trkpt><trkpt lat="43.59162" lon="11.6044"><ele>296.0</ele><time>2026-04-04T14:17:33.014Z</time></trkpt><trkpt lat="43.591675" lon="11.60435"><ele>296.0</ele><time>2026-04-04T14:17:34.013Z</time></trkpt><trkpt lat="43.5917267" lon="11.6043"><ele>296.0</ele><time>2026-04-04T14:17:35.012Z</time></trkpt><trkpt lat="43.5917783" lon="11.604245"><ele>296.0</ele><time>2026-04-04T14:17:36.012Z</time></trkpt><trkpt lat="43.5918283" lon="11.6041883"><ele>296.0</ele><time>2026-04-04T14:17:37.011Z</time></trkpt><trkpt lat="43.5918817" lon="11.60413"><ele>296.0</ele><time>2026-04-04T14:17:38.011Z</time></trkpt><trkpt lat="43.5919333" lon="11.6040633"><ele>296.0</ele><time>2026-04-04T14:17:39.012Z</time></trkpt><trkpt lat="43.59198" lon="11.6039933"><ele>296.8571428571429</ele><time>2026-04-04T14:17:40.011Z</time></trkpt><trkpt lat="43.592025" lon="11.6039183"><ele>297.7142857142857</ele><time>2026-04-04T14:17:41.011Z</time></trkpt><trkpt lat="43.59207" lon="11.60384"><ele>298.57142857142856</ele><time>2026-04-04T14:17:42.012Z</time></trkpt><trkpt lat="43.5921117" lon="11.60376"><ele>299.42857142857144</ele><time>2026-04-04T14:17:43.01Z</time></trkpt><trkpt lat="43.59215" lon="11.6036783"><ele>300.2857142857143</ele><time>2026-04-04T14:17:44.011Z</time></trkpt><trkpt lat="43.5921833" lon="11.6035967"><ele>301.14285714285717</ele><time>2026-04-04T14:17:45.011Z</time></trkpt><trkpt lat="43.5922167" lon="11.6035167"><ele>302.0</ele><time>2026-04-04T14:17:46.011Z</time></trkpt><trkpt lat="43.5922483" lon="11.6034283"><ele>302.00000000000006</ele><time>2026-04-04T14:17:47.011Z</time></trkpt><trkpt lat="43.5922733" lon="11.6033417"><ele>302.0</ele><time>2026-04-04T14:17:48.014Z</time></trkpt><trkpt lat="43.5922917" lon="11.6032483"><ele>302.0</ele><time>2026-04-04T14:17:49.014Z</time></trkpt><trkpt lat="43.5922933" lon="11.6031517"><ele>302.0</ele><time>2026-04-04T14:17:50.013Z</time></trkpt><trkpt lat="43.5922767" lon="11.60306"><ele>302.0</ele><time>2026-04-04T14:17:51.012Z</time></trkpt><trkpt lat="43.5922433" lon="11.6029767"><ele>302.00000000000006</ele><time>2026-04-04T14:17:52.011Z</time></trkpt><trkpt lat="43.592195" lon="11.6028983"><ele>302.0</ele><time>2026-04-04T14:17:53.013Z</time></trkpt><trkpt lat="43.5921383" lon="11.6028367"><ele>302.28571428571433</ele><time>2026-04-04T14:17:54.011Z</time></trkpt><trkpt lat="43.592085" lon="11.6027783"><ele>302.57142857142856</ele><time>2026-04-04T14:17:55.011Z</time></trkpt><trkpt lat="43.5920383" lon="11.6027033"><ele>302.8571428571429</ele><time>2026-04-04T14:17:56.013Z</time></trkpt><trkpt lat="43.59201" lon="11.6026133"><ele>303.14285714285717</ele><time>2026-04-04T14:17:57.012Z</time></trkpt><trkpt lat="43.5920017" lon="11.6025117"><ele>303.42857142857144</ele><time>2026-04-04T14:17:58.011Z</time></trkpt><trkpt lat="43.592025" lon="11.6024133"><ele>303.7142857142857</ele><time>2026-04-04T14:17:59.011Z</time></trkpt><trkpt lat="43.5920717" lon="11.60233"><ele>304.0</ele><time>2026-04-04T14:18:00.011Z</time></trkpt><trkpt lat="43.59213" lon="11.6022483"><ele>304.0</ele><time>2026-04-04T14:18:01.012Z</time></trkpt><trkpt lat="43.5921917" lon="11.602175"><ele>304.0</ele><time>2026-04-04T14:18:02.011Z</time></trkpt><trkpt lat="43.5922567" lon="11.6021083"><ele>304.0</ele><time>2026-04-04T14:18:03.011Z</time></trkpt><trkpt lat="43.5923283" lon="11.6020433"><ele>304.0</ele><time>2026-04-04T14:18:04.012Z</time></trkpt><trkpt lat="43.5924033" lon="11.6019917"><ele>304.0</ele><time>2026-04-04T14:18:05.011Z</time></trkpt><trkpt lat="43.5924833" lon="11.601945"><ele>304.0</ele><time>2026-04-04T14:18:06.011Z</time></trkpt><trkpt lat="43.5925583" lon="11.6018883"><ele>302.8333333333333</ele><time>2026-04-04T14:18:07.011Z</time></trkpt><trkpt lat="43.59262" lon="11.6018067"><ele>301.66666666666663</ele><time>2026-04-04T14:18:08.012Z</time></trkpt><trkpt lat="43.5926583" lon="11.601705"><ele>300.5</ele><time>2026-04-04T14:18:09.013Z</time></trkpt><trkpt lat="43.5926667" lon="11.601595"><ele>299.3333333333333</ele><time>2026-04-04T14:18:10.013Z</time></trkpt><trkpt lat="43.59265" lon="11.6014833"><ele>298.1666666666667</ele><time>2026-04-04T14:18:11.013Z</time></trkpt><trkpt lat="43.5926183" lon="11.6013833"><ele>297.0</ele><time>2026-04-04T14:18:12.012Z</time></trkpt><trkpt lat="43.5925633" lon="11.6013"><ele>297.0</ele><time>2026-04-04T14:18:13.011Z</time></trkpt><trkpt lat="43.5925" lon="11.6012267"><ele>297.0</ele><time>2026-04-04T14:18:14.012Z</time></trkpt><trkpt lat="43.592435" lon="11.601155"><ele>297.0</ele><time>2026-04-04T14:18:15.011Z</time></trkpt><trkpt lat="43.5923717" lon="11.601085"><ele>297.0</ele><time>2026-04-04T14:18:16.011Z</time></trkpt><trkpt lat="43.5923067" lon="11.6010117"><ele>297.0</ele><time>2026-04-04T14:18:17.012Z</time></trkpt><trkpt lat="43.592245" lon="11.6009283"><ele>297.0</ele><time>2026-04-04T14:18:18.013Z</time></trkpt><trkpt lat="43.5921917" lon="11.6008383"><ele>296.2</ele><time>2026-04-04T14:18:19.01Z</time></trkpt><trkpt lat="43.5921383" lon="11.6007383"><ele>295.4</ele><time>2026-04-04T14:18:20.012Z</time></trkpt><trkpt lat="43.5920883" lon="11.6006317"><ele>294.6</ele><time>2026-04-04T14:18:21.011Z</time></trkpt><trkpt lat="43.5920333" lon="11.600525"><ele>293.8</ele><time>2026-04-04T14:18:22.011Z</time></trkpt><trkpt lat="43.5919833" lon="11.60042"><ele>293.0</ele><time>2026-04-04T14:18:23.011Z</time></trkpt><trkpt lat="43.5919383" lon="11.60032"><ele>293.0</ele><time>2026-04-04T14:18:24.011Z</time></trkpt><trkpt lat="43.5918933" lon="11.6002167"><ele>293.0</ele><time>2026-04-04T14:18:25.012Z</time></trkpt><trkpt lat="43.5918517" lon="11.6001167"><ele>293.0</ele><time>2026-04-04T14:18:26.011Z</time></trkpt><trkpt lat="43.59181" lon="11.6000167"><ele>293.0</ele><time>2026-04-04T14:18:27.012Z</time></trkpt><trkpt lat="43.5917717" lon="11.5999133"><ele>293.0</ele><time>2026-04-04T14:18:28.011Z</time></trkpt><trkpt lat="43.5917333" lon="11.5998067"><ele>293.0</ele><time>2026-04-04T14:18:29.012Z</time></trkpt><trkpt lat="43.5917" lon="11.59969"><ele>293.0</ele><time>2026-04-04T14:18:30.011Z</time></trkpt><trkpt lat="43.5916717" lon="11.5995683"><ele>293.0</ele><time>2026-04-04T14:18:31.011Z</time></trkpt><trkpt lat="43.5916533" lon="11.599445"><ele>293.0</ele><time>2026-04-04T14:18:32.015Z</time></trkpt><trkpt lat="43.59165" lon="11.5993183"><ele>293.0</ele><time>2026-04-04T14:18:33.011Z</time></trkpt><trkpt lat="43.5916617" lon="11.5991883"><ele>293.0</ele><time>2026-04-04T14:18:34.011Z</time></trkpt><trkpt lat="43.5916883" lon="11.59906"><ele>293.0</ele><time>2026-04-04T14:18:35.01Z</time></trkpt><trkpt lat="43.5917267" lon="11.59894"><ele>293.0</ele><time>2026-04-04T14:18:36.011Z</time></trkpt><trkpt lat="43.591775" lon="11.5988317"><ele>293.0</ele><time>2026-04-04T14:18:37.012Z</time></trkpt><trkpt lat="43.5918333" lon="11.5987317"><ele>293.0</ele><time>2026-04-04T14:18:38.01Z</time></trkpt><trkpt lat="43.591895" lon="11.5986333"><ele>293.0</ele><time>2026-04-04T14:18:39.01Z</time></trkpt><trkpt lat="43.59196" lon="11.5985417"><ele>294.2</ele><time>2026-04-04T14:18:40.011Z</time></trkpt><trkpt lat="43.5920233" lon="11.5984433"><ele>295.4</ele><time>2026-04-04T14:18:41.011Z</time></trkpt><trkpt lat="43.5920783" lon="11.59834"><ele>296.59999999999997</ele><time>2026-04-04T14:18:42.011Z</time></trkpt><trkpt lat="43.59212" lon="11.5982233"><ele>297.8</ele><time>2026-04-04T14:18:43.011Z</time></trkpt><trkpt lat="43.592145" lon="11.5981033"><ele>299.0</ele><time>2026-04-04T14:18:44.012Z</time></trkpt><trkpt lat="43.59215" lon="11.59798"><ele>299.0</ele><time>2026-04-04T14:18:45.009Z</time></trkpt><trkpt lat="43.5921383" lon="11.5978633"><ele>299.0</ele><time>2026-04-04T14:18:46.01Z</time></trkpt><trkpt lat="43.5921283" lon="11.59775"><ele>299.0</ele><time>2026-04-04T14:18:47.01Z</time></trkpt><trkpt lat="43.5921317" lon="11.5976383"><ele>299.0</ele><time>2026-04-04T14:18:48.011Z</time></trkpt><trkpt lat="43.59215" lon="11.5975317"><ele>299.0</ele><time>2026-04-04T14:18:49.012Z</time></trkpt><trkpt lat="43.592185" lon="11.59743"><ele>299.0</ele><time>2026-04-04T14:18:50.01Z</time></trkpt><trkpt lat="43.5922333" lon="11.597345"><ele>298.57142857142856</ele><time>2026-04-04T14:18:51.011Z</time></trkpt><trkpt lat="43.59229" lon="11.59727"><ele>298.14285714285717</ele><time>2026-04-04T14:18:52.01Z</time></trkpt><trkpt lat="43.5923483" lon="11.5972083"><ele>297.7142857142857</ele><time>2026-04-04T14:18:53.011Z</time></trkpt><trkpt lat="43.59241" lon="11.597155"><ele>297.2857142857143</ele><time>2026-04-04T14:18:54.01Z</time></trkpt><trkpt lat="43.59247" lon="11.5971033"><ele>296.85714285714283</ele><time>2026-04-04T14:18:55.01Z</time></trkpt><trkpt lat="43.5925283" lon="11.5970483"><ele>296.42857142857144</ele><time>2026-04-04T14:18:56.011Z</time></trkpt><trkpt lat="43.59259" lon="11.5969933"><ele>296.0</ele><time>2026-04-04T14:18:57.013Z</time></trkpt><trkpt lat="43.5926467" lon="11.5969433"><ele>296.7142857142857</ele><time>2026-04-04T14:18:58.01Z</time></trkpt><trkpt lat="43.5927" lon="11.5968933"><ele>297.42857142857144</ele><time>2026-04-04T14:18:59.013Z</time></trkpt><trkpt lat="43.592755" lon="11.5968383"><ele>298.1428571428571</ele><time>2026-04-04T14:19:00.011Z</time></trkpt><trkpt lat="43.59281" lon="11.5967933"><ele>298.8571428571429</ele><time>2026-04-04T14:19:01.013Z</time></trkpt><trkpt lat="43.5928717" lon="11.5967517"><ele>299.57142857142856</ele><time>2026-04-04T14:19:02.013Z</time></trkpt><trkpt lat="43.5929367" lon="11.5967267"><ele>300.2857142857143</ele><time>2026-04-04T14:19:03.011Z</time></trkpt><trkpt lat="43.5930067" lon="11.5967"><ele>301.0</ele><time>2026-04-04T14:19:04.012Z</time></trkpt><trkpt lat="43.59307" lon="11.5966717"><ele>301.0</ele><time>2026-04-04T14:19:05.011Z</time></trkpt><trkpt lat="43.5931283" lon="11.59663"><ele>301.0</ele><time>2026-04-04T14:19:06.012Z</time></trkpt><trkpt lat="43.593175" lon="11.5965667"><ele>301.0</ele><time>2026-04-04T14:19:07.011Z</time></trkpt><trkpt lat="43.593205" lon="11.5964767"><ele>301.0</ele><time>2026-04-04T14:19:08.013Z</time></trkpt><trkpt lat="43.5932033" lon="11.596385"><ele>301.0</ele><time>2026-04-04T14:19:09.011Z</time></trkpt><trkpt lat="43.5931767" lon="11.5962983"><ele>301.0</ele><time>2026-04-04T14:19:10.012Z</time></trkpt><trkpt lat="43.5931317" lon="11.59623"><ele>301.0</ele><time>2026-04-04T14:19:11.011Z</time></trkpt><trkpt lat="43.593075" lon="11.59618"><ele>301.0</ele><time>2026-04-04T14:19:12.011Z</time></trkpt><trkpt lat="43.5930067" lon="11.5961383"><ele>301.0</ele><time>2026-04-04T14:19:13.011Z</time></trkpt><trkpt lat="43.592935" lon="11.5961033"><ele>301.0</ele><time>2026-04-04T14:19:14.014Z</time></trkpt><trkpt lat="43.592865" lon="11.596065"><ele>301.0</ele><time>2026-04-04T14:19:15.011Z</time></trkpt><trkpt lat="43.5927983" lon="11.5960217"><ele>301.0</ele><time>2026-04-04T14:19:16.011Z</time></trkpt><trkpt lat="43.5927333" lon="11.5959783"><ele>301.0</ele><time>2026-04-04T14:19:17.013Z</time></trkpt><trkpt lat="43.5926667" lon="11.5959217"><ele>299.5</ele><time>2026-04-04T14:19:18.011Z</time></trkpt><trkpt lat="43.592605" lon="11.5958667"><ele>298.0</ele><time>2026-04-04T14:19:19.011Z</time></trkpt><trkpt lat="43.5925483" lon="11.595795"><ele>296.5</ele><time>2026-04-04T14:19:20.011Z</time></trkpt><trkpt lat="43.5924933" lon="11.5957167"><ele>295.0</ele><time>2026-04-04T14:19:21.013Z</time></trkpt><trkpt lat="43.5924383" lon="11.5956283"><ele>293.5</ele><time>2026-04-04T14:19:22.011Z</time></trkpt><trkpt lat="43.592395" lon="11.5955367"><ele>292.0</ele><time>2026-04-04T14:19:23.012Z</time></trkpt><trkpt lat="43.592355" lon="11.5954383"><ele>292.0</ele><time>2026-04-04T14:19:24.01Z</time></trkpt><trkpt lat="43.5923283" lon="11.5953383"><ele>292.0</ele><time>2026-04-04T14:19:25.011Z</time></trkpt><trkpt lat="43.592315" lon="11.5952317"><ele>292.0</ele><time>2026-04-04T14:19:26.011Z</time></trkpt><trkpt lat="43.5923167" lon="11.5951267"><ele>292.0</ele><time>2026-04-04T14:19:27.012Z</time></trkpt><trkpt lat="43.592325" lon="11.59502"><ele>292.0</ele><time>2026-04-04T14:19:28.011Z</time></trkpt><trkpt lat="43.59234" lon="11.59492"><ele>292.0</ele><time>2026-04-04T14:19:29.012Z</time></trkpt><trkpt lat="43.5923633" lon="11.5948267"><ele>292.16666666666663</ele><time>2026-04-04T14:19:30.012Z</time></trkpt><trkpt lat="43.5923933" lon="11.5947383"><ele>292.3333333333333</ele><time>2026-04-04T14:19:31.013Z</time></trkpt><trkpt lat="43.5924333" lon="11.5946583"><ele>292.5</ele><time>2026-04-04T14:19:32.01Z</time></trkpt><trkpt lat="43.5924833" lon="11.5945833"><ele>292.6666666666667</ele><time>2026-04-04T14:19:33.012Z</time></trkpt><trkpt lat="43.5925433" lon="11.5945117"><ele>292.83333333333337</ele><time>2026-04-04T14:19:34.011Z</time></trkpt><trkpt lat="43.59261" lon="11.5944483"><ele>293.0</ele><time>2026-04-04T14:19:35.011Z</time></trkpt><trkpt lat="43.592685" lon="11.5943867"><ele>293.0</ele><time>2026-04-04T14:19:36.011Z</time></trkpt><trkpt lat="43.5927617" lon="11.59433"><ele>293.0</ele><time>2026-04-04T14:19:37.01Z</time></trkpt><trkpt lat="43.59284" lon="11.5942733"><ele>293.0</ele><time>2026-04-04T14:19:38.013Z</time></trkpt><trkpt lat="43.5929217" lon="11.5942117"><ele>293.0</ele><time>2026-04-04T14:19:39.011Z</time></trkpt><trkpt lat="43.593005" lon="11.59415"><ele>293.0</ele><time>2026-04-04T14:19:40.011Z</time></trkpt><trkpt lat="43.5930967" lon="11.594075"><ele>292.8</ele><time>2026-04-04T14:19:41.012Z</time></trkpt><trkpt lat="43.5931817" lon="11.5940033"><ele>292.6</ele><time>2026-04-04T14:19:42.012Z</time></trkpt><trkpt lat="43.5932617" lon="11.5939267"><ele>292.4</ele><time>2026-04-04T14:19:43.012Z</time></trkpt><trkpt lat="43.593335" lon="11.593845"><ele>292.2</ele><time>2026-04-04T14:19:44.013Z</time></trkpt><trkpt lat="43.5933933" lon="11.5937467"><ele>292.0</ele><time>2026-04-04T14:19:45.011Z</time></trkpt><trkpt lat="43.5934317" lon="11.593615"><ele>290.8</ele><time>2026-04-04T14:19:46.012Z</time></trkpt><trkpt lat="43.593445" lon="11.5934733"><ele>289.6</ele><time>2026-04-04T14:19:47.01Z</time></trkpt><trkpt lat="43.5934333" lon="11.5933317"><ele>288.40000000000003</ele><time>2026-04-04T14:19:48.01Z</time></trkpt><trkpt lat="43.5934083" lon="11.5932017"><ele>287.2</ele><time>2026-04-04T14:19:49.012Z</time></trkpt><trkpt lat="43.5933833" lon="11.5930683"><ele>286.0</ele><time>2026-04-04T14:19:50.011Z</time></trkpt><trkpt lat="43.5933517" lon="11.592945"><ele>285.8</ele><time>2026-04-04T14:19:51.012Z</time></trkpt><trkpt lat="43.5933233" lon="11.5928183"><ele>285.6</ele><time>2026-04-04T14:19:52.012Z</time></trkpt><trkpt lat="43.5932917" lon="11.5926883"><ele>285.4</ele><time>2026-04-04T14:19:53.011Z</time></trkpt><trkpt lat="43.59326" lon="11.5925567"><ele>285.2</ele><time>2026-04-04T14:19:54.013Z</time></trkpt><trkpt lat="43.59323" lon="11.59243"><ele>285.0</ele><time>2026-04-04T14:19:55.011Z</time></trkpt><trkpt lat="43.59321" lon="11.592305"><ele>285.0</ele><time>2026-04-04T14:19:56.011Z</time></trkpt><trkpt lat="43.5932133" lon="11.592175"><ele>285.0</ele><time>2026-04-04T14:19:57.011Z</time></trkpt><trkpt lat="43.59325" lon="11.5920517"><ele>285.0</ele><time>2026-04-04T14:19:58.012Z</time></trkpt><trkpt lat="43.5933183" lon="11.5919533"><ele>285.0</ele><time>2026-04-04T14:19:59.013Z</time></trkpt><trkpt lat="43.5934083" lon="11.591895"><ele>285.0</ele><time>2026-04-04T14:20:00.011Z</time></trkpt><trkpt lat="43.5935067" lon="11.59186"><ele>285.8</ele><time>2026-04-04T14:20:01.011Z</time></trkpt><trkpt lat="43.593605" lon="11.591845"><ele>286.6</ele><time>2026-04-04T14:20:02.013Z</time></trkpt><trkpt lat="43.5937" lon="11.591815"><ele>287.4</ele><time>2026-04-04T14:20:03.012Z</time></trkpt><trkpt lat="43.5937833" lon="11.5917517"><ele>288.2</ele><time>2026-04-04T14:20:04.011Z</time></trkpt><trkpt lat="43.5938367" lon="11.5916483"><ele>289.0</ele><time>2026-04-04T14:20:05.011Z</time></trkpt><trkpt lat="43.5938567" lon="11.5915217"><ele>289.0</ele><time>2026-04-04T14:20:06.011Z</time></trkpt><trkpt lat="43.593855" lon="11.5913917"><ele>289.0</ele><time>2026-04-04T14:20:07.012Z</time></trkpt><trkpt lat="43.5938467" lon="11.591255"><ele>289.0</ele><time>2026-04-04T14:20:08.014Z</time></trkpt><trkpt lat="43.59385" lon="11.59112"><ele>289.0</ele><time>2026-04-04T14:20:09.011Z</time></trkpt><trkpt lat="43.5938683" lon="11.5910033"><ele>289.0</ele><time>2026-04-04T14:20:10.011Z</time></trkpt><trkpt lat="43.5939017" lon="11.5908917"><ele>288.66666666666663</ele><time>2026-04-04T14:20:11.012Z</time></trkpt><trkpt lat="43.59394" lon="11.59078"><ele>288.3333333333333</ele><time>2026-04-04T14:20:12.012Z</time></trkpt><trkpt lat="43.593985" lon="11.590675"><ele>288.0</ele><time>2026-04-04T14:20:13.011Z</time></trkpt><trkpt lat="43.5940317" lon="11.5905767"><ele>287.6666666666667</ele><time>2026-04-04T14:20:14.013Z</time></trkpt><trkpt lat="43.59408" lon="11.5904767"><ele>287.33333333333337</ele><time>2026-04-04T14:20:15.011Z</time></trkpt><trkpt lat="43.5941267" lon="11.5903783"><ele>287.0</ele><time>2026-04-04T14:20:16.011Z</time></trkpt><trkpt lat="43.59417" lon="11.590285"><ele>286.0</ele><time>2026-04-04T14:20:17.011Z</time></trkpt><trkpt lat="43.5942167" lon="11.5901867"><ele>285.0</ele><time>2026-04-04T14:20:18.011Z</time></trkpt><trkpt lat="43.59427" lon="11.59009"><ele>284.0</ele><time>2026-04-04T14:20:19.011Z</time></trkpt><trkpt lat="43.5943183" lon="11.5899983"><ele>283.0</ele><time>2026-04-04T14:20:20.011Z</time></trkpt><trkpt lat="43.594365" lon="11.5899067"><ele>282.0</ele><time>2026-04-04T14:20:21.011Z</time></trkpt><trkpt lat="43.5944067" lon="11.589815"><ele>281.0</ele><time>2026-04-04T14:20:22.011Z</time></trkpt><trkpt lat="43.5944467" lon="11.58972"><ele>281.0</ele><time>2026-04-04T14:20:23.011Z</time></trkpt><trkpt lat="43.5944817" lon="11.5896233"><ele>281.0</ele><time>2026-04-04T14:20:24.012Z</time></trkpt><trkpt lat="43.594515" lon="11.58952"><ele>281.0</ele><time>2026-04-04T14:20:25.011Z</time></trkpt><trkpt lat="43.5945433" lon="11.5894233"><ele>281.0</ele><time>2026-04-04T14:20:26.011Z</time></trkpt><trkpt lat="43.5945667" lon="11.589325"><ele>281.0</ele><time>2026-04-04T14:20:27.012Z</time></trkpt><trkpt lat="43.5945883" lon="11.5892167"><ele>281.0</ele><time>2026-04-04T14:20:28.012Z</time></trkpt><trkpt lat="43.594605" lon="11.5891117"><ele>282.5714285714286</ele><time>2026-04-04T14:20:29.011Z</time></trkpt><trkpt lat="43.5946117" lon="11.589005"><ele>284.14285714285717</ele><time>2026-04-04T14:20:30.011Z</time></trkpt><trkpt lat="43.594605" lon="11.5889033"><ele>285.7142857142857</ele><time>2026-04-04T14:20:31.011Z</time></trkpt><trkpt lat="43.5945883" lon="11.5887983"><ele>287.28571428571433</ele><time>2026-04-04T14:20:32.012Z</time></trkpt><trkpt lat="43.5945733" lon="11.5887017"><ele>288.8571428571429</ele><time>2026-04-04T14:20:33.011Z</time></trkpt><trkpt lat="43.5945533" lon="11.588615"><ele>290.42857142857144</ele><time>2026-04-04T14:20:34.011Z</time></trkpt><trkpt lat="43.5945317" lon="11.5885283"><ele>292.0</ele><time>2026-04-04T14:20:35.01Z</time></trkpt><trkpt lat="43.5945067" lon="11.5884383"><ele>290.42857142857144</ele><time>2026-04-04T14:20:36.012Z</time></trkpt><trkpt lat="43.5944833" lon="11.5883467"><ele>288.8571428571429</ele><time>2026-04-04T14:20:37.012Z</time></trkpt><trkpt lat="43.5944633" lon="11.58826"><ele>287.28571428571433</ele><time>2026-04-04T14:20:38.013Z</time></trkpt><trkpt lat="43.5944483" lon="11.5881667"><ele>285.7142857142857</ele><time>2026-04-04T14:20:39.012Z</time></trkpt><trkpt lat="43.5944433" lon="11.5880717"><ele>284.14285714285717</ele><time>2026-04-04T14:20:40.012Z</time></trkpt><trkpt lat="43.5944417" lon="11.5879733"><ele>282.5714285714286</ele><time>2026-04-04T14:20:41.011Z</time></trkpt><trkpt lat="43.5944467" lon="11.5878783"><ele>281.0</ele><time>2026-04-04T14:20:42.012Z</time></trkpt><trkpt lat="43.59446" lon="11.587785"><ele>281.00000000000006</ele><time>2026-04-04T14:20:43.011Z</time></trkpt><trkpt lat="43.5944783" lon="11.5876883"><ele>281.0</ele><time>2026-04-04T14:20:44.014Z</time></trkpt><trkpt lat="43.5945033" lon="11.5875983"><ele>281.0</ele><time>2026-04-04T14:20:45.011Z</time></trkpt><trkpt lat="43.59453" lon="11.5875117"><ele>281.0</ele><time>2026-04-04T14:20:46.011Z</time></trkpt><trkpt lat="43.59456" lon="11.5874233"><ele>281.0</ele><time>2026-04-04T14:20:47.013Z</time></trkpt><trkpt lat="43.5945917" lon="11.5873383"><ele>281.00000000000006</ele><time>2026-04-04T14:20:48.013Z</time></trkpt><trkpt lat="43.5946283" lon="11.5872583"><ele>281.0</ele><time>2026-04-04T14:20:49.011Z</time></trkpt><trkpt lat="43.5946667" lon="11.5871833"><ele>281.28571428571433</ele><time>2026-04-04T14:20:50.013Z</time></trkpt><trkpt lat="43.59471" lon="11.587115"><ele>281.57142857142856</ele><time>2026-04-04T14:20:51.011Z</time></trkpt><trkpt lat="43.594765" lon="11.5870533"><ele>281.8571428571429</ele><time>2026-04-04T14:20:52.012Z</time></trkpt><trkpt lat="43.5948267" lon="11.587"><ele>282.14285714285717</ele><time>2026-04-04T14:20:53.012Z</time></trkpt><trkpt lat="43.59489" lon="11.58695"><ele>282.42857142857144</ele><time>2026-04-04T14:20:54.011Z</time></trkpt><trkpt lat="43.5949583" lon="11.5868967"><ele>282.7142857142857</ele><time>2026-04-04T14:20:55.013Z</time></trkpt><trkpt lat="43.5950283" lon="11.58685"><ele>283.0</ele><time>2026-04-04T14:20:56.013Z</time></trkpt><trkpt lat="43.5951017" lon="11.5868133"><ele>283.0</ele><time>2026-04-04T14:20:57.012Z</time></trkpt><trkpt lat="43.5951733" lon="11.5868017"><ele>283.0</ele><time>2026-04-04T14:20:58.013Z</time></trkpt><trkpt lat="43.5952483" lon="11.5868067"><ele>283.0</ele><time>2026-04-04T14:20:59.011Z</time></trkpt><trkpt lat="43.5953283" lon="11.5868117"><ele>283.0</ele><time>2026-04-04T14:21:00.011Z</time></trkpt><trkpt lat="43.595405" lon="11.586835"><ele>283.0</ele><time>2026-04-04T14:21:01.011Z</time></trkpt><trkpt lat="43.5954833" lon="11.5868683"><ele>283.0</ele><time>2026-04-04T14:21:02.014Z</time></trkpt><trkpt lat="43.59556" lon="11.5869067"><ele>282.5</ele><time>2026-04-04T14:21:03.012Z</time></trkpt><trkpt lat="43.5956383" lon="11.5869483"><ele>282.0</ele><time>2026-04-04T14:21:04.01Z</time></trkpt><trkpt lat="43.5957183" lon="11.5869883"><ele>281.5</ele><time>2026-04-04T14:21:05.01Z</time></trkpt><trkpt lat="43.5958" lon="11.587025"><ele>281.0</ele><time>2026-04-04T14:21:06.014Z</time></trkpt><trkpt lat="43.595885" lon="11.587055"><ele>280.5</ele><time>2026-04-04T14:21:07.011Z</time></trkpt><trkpt lat="43.5959667" lon="11.587095"><ele>280.0</ele><time>2026-04-04T14:21:08.011Z</time></trkpt><trkpt lat="43.59605" lon="11.587135"><ele>280.8333333333333</ele><time>2026-04-04T14:21:09.011Z</time></trkpt><trkpt lat="43.5961333" lon="11.5871717"><ele>281.66666666666663</ele><time>2026-04-04T14:21:10.01Z</time></trkpt><trkpt lat="43.5962217" lon="11.5871833"><ele>282.5</ele><time>2026-04-04T14:21:11.012Z</time></trkpt><trkpt lat="43.59631" lon="11.5871733"><ele>283.3333333333333</ele><time>2026-04-04T14:21:12.011Z</time></trkpt><trkpt lat="43.5963933" lon="11.5871317"><ele>284.1666666666667</ele><time>2026-04-04T14:21:13.011Z</time></trkpt><trkpt lat="43.5964667" lon="11.5870683"><ele>285.0</ele><time>2026-04-04T14:21:14.012Z</time></trkpt><trkpt lat="43.5965333" lon="11.58699"><ele>285.0</ele><time>2026-04-04T14:21:15.012Z</time></trkpt><trkpt lat="43.5965917" lon="11.5869083"><ele>285.0</ele><time>2026-04-04T14:21:16.009Z</time></trkpt><trkpt lat="43.5966483" lon="11.58683"><ele>285.0</ele><time>2026-04-04T14:21:17.01Z</time></trkpt><trkpt lat="43.596695" lon="11.5867517"><ele>285.0</ele><time>2026-04-04T14:21:18.012Z</time></trkpt><trkpt lat="43.5967317" lon="11.58667"><ele>285.0</ele><time>2026-04-04T14:21:19.011Z</time></trkpt><trkpt lat="43.596755" lon="11.5865883"><ele>285.0</ele><time>2026-04-04T14:21:20.012Z</time></trkpt><trkpt lat="43.5967667" lon="11.5865017"><ele>285.0</ele><time>2026-04-04T14:21:21.011Z</time></trkpt><trkpt lat="43.5967683" lon="11.5864133"><ele>285.0</ele><time>2026-04-04T14:21:22.011Z</time></trkpt><trkpt lat="43.5967617" lon="11.5863267"><ele>285.0</ele><time>2026-04-04T14:21:23.011Z</time></trkpt><trkpt lat="43.5967683" lon="11.5861583"><ele>285.0</ele><time>2026-04-04T14:21:25.013Z</time></trkpt><trkpt lat="43.5968117" lon="11.585995"><ele>285.0</ele><time>2026-04-04T14:21:27.011Z</time></trkpt><trkpt lat="43.5968833" lon="11.5858567"><ele>285.0</ele><time>2026-04-04T14:21:29.012Z</time></trkpt><trkpt lat="43.5969717" lon="11.5857417"><ele>287.5</ele><time>2026-04-04T14:21:31.012Z</time></trkpt><trkpt lat="43.5970783" lon="11.5856633"><ele>290.0</ele><time>2026-04-04T14:21:33.012Z</time></trkpt><trkpt lat="43.59718" lon="11.5855983"><ele>292.5</ele><time>2026-04-04T14:21:35.013Z</time></trkpt><trkpt lat="43.5972833" lon="11.5855567"><ele>295.0</ele><time>2026-04-04T14:21:37.014Z</time></trkpt><trkpt lat="43.5973933" lon="11.585505"><ele>295.0</ele><time>2026-04-04T14:21:39.013Z</time></trkpt><trkpt lat="43.5975" lon="11.58546"><ele>295.0</ele><time>2026-04-04T14:21:41.013Z</time></trkpt><trkpt lat="43.5976067" lon="11.5854217"><ele>295.0</ele><time>2026-04-04T14:21:43.012Z</time></trkpt><trkpt lat="43.597715" lon="11.5853767"><ele>295.0</ele><time>2026-04-04T14:21:45.012Z</time></trkpt><trkpt lat="43.5978167" lon="11.5853217"><ele>295.0</ele><time>2026-04-04T14:21:47.011Z</time></trkpt><trkpt lat="43.597905" lon="11.5852467"><ele>295.6</ele><time>2026-04-04T14:21:49.011Z</time></trkpt><trkpt lat="43.5979833" lon="11.58515"><ele>296.2</ele><time>2026-04-04T14:21:51.011Z</time></trkpt><trkpt lat="43.598045" lon="11.5850317"><ele>296.8</ele><time>2026-04-04T14:21:53.011Z</time></trkpt><trkpt lat="43.5980967" lon="11.58491"><ele>297.4</ele><time>2026-04-04T14:21:55.011Z</time></trkpt><trkpt lat="43.598145" lon="11.58478"><ele>298.0</ele><time>2026-04-04T14:21:57.012Z</time></trkpt><trkpt lat="43.5981983" lon="11.584655"><ele>298.0</ele><time>2026-04-04T14:21:59.011Z</time></trkpt><trkpt lat="43.5982533" lon="11.5845417"><ele>298.0</ele><time>2026-04-04T14:22:01.011Z</time></trkpt><trkpt lat="43.5983333" lon="11.58443"><ele>298.0</ele><time>2026-04-04T14:22:03.01Z</time></trkpt><trkpt lat="43.5984317" lon="11.5843433"><ele>298.0</ele><time>2026-04-04T14:22:05.009Z</time></trkpt><trkpt lat="43.5985367" lon="11.58429"><ele>298.0</ele><time>2026-04-04T14:22:07.01Z</time></trkpt><trkpt lat="43.5986517" lon="11.584255"><ele>299.2</ele><time>2026-04-04T14:22:09.014Z</time></trkpt><trkpt lat="43.598755" lon="11.584225"><ele>300.4</ele><time>2026-04-04T14:22:11.012Z</time></trkpt><trkpt lat="43.5988467" lon="11.58414"><ele>301.59999999999997</ele><time>2026-04-04T14:22:13.011Z</time></trkpt><trkpt lat="43.5988933" lon="11.584005"><ele>302.8</ele><time>2026-04-04T14:22:15.009Z</time></trkpt><trkpt lat="43.5989017" lon="11.583865"><ele>304.0</ele><time>2026-04-04T14:22:17.009Z</time></trkpt><trkpt lat="43.5988867" lon="11.5837217"><ele>303.2</ele><time>2026-04-04T14:22:19.01Z</time></trkpt><trkpt lat="43.598875" lon="11.58357"><ele>302.4</ele><time>2026-04-04T14:22:21.009Z</time></trkpt><trkpt lat="43.598865" lon="11.5834083"><ele>301.6</ele><time>2026-04-04T14:22:23.01Z</time></trkpt><trkpt lat="43.5988533" lon="11.583245"><ele>300.8</ele><time>2026-04-04T14:22:25.012Z</time></trkpt><trkpt lat="43.5988483" lon="11.5831583"><ele>300.0</ele><time>2026-04-04T14:22:26.013Z</time></trkpt><trkpt lat="43.5988467" lon="11.5829967"><ele>299.5</ele><time>2026-04-04T14:22:28.01Z</time></trkpt><trkpt lat="43.598855" lon="11.582845"><ele>299.0</ele><time>2026-04-04T14:22:30.012Z</time></trkpt><trkpt lat="43.59888" lon="11.5826883"><ele>298.5</ele><time>2026-04-04T14:22:32.011Z</time></trkpt><trkpt lat="43.598895" lon="11.5826033"><ele>298.0</ele><time>2026-04-04T14:22:33.011Z</time></trkpt><trkpt lat="43.59891" lon="11.58251"><ele>297.5</ele><time>2026-04-04T14:22:34.01Z</time></trkpt><trkpt lat="43.5989267" lon="11.582415"><ele>297.0</ele><time>2026-04-04T14:22:35.01Z</time></trkpt><trkpt lat="43.5989417" lon="11.58232"><ele>297.0</ele><time>2026-04-04T14:22:36.01Z</time></trkpt><trkpt lat="43.5989583" lon="11.5822267"><ele>297.0</ele><time>2026-04-04T14:22:37.01Z</time></trkpt><trkpt lat="43.598975" lon="11.5821283"><ele>297.0</ele><time>2026-04-04T14:22:38.011Z</time></trkpt><trkpt lat="43.598995" lon="11.5820283"><ele>297.0</ele><time>2026-04-04T14:22:39.011Z</time></trkpt><trkpt lat="43.5990133" lon="11.5819317"><ele>297.0</ele><time>2026-04-04T14:22:40.01Z</time></trkpt><trkpt lat="43.5990367" lon="11.5818333"><ele>297.0</ele><time>2026-04-04T14:22:41.012Z</time></trkpt><trkpt lat="43.5990683" lon="11.581735"><ele>297.0</ele><time>2026-04-04T14:22:42.014Z</time></trkpt><trkpt lat="43.5991117" lon="11.5816517"><ele>296.3333333333333</ele><time>2026-04-04T14:22:43.011Z</time></trkpt><trkpt lat="43.5991667" lon="11.5815783"><ele>295.6666666666667</ele><time>2026-04-04T14:22:44.012Z</time></trkpt><trkpt lat="43.5992333" lon="11.5815217"><ele>295.0</ele><time>2026-04-04T14:22:45.014Z</time></trkpt><trkpt lat="43.5993083" lon="11.58149"><ele>294.33333333333337</ele><time>2026-04-04T14:22:46.013Z</time></trkpt><trkpt lat="43.599385" lon="11.5814833"><ele>293.6666666666667</ele><time>2026-04-04T14:22:47.011Z</time></trkpt><trkpt lat="43.5994733" lon="11.5814733"><ele>293.0</ele><time>2026-04-04T14:22:48.012Z</time></trkpt><trkpt lat="43.599555" lon="11.58149"><ele>292.1666666666667</ele><time>2026-04-04T14:22:49.015Z</time></trkpt><trkpt lat="43.59963" lon="11.5815217"><ele>291.33333333333337</ele><time>2026-04-04T14:22:50.013Z</time></trkpt><trkpt lat="43.599705" lon="11.5815583"><ele>290.5</ele><time>2026-04-04T14:22:51.011Z</time></trkpt><trkpt lat="43.5997683" lon="11.58162"><ele>289.6666666666667</ele><time>2026-04-04T14:22:52.011Z</time></trkpt><trkpt lat="43.599825" lon="11.5817133"><ele>288.8333333333333</ele><time>2026-04-04T14:22:53.011Z</time></trkpt><trkpt lat="43.5998783" lon="11.5818083"><ele>288.0</ele><time>2026-04-04T14:22:54.012Z</time></trkpt><trkpt lat="43.5999367" lon="11.5819067"><ele>288.0</ele><time>2026-04-04T14:22:55.013Z</time></trkpt><trkpt lat="43.5999983" lon="11.582"><ele>288.0</ele><time>2026-04-04T14:22:56.013Z</time></trkpt><trkpt lat="43.6000633" lon="11.58209"><ele>288.0</ele><time>2026-04-04T14:22:57.013Z</time></trkpt><trkpt lat="43.6001367" lon="11.5821767"><ele>288.0</ele><time>2026-04-04T14:22:58.012Z</time></trkpt><trkpt lat="43.6002117" lon="11.582265"><ele>288.0</ele><time>2026-04-04T14:22:59.012Z</time></trkpt><trkpt lat="43.6002833" lon="11.5823533"><ele>289.1666666666667</ele><time>2026-04-04T14:23:00.013Z</time></trkpt><trkpt lat="43.6003483" lon="11.5824433"><ele>290.3333333333333</ele><time>2026-04-04T14:23:01.012Z</time></trkpt><trkpt lat="43.6004117" lon="11.582535"><ele>291.5</ele><time>2026-04-04T14:23:02.012Z</time></trkpt><trkpt lat="43.6004667" lon="11.5826233"><ele>292.66666666666663</ele><time>2026-04-04T14:23:03.011Z</time></trkpt><trkpt lat="43.60052" lon="11.5827033"><ele>293.8333333333333</ele><time>2026-04-04T14:23:04.01Z</time></trkpt><trkpt lat="43.6005883" lon="11.58277"><ele>295.0</ele><time>2026-04-04T14:23:05.013Z</time></trkpt><trkpt lat="43.6006783" lon="11.58275"><ele>295.0</ele><time>2026-04-04T14:23:06.012Z</time></trkpt><trkpt lat="43.6007517" lon="11.5827083"><ele>295.0</ele><time>2026-04-04T14:23:07.011Z</time></trkpt><trkpt lat="43.60082" lon="11.58264"><ele>295.0</ele><time>2026-04-04T14:23:08.011Z</time></trkpt><trkpt lat="43.600865" lon="11.5825517"><ele>295.0</ele><time>2026-04-04T14:23:09.013Z</time></trkpt><trkpt lat="43.6008917" lon="11.5824567"><ele>295.0</ele><time>2026-04-04T14:23:10.01Z</time></trkpt><trkpt lat="43.6008983" lon="11.5823633"><ele>295.0</ele><time>2026-04-04T14:23:11.012Z</time></trkpt><trkpt lat="43.60088" lon="11.5822667"><ele>295.00000000000006</ele><time>2026-04-04T14:23:12.011Z</time></trkpt><trkpt lat="43.600845" lon="11.5821733"><ele>295.0</ele><time>2026-04-04T14:23:13.011Z</time></trkpt><trkpt lat="43.6008067" lon="11.58208"><ele>295.0</ele><time>2026-04-04T14:23:14.012Z</time></trkpt><trkpt lat="43.6007717" lon="11.58199"><ele>295.0</ele><time>2026-04-04T14:23:15.012Z</time></trkpt><trkpt lat="43.6007383" lon="11.5819067"><ele>295.0</ele><time>2026-04-04T14:23:16.014Z</time></trkpt><trkpt lat="43.6007117" lon="11.5818233"><ele>295.00000000000006</ele><time>2026-04-04T14:23:17.011Z</time></trkpt><trkpt lat="43.600685" lon="11.581735"><ele>295.0</ele><time>2026-04-04T14:23:18.013Z</time></trkpt><trkpt lat="43.6006617" lon="11.5816467"><ele>295.3333333333333</ele><time>2026-04-04T14:23:19.011Z</time></trkpt><trkpt lat="43.60064" lon="11.5815617"><ele>295.66666666666663</ele><time>2026-04-04T14:23:20.013Z</time></trkpt><trkpt lat="43.600605" lon="11.581405"><ele>296.0</ele><time>2026-04-04T14:23:22.011Z</time></trkpt><trkpt lat="43.6005567" lon="11.581245"><ele>296.3333333333333</ele><time>2026-04-04T14:23:24.014Z</time></trkpt><trkpt lat="43.6005333" lon="11.5811617"><ele>296.6666666666667</ele><time>2026-04-04T14:23:25.013Z</time></trkpt><trkpt lat="43.6005133" lon="11.5810783"><ele>297.0</ele><time>2026-04-04T14:23:26.011Z</time></trkpt><trkpt lat="43.6004717" lon="11.5809733"><ele>297.2</ele><time>2026-04-04T14:23:28.011Z</time></trkpt><trkpt lat="43.60043" lon="11.58084"><ele>297.4</ele><time>2026-04-04T14:23:30.011Z</time></trkpt><trkpt lat="43.6003883" lon="11.580675"><ele>297.6</ele><time>2026-04-04T14:23:32.013Z</time></trkpt><trkpt lat="43.6003717" lon="11.58058"><ele>297.8</ele><time>2026-04-04T14:23:33.014Z</time></trkpt><trkpt lat="43.6003567" lon="11.5804833"><ele>298.0</ele><time>2026-04-04T14:23:34.011Z</time></trkpt><trkpt lat="43.6003617" lon="11.5803783"><ele>297.7142857142857</ele><time>2026-04-04T14:23:35.011Z</time></trkpt><trkpt lat="43.60037" lon="11.5802883"><ele>297.4285714285714</ele><time>2026-04-04T14:23:36.012Z</time></trkpt><trkpt lat="43.60039" lon="11.5801917"><ele>297.1428571428571</ele><time>2026-04-04T14:23:37.011Z</time></trkpt><trkpt lat="43.6004183" lon="11.580105"><ele>296.85714285714283</ele><time>2026-04-04T14:23:38.011Z</time></trkpt><trkpt lat="43.6004483" lon="11.5800267"><ele>296.57142857142856</ele><time>2026-04-04T14:23:39.012Z</time></trkpt><trkpt lat="43.60048" lon="11.5799483"><ele>296.2857142857143</ele><time>2026-04-04T14:23:40.012Z</time></trkpt><trkpt lat="43.6005167" lon="11.579875"><ele>296.0</ele><time>2026-04-04T14:23:41.015Z</time></trkpt><trkpt lat="43.600595" lon="11.5797383"><ele>296.0</ele><time>2026-04-04T14:23:43.012Z</time></trkpt><trkpt lat="43.60064" lon="11.5796583"><ele>296.0</ele><time>2026-04-04T14:23:44.012Z</time></trkpt><trkpt lat="43.6006817" lon="11.5795883"><ele>296.0</ele><time>2026-04-04T14:23:45.01Z</time></trkpt><trkpt lat="43.6007267" lon="11.5795133"><ele>296.0</ele><time>2026-04-04T14:23:46.011Z</time></trkpt><trkpt lat="43.60077" lon="11.5794467"><ele>296.0</ele><time>2026-04-04T14:23:47.012Z</time></trkpt><trkpt lat="43.6008133" lon="11.5793833"><ele>296.0</ele><time>2026-04-04T14:23:48.012Z</time></trkpt><trkpt lat="43.60091" lon="11.5792683"><ele>295.8</ele><time>2026-04-04T14:23:50.012Z</time></trkpt><trkpt lat="43.6010233" lon="11.5792083"><ele>295.6</ele><time>2026-04-04T14:23:52.012Z</time></trkpt><trkpt lat="43.601085" lon="11.5791867"><ele>295.4</ele><time>2026-04-04T14:23:53.014Z</time></trkpt><trkpt lat="43.6011467" lon="11.5791633"><ele>295.2</ele><time>2026-04-04T14:23:54.012Z</time></trkpt><trkpt lat="43.6012683" lon="11.5791333"><ele>295.0</ele><time>2026-04-04T14:23:56.016Z</time></trkpt><trkpt lat="43.6013817" lon="11.5791533"><ele>295.4</ele><time>2026-04-04T14:23:58.011Z</time></trkpt><trkpt lat="43.6014917" lon="11.57919"><ele>295.8</ele><time>2026-04-04T14:24:00.014Z</time></trkpt><trkpt lat="43.6016" lon="11.5792133"><ele>296.2</ele><time>2026-04-04T14:24:02.011Z</time></trkpt><trkpt lat="43.6017067" lon="11.5792167"><ele>296.6</ele><time>2026-04-04T14:24:04.014Z</time></trkpt><trkpt lat="43.6018183" lon="11.5792067"><ele>297.0</ele><time>2026-04-04T14:24:06.012Z</time></trkpt><trkpt lat="43.6019433" lon="11.5791833"><ele>298.0</ele><time>2026-04-04T14:24:08.014Z</time></trkpt><trkpt lat="43.6020067" lon="11.57917"><ele>299.0</ele><time>2026-04-04T14:24:09.012Z</time></trkpt><trkpt lat="43.60213" lon="11.579135"><ele>300.0</ele><time>2026-04-04T14:24:11.014Z</time></trkpt><trkpt lat="43.6021967" lon="11.5791167"><ele>301.0</ele><time>2026-04-04T14:24:12.015Z</time></trkpt><trkpt lat="43.6022633" lon="11.5790967"><ele>302.0</ele><time>2026-04-04T14:24:13.012Z</time></trkpt><trkpt lat="43.60233" lon="11.5790733"><ele>303.0</ele><time>2026-04-04T14:24:14.013Z</time></trkpt><trkpt lat="43.6023933" lon="11.579045"><ele>303.0</ele><time>2026-04-04T14:24:15.01Z</time></trkpt><trkpt lat="43.6024583" lon="11.5790133"><ele>303.0</ele><time>2026-04-04T14:24:16.011Z</time></trkpt><trkpt lat="43.6025133" lon="11.5789683"><ele>303.0</ele><time>2026-04-04T14:24:17.012Z</time></trkpt><trkpt lat="43.6025617" lon="11.57891"><ele>303.0</ele><time>2026-04-04T14:24:18.012Z</time></trkpt><trkpt lat="43.60264" lon="11.5787633"><ele>303.0</ele><time>2026-04-04T14:24:20.014Z</time></trkpt><trkpt lat="43.6026733" lon="11.5786817"><ele>303.0</ele><time>2026-04-04T14:24:21.012Z</time></trkpt><trkpt lat="43.602715" lon="11.5786"><ele>303.0</ele><time>2026-04-04T14:24:22.011Z</time></trkpt><trkpt lat="43.6027583" lon="11.5785283"><ele>303.0</ele><time>2026-04-04T14:24:23.013Z</time></trkpt><trkpt lat="43.6028117" lon="11.5784617"><ele>303.0</ele><time>2026-04-04T14:24:24.013Z</time></trkpt><trkpt lat="43.602875" lon="11.57842"><ele>303.0</ele><time>2026-04-04T14:24:25.011Z</time></trkpt><trkpt lat="43.6029483" lon="11.578375"><ele>303.0</ele><time>2026-04-04T14:24:26.012Z</time></trkpt><trkpt lat="43.6030167" lon="11.57834"><ele>303.0</ele><time>2026-04-04T14:24:27.012Z</time></trkpt><trkpt lat="43.6030783" lon="11.57829"><ele>303.0</ele><time>2026-04-04T14:24:28.012Z</time></trkpt><trkpt lat="43.60313" lon="11.5782167"><ele>303.0</ele><time>2026-04-04T14:24:29.012Z</time></trkpt><trkpt lat="43.6031667" lon="11.5781233"><ele>303.0</ele><time>2026-04-04T14:24:30.012Z</time></trkpt><trkpt lat="43.6031867" lon="11.5780283"><ele>303.0</ele><time>2026-04-04T14:24:31.012Z</time></trkpt><trkpt lat="43.6031917" lon="11.57793"><ele>303.0</ele><time>2026-04-04T14:24:32.012Z</time></trkpt><trkpt lat="43.6031883" lon="11.577825"><ele>303.0</ele><time>2026-04-04T14:24:33.01Z</time></trkpt><trkpt lat="43.6031817" lon="11.57772"><ele>303.0</ele><time>2026-04-04T14:24:34.011Z</time></trkpt><trkpt lat="43.6031767" lon="11.57761"><ele>302.0</ele><time>2026-04-04T14:24:35.01Z</time></trkpt><trkpt lat="43.6031783" lon="11.5774967"><ele>301.0</ele><time>2026-04-04T14:24:36.01Z</time></trkpt><trkpt lat="43.603185" lon="11.5773833"><ele>300.0</ele><time>2026-04-04T14:24:37.012Z</time></trkpt><trkpt lat="43.6032" lon="11.57727"><ele>299.0</ele><time>2026-04-04T14:24:38.011Z</time></trkpt><trkpt lat="43.6032333" lon="11.577165"><ele>298.0</ele><time>2026-04-04T14:24:39.01Z</time></trkpt><trkpt lat="43.6032817" lon="11.5770667"><ele>297.0</ele><time>2026-04-04T14:24:40.011Z</time></trkpt><trkpt lat="43.60334" lon="11.5769717"><ele>295.8</ele><time>2026-04-04T14:24:41.012Z</time></trkpt><trkpt lat="43.6034033" lon="11.5768867"><ele>294.6</ele><time>2026-04-04T14:24:42.011Z</time></trkpt><trkpt lat="43.603475" lon="11.5768"><ele>293.40000000000003</ele><time>2026-04-04T14:24:43.011Z</time></trkpt><trkpt lat="43.6035517" lon="11.5767233"><ele>292.2</ele><time>2026-04-04T14:24:44.011Z</time></trkpt><trkpt lat="43.603635" lon="11.5766533"><ele>291.0</ele><time>2026-04-04T14:24:45.012Z</time></trkpt><trkpt lat="43.6037217" lon="11.5765833"><ele>291.0</ele><time>2026-04-04T14:24:46.01Z</time></trkpt><trkpt lat="43.603815" lon="11.5765417"><ele>291.0</ele><time>2026-04-04T14:24:47.012Z</time></trkpt><trkpt lat="43.60391" lon="11.5765333"><ele>291.0</ele><time>2026-04-04T14:24:48.012Z</time></trkpt><trkpt lat="43.6040017" lon="11.57656"><ele>291.0</ele><time>2026-04-04T14:24:49.012Z</time></trkpt><trkpt lat="43.604095" lon="11.5766067"><ele>291.0</ele><time>2026-04-04T14:24:50.013Z</time></trkpt><trkpt lat="43.6041917" lon="11.57665"><ele>291.0</ele><time>2026-04-04T14:24:51.011Z</time></trkpt><trkpt lat="43.6042867" lon="11.5766867"><ele>291.0</ele><time>2026-04-04T14:24:52.011Z</time></trkpt><trkpt lat="43.6043817" lon="11.5767183"><ele>291.0</ele><time>2026-04-04T14:24:53.011Z</time></trkpt><trkpt lat="43.6044783" lon="11.5767467"><ele>291.0</ele><time>2026-04-04T14:24:54.012Z</time></trkpt><trkpt lat="43.604575" lon="11.5767667"><ele>291.0</ele><time>2026-04-04T14:24:55.01Z</time></trkpt><trkpt lat="43.60467" lon="11.5767683"><ele>290.8</ele><time>2026-04-04T14:24:56.014Z</time></trkpt><trkpt lat="43.60476" lon="11.5767467"><ele>290.6</ele><time>2026-04-04T14:24:57.012Z</time></trkpt><trkpt lat="43.6048433" lon="11.5766967"><ele>290.4</ele><time>2026-04-04T14:24:58.01Z</time></trkpt><trkpt lat="43.6049183" lon="11.5766183"><ele>290.2</ele><time>2026-04-04T14:24:59.011Z</time></trkpt><trkpt lat="43.604975" lon="11.5765217"><ele>290.0</ele><time>2026-04-04T14:25:00.012Z</time></trkpt><trkpt lat="43.6050133" lon="11.5764083"><ele>290.0</ele><time>2026-04-04T14:25:01.01Z</time></trkpt><trkpt lat="43.6050383" lon="11.57628"><ele>290.0</ele><time>2026-04-04T14:25:02.011Z</time></trkpt><trkpt lat="43.60506" lon="11.5761383"><ele>290.0</ele><time>2026-04-04T14:25:03.012Z</time></trkpt><trkpt lat="43.6050733" lon="11.5759983"><ele>290.0</ele><time>2026-04-04T14:25:04.011Z</time></trkpt><trkpt lat="43.60508" lon="11.5758567"><ele>290.0</ele><time>2026-04-04T14:25:05.01Z</time></trkpt><trkpt lat="43.6050867" lon="11.5757133"><ele>288.6</ele><time>2026-04-04T14:25:06.01Z</time></trkpt><trkpt lat="43.6050917" lon="11.5755733"><ele>287.2</ele><time>2026-04-04T14:25:07.012Z</time></trkpt><trkpt lat="43.6051033" lon="11.575435"><ele>285.8</ele><time>2026-04-04T14:25:08.012Z</time></trkpt><trkpt lat="43.6051333" lon="11.5752983"><ele>284.4</ele><time>2026-04-04T14:25:09.011Z</time></trkpt><trkpt lat="43.6051933" lon="11.57518"><ele>283.0</ele><time>2026-04-04T14:25:10.011Z</time></trkpt><trkpt lat="43.605275" lon="11.575105"><ele>283.4</ele><time>2026-04-04T14:25:11.012Z</time></trkpt><trkpt lat="43.605365" lon="11.5750517"><ele>283.8</ele><time>2026-04-04T14:25:12.012Z</time></trkpt><trkpt lat="43.60546" lon="11.574995"><ele>284.2</ele><time>2026-04-04T14:25:13.013Z</time></trkpt><trkpt lat="43.60555" lon="11.57495"><ele>284.6</ele><time>2026-04-04T14:25:14.011Z</time></trkpt><trkpt lat="43.6056383" lon="11.574905"><ele>285.0</ele><time>2026-04-04T14:25:15.011Z</time></trkpt><trkpt lat="43.6057233" lon="11.57485"><ele>285.0</ele><time>2026-04-04T14:25:16.012Z</time></trkpt><trkpt lat="43.6058033" lon="11.5747817"><ele>285.0</ele><time>2026-04-04T14:25:17.011Z</time></trkpt><trkpt lat="43.6058733" lon="11.5747017"><ele>285.0</ele><time>2026-04-04T14:25:18.011Z</time></trkpt><trkpt lat="43.6059367" lon="11.5746117"><ele>285.0</ele><time>2026-04-04T14:25:19.011Z</time></trkpt><trkpt lat="43.6059933" lon="11.5745117"><ele>285.0</ele><time>2026-04-04T14:25:20.011Z</time></trkpt><trkpt lat="43.606045" lon="11.5744083"><ele>285.5</ele><time>2026-04-04T14:25:21.013Z</time></trkpt><trkpt lat="43.6060983" lon="11.5743067"><ele>286.0</ele><time>2026-04-04T14:25:22.011Z</time></trkpt><trkpt lat="43.6061533" lon="11.5742167"><ele>286.5</ele><time>2026-04-04T14:25:23.014Z</time></trkpt><trkpt lat="43.6062133" lon="11.574125"><ele>287.0</ele><time>2026-04-04T14:25:24.012Z</time></trkpt><trkpt lat="43.6062783" lon="11.5740433"><ele>287.5</ele><time>2026-04-04T14:25:25.013Z</time></trkpt><trkpt lat="43.6063433" lon="11.5739667"><ele>288.0</ele><time>2026-04-04T14:25:26.012Z</time></trkpt><trkpt lat="43.6064067" lon="11.5738983"><ele>288.0</ele><time>2026-04-04T14:25:27.011Z</time></trkpt><trkpt lat="43.6064683" lon="11.5738333"><ele>288.0</ele><time>2026-04-04T14:25:28.014Z</time></trkpt><trkpt lat="43.6065383" lon="11.5737567"><ele>288.0</ele><time>2026-04-04T14:25:29.011Z</time></trkpt><trkpt lat="43.6066017" lon="11.5736883"><ele>288.0</ele><time>2026-04-04T14:25:30.011Z</time></trkpt><trkpt lat="43.6066683" lon="11.57363"><ele>288.0</ele><time>2026-04-04T14:25:31.011Z</time></trkpt><trkpt lat="43.6067383" lon="11.5735817"><ele>288.0</ele><time>2026-04-04T14:25:32.011Z</time></trkpt><trkpt lat="43.6068133" lon="11.573545"><ele>287.5714285714286</ele><time>2026-04-04T14:25:33.013Z</time></trkpt><trkpt lat="43.6068933" lon="11.5735317"><ele>287.14285714285717</ele><time>2026-04-04T14:25:34.012Z</time></trkpt><trkpt lat="43.6069717" lon="11.5735383"><ele>286.7142857142857</ele><time>2026-04-04T14:25:35.012Z</time></trkpt><trkpt lat="43.607045" lon="11.573555"><ele>286.28571428571433</ele><time>2026-04-04T14:25:36.012Z</time></trkpt><trkpt lat="43.6071183" lon="11.5735767"><ele>285.8571428571429</ele><time>2026-04-04T14:25:37.009Z</time></trkpt><trkpt lat="43.6071883" lon="11.573595"><ele>285.42857142857144</ele><time>2026-04-04T14:25:38.012Z</time></trkpt><trkpt lat="43.6072567" lon="11.5735983"><ele>285.0</ele><time>2026-04-04T14:25:39.013Z</time></trkpt><trkpt lat="43.6073267" lon="11.5735733"><ele>285.0</ele><time>2026-04-04T14:25:40.011Z</time></trkpt><trkpt lat="43.6073783" lon="11.57351"><ele>285.0</ele><time>2026-04-04T14:25:41.011Z</time></trkpt><trkpt lat="43.6074117" lon="11.5734217"><ele>285.0</ele><time>2026-04-04T14:25:42.012Z</time></trkpt><trkpt lat="43.60742" lon="11.5733217"><ele>285.0</ele><time>2026-04-04T14:25:43.013Z</time></trkpt><trkpt lat="43.6074083" lon="11.573225"><ele>285.0</ele><time>2026-04-04T14:25:44.012Z</time></trkpt><trkpt lat="43.60739" lon="11.573135"><ele>285.0</ele><time>2026-04-04T14:25:45.011Z</time></trkpt><trkpt lat="43.6073717" lon="11.5730517"><ele>285.0</ele><time>2026-04-04T14:25:46.01Z</time></trkpt><trkpt lat="43.6073383" lon="11.5729"><ele>285.75</ele><time>2026-04-04T14:25:48.013Z</time></trkpt><trkpt lat="43.6073083" lon="11.5727433"><ele>286.5</ele><time>2026-04-04T14:25:50.012Z</time></trkpt><trkpt lat="43.6072833" lon="11.5725867"><ele>287.25</ele><time>2026-04-04T14:25:52.011Z</time></trkpt><trkpt lat="43.60726" lon="11.5724283"><ele>288.0</ele><time>2026-04-04T14:25:54.012Z</time></trkpt><trkpt lat="43.6072517" lon="11.572265"><ele>288.0</ele><time>2026-04-04T14:25:56.012Z</time></trkpt><trkpt lat="43.6072717" lon="11.5721167"><ele>288.0</ele><time>2026-04-04T14:25:58.012Z</time></trkpt><trkpt lat="43.6073167" lon="11.5719833"><ele>288.0</ele><time>2026-04-04T14:26:00.012Z</time></trkpt><trkpt lat="43.6073767" lon="11.5718683"><ele>288.0</ele><time>2026-04-04T14:26:02.011Z</time></trkpt><trkpt lat="43.6074583" lon="11.571765"><ele>288.0</ele><time>2026-04-04T14:26:04.013Z</time></trkpt><trkpt lat="43.6075467" lon="11.5716633"><ele>288.3333333333333</ele><time>2026-04-04T14:26:06.013Z</time></trkpt><trkpt lat="43.6076483" lon="11.571575"><ele>288.6666666666667</ele><time>2026-04-04T14:26:08.011Z</time></trkpt><trkpt lat="43.6077067" lon="11.5715267"><ele>289.0</ele><time>2026-04-04T14:26:09.011Z</time></trkpt><trkpt lat="43.6078183" lon="11.5714433"><ele>289.33333333333337</ele><time>2026-04-04T14:26:11.013Z</time></trkpt><trkpt lat="43.6078767" lon="11.5714067"><ele>289.6666666666667</ele><time>2026-04-04T14:26:12.011Z</time></trkpt><trkpt lat="43.60794" lon="11.57138"><ele>290.0</ele><time>2026-04-04T14:26:13.012Z</time></trkpt><trkpt lat="43.6080033" lon="11.571365"><ele>290.0</ele><time>2026-04-04T14:26:14.013Z</time></trkpt><trkpt lat="43.6080683" lon="11.5713517"><ele>290.0</ele><time>2026-04-04T14:26:15.011Z</time></trkpt><trkpt lat="43.608135" lon="11.5713433"><ele>290.0</ele><time>2026-04-04T14:26:16.011Z</time></trkpt><trkpt lat="43.6082" lon="11.571335"><ele>290.0</ele><time>2026-04-04T14:26:17.011Z</time></trkpt><trkpt lat="43.608325" lon="11.5713333"><ele>290.0</ele><time>2026-04-04T14:26:19.013Z</time></trkpt><trkpt lat="43.60839" lon="11.5713317"><ele>290.0</ele><time>2026-04-04T14:26:20.011Z</time></trkpt><trkpt lat="43.608455" lon="11.5713233"><ele>290.0</ele><time>2026-04-04T14:26:21.011Z</time></trkpt><trkpt lat="43.60852" lon="11.5713133"><ele>290.0</ele><time>2026-04-04T14:26:22.014Z</time></trkpt><trkpt lat="43.6085867" lon="11.5713033"><ele>290.0</ele><time>2026-04-04T14:26:23.01Z</time></trkpt><trkpt lat="43.6086517" lon="11.5712917"><ele>290.0</ele><time>2026-04-04T14:26:24.011Z</time></trkpt><trkpt lat="43.6087167" lon="11.5712783"><ele>290.0</ele><time>2026-04-04T14:26:25.011Z</time></trkpt><trkpt lat="43.60878" lon="11.5712667"><ele>290.0</ele><time>2026-04-04T14:26:26.011Z</time></trkpt><trkpt lat="43.6089033" lon="11.5712417"><ele>289.5</ele><time>2026-04-04T14:26:28.01Z</time></trkpt><trkpt lat="43.6090233" lon="11.5712233"><ele>289.0</ele><time>2026-04-04T14:26:30.011Z</time></trkpt><trkpt lat="43.6091417" lon="11.5711967"><ele>288.5</ele><time>2026-04-04T14:26:32.011Z</time></trkpt><trkpt lat="43.6092567" lon="11.5711617"><ele>288.0</ele><time>2026-04-04T14:26:34.011Z</time></trkpt><trkpt lat="43.6093717" lon="11.5711267"><ele>288.0</ele><time>2026-04-04T14:26:36.012Z</time></trkpt><trkpt lat="43.6094367" lon="11.5711133"><ele>288.0</ele><time>2026-04-04T14:26:37.011Z</time></trkpt><trkpt lat="43.60955" lon="11.5710967"><ele>288.0</ele><time>2026-04-04T14:26:39.013Z</time></trkpt><trkpt lat="43.60966" lon="11.5710833"><ele>288.0</ele><time>2026-04-04T14:26:41.011Z</time></trkpt><trkpt lat="43.6097633" lon="11.5710683"><ele>288.0</ele><time>2026-04-04T14:26:43.013Z</time></trkpt><trkpt lat="43.60987" lon="11.571035"><ele>288.0</ele><time>2026-04-04T14:26:45.012Z</time></trkpt><trkpt lat="43.60998" lon="11.5710033"><ele>288.0</ele><time>2026-04-04T14:26:47.012Z</time></trkpt><trkpt lat="43.610085" lon="11.570995"><ele>288.0</ele><time>2026-04-04T14:26:49.011Z</time></trkpt><trkpt lat="43.610185" lon="11.5709933"><ele>288.0</ele><time>2026-04-04T14:26:51.011Z</time></trkpt><trkpt lat="43.6102833" lon="11.571005"><ele>288.0</ele><time>2026-04-04T14:26:53.014Z</time></trkpt><trkpt lat="43.6103817" lon="11.5710367"><ele>288.0</ele><time>2026-04-04T14:26:55.013Z</time></trkpt><trkpt lat="43.6104817" lon="11.5710767"><ele>288.0</ele><time>2026-04-04T14:26:57.01Z</time></trkpt><trkpt lat="43.61057" lon="11.5711583"><ele>288.0</ele><time>2026-04-04T14:26:59.011Z</time></trkpt><trkpt lat="43.6106133" lon="11.5712733"><ele>288.0</ele><time>2026-04-04T14:27:01.011Z</time></trkpt><trkpt lat="43.61064" lon="11.5714317"><ele>288.0</ele><time>2026-04-04T14:27:03.011Z</time></trkpt><trkpt lat="43.6106633" lon="11.5715817"><ele>288.8333333333333</ele><time>2026-04-04T14:27:05.012Z</time></trkpt><trkpt lat="43.61071" lon="11.5717333"><ele>289.6666666666667</ele><time>2026-04-04T14:27:07.012Z</time></trkpt><trkpt lat="43.6107367" lon="11.571815"><ele>290.5</ele><time>2026-04-04T14:27:08.012Z</time></trkpt><trkpt lat="43.610785" lon="11.5719733"><ele>291.33333333333337</ele><time>2026-04-04T14:27:10.011Z</time></trkpt><trkpt lat="43.61081" lon="11.5720633"><ele>292.1666666666667</ele><time>2026-04-04T14:27:11.011Z</time></trkpt><trkpt lat="43.6108233" lon="11.5721583"><ele>293.0</ele><time>2026-04-04T14:27:12.012Z</time></trkpt><trkpt lat="43.6108367" lon="11.5722517"><ele>293.85714285714283</ele><time>2026-04-04T14:27:13.012Z</time></trkpt><trkpt lat="43.6108567" lon="11.57236"><ele>294.7142857142857</ele><time>2026-04-04T14:27:14.013Z</time></trkpt><trkpt lat="43.6108783" lon="11.5724533"><ele>295.57142857142856</ele><time>2026-04-04T14:27:15.011Z</time></trkpt><trkpt lat="43.6109033" lon="11.5725483"><ele>296.42857142857144</ele><time>2026-04-04T14:27:16.013Z</time></trkpt><trkpt lat="43.610925" lon="11.57264"><ele>297.2857142857143</ele><time>2026-04-04T14:27:17.011Z</time></trkpt><trkpt lat="43.61095" lon="11.57273"><ele>298.1428571428571</ele><time>2026-04-04T14:27:18.012Z</time></trkpt><trkpt lat="43.610975" lon="11.5728217"><ele>299.0</ele><time>2026-04-04T14:27:19.011Z</time></trkpt><trkpt lat="43.61101" lon="11.5729133"><ele>299.33333333333337</ele><time>2026-04-04T14:27:20.011Z</time></trkpt><trkpt lat="43.6110517" lon="11.5729933"><ele>299.6666666666667</ele><time>2026-04-04T14:27:21.011Z</time></trkpt><trkpt lat="43.61111" lon="11.57306"><ele>300.0</ele><time>2026-04-04T14:27:22.012Z</time></trkpt><trkpt lat="43.61118" lon="11.5730983"><ele>300.3333333333333</ele><time>2026-04-04T14:27:23.012Z</time></trkpt><trkpt lat="43.6112467" lon="11.57311"><ele>300.66666666666663</ele><time>2026-04-04T14:27:24.012Z</time></trkpt><trkpt lat="43.6113633" lon="11.573055"><ele>301.0</ele><time>2026-04-04T14:27:26.013Z</time></trkpt><trkpt lat="43.6114133" lon="11.57299"><ele>301.0</ele><time>2026-04-04T14:27:27.011Z</time></trkpt><trkpt lat="43.6114683" lon="11.5729217"><ele>301.0</ele><time>2026-04-04T14:27:28.012Z</time></trkpt><trkpt lat="43.611515" lon="11.57285"><ele>301.0</ele><time>2026-04-04T14:27:29.011Z</time></trkpt><trkpt lat="43.6115333" lon="11.572755"><ele>301.0</ele><time>2026-04-04T14:27:30.011Z</time></trkpt><trkpt lat="43.6115383" lon="11.5726517"><ele>301.0</ele><time>2026-04-04T14:27:31.011Z</time></trkpt><trkpt lat="43.61154" lon="11.5725517"><ele>301.0</ele><time>2026-04-04T14:27:32.011Z</time></trkpt><trkpt lat="43.6115417" lon="11.572455"><ele>301.0</ele><time>2026-04-04T14:27:33.012Z</time></trkpt><trkpt lat="43.6115483" lon="11.5723617"><ele>300.8</ele><time>2026-04-04T14:27:34.011Z</time></trkpt><trkpt lat="43.6115567" lon="11.5722667"><ele>300.6</ele><time>2026-04-04T14:27:35.012Z</time></trkpt><trkpt lat="43.6115667" lon="11.57217"><ele>300.4</ele><time>2026-04-04T14:27:36.01Z</time></trkpt><trkpt lat="43.6115767" lon="11.572075"><ele>300.2</ele><time>2026-04-04T14:27:37.011Z</time></trkpt><trkpt lat="43.6115883" lon="11.5719017"><ele>300.0</ele><time>2026-04-04T14:27:39.012Z</time></trkpt><trkpt lat="43.6116033" lon="11.5717317"><ele>299.5</ele><time>2026-04-04T14:27:41.012Z</time></trkpt><trkpt lat="43.611615" lon="11.57157"><ele>299.0</ele><time>2026-04-04T14:27:43.012Z</time></trkpt><trkpt lat="43.6116167" lon="11.571395"><ele>298.5</ele><time>2026-04-04T14:27:45.012Z</time></trkpt><trkpt lat="43.6116233" lon="11.5712233"><ele>298.0</ele><time>2026-04-04T14:27:47.011Z</time></trkpt><trkpt lat="43.6116483" lon="11.5710617"><ele>297.25</ele><time>2026-04-04T14:27:49.013Z</time></trkpt><trkpt lat="43.6116767" lon="11.5709817"><ele>296.5</ele><time>2026-04-04T14:27:50.011Z</time></trkpt><trkpt lat="43.6117567" lon="11.570855"><ele>295.75</ele><time>2026-04-04T14:27:52.012Z</time></trkpt><trkpt lat="43.6118517" lon="11.5707617"><ele>295.0</ele><time>2026-04-04T14:27:54.011Z</time></trkpt><trkpt lat="43.61199" lon="11.570685"><ele>295.8571428571429</ele><time>2026-04-04T14:27:56.011Z</time></trkpt><trkpt lat="43.6120567" lon="11.5706717"><ele>296.7142857142857</ele><time>2026-04-04T14:27:57.013Z</time></trkpt><trkpt lat="43.6121267" lon="11.5706517"><ele>297.57142857142856</ele><time>2026-04-04T14:27:58.012Z</time></trkpt><trkpt lat="43.6121917" lon="11.5706433"><ele>298.42857142857144</ele><time>2026-04-04T14:27:59.012Z</time></trkpt><trkpt lat="43.6122617" lon="11.5706283"><ele>299.2857142857143</ele><time>2026-04-04T14:28:00.012Z</time></trkpt><trkpt lat="43.612335" lon="11.570605"><ele>300.14285714285717</ele><time>2026-04-04T14:28:01.014Z</time></trkpt><trkpt lat="43.6124" lon="11.57058"><ele>301.0</ele><time>2026-04-04T14:28:02.013Z</time></trkpt><trkpt lat="43.6125" lon="11.57049"><ele>301.0</ele><time>2026-04-04T14:28:04.012Z</time></trkpt><trkpt lat="43.6125833" lon="11.57036"><ele>301.0</ele><time>2026-04-04T14:28:06.012Z</time></trkpt><trkpt lat="43.6126267" lon="11.5702883"><ele>301.0</ele><time>2026-04-04T14:28:07.012Z</time></trkpt><trkpt lat="43.6126683" lon="11.5702083"><ele>301.0</ele><time>2026-04-04T14:28:08.012Z</time></trkpt><trkpt lat="43.61271" lon="11.5701283"><ele>301.0</ele><time>2026-04-04T14:28:09.012Z</time></trkpt><trkpt lat="43.6127517" lon="11.570045"><ele>301.0</ele><time>2026-04-04T14:28:10.011Z</time></trkpt><trkpt lat="43.6127933" lon="11.5699667"><ele>301.66666666666663</ele><time>2026-04-04T14:28:11.013Z</time></trkpt><trkpt lat="43.6128383" lon="11.5698833"><ele>302.3333333333333</ele><time>2026-04-04T14:28:12.01Z</time></trkpt><trkpt lat="43.6128883" lon="11.569805"><ele>303.0</ele><time>2026-04-04T14:28:13.011Z</time></trkpt><trkpt lat="43.6129417" lon="11.5697333"><ele>303.6666666666667</ele><time>2026-04-04T14:28:14.011Z</time></trkpt><trkpt lat="43.613005" lon="11.56966"><ele>304.33333333333337</ele><time>2026-04-04T14:28:15.01Z</time></trkpt><trkpt lat="43.6130683" lon="11.569605"><ele>305.0</ele><time>2026-04-04T14:28:16.012Z</time></trkpt><trkpt lat="43.6131367" lon="11.56956"><ele>303.6666666666667</ele><time>2026-04-04T14:28:17.012Z</time></trkpt><trkpt lat="43.613205" lon="11.569515"><ele>302.33333333333337</ele><time>2026-04-04T14:28:18.013Z</time></trkpt><trkpt lat="43.6132717" lon="11.5694733"><ele>301.0</ele><time>2026-04-04T14:28:19.013Z</time></trkpt><trkpt lat="43.6133433" lon="11.569425"><ele>299.6666666666667</ele><time>2026-04-04T14:28:20.011Z</time></trkpt><trkpt lat="43.6134133" lon="11.5693733"><ele>298.3333333333333</ele><time>2026-04-04T14:28:21.012Z</time></trkpt><trkpt lat="43.6134817" lon="11.5693283"><ele>297.0</ele><time>2026-04-04T14:28:22.014Z</time></trkpt><trkpt lat="43.6135483" lon="11.5692833"><ele>297.0</ele><time>2026-04-04T14:28:23.011Z</time></trkpt><trkpt lat="43.6136183" lon="11.56923"><ele>297.0</ele><time>2026-04-04T14:28:24.013Z</time></trkpt><trkpt lat="43.613685" lon="11.5691733"><ele>297.0</ele><time>2026-04-04T14:28:25.012Z</time></trkpt><trkpt lat="43.6137517" lon="11.5691183"><ele>297.0</ele><time>2026-04-04T14:28:26.014Z</time></trkpt><trkpt lat="43.6138167" lon="11.5690617"><ele>297.0</ele><time>2026-04-04T14:28:27.011Z</time></trkpt><trkpt lat="43.613885" lon="11.56901"><ele>297.0</ele><time>2026-04-04T14:28:28.011Z</time></trkpt><trkpt lat="43.6139517" lon="11.5689617"><ele>297.3333333333333</ele><time>2026-04-04T14:28:29.011Z</time></trkpt><trkpt lat="43.6140167" lon="11.5689167"><ele>297.6666666666667</ele><time>2026-04-04T14:28:30.011Z</time></trkpt><trkpt lat="43.6140833" lon="11.56887"><ele>298.0</ele><time>2026-04-04T14:28:31.011Z</time></trkpt><trkpt lat="43.614155" lon="11.568825"><ele>298.33333333333337</ele><time>2026-04-04T14:28:32.012Z</time></trkpt><trkpt lat="43.6142283" lon="11.5687967"><ele>298.6666666666667</ele><time>2026-04-04T14:28:33.011Z</time></trkpt><trkpt lat="43.6143067" lon="11.5687767"><ele>299.0</ele><time>2026-04-04T14:28:34.01Z</time></trkpt><trkpt lat="43.614385" lon="11.5687767"><ele>299.0</ele><time>2026-04-04T14:28:35.016Z</time></trkpt><trkpt lat="43.6144633" lon="11.568795"><ele>299.0</ele><time>2026-04-04T14:28:36.015Z</time></trkpt><trkpt lat="43.61454" lon="11.56884"><ele>299.0</ele><time>2026-04-04T14:28:37.011Z</time></trkpt><trkpt lat="43.6146067" lon="11.5689117"><ele>299.0</ele><time>2026-04-04T14:28:38.013Z</time></trkpt><trkpt lat="43.614655" lon="11.569005"><ele>299.0</ele><time>2026-04-04T14:28:39.01Z</time></trkpt><trkpt lat="43.6146983" lon="11.5691067"><ele>299.0</ele><time>2026-04-04T14:28:40.011Z</time></trkpt><trkpt lat="43.61474" lon="11.5691967"><ele>298.5</ele><time>2026-04-04T14:28:41.012Z</time></trkpt><trkpt lat="43.6147883" lon="11.569275"><ele>298.0</ele><time>2026-04-04T14:28:42.012Z</time></trkpt><trkpt lat="43.6148533" lon="11.569335"><ele>297.5</ele><time>2026-04-04T14:28:43.012Z</time></trkpt><trkpt lat="43.6149267" lon="11.56933"><ele>297.0</ele><time>2026-04-04T14:28:44.012Z</time></trkpt><trkpt lat="43.6150033" lon="11.5692933"><ele>296.5</ele><time>2026-04-04T14:28:45.011Z</time></trkpt><trkpt lat="43.615055" lon="11.5692183"><ele>296.0</ele><time>2026-04-04T14:28:46.013Z</time></trkpt><trkpt lat="43.61508" lon="11.5691067"><ele>296.0</ele><time>2026-04-04T14:28:47.012Z</time></trkpt><trkpt lat="43.6150983" lon="11.5689817"><ele>296.0</ele><time>2026-04-04T14:28:48.011Z</time></trkpt><trkpt lat="43.6151083" lon="11.5688567"><ele>296.0</ele><time>2026-04-04T14:28:49.011Z</time></trkpt><trkpt lat="43.6151217" lon="11.5687333"><ele>296.0</ele><time>2026-04-04T14:28:50.011Z</time></trkpt><trkpt lat="43.6151317" lon="11.568605"><ele>296.0</ele><time>2026-04-04T14:28:51.011Z</time></trkpt><trkpt lat="43.6151417" lon="11.5684733"><ele>295.8</ele><time>2026-04-04T14:28:52.012Z</time></trkpt><trkpt lat="43.6151483" lon="11.5683417"><ele>295.6</ele><time>2026-04-04T14:28:53.012Z</time></trkpt><trkpt lat="43.6151533" lon="11.5682167"><ele>295.4</ele><time>2026-04-04T14:28:54.013Z</time></trkpt><trkpt lat="43.6151517" lon="11.5680917"><ele>295.2</ele><time>2026-04-04T14:28:55.011Z</time></trkpt><trkpt lat="43.615145" lon="11.56796"><ele>295.0</ele><time>2026-04-04T14:28:56.012Z</time></trkpt><trkpt lat="43.61514" lon="11.56783"><ele>293.8</ele><time>2026-04-04T14:28:57.011Z</time></trkpt><trkpt lat="43.615145" lon="11.5676967"><ele>292.6</ele><time>2026-04-04T14:28:58.011Z</time></trkpt><trkpt lat="43.6151517" lon="11.567565"><ele>291.4</ele><time>2026-04-04T14:28:59.011Z</time></trkpt><trkpt lat="43.6151717" lon="11.5674283"><ele>290.2</ele><time>2026-04-04T14:29:00.013Z</time></trkpt><trkpt lat="43.6152" lon="11.5673"><ele>289.0</ele><time>2026-04-04T14:29:01.013Z</time></trkpt><trkpt lat="43.6152317" lon="11.567165"><ele>289.0</ele><time>2026-04-04T14:29:02.014Z</time></trkpt><trkpt lat="43.615265" lon="11.567035"><ele>289.0</ele><time>2026-04-04T14:29:03.013Z</time></trkpt><trkpt lat="43.6153017" lon="11.566905"><ele>289.0</ele><time>2026-04-04T14:29:04.011Z</time></trkpt><trkpt lat="43.6153383" lon="11.5667733"><ele>289.0</ele><time>2026-04-04T14:29:05.011Z</time></trkpt><trkpt lat="43.615375" lon="11.5666433"><ele>289.0</ele><time>2026-04-04T14:29:06.015Z</time></trkpt><trkpt lat="43.6154117" lon="11.5665133"><ele>287.8</ele><time>2026-04-04T14:29:07.012Z</time></trkpt><trkpt lat="43.61545" lon="11.566385"><ele>286.59999999999997</ele><time>2026-04-04T14:29:08.011Z</time></trkpt><trkpt lat="43.6154917" lon="11.566255"><ele>285.4</ele><time>2026-04-04T14:29:09.012Z</time></trkpt><trkpt lat="43.615545" lon="11.5661333"><ele>284.2</ele><time>2026-04-04T14:29:10.011Z</time></trkpt><trkpt lat="43.61561" lon="11.5660233"><ele>283.0</ele><time>2026-04-04T14:29:11.013Z</time></trkpt><trkpt lat="43.6156867" lon="11.5659217"><ele>283.0</ele><time>2026-04-04T14:29:12.013Z</time></trkpt><trkpt lat="43.615775" lon="11.5658583"><ele>283.0</ele><time>2026-04-04T14:29:13.012Z</time></trkpt><trkpt lat="43.61587" lon="11.5658033"><ele>283.0</ele><time>2026-04-04T14:29:14.012Z</time></trkpt><trkpt lat="43.61597" lon="11.5657583"><ele>283.0</ele><time>2026-04-04T14:29:15.01Z</time></trkpt><trkpt lat="43.6160717" lon="11.5657183"><ele>283.0</ele><time>2026-04-04T14:29:16.012Z</time></trkpt><trkpt lat="43.6161767" lon="11.565685"><ele>283.4</ele><time>2026-04-04T14:29:17.013Z</time></trkpt><trkpt lat="43.6162833" lon="11.565665"><ele>283.8</ele><time>2026-04-04T14:29:18.011Z</time></trkpt><trkpt lat="43.6163883" lon="11.565655"><ele>284.2</ele><time>2026-04-04T14:29:19.011Z</time></trkpt><trkpt lat="43.6164917" lon="11.56565"><ele>284.6</ele><time>2026-04-04T14:29:20.011Z</time></trkpt><trkpt lat="43.616595" lon="11.5656467"><ele>285.0</ele><time>2026-04-04T14:29:21.011Z</time></trkpt><trkpt lat="43.616695" lon="11.5656417"><ele>285.0</ele><time>2026-04-04T14:29:22.013Z</time></trkpt><trkpt lat="43.6167933" lon="11.5656283"><ele>285.0</ele><time>2026-04-04T14:29:23.012Z</time></trkpt><trkpt lat="43.61689" lon="11.5655967"><ele>285.0</ele><time>2026-04-04T14:29:24.011Z</time></trkpt><trkpt lat="43.6169783" lon="11.5655533"><ele>285.0</ele><time>2026-04-04T14:29:25.011Z</time></trkpt><trkpt lat="43.6170483" lon="11.56548"><ele>285.0</ele><time>2026-04-04T14:29:26.011Z</time></trkpt><trkpt lat="43.6171033" lon="11.56539"><ele>285.3333333333333</ele><time>2026-04-04T14:29:27.011Z</time></trkpt><trkpt lat="43.617145" lon="11.5652867"><ele>285.6666666666667</ele><time>2026-04-04T14:29:28.014Z</time></trkpt><trkpt lat="43.61718" lon="11.5651783"><ele>286.0</ele><time>2026-04-04T14:29:29.012Z</time></trkpt><trkpt lat="43.61721" lon="11.565065"><ele>286.33333333333337</ele><time>2026-04-04T14:29:30.012Z</time></trkpt><trkpt lat="43.617235" lon="11.5649583"><ele>286.6666666666667</ele><time>2026-04-04T14:29:31.011Z</time></trkpt><trkpt lat="43.617255" lon="11.5648517"><ele>287.0</ele><time>2026-04-04T14:29:32.01Z</time></trkpt><trkpt lat="43.6172783" lon="11.5647517"><ele>287.0</ele><time>2026-04-04T14:29:33.012Z</time></trkpt><trkpt lat="43.6173033" lon="11.5646583"><ele>287.0</ele><time>2026-04-04T14:29:34.011Z</time></trkpt><trkpt lat="43.6173367" lon="11.5645733"><ele>287.0</ele><time>2026-04-04T14:29:35.011Z</time></trkpt><trkpt lat="43.6173767" lon="11.5644967"><ele>287.0</ele><time>2026-04-04T14:29:36.012Z</time></trkpt><trkpt lat="43.61742" lon="11.564425"><ele>287.0</ele><time>2026-04-04T14:29:37.013Z</time></trkpt><trkpt lat="43.6174683" lon="11.5643667"><ele>287.0</ele><time>2026-04-04T14:29:38.012Z</time></trkpt><trkpt lat="43.61752" lon="11.5643067"><ele>287.0</ele><time>2026-04-04T14:29:39.01Z</time></trkpt><trkpt lat="43.617575" lon="11.5642433"><ele>286.57142857142856</ele><time>2026-04-04T14:29:40.011Z</time></trkpt><trkpt lat="43.61763" lon="11.564185"><ele>286.1428571428571</ele><time>2026-04-04T14:29:41.012Z</time></trkpt><trkpt lat="43.6176867" lon="11.5641283"><ele>285.7142857142857</ele><time>2026-04-04T14:29:42.013Z</time></trkpt><trkpt lat="43.61775" lon="11.5640783"><ele>285.2857142857143</ele><time>2026-04-04T14:29:43.014Z</time></trkpt><trkpt lat="43.6178167" lon="11.5640333"><ele>284.85714285714283</ele><time>2026-04-04T14:29:44.013Z</time></trkpt><trkpt lat="43.6178883" lon="11.5640017"><ele>284.42857142857144</ele><time>2026-04-04T14:29:45.014Z</time></trkpt><trkpt lat="43.617965" lon="11.56398"><ele>284.0</ele><time>2026-04-04T14:29:46.012Z</time></trkpt><trkpt lat="43.618045" lon="11.5639617"><ele>284.0</ele><time>2026-04-04T14:29:47.012Z</time></trkpt><trkpt lat="43.6181283" lon="11.56395"><ele>284.0</ele><time>2026-04-04T14:29:48.013Z</time></trkpt><trkpt lat="43.6182133" lon="11.5639383"><ele>284.0</ele><time>2026-04-04T14:29:49.011Z</time></trkpt><trkpt lat="43.6183017" lon="11.5639267"><ele>284.0</ele><time>2026-04-04T14:29:50.012Z</time></trkpt><trkpt lat="43.6183867" lon="11.5639133"><ele>284.0</ele><time>2026-04-04T14:29:51.011Z</time></trkpt><trkpt lat="43.6184667" lon="11.5638817"><ele>284.0</ele><time>2026-04-04T14:29:52.011Z</time></trkpt><trkpt lat="43.618545" lon="11.5638333"><ele>284.0</ele><time>2026-04-04T14:29:53.014Z</time></trkpt><trkpt lat="43.61862" lon="11.563765"><ele>284.0</ele><time>2026-04-04T14:29:54.012Z</time></trkpt><trkpt lat="43.6186933" lon="11.56369"><ele>284.0</ele><time>2026-04-04T14:29:55.015Z</time></trkpt><trkpt lat="43.618765" lon="11.563605"><ele>284.0</ele><time>2026-04-04T14:29:56.016Z</time></trkpt><trkpt lat="43.6188367" lon="11.56352"><ele>284.0</ele><time>2026-04-04T14:29:57.013Z</time></trkpt><trkpt lat="43.6189117" lon="11.563445"><ele>282.59999999999997</ele><time>2026-04-04T14:29:58.011Z</time></trkpt><trkpt lat="43.6189967" lon="11.5633867"><ele>281.2</ele><time>2026-04-04T14:29:59.011Z</time></trkpt><trkpt lat="43.6190883" lon="11.5633417"><ele>279.79999999999995</ele><time>2026-04-04T14:30:00.012Z</time></trkpt><trkpt lat="43.6191817" lon="11.5633133"><ele>278.4</ele><time>2026-04-04T14:30:01.012Z</time></trkpt><trkpt lat="43.619275" lon="11.5632917"><ele>277.0</ele><time>2026-04-04T14:30:02.012Z</time></trkpt><trkpt lat="43.6193683" lon="11.5632717"><ele>277.0</ele><time>2026-04-04T14:30:03.01Z</time></trkpt><trkpt lat="43.6194617" lon="11.563245"><ele>277.0</ele><time>2026-04-04T14:30:04.015Z</time></trkpt><trkpt lat="43.61955" lon="11.56321"><ele>277.0</ele><time>2026-04-04T14:30:05.013Z</time></trkpt><trkpt lat="43.6196367" lon="11.56317"><ele>277.0</ele><time>2026-04-04T14:30:06.013Z</time></trkpt><trkpt lat="43.6197183" lon="11.5631267"><ele>277.0</ele><time>2026-04-04T14:30:07.015Z</time></trkpt><trkpt lat="43.6197967" lon="11.5630733"><ele>277.3333333333333</ele><time>2026-04-04T14:30:08.011Z</time></trkpt><trkpt lat="43.6198667" lon="11.5630067"><ele>277.66666666666663</ele><time>2026-04-04T14:30:09.013Z</time></trkpt><trkpt lat="43.61993" lon="11.5629267"><ele>278.0</ele><time>2026-04-04T14:30:10.01Z</time></trkpt><trkpt lat="43.6199833" lon="11.5628417"><ele>278.3333333333333</ele><time>2026-04-04T14:30:11.013Z</time></trkpt><trkpt lat="43.6200317" lon="11.5627567"><ele>278.6666666666667</ele><time>2026-04-04T14:30:12.011Z</time></trkpt><trkpt lat="43.6200733" lon="11.5626717"><ele>279.0</ele><time>2026-04-04T14:30:13.011Z</time></trkpt><trkpt lat="43.6201133" lon="11.5625783"><ele>279.0</ele><time>2026-04-04T14:30:14.011Z</time></trkpt><trkpt lat="43.6201783" lon="11.56244"><ele>279.0</ele><time>2026-04-04T14:30:16.013Z</time></trkpt><trkpt lat="43.6202333" lon="11.5623033"><ele>279.0</ele><time>2026-04-04T14:30:18.012Z</time></trkpt><trkpt lat="43.6202817" lon="11.56217"><ele>279.0</ele><time>2026-04-04T14:30:20.014Z</time></trkpt><trkpt lat="43.6203333" lon="11.5620417"><ele>279.0</ele><time>2026-04-04T14:30:22.012Z</time></trkpt><trkpt lat="43.62039" lon="11.5619217"><ele>280.8</ele><time>2026-04-04T14:30:24.014Z</time></trkpt><trkpt lat="43.6204367" lon="11.5618083"><ele>282.59999999999997</ele><time>2026-04-04T14:30:26.011Z</time></trkpt><trkpt lat="43.6204883" lon="11.5616933"><ele>284.4</ele><time>2026-04-04T14:30:28.011Z</time></trkpt><trkpt lat="43.62054" lon="11.5615817"><ele>286.2</ele><time>2026-04-04T14:30:30.011Z</time></trkpt><trkpt lat="43.6205867" lon="11.5614567"><ele>288.0</ele><time>2026-04-04T14:30:32.012Z</time></trkpt><trkpt lat="43.6206383" lon="11.5613383"><ele>288.0</ele><time>2026-04-04T14:30:34.012Z</time></trkpt><trkpt lat="43.6206817" lon="11.5612317"><ele>288.0</ele><time>2026-04-04T14:30:36.013Z</time></trkpt><trkpt lat="43.6207267" lon="11.5611367"><ele>288.0</ele><time>2026-04-04T14:30:38.011Z</time></trkpt><trkpt lat="43.6207733" lon="11.5610383"><ele>288.0</ele><time>2026-04-04T14:30:40.011Z</time></trkpt><trkpt lat="43.6208217" lon="11.5609233"><ele>288.0</ele><time>2026-04-04T14:30:42.012Z</time></trkpt><trkpt lat="43.6208717" lon="11.560815"><ele>288.0</ele><time>2026-04-04T14:30:44.013Z</time></trkpt><trkpt lat="43.62092" lon="11.5607083"><ele>287.8333333333333</ele><time>2026-04-04T14:30:46.011Z</time></trkpt><trkpt lat="43.6209733" lon="11.5606033"><ele>287.6666666666667</ele><time>2026-04-04T14:30:48.012Z</time></trkpt><trkpt lat="43.6210217" lon="11.560505"><ele>287.5</ele><time>2026-04-04T14:30:50.013Z</time></trkpt><trkpt lat="43.6210767" lon="11.5604"><ele>287.33333333333337</ele><time>2026-04-04T14:30:52.013Z</time></trkpt><trkpt lat="43.62113" lon="11.5603017"><ele>287.1666666666667</ele><time>2026-04-04T14:30:54.01Z</time></trkpt><trkpt lat="43.6211883" lon="11.5602117"><ele>287.0</ele><time>2026-04-04T14:30:56.01Z</time></trkpt><trkpt lat="43.6212417" lon="11.5601133"><ele>287.0</ele><time>2026-04-04T14:30:58.012Z</time></trkpt><trkpt lat="43.6212967" lon="11.5600133"><ele>287.0</ele><time>2026-04-04T14:31:00.012Z</time></trkpt><trkpt lat="43.6213583" lon="11.55991"><ele>287.0</ele><time>2026-04-04T14:31:02.01Z</time></trkpt><trkpt lat="43.621415" lon="11.5598133"><ele>287.0</ele><time>2026-04-04T14:31:04.011Z</time></trkpt><trkpt lat="43.6214783" lon="11.5597233"><ele>287.0</ele><time>2026-04-04T14:31:06.011Z</time></trkpt><trkpt lat="43.62155" lon="11.5596483"><ele>287.0</ele><time>2026-04-04T14:31:08.01Z</time></trkpt><trkpt lat="43.621625" lon="11.5595633"><ele>287.0</ele><time>2026-04-04T14:31:10.009Z</time></trkpt><trkpt lat="43.6217083" lon="11.5595133"><ele>287.0</ele><time>2026-04-04T14:31:12.011Z</time></trkpt><trkpt lat="43.6218017" lon="11.5594717"><ele>287.0</ele><time>2026-04-04T14:31:14.012Z</time></trkpt><trkpt lat="43.6218883" lon="11.5594417"><ele>287.0</ele><time>2026-04-04T14:31:16.012Z</time></trkpt><trkpt lat="43.621975" lon="11.55942"><ele>286.8</ele><time>2026-04-04T14:31:18.009Z</time></trkpt><trkpt lat="43.62207" lon="11.5593917"><ele>286.6</ele><time>2026-04-04T14:31:20.011Z</time></trkpt><trkpt lat="43.62216" lon="11.559365"><ele>286.40000000000003</ele><time>2026-04-04T14:31:22.01Z</time></trkpt><trkpt lat="43.62226" lon="11.559365"><ele>286.2</ele><time>2026-04-04T14:31:24.012Z</time></trkpt><trkpt lat="43.6223617" lon="11.5593883"><ele>286.0</ele><time>2026-04-04T14:31:26.014Z</time></trkpt><trkpt lat="43.62246" lon="11.5594283"><ele>286.0</ele><time>2026-04-04T14:31:28.009Z</time></trkpt><trkpt lat="43.62255" lon="11.5594867"><ele>286.0</ele><time>2026-04-04T14:31:30.01Z</time></trkpt><trkpt lat="43.6226283" lon="11.5595667"><ele>286.0</ele><time>2026-04-04T14:31:32.012Z</time></trkpt><trkpt lat="43.6227" lon="11.559655"><ele>286.0</ele><time>2026-04-04T14:31:34.011Z</time></trkpt><trkpt lat="43.622765" lon="11.559755"><ele>286.0</ele><time>2026-04-04T14:31:36.012Z</time></trkpt><trkpt lat="43.622825" lon="11.5598483"><ele>285.6</ele><time>2026-04-04T14:31:38.013Z</time></trkpt><trkpt lat="43.62289" lon="11.5599433"><ele>285.20000000000005</ele><time>2026-04-04T14:31:40.01Z</time></trkpt><trkpt lat="43.6229367" lon="11.5600583"><ele>284.79999999999995</ele><time>2026-04-04T14:31:42.011Z</time></trkpt><trkpt lat="43.6229767" lon="11.5601767"><ele>284.4</ele><time>2026-04-04T14:31:44.01Z</time></trkpt><trkpt lat="43.62301" lon="11.56029"><ele>284.0</ele><time>2026-04-04T14:31:46.011Z</time></trkpt><trkpt lat="43.6230483" lon="11.5604067"><ele>285.83333333333337</ele><time>2026-04-04T14:31:48.011Z</time></trkpt><trkpt lat="43.623085" lon="11.5605233"><ele>287.6666666666667</ele><time>2026-04-04T14:31:50.011Z</time></trkpt><trkpt lat="43.6231233" lon="11.5606333"><ele>289.5</ele><time>2026-04-04T14:31:52.01Z</time></trkpt><trkpt lat="43.6231683" lon="11.5607417"><ele>291.3333333333333</ele><time>2026-04-04T14:31:54.01Z</time></trkpt><trkpt lat="43.6232167" lon="11.560845"><ele>293.16666666666663</ele><time>2026-04-04T14:31:56.01Z</time></trkpt><trkpt lat="43.6232633" lon="11.5609417"><ele>295.0</ele><time>2026-04-04T14:31:58.011Z</time></trkpt><trkpt lat="43.6233267" lon="11.5610483"><ele>295.0</ele><time>2026-04-04T14:32:00.011Z</time></trkpt><trkpt lat="43.6233817" lon="11.56115"><ele>295.0</ele><time>2026-04-04T14:32:02.011Z</time></trkpt><trkpt lat="43.6234367" lon="11.561245"><ele>295.0</ele><time>2026-04-04T14:32:04.01Z</time></trkpt><trkpt lat="43.623485" lon="11.5613433"><ele>295.0</ele><time>2026-04-04T14:32:06.011Z</time></trkpt><trkpt lat="43.6235517" lon="11.5614417"><ele>295.0</ele><time>2026-04-04T14:32:08.013Z</time></trkpt><trkpt lat="43.623625" lon="11.561535"><ele>295.4</ele><time>2026-04-04T14:32:10.01Z</time></trkpt><trkpt lat="43.62369" lon="11.5616433"><ele>295.8</ele><time>2026-04-04T14:32:12.011Z</time></trkpt><trkpt lat="43.6237567" lon="11.56174"><ele>296.2</ele><time>2026-04-04T14:32:14.012Z</time></trkpt><trkpt lat="43.6238283" lon="11.56183"><ele>296.6</ele><time>2026-04-04T14:32:16.011Z</time></trkpt><trkpt lat="43.623905" lon="11.5619083"><ele>297.0</ele><time>2026-04-04T14:32:18.012Z</time></trkpt><trkpt lat="43.6239883" lon="11.5619767"><ele>298.0</ele><time>2026-04-04T14:32:20.012Z</time></trkpt><trkpt lat="43.624085" lon="11.5620383"><ele>299.0</ele><time>2026-04-04T14:32:22.011Z</time></trkpt><trkpt lat="43.624185" lon="11.5620783"><ele>300.0</ele><time>2026-04-04T14:32:24.011Z</time></trkpt><trkpt lat="43.6242883" lon="11.56211"><ele>301.0</ele><time>2026-04-04T14:32:26.013Z</time></trkpt><trkpt lat="43.6243983" lon="11.5621367"><ele>302.0</ele><time>2026-04-04T14:32:28.011Z</time></trkpt><trkpt lat="43.6245117" lon="11.56217"><ele>302.0</ele><time>2026-04-04T14:32:30.012Z</time></trkpt><trkpt lat="43.6246217" lon="11.5622267"><ele>302.0</ele><time>2026-04-04T14:32:32.012Z</time></trkpt><trkpt lat="43.62473" lon="11.5623017"><ele>302.0</ele><time>2026-04-04T14:32:34.011Z</time></trkpt><trkpt lat="43.62483" lon="11.56239"><ele>302.0</ele><time>2026-04-04T14:32:36.01Z</time></trkpt><trkpt lat="43.6249233" lon="11.5624883"><ele>302.0</ele><time>2026-04-04T14:32:38.012Z</time></trkpt><trkpt lat="43.6250083" lon="11.5625917"><ele>302.0</ele><time>2026-04-04T14:32:40.011Z</time></trkpt><trkpt lat="43.62509" lon="11.5626967"><ele>302.0</ele><time>2026-04-04T14:32:42.011Z</time></trkpt><trkpt lat="43.6251717" lon="11.5628033"><ele>302.0</ele><time>2026-04-04T14:32:44.011Z</time></trkpt><trkpt lat="43.6252733" lon="11.56288"><ele>301.8</ele><time>2026-04-04T14:32:46.012Z</time></trkpt><trkpt lat="43.62539" lon="11.5629217"><ele>301.6</ele><time>2026-04-04T14:32:48.011Z</time></trkpt><trkpt lat="43.6254533" lon="11.5629233"><ele>301.40000000000003</ele><time>2026-04-04T14:32:49.013Z</time></trkpt><trkpt lat="43.6255767" lon="11.5629167"><ele>301.2</ele><time>2026-04-04T14:32:51.012Z</time></trkpt><trkpt lat="43.6257" lon="11.562905"><ele>301.0</ele><time>2026-04-04T14:32:53.014Z</time></trkpt><trkpt lat="43.62582" lon="11.562885"><ele>300.75</ele><time>2026-04-04T14:32:55.011Z</time></trkpt><trkpt lat="43.6259267" lon="11.56283"><ele>300.5</ele><time>2026-04-04T14:32:57.013Z</time></trkpt><trkpt lat="43.6260033" lon="11.56272"><ele>300.25</ele><time>2026-04-04T14:32:59.012Z</time></trkpt><trkpt lat="43.6260333" lon="11.5625717"><ele>300.0</ele><time>2026-04-04T14:33:01.012Z</time></trkpt><trkpt lat="43.6260333" lon="11.5624133"><ele>300.0</ele><time>2026-04-04T14:33:03.011Z</time></trkpt><trkpt lat="43.62603" lon="11.5622483"><ele>300.0</ele><time>2026-04-04T14:33:05.011Z</time></trkpt><trkpt lat="43.626045" lon="11.5620817"><ele>300.0</ele><time>2026-04-04T14:33:07.013Z</time></trkpt><trkpt lat="43.6261083" lon="11.56194"><ele>300.0</ele><time>2026-04-04T14:33:09.01Z</time></trkpt><trkpt lat="43.6262083" lon="11.5618333"><ele>301.6</ele><time>2026-04-04T14:33:11.011Z</time></trkpt><trkpt lat="43.62632" lon="11.5617717"><ele>303.2</ele><time>2026-04-04T14:33:13.01Z</time></trkpt><trkpt lat="43.626435" lon="11.56176"><ele>304.8</ele><time>2026-04-04T14:33:15.01Z</time></trkpt><trkpt lat="43.6264967" lon="11.5617417"><ele>306.4</ele><time>2026-04-04T14:33:16.011Z</time></trkpt><trkpt lat="43.626605" lon="11.5617217"><ele>308.0</ele><time>2026-04-04T14:33:18.013Z</time></trkpt><trkpt lat="43.626715" lon="11.561695"><ele>308.0</ele><time>2026-04-04T14:33:20.012Z</time></trkpt><trkpt lat="43.6268117" lon="11.561675"><ele>308.0</ele><time>2026-04-04T14:33:22.012Z</time></trkpt><trkpt lat="43.6269033" lon="11.5616633"><ele>308.0</ele><time>2026-04-04T14:33:24.013Z</time></trkpt><trkpt lat="43.6269983" lon="11.5616483"><ele>308.0</ele><time>2026-04-04T14:33:26.011Z</time></trkpt><trkpt lat="43.6270917" lon="11.5616383"><ele>308.0</ele><time>2026-04-04T14:33:28.012Z</time></trkpt><trkpt lat="43.6271867" lon="11.5616233"><ele>308.4</ele><time>2026-04-04T14:33:30.011Z</time></trkpt><trkpt lat="43.6272733" lon="11.561615"><ele>308.8</ele><time>2026-04-04T14:33:32.012Z</time></trkpt><trkpt lat="43.62737" lon="11.5616183"><ele>309.2</ele><time>2026-04-04T14:33:34.013Z</time></trkpt><trkpt lat="43.62747" lon="11.56165"><ele>309.6</ele><time>2026-04-04T14:33:36.011Z</time></trkpt><trkpt lat="43.62757" lon="11.5617"><ele>310.0</ele><time>2026-04-04T14:33:38.012Z</time></trkpt><trkpt lat="43.6276733" lon="11.56175"><ele>310.0</ele><time>2026-04-04T14:33:40.011Z</time></trkpt><trkpt lat="43.6277883" lon="11.561785"><ele>310.0</ele><time>2026-04-04T14:33:42.011Z</time></trkpt><trkpt lat="43.6279033" lon="11.5617767"><ele>310.0</ele><time>2026-04-04T14:33:44.012Z</time></trkpt><trkpt lat="43.6279967" lon="11.5617167"><ele>310.0</ele><time>2026-04-04T14:33:46.011Z</time></trkpt><trkpt lat="43.6280683" lon="11.5616133"><ele>310.0</ele><time>2026-04-04T14:33:48.011Z</time></trkpt><trkpt lat="43.6281383" lon="11.5614933"><ele>309.5</ele><time>2026-04-04T14:33:50.011Z</time></trkpt><trkpt lat="43.6282033" lon="11.5613767"><ele>309.0</ele><time>2026-04-04T14:33:52.012Z</time></trkpt><trkpt lat="43.6282833" lon="11.5612533"><ele>308.5</ele><time>2026-04-04T14:33:54.012Z</time></trkpt><trkpt lat="43.62836" lon="11.5611367"><ele>308.0</ele><time>2026-04-04T14:33:56.014Z</time></trkpt><trkpt lat="43.6284583" lon="11.561045"><ele>308.0</ele><time>2026-04-04T14:33:58.01Z</time></trkpt><trkpt lat="43.62852" lon="11.5610217"><ele>308.0</ele><time>2026-04-04T14:33:59.01Z</time></trkpt><trkpt lat="43.6285833" lon="11.5610233"><ele>308.0</ele><time>2026-04-04T14:34:00.013Z</time></trkpt><trkpt lat="43.6286483" lon="11.5610383"><ele>308.0</ele><time>2026-04-04T14:34:01.012Z</time></trkpt><trkpt lat="43.6287117" lon="11.5610667"><ele>308.0</ele><time>2026-04-04T14:34:02.013Z</time></trkpt><trkpt lat="43.628765" lon="11.5611167"><ele>308.0</ele><time>2026-04-04T14:34:03.011Z</time></trkpt><trkpt lat="43.6288133" lon="11.5611867"><ele>308.0</ele><time>2026-04-04T14:34:04.011Z</time></trkpt><trkpt lat="43.6288533" lon="11.5612683"><ele>307.5</ele><time>2026-04-04T14:34:05.011Z</time></trkpt><trkpt lat="43.6288933" lon="11.56135"><ele>307.0</ele><time>2026-04-04T14:34:06.012Z</time></trkpt><trkpt lat="43.6289317" lon="11.5614417"><ele>306.5</ele><time>2026-04-04T14:34:07.012Z</time></trkpt><trkpt lat="43.628965" lon="11.5615367"><ele>306.0</ele><time>2026-04-04T14:34:08.011Z</time></trkpt><trkpt lat="43.6289983" lon="11.5616333"><ele>305.5</ele><time>2026-04-04T14:34:09.011Z</time></trkpt><trkpt lat="43.6290333" lon="11.5617283"><ele>305.0</ele><time>2026-04-04T14:34:10.01Z</time></trkpt><trkpt lat="43.6290683" lon="11.561825"><ele>305.0</ele><time>2026-04-04T14:34:11.012Z</time></trkpt><trkpt lat="43.6291033" lon="11.5619283"><ele>305.0</ele><time>2026-04-04T14:34:12.011Z</time></trkpt><trkpt lat="43.6291367" lon="11.5620367"><ele>305.0</ele><time>2026-04-04T14:34:13.012Z</time></trkpt><trkpt lat="43.6291683" lon="11.5621483"><ele>305.0</ele><time>2026-04-04T14:34:14.013Z</time></trkpt><trkpt lat="43.6292033" lon="11.5622617"><ele>305.0</ele><time>2026-04-04T14:34:15.011Z</time></trkpt><trkpt lat="43.629235" lon="11.5623767"><ele>305.0</ele><time>2026-04-04T14:34:16.012Z</time></trkpt><trkpt lat="43.629265" lon="11.56249"><ele>306.0</ele><time>2026-04-04T14:34:17.012Z</time></trkpt><trkpt lat="43.6292867" lon="11.5626067"><ele>307.0</ele><time>2026-04-04T14:34:18.01Z</time></trkpt><trkpt lat="43.6292983" lon="11.5627267"><ele>308.0</ele><time>2026-04-04T14:34:19.011Z</time></trkpt><trkpt lat="43.629305" lon="11.5628467"><ele>309.0</ele><time>2026-04-04T14:34:20.011Z</time></trkpt><trkpt lat="43.6293083" lon="11.5629667"><ele>310.0</ele><time>2026-04-04T14:34:21.011Z</time></trkpt><trkpt lat="43.629315" lon="11.563085"><ele>311.0</ele><time>2026-04-04T14:34:22.013Z</time></trkpt><trkpt lat="43.629335" lon="11.5632033"><ele>311.85714285714283</ele><time>2026-04-04T14:34:23.01Z</time></trkpt><trkpt lat="43.6293567" lon="11.563305"><ele>312.7142857142857</ele><time>2026-04-04T14:34:24.013Z</time></trkpt><trkpt lat="43.6293917" lon="11.563395"><ele>313.57142857142856</ele><time>2026-04-04T14:34:25.011Z</time></trkpt><trkpt lat="43.6294383" lon="11.5634683"><ele>314.42857142857144</ele><time>2026-04-04T14:34:26.013Z</time></trkpt><trkpt lat="43.6294917" lon="11.563525"><ele>315.2857142857143</ele><time>2026-04-04T14:34:27.011Z</time></trkpt><trkpt lat="43.6295567" lon="11.5635633"><ele>316.14285714285717</ele><time>2026-04-04T14:34:28.013Z</time></trkpt><trkpt lat="43.6296233" lon="11.5635733"><ele>317.0</ele><time>2026-04-04T14:34:29.011Z</time></trkpt><trkpt lat="43.6296933" lon="11.5635633"><ele>317.0</ele><time>2026-04-04T14:34:30.011Z</time></trkpt><trkpt lat="43.6297517" lon="11.563525"><ele>317.0</ele><time>2026-04-04T14:34:31.012Z</time></trkpt><trkpt lat="43.6298233" lon="11.5633883"><ele>317.0</ele><time>2026-04-04T14:34:33.012Z</time></trkpt><trkpt lat="43.6298367" lon="11.5632983"><ele>317.0</ele><time>2026-04-04T14:34:34.013Z</time></trkpt><trkpt lat="43.6298483" lon="11.5632033"><ele>317.0</ele><time>2026-04-04T14:34:35.01Z</time></trkpt><trkpt lat="43.6298617" lon="11.563105"><ele>317.0</ele><time>2026-04-04T14:34:36.011Z</time></trkpt><trkpt lat="43.6298767" lon="11.5630083"><ele>317.0</ele><time>2026-04-04T14:34:37.014Z</time></trkpt><trkpt lat="43.6298917" lon="11.562905"><ele>317.0</ele><time>2026-04-04T14:34:38.011Z</time></trkpt><trkpt lat="43.6299083" lon="11.5628017"><ele>317.0</ele><time>2026-04-04T14:34:39.011Z</time></trkpt><trkpt lat="43.629925" lon="11.562695"><ele>317.0</ele><time>2026-04-04T14:34:40.012Z</time></trkpt><trkpt lat="43.629945" lon="11.5625883"><ele>317.0</ele><time>2026-04-04T14:34:41.012Z</time></trkpt><trkpt lat="43.629965" lon="11.5624767"><ele>317.0</ele><time>2026-04-04T14:34:42.011Z</time></trkpt><trkpt lat="43.629985" lon="11.5623617"><ele>316.1666666666667</ele><time>2026-04-04T14:34:43.011Z</time></trkpt><trkpt lat="43.6300083" lon="11.5622533"><ele>315.33333333333337</ele><time>2026-04-04T14:34:44.012Z</time></trkpt><trkpt lat="43.6300367" lon="11.562145"><ele>314.5</ele><time>2026-04-04T14:34:45.012Z</time></trkpt><trkpt lat="43.6300633" lon="11.5620333"><ele>313.6666666666667</ele><time>2026-04-04T14:34:46.013Z</time></trkpt><trkpt lat="43.6300867" lon="11.5619217"><ele>312.8333333333333</ele><time>2026-04-04T14:34:47.011Z</time></trkpt><trkpt lat="43.6301083" lon="11.5618117"><ele>312.0</ele><time>2026-04-04T14:34:48.012Z</time></trkpt><trkpt lat="43.6301317" lon="11.5617"><ele>310.1666666666667</ele><time>2026-04-04T14:34:49.012Z</time></trkpt><trkpt lat="43.6301533" lon="11.5615767"><ele>308.3333333333333</ele><time>2026-04-04T14:34:50.013Z</time></trkpt><trkpt lat="43.6301783" lon="11.5614617"><ele>306.5</ele><time>2026-04-04T14:34:51.014Z</time></trkpt><trkpt lat="43.6302067" lon="11.561345"><ele>304.66666666666663</ele><time>2026-04-04T14:34:52.011Z</time></trkpt><trkpt lat="43.6302333" lon="11.5612317"><ele>302.8333333333333</ele><time>2026-04-04T14:34:53.012Z</time></trkpt><trkpt lat="43.6302617" lon="11.5611217"><ele>301.0</ele><time>2026-04-04T14:34:54.012Z</time></trkpt><trkpt lat="43.630295" lon="11.561015"><ele>302.8333333333333</ele><time>2026-04-04T14:34:55.01Z</time></trkpt><trkpt lat="43.63033" lon="11.5609133"><ele>304.66666666666663</ele><time>2026-04-04T14:34:56.011Z</time></trkpt><trkpt lat="43.6303617" lon="11.56082"><ele>306.5</ele><time>2026-04-04T14:34:57.01Z</time></trkpt><trkpt lat="43.6303983" lon="11.56072"><ele>308.3333333333333</ele><time>2026-04-04T14:34:58.011Z</time></trkpt><trkpt lat="43.63044" lon="11.560625"><ele>310.1666666666667</ele><time>2026-04-04T14:34:59.01Z</time></trkpt><trkpt lat="43.6304883" lon="11.5605367"><ele>312.0</ele><time>2026-04-04T14:35:00.012Z</time></trkpt><trkpt lat="43.63055" lon="11.5604717"><ele>312.0</ele><time>2026-04-04T14:35:01.011Z</time></trkpt><trkpt lat="43.63062" lon="11.560425"><ele>312.0</ele><time>2026-04-04T14:35:02.011Z</time></trkpt><trkpt lat="43.630695" lon="11.5603967"><ele>312.0</ele><time>2026-04-04T14:35:03.011Z</time></trkpt><trkpt lat="43.630775" lon="11.5603783"><ele>312.0</ele><time>2026-04-04T14:35:04.011Z</time></trkpt><trkpt lat="43.6308517" lon="11.5603567"><ele>312.0</ele><time>2026-04-04T14:35:05.013Z</time></trkpt><trkpt lat="43.6309267" lon="11.5603167"><ele>312.0</ele><time>2026-04-04T14:35:06.012Z</time></trkpt><trkpt lat="43.6309867" lon="11.56025"><ele>313.2857142857143</ele><time>2026-04-04T14:35:07.012Z</time></trkpt><trkpt lat="43.6310367" lon="11.5601683"><ele>314.57142857142856</ele><time>2026-04-04T14:35:08.013Z</time></trkpt><trkpt lat="43.63107" lon="11.560075"><ele>315.85714285714283</ele><time>2026-04-04T14:35:09.012Z</time></trkpt><trkpt lat="43.6310967" lon="11.5599817"><ele>317.1428571428571</ele><time>2026-04-04T14:35:10.012Z</time></trkpt><trkpt lat="43.6311217" lon="11.559885"><ele>318.42857142857144</ele><time>2026-04-04T14:35:11.012Z</time></trkpt><trkpt lat="43.63115" lon="11.55979"><ele>319.71428571428567</ele><time>2026-04-04T14:35:12.011Z</time></trkpt><trkpt lat="43.6311833" lon="11.5596967"><ele>321.0</ele><time>2026-04-04T14:35:13.011Z</time></trkpt><trkpt lat="43.631225" lon="11.5596117"><ele>318.8333333333333</ele><time>2026-04-04T14:35:14.013Z</time></trkpt><trkpt lat="43.631275" lon="11.5595317"><ele>316.6666666666667</ele><time>2026-04-04T14:35:15.012Z</time></trkpt><trkpt lat="43.63133" lon="11.5594667"><ele>314.5</ele><time>2026-04-04T14:35:16.013Z</time></trkpt><trkpt lat="43.6313883" lon="11.5593917"><ele>312.33333333333337</ele><time>2026-04-04T14:35:17.011Z</time></trkpt><trkpt lat="43.6314483" lon="11.55932"><ele>310.1666666666667</ele><time>2026-04-04T14:35:18.011Z</time></trkpt><trkpt lat="43.6315067" lon="11.55924"><ele>308.0</ele><time>2026-04-04T14:35:19.012Z</time></trkpt><trkpt lat="43.631565" lon="11.5591683"><ele>308.0</ele><time>2026-04-04T14:35:20.013Z</time></trkpt><trkpt lat="43.6316233" lon="11.5590933"><ele>308.0</ele><time>2026-04-04T14:35:21.012Z</time></trkpt><trkpt lat="43.6316817" lon="11.5590217"><ele>308.0</ele><time>2026-04-04T14:35:22.011Z</time></trkpt><trkpt lat="43.6317383" lon="11.5589517"><ele>308.0</ele><time>2026-04-04T14:35:23.011Z</time></trkpt><trkpt lat="43.6317917" lon="11.5588917"><ele>308.0</ele><time>2026-04-04T14:35:24.013Z</time></trkpt><trkpt lat="43.6318483" lon="11.55883"><ele>308.0</ele><time>2026-04-04T14:35:25.013Z</time></trkpt><trkpt lat="43.6319033" lon="11.5587667"><ele>308.0</ele><time>2026-04-04T14:35:26.012Z</time></trkpt><trkpt lat="43.6319617" lon="11.5587117"><ele>307.2857142857143</ele><time>2026-04-04T14:35:27.013Z</time></trkpt><trkpt lat="43.6320217" lon="11.55866"><ele>306.57142857142856</ele><time>2026-04-04T14:35:28.01Z</time></trkpt><trkpt lat="43.6320867" lon="11.5586133"><ele>305.8571428571429</ele><time>2026-04-04T14:35:29.011Z</time></trkpt><trkpt lat="43.63215" lon="11.5585733"><ele>305.1428571428571</ele><time>2026-04-04T14:35:30.011Z</time></trkpt><trkpt lat="43.6322217" lon="11.55854"><ele>304.42857142857144</ele><time>2026-04-04T14:35:31.011Z</time></trkpt><trkpt lat="43.6322867" lon="11.5585233"><ele>303.7142857142857</ele><time>2026-04-04T14:35:32.011Z</time></trkpt><trkpt lat="43.6323567" lon="11.5585033"><ele>303.0</ele><time>2026-04-04T14:35:33.013Z</time></trkpt><trkpt lat="43.6324217" lon="11.5584967"><ele>303.0</ele><time>2026-04-04T14:35:34.011Z</time></trkpt><trkpt lat="43.6324867" lon="11.5584917"><ele>303.0</ele><time>2026-04-04T14:35:35.012Z</time></trkpt><trkpt lat="43.6325567" lon="11.55848"><ele>303.0</ele><time>2026-04-04T14:35:36.014Z</time></trkpt><trkpt lat="43.6326233" lon="11.55847"><ele>303.0</ele><time>2026-04-04T14:35:37.011Z</time></trkpt><trkpt lat="43.6327483" lon="11.5584883"><ele>303.0</ele><time>2026-04-04T14:35:39.011Z</time></trkpt><trkpt lat="43.6328517" lon="11.5585683"><ele>303.0</ele><time>2026-04-04T14:35:41.013Z</time></trkpt><trkpt lat="43.6328883" lon="11.55864"><ele>304.0</ele><time>2026-04-04T14:35:42.014Z</time></trkpt><trkpt lat="43.6329567" lon="11.558785"><ele>305.0</ele><time>2026-04-04T14:35:44.011Z</time></trkpt><trkpt lat="43.633025" lon="11.5589283"><ele>306.0</ele><time>2026-04-04T14:35:46.013Z</time></trkpt><trkpt lat="43.633065" lon="11.5589983"><ele>307.0</ele><time>2026-04-04T14:35:47.013Z</time></trkpt><trkpt lat="43.6331033" lon="11.5590683"><ele>308.0</ele><time>2026-04-04T14:35:48.014Z</time></trkpt><trkpt lat="43.63314" lon="11.55914"><ele>309.0</ele><time>2026-04-04T14:35:49.011Z</time></trkpt><trkpt lat="43.6332133" lon="11.5592783"><ele>309.0</ele><time>2026-04-04T14:35:51.011Z</time></trkpt><trkpt lat="43.6332883" lon="11.5594217"><ele>309.0</ele><time>2026-04-04T14:35:53.012Z</time></trkpt><trkpt lat="43.6333317" lon="11.55949"><ele>309.0</ele><time>2026-04-04T14:35:54.013Z</time></trkpt><trkpt lat="43.6334033" lon="11.5596317"><ele>309.0</ele><time>2026-04-04T14:35:56.011Z</time></trkpt><trkpt lat="43.633475" lon="11.559765"><ele>309.0</ele><time>2026-04-04T14:35:58.013Z</time></trkpt><trkpt lat="43.6335083" lon="11.5598433"><ele>309.5</ele><time>2026-04-04T14:35:59.013Z</time></trkpt><trkpt lat="43.633545" lon="11.5599167"><ele>310.0</ele><time>2026-04-04T14:36:00.013Z</time></trkpt><trkpt lat="43.6336183" lon="11.5600567"><ele>310.5</ele><time>2026-04-04T14:36:02.012Z</time></trkpt><trkpt lat="43.6336567" lon="11.5601317"><ele>311.0</ele><time>2026-04-04T14:36:03.012Z</time></trkpt><trkpt lat="43.6336967" lon="11.5602"><ele>311.5</ele><time>2026-04-04T14:36:04.013Z</time></trkpt><trkpt lat="43.6337933" lon="11.5603017"><ele>312.0</ele><time>2026-04-04T14:36:06.012Z</time></trkpt><trkpt lat="43.633855" lon="11.5603317"><ele>312.0</ele><time>2026-04-04T14:36:07.012Z</time></trkpt><trkpt lat="43.6339783" lon="11.56032"><ele>312.0</ele><time>2026-04-04T14:36:09.011Z</time></trkpt><trkpt lat="43.6340383" lon="11.560275"><ele>312.0</ele><time>2026-04-04T14:36:10.012Z</time></trkpt><trkpt lat="43.63409" lon="11.5602167"><ele>312.0</ele><time>2026-04-04T14:36:11.012Z</time></trkpt><trkpt lat="43.6341367" lon="11.5601517"><ele>312.0</ele><time>2026-04-04T14:36:12.013Z</time></trkpt><trkpt lat="43.6342167" lon="11.5600117"><ele>312.0</ele><time>2026-04-04T14:36:14.012Z</time></trkpt><trkpt lat="43.6342533" lon="11.55994"><ele>312.0</ele><time>2026-04-04T14:36:15.013Z</time></trkpt><trkpt lat="43.6343233" lon="11.559795"><ele>312.0</ele><time>2026-04-04T14:36:17.014Z</time></trkpt><trkpt lat="43.6343633" lon="11.5597133"><ele>312.0</ele><time>2026-04-04T14:36:18.011Z</time></trkpt><trkpt lat="43.6343983" lon="11.559635"><ele>312.0</ele><time>2026-04-04T14:36:19.011Z</time></trkpt><trkpt lat="43.6344333" lon="11.5595617"><ele>312.0</ele><time>2026-04-04T14:36:20.013Z</time></trkpt><trkpt lat="43.63447" lon="11.559485"><ele>312.8333333333333</ele><time>2026-04-04T14:36:21.011Z</time></trkpt><trkpt lat="43.6345383" lon="11.5593433"><ele>313.6666666666667</ele><time>2026-04-04T14:36:23.012Z</time></trkpt><trkpt lat="43.6346067" lon="11.5592083"><ele>314.5</ele><time>2026-04-04T14:36:25.012Z</time></trkpt><trkpt lat="43.6346417" lon="11.5591317"><ele>315.33333333333337</ele><time>2026-04-04T14:36:26.012Z</time></trkpt><trkpt lat="43.63468" lon="11.55906"><ele>316.1666666666667</ele><time>2026-04-04T14:36:27.01Z</time></trkpt><trkpt lat="43.6347167" lon="11.558985"><ele>317.0</ele><time>2026-04-04T14:36:28.012Z</time></trkpt><trkpt lat="43.6347917" lon="11.5588317"><ele>317.0</ele><time>2026-04-04T14:36:30.013Z</time></trkpt><trkpt lat="43.6348283" lon="11.5587517"><ele>317.0</ele><time>2026-04-04T14:36:31.013Z</time></trkpt><trkpt lat="43.6348633" lon="11.5586733"><ele>317.0</ele><time>2026-04-04T14:36:32.013Z</time></trkpt><trkpt lat="43.6349017" lon="11.5585933"><ele>317.0</ele><time>2026-04-04T14:36:33.015Z</time></trkpt><trkpt lat="43.6349433" lon="11.5585183"><ele>317.0</ele><time>2026-04-04T14:36:34.013Z</time></trkpt><trkpt lat="43.6349883" lon="11.558445"><ele>317.0</ele><time>2026-04-04T14:36:35.012Z</time></trkpt><trkpt lat="43.6350417" lon="11.5583767"><ele>317.0</ele><time>2026-04-04T14:36:36.013Z</time></trkpt><trkpt lat="43.6351" lon="11.55832"><ele>316.57142857142856</ele><time>2026-04-04T14:36:37.013Z</time></trkpt><trkpt lat="43.6351667" lon="11.5582867"><ele>316.1428571428571</ele><time>2026-04-04T14:36:38.014Z</time></trkpt><trkpt lat="43.6352367" lon="11.55827"><ele>315.71428571428567</ele><time>2026-04-04T14:36:39.012Z</time></trkpt><trkpt lat="43.6353033" lon="11.55828"><ele>315.2857142857143</ele><time>2026-04-04T14:36:40.012Z</time></trkpt><trkpt lat="43.6353683" lon="11.5583083"><ele>314.85714285714283</ele><time>2026-04-04T14:36:41.011Z</time></trkpt><trkpt lat="43.6354283" lon="11.5583533"><ele>314.4285714285714</ele><time>2026-04-04T14:36:42.012Z</time></trkpt><trkpt lat="43.6354867" lon="11.558405"><ele>314.0</ele><time>2026-04-04T14:36:43.013Z</time></trkpt><trkpt lat="43.63554" lon="11.558465"><ele>314.0</ele><time>2026-04-04T14:36:44.013Z</time></trkpt><trkpt lat="43.6355933" lon="11.5585183"><ele>314.0</ele><time>2026-04-04T14:36:45.014Z</time></trkpt><trkpt lat="43.63571" lon="11.5585883"><ele>314.0</ele><time>2026-04-04T14:36:47.013Z</time></trkpt><trkpt lat="43.6357767" lon="11.5585667"><ele>314.0</ele><time>2026-04-04T14:36:48.012Z</time></trkpt><trkpt lat="43.63584" lon="11.55852"><ele>314.0</ele><time>2026-04-04T14:36:49.014Z</time></trkpt><trkpt lat="43.6358783" lon="11.5584483"><ele>314.0</ele><time>2026-04-04T14:36:50.012Z</time></trkpt><trkpt lat="43.6359033" lon="11.558355"><ele>314.0</ele><time>2026-04-04T14:36:51.013Z</time></trkpt><trkpt lat="43.6359133" lon="11.5582583"><ele>314.0</ele><time>2026-04-04T14:36:52.012Z</time></trkpt><trkpt lat="43.6359117" lon="11.5581533"><ele>314.0</ele><time>2026-04-04T14:36:53.01Z</time></trkpt><trkpt lat="43.6359" lon="11.5580417"><ele>314.0</ele><time>2026-04-04T14:36:54.012Z</time></trkpt><trkpt lat="43.6358883" lon="11.5579267"><ele>314.0</ele><time>2026-04-04T14:36:55.012Z</time></trkpt><trkpt lat="43.63589" lon="11.55781"><ele>314.0</ele><time>2026-04-04T14:36:56.013Z</time></trkpt><trkpt lat="43.6359067" lon="11.5577"><ele>314.33333333333337</ele><time>2026-04-04T14:36:57.012Z</time></trkpt><trkpt lat="43.6359467" lon="11.5576017"><ele>314.6666666666667</ele><time>2026-04-04T14:36:58.012Z</time></trkpt><trkpt lat="43.6360017" lon="11.55752"><ele>315.0</ele><time>2026-04-04T14:36:59.013Z</time></trkpt><trkpt lat="43.6360583" lon="11.5574467"><ele>315.3333333333333</ele><time>2026-04-04T14:37:00.012Z</time></trkpt><trkpt lat="43.6361183" lon="11.5573667"><ele>315.66666666666663</ele><time>2026-04-04T14:37:01.011Z</time></trkpt><trkpt lat="43.63618" lon="11.5572917"><ele>316.0</ele><time>2026-04-04T14:37:02.012Z</time></trkpt><trkpt lat="43.6362433" lon="11.557215"><ele>316.0</ele><time>2026-04-04T14:37:03.011Z</time></trkpt><trkpt lat="43.6363083" lon="11.5571267"><ele>316.0</ele><time>2026-04-04T14:37:04.013Z</time></trkpt><trkpt lat="43.6363717" lon="11.5570567"><ele>316.0</ele><time>2026-04-04T14:37:05.012Z</time></trkpt><trkpt lat="43.6364333" lon="11.5569833"><ele>316.0</ele><time>2026-04-04T14:37:06.011Z</time></trkpt><trkpt lat="43.6364933" lon="11.55691"><ele>316.0</ele><time>2026-04-04T14:37:07.01Z</time></trkpt><trkpt lat="43.6365517" lon="11.556835"><ele>316.0</ele><time>2026-04-04T14:37:08.012Z</time></trkpt><trkpt lat="43.6366083" lon="11.5567567"><ele>315.3333333333333</ele><time>2026-04-04T14:37:09.013Z</time></trkpt><trkpt lat="43.6366683" lon="11.5566833"><ele>314.66666666666663</ele><time>2026-04-04T14:37:10.011Z</time></trkpt><trkpt lat="43.63673" lon="11.5566183"><ele>314.0</ele><time>2026-04-04T14:37:11.01Z</time></trkpt><trkpt lat="43.6367967" lon="11.5565583"><ele>313.3333333333333</ele><time>2026-04-04T14:37:12.012Z</time></trkpt><trkpt lat="43.6368667" lon="11.5565167"><ele>312.6666666666667</ele><time>2026-04-04T14:37:13.013Z</time></trkpt><trkpt lat="43.6369417" lon="11.5564917"><ele>312.0</ele><time>2026-04-04T14:37:14.01Z</time></trkpt><trkpt lat="43.6370183" lon="11.5564783"><ele>312.0</ele><time>2026-04-04T14:37:15.011Z</time></trkpt><trkpt lat="43.6370967" lon="11.5564883"><ele>312.0</ele><time>2026-04-04T14:37:16.011Z</time></trkpt><trkpt lat="43.63717" lon="11.5565083"><ele>312.0</ele><time>2026-04-04T14:37:17.011Z</time></trkpt><trkpt lat="43.6372433" lon="11.5565383"><ele>312.0</ele><time>2026-04-04T14:37:18.011Z</time></trkpt><trkpt lat="43.6373117" lon="11.5565767"><ele>312.0</ele><time>2026-04-04T14:37:19.011Z</time></trkpt><trkpt lat="43.63738" lon="11.5566167"><ele>312.0</ele><time>2026-04-04T14:37:20.011Z</time></trkpt><trkpt lat="43.637445" lon="11.5566567"><ele>312.0</ele><time>2026-04-04T14:37:21.011Z</time></trkpt><trkpt lat="43.6375117" lon="11.5567"><ele>312.0</ele><time>2026-04-04T14:37:22.013Z</time></trkpt><trkpt lat="43.637575" lon="11.5567417"><ele>312.0</ele><time>2026-04-04T14:37:23.011Z</time></trkpt><trkpt lat="43.637635" lon="11.5567883"><ele>312.0</ele><time>2026-04-04T14:37:24.011Z</time></trkpt><trkpt lat="43.637695" lon="11.5568433"><ele>312.0</ele><time>2026-04-04T14:37:25.011Z</time></trkpt><trkpt lat="43.6377517" lon="11.5569017"><ele>312.0</ele><time>2026-04-04T14:37:26.011Z</time></trkpt><trkpt lat="43.6378467" lon="11.5570067"><ele>312.0</ele><time>2026-04-04T14:37:28.01Z</time></trkpt><trkpt lat="43.637905" lon="11.55705"><ele>312.2857142857143</ele><time>2026-04-04T14:37:29.012Z</time></trkpt><trkpt lat="43.63797" lon="11.5570717"><ele>312.57142857142856</ele><time>2026-04-04T14:37:30.01Z</time></trkpt><trkpt lat="43.6380417" lon="11.55707"><ele>312.85714285714283</ele><time>2026-04-04T14:37:31.01Z</time></trkpt><trkpt lat="43.6381017" lon="11.557035"><ele>313.1428571428571</ele><time>2026-04-04T14:37:32.011Z</time></trkpt><trkpt lat="43.6381567" lon="11.5569767"><ele>313.42857142857144</ele><time>2026-04-04T14:37:33.011Z</time></trkpt><trkpt lat="43.6381983" lon="11.5569"><ele>313.71428571428567</ele><time>2026-04-04T14:37:34.011Z</time></trkpt><trkpt lat="43.6382283" lon="11.5568083"><ele>314.0</ele><time>2026-04-04T14:37:35.011Z</time></trkpt><trkpt lat="43.6382467" lon="11.556725"><ele>314.0</ele><time>2026-04-04T14:37:36.012Z</time></trkpt><trkpt lat="43.6382583" lon="11.5565783"><ele>314.0</ele><time>2026-04-04T14:37:38.012Z</time></trkpt><trkpt lat="43.63825" lon="11.556435"><ele>314.0</ele><time>2026-04-04T14:37:40.012Z</time></trkpt><trkpt lat="43.6382433" lon="11.5563083"><ele>314.0</ele><time>2026-04-04T14:37:42.013Z</time></trkpt><trkpt lat="43.6382583" lon="11.556195"><ele>314.0</ele><time>2026-04-04T14:37:44.012Z</time></trkpt><trkpt lat="43.638295" lon="11.5560983"><ele>314.1428571428571</ele><time>2026-04-04T14:37:46.009Z</time></trkpt><trkpt lat="43.6383467" lon="11.556025"><ele>314.2857142857143</ele><time>2026-04-04T14:37:48.011Z</time></trkpt><trkpt lat="43.6384033" lon="11.55596"><ele>314.42857142857144</ele><time>2026-04-04T14:37:50.011Z</time></trkpt><trkpt lat="43.6384683" lon="11.555935"><ele>314.57142857142856</ele><time>2026-04-04T14:37:52.012Z</time></trkpt><trkpt lat="43.6385383" lon="11.5559083"><ele>314.7142857142857</ele><time>2026-04-04T14:37:54.01Z</time></trkpt><trkpt lat="43.63861" lon="11.55588"><ele>314.85714285714283</ele><time>2026-04-04T14:37:56.01Z</time></trkpt><trkpt lat="43.6386817" lon="11.5558467"><ele>315.0</ele><time>2026-04-04T14:37:58.009Z</time></trkpt><trkpt lat="43.6387467" lon="11.5558133"><ele>315.57142857142856</ele><time>2026-04-04T14:38:00.012Z</time></trkpt><trkpt lat="43.6388167" lon="11.5557817"><ele>316.1428571428571</ele><time>2026-04-04T14:38:02.012Z</time></trkpt><trkpt lat="43.6388867" lon="11.5557567"><ele>316.7142857142857</ele><time>2026-04-04T14:38:04.01Z</time></trkpt><trkpt lat="43.6389583" lon="11.5557267"><ele>317.2857142857143</ele><time>2026-04-04T14:38:06.01Z</time></trkpt><trkpt lat="43.6390333" lon="11.5556967"><ele>317.85714285714283</ele><time>2026-04-04T14:38:08.012Z</time></trkpt><trkpt lat="43.6391083" lon="11.555685"><ele>318.42857142857144</ele><time>2026-04-04T14:38:10.011Z</time></trkpt><trkpt lat="43.6391817" lon="11.555675"><ele>319.0</ele><time>2026-04-04T14:38:12.01Z</time></trkpt><trkpt lat="43.6392567" lon="11.5556833"><ele>319.0</ele><time>2026-04-04T14:38:14.011Z</time></trkpt><trkpt lat="43.6393417" lon="11.55569"><ele>319.0</ele><time>2026-04-04T14:38:16.011Z</time></trkpt><trkpt lat="43.63942" lon="11.5556983"><ele>319.0</ele><time>2026-04-04T14:38:18.01Z</time></trkpt><trkpt lat="43.6394967" lon="11.5557133"><ele>319.0</ele><time>2026-04-04T14:38:20.011Z</time></trkpt><trkpt lat="43.6395733" lon="11.55574"><ele>319.0</ele><time>2026-04-04T14:38:22.012Z</time></trkpt><trkpt lat="43.639645" lon="11.5557667"><ele>319.0</ele><time>2026-04-04T14:38:24.011Z</time></trkpt><trkpt lat="43.63971" lon="11.5557967"><ele>319.8333333333333</ele><time>2026-04-04T14:38:26.012Z</time></trkpt><trkpt lat="43.63978" lon="11.5558267"><ele>320.66666666666663</ele><time>2026-04-04T14:38:28.011Z</time></trkpt><trkpt lat="43.6398583" lon="11.5558533"><ele>321.5</ele><time>2026-04-04T14:38:30.011Z</time></trkpt><trkpt lat="43.639935" lon="11.5558767"><ele>322.3333333333333</ele><time>2026-04-04T14:38:32.01Z</time></trkpt><trkpt lat="43.640015" lon="11.5558983"><ele>323.1666666666667</ele><time>2026-04-04T14:38:34.011Z</time></trkpt><trkpt lat="43.6400967" lon="11.5559083"><ele>324.0</ele><time>2026-04-04T14:38:36.013Z</time></trkpt><trkpt lat="43.64018" lon="11.55593"><ele>324.0</ele><time>2026-04-04T14:38:38.014Z</time></trkpt><trkpt lat="43.64026" lon="11.5559567"><ele>324.0</ele><time>2026-04-04T14:38:40.01Z</time></trkpt><trkpt lat="43.64034" lon="11.5559817"><ele>324.0</ele><time>2026-04-04T14:38:42.011Z</time></trkpt><trkpt lat="43.64042" lon="11.5560017"><ele>324.0</ele><time>2026-04-04T14:38:44.012Z</time></trkpt><trkpt lat="43.6405017" lon="11.5560017"><ele>324.0</ele><time>2026-04-04T14:38:46.012Z</time></trkpt><trkpt lat="43.6405767" lon="11.5559683"><ele>324.0</ele><time>2026-04-04T14:38:48.011Z</time></trkpt><trkpt lat="43.6406283" lon="11.5558917"><ele>324.6666666666667</ele><time>2026-04-04T14:38:50.012Z</time></trkpt><trkpt lat="43.6406533" lon="11.555785"><ele>325.3333333333333</ele><time>2026-04-04T14:38:52.01Z</time></trkpt><trkpt lat="43.6406717" lon="11.5556683"><ele>326.0</ele><time>2026-04-04T14:38:54.011Z</time></trkpt><trkpt lat="43.6406767" lon="11.5555517"><ele>326.66666666666663</ele><time>2026-04-04T14:38:56.009Z</time></trkpt><trkpt lat="43.6406767" lon="11.5554333"><ele>327.3333333333333</ele><time>2026-04-04T14:38:58.011Z</time></trkpt><trkpt lat="43.640675" lon="11.555335"><ele>328.0</ele><time>2026-04-04T14:39:00.009Z</time></trkpt><trkpt lat="43.6406667" lon="11.5552383"><ele>328.3333333333333</ele><time>2026-04-04T14:39:02.012Z</time></trkpt><trkpt lat="43.6406567" lon="11.5551483"><ele>328.66666666666663</ele><time>2026-04-04T14:39:04.012Z</time></trkpt><trkpt lat="43.6406467" lon="11.5550433"><ele>329.0</ele><time>2026-04-04T14:39:06.011Z</time></trkpt><trkpt lat="43.6406467" lon="11.5549267"><ele>329.3333333333333</ele><time>2026-04-04T14:39:08.01Z</time></trkpt><trkpt lat="43.6406583" lon="11.5547967"><ele>329.6666666666667</ele><time>2026-04-04T14:39:10.01Z</time></trkpt><trkpt lat="43.640695" lon="11.5546933"><ele>330.0</ele><time>2026-04-04T14:39:12.012Z</time></trkpt><trkpt lat="43.640755" lon="11.5546067"><ele>330.0</ele><time>2026-04-04T14:39:14.011Z</time></trkpt><trkpt lat="43.640835" lon="11.554545"><ele>330.0</ele><time>2026-04-04T14:39:16.012Z</time></trkpt><trkpt lat="43.6409267" lon="11.5545"><ele>330.0</ele><time>2026-04-04T14:39:18.011Z</time></trkpt><trkpt lat="43.6410283" lon="11.5544617"><ele>330.0</ele><time>2026-04-04T14:39:20.013Z</time></trkpt><trkpt lat="43.6411283" lon="11.5544183"><ele>330.0</ele><time>2026-04-04T14:39:22.011Z</time></trkpt><trkpt lat="43.6412133" lon="11.5543333"><ele>331.0</ele><time>2026-04-04T14:39:24.011Z</time></trkpt><trkpt lat="43.6412567" lon="11.5542117"><ele>332.0</ele><time>2026-04-04T14:39:26.012Z</time></trkpt><trkpt lat="43.64125" lon="11.5540717"><ele>333.0</ele><time>2026-04-04T14:39:28.011Z</time></trkpt><trkpt lat="43.64122" lon="11.5539267"><ele>334.0</ele><time>2026-04-04T14:39:30.01Z</time></trkpt><trkpt lat="43.6411867" lon="11.5537867"><ele>335.0</ele><time>2026-04-04T14:39:32.012Z</time></trkpt><trkpt lat="43.64116" lon="11.553635"><ele>335.0</ele><time>2026-04-04T14:39:34.011Z</time></trkpt><trkpt lat="43.64116" lon="11.5534833"><ele>335.0</ele><time>2026-04-04T14:39:36.011Z</time></trkpt><trkpt lat="43.6411933" lon="11.553345"><ele>335.0</ele><time>2026-04-04T14:39:38.012Z</time></trkpt><trkpt lat="43.6412533" lon="11.5532267"><ele>335.0</ele><time>2026-04-04T14:39:40.012Z</time></trkpt><trkpt lat="43.6413383" lon="11.553135"><ele>335.0</ele><time>2026-04-04T14:39:42.012Z</time></trkpt><trkpt lat="43.64143" lon="11.5530683"><ele>335.0</ele><time>2026-04-04T14:39:44.015Z</time></trkpt><trkpt lat="43.6415233" lon="11.5530083"><ele>335.0</ele><time>2026-04-04T14:39:46.011Z</time></trkpt><trkpt lat="43.6416183" lon="11.5529467"><ele>335.0</ele><time>2026-04-04T14:39:48.013Z</time></trkpt><trkpt lat="43.64171" lon="11.55289"><ele>335.0</ele><time>2026-04-04T14:39:50.011Z</time></trkpt><trkpt lat="43.6418033" lon="11.5528833"><ele>335.0</ele><time>2026-04-04T14:39:52.014Z</time></trkpt><trkpt lat="43.6419017" lon="11.552895"><ele>335.8</ele><time>2026-04-04T14:39:54.012Z</time></trkpt><trkpt lat="43.642" lon="11.5529183"><ele>336.6</ele><time>2026-04-04T14:39:56.011Z</time></trkpt><trkpt lat="43.642095" lon="11.55295"><ele>337.4</ele><time>2026-04-04T14:39:58.013Z</time></trkpt><trkpt lat="43.6421883" lon="11.5529633"><ele>338.2</ele><time>2026-04-04T14:40:00.014Z</time></trkpt><trkpt lat="43.6422733" lon="11.5529017"><ele>339.0</ele><time>2026-04-04T14:40:02.012Z</time></trkpt><trkpt lat="43.6423283" lon="11.552775"><ele>339.0</ele><time>2026-04-04T14:40:04.011Z</time></trkpt><trkpt lat="43.642355" lon="11.5526367"><ele>339.0</ele><time>2026-04-04T14:40:06.012Z</time></trkpt><trkpt lat="43.6423733" lon="11.5525"><ele>339.0</ele><time>2026-04-04T14:40:08.012Z</time></trkpt><trkpt lat="43.6423817" lon="11.5523733"><ele>339.0</ele><time>2026-04-04T14:40:10.011Z</time></trkpt><trkpt lat="43.642385" lon="11.552245"><ele>339.0</ele><time>2026-04-04T14:40:12.011Z</time></trkpt><trkpt lat="43.6423883" lon="11.5521117"><ele>339.4</ele><time>2026-04-04T14:40:14.01Z</time></trkpt><trkpt lat="43.6423967" lon="11.5519883"><ele>339.79999999999995</ele><time>2026-04-04T14:40:16.009Z</time></trkpt><trkpt lat="43.64241" lon="11.551865"><ele>340.20000000000005</ele><time>2026-04-04T14:40:18.011Z</time></trkpt><trkpt lat="43.642445" lon="11.551745"><ele>340.6</ele><time>2026-04-04T14:40:20.011Z</time></trkpt><trkpt lat="43.6424933" lon="11.551635"><ele>341.0</ele><time>2026-04-04T14:40:22.01Z</time></trkpt><trkpt lat="43.6425617" lon="11.55152"><ele>341.0</ele><time>2026-04-04T14:40:24.012Z</time></trkpt><trkpt lat="43.642635" lon="11.5514083"><ele>341.0</ele><time>2026-04-04T14:40:26.011Z</time></trkpt><trkpt lat="43.64271" lon="11.551305"><ele>341.0</ele><time>2026-04-04T14:40:28.012Z</time></trkpt><trkpt lat="43.6427917" lon="11.551195"><ele>341.0</ele><time>2026-04-04T14:40:30.012Z</time></trkpt><trkpt lat="43.6428783" lon="11.551085"><ele>341.0</ele><time>2026-04-04T14:40:32.014Z</time></trkpt><trkpt lat="43.64296" lon="11.550975"><ele>341.25</ele><time>2026-04-04T14:40:34.011Z</time></trkpt><trkpt lat="43.6430417" lon="11.5508567"><ele>341.5</ele><time>2026-04-04T14:40:36.011Z</time></trkpt><trkpt lat="43.6431217" lon="11.5507417"><ele>341.75</ele><time>2026-04-04T14:40:38.012Z</time></trkpt><trkpt lat="43.64319" lon="11.5506133"><ele>342.0</ele><time>2026-04-04T14:40:40.011Z</time></trkpt><trkpt lat="43.6432533" lon="11.550475"><ele>342.0</ele><time>2026-04-04T14:40:42.011Z</time></trkpt><trkpt lat="43.6432833" lon="11.550395"><ele>342.0</ele><time>2026-04-04T14:40:43.012Z</time></trkpt><trkpt lat="43.64333" lon="11.5502433"><ele>342.0</ele><time>2026-04-04T14:40:45.014Z</time></trkpt><trkpt lat="43.643365" lon="11.5500933"><ele>342.0</ele><time>2026-04-04T14:40:47.012Z</time></trkpt><trkpt lat="43.6434033" lon="11.5499467"><ele>342.0</ele><time>2026-04-04T14:40:49.011Z</time></trkpt><trkpt lat="43.6434433" lon="11.5498083"><ele>342.0</ele><time>2026-04-04T14:40:51.011Z</time></trkpt><trkpt lat="43.6434833" lon="11.5496633"><ele>342.0</ele><time>2026-04-04T14:40:53.012Z</time></trkpt><trkpt lat="43.6435217" lon="11.5495183"><ele>342.0</ele><time>2026-04-04T14:40:55.011Z</time></trkpt><trkpt lat="43.6435567" lon="11.5493783"><ele>342.0</ele><time>2026-04-04T14:40:57.013Z</time></trkpt><trkpt lat="43.6436" lon="11.549245"><ele>342.0</ele><time>2026-04-04T14:40:59.01Z</time></trkpt><trkpt lat="43.6436433" lon="11.5491067"><ele>343.20000000000005</ele><time>2026-04-04T14:41:01.011Z</time></trkpt><trkpt lat="43.643675" lon="11.549"><ele>344.4</ele><time>2026-04-04T14:41:03.013Z</time></trkpt><trkpt lat="43.6437067" lon="11.5488983"><ele>345.6</ele><time>2026-04-04T14:41:05.013Z</time></trkpt><trkpt lat="43.6437583" lon="11.54878"><ele>346.79999999999995</ele><time>2026-04-04T14:41:07.012Z</time></trkpt><trkpt lat="43.6438183" lon="11.548665"><ele>348.0</ele><time>2026-04-04T14:41:09.011Z</time></trkpt><trkpt lat="43.6438683" lon="11.5485617"><ele>348.0</ele><time>2026-04-04T14:41:11.011Z</time></trkpt><trkpt lat="43.64393" lon="11.5484417"><ele>348.0</ele><time>2026-04-04T14:41:13.013Z</time></trkpt><trkpt lat="43.6439917" lon="11.5483383"><ele>348.0</ele><time>2026-04-04T14:41:15.015Z</time></trkpt><trkpt lat="43.6440467" lon="11.5482383"><ele>348.0</ele><time>2026-04-04T14:41:17.013Z</time></trkpt><trkpt lat="43.6441117" lon="11.5481317"><ele>348.0</ele><time>2026-04-04T14:41:19.012Z</time></trkpt><trkpt lat="43.6441667" lon="11.5479967"><ele>348.0</ele><time>2026-04-04T14:41:21.012Z</time></trkpt><trkpt lat="43.6442417" lon="11.5478883"><ele>348.0</ele><time>2026-04-04T14:41:23.013Z</time></trkpt><trkpt lat="43.64431" lon="11.54778"><ele>348.0</ele><time>2026-04-04T14:41:25.013Z</time></trkpt><trkpt lat="43.6443833" lon="11.5476883"><ele>348.0</ele><time>2026-04-04T14:41:27.011Z</time></trkpt><trkpt lat="43.6444417" lon="11.5476417"><ele>348.0</ele><time>2026-04-04T14:41:30.012Z</time></trkpt><trkpt lat="43.6445117" lon="11.54762"><ele>348.1428571428571</ele><time>2026-04-04T14:41:33.013Z</time></trkpt><trkpt lat="43.6445767" lon="11.54765"><ele>348.2857142857143</ele><time>2026-04-04T14:41:35.011Z</time></trkpt><trkpt lat="43.6446367" lon="11.5476983"><ele>348.42857142857144</ele><time>2026-04-04T14:41:37.011Z</time></trkpt><trkpt lat="43.644695" lon="11.547745"><ele>348.57142857142856</ele><time>2026-04-04T14:41:39.013Z</time></trkpt><trkpt lat="43.6447517" lon="11.5477983"><ele>348.7142857142857</ele><time>2026-04-04T14:41:41.011Z</time></trkpt><trkpt lat="43.6448083" lon="11.5478583"><ele>348.85714285714283</ele><time>2026-04-04T14:41:43.01Z</time></trkpt><trkpt lat="43.6448667" lon="11.54792"><ele>349.0</ele><time>2026-04-04T14:41:45.01Z</time></trkpt><trkpt lat="43.6449267" lon="11.5479783"><ele>348.99999999999994</ele><time>2026-04-04T14:41:47.011Z</time></trkpt><trkpt lat="43.6449983" lon="11.5480267"><ele>349.0</ele><time>2026-04-04T14:41:49.013Z</time></trkpt><trkpt lat="43.6450583" lon="11.54809"><ele>349.0</ele><time>2026-04-04T14:41:51.014Z</time></trkpt><trkpt lat="43.64512" lon="11.5481533"><ele>349.0</ele><time>2026-04-04T14:41:53.013Z</time></trkpt><trkpt lat="43.6451783" lon="11.54821"><ele>349.0</ele><time>2026-04-04T14:41:55.014Z</time></trkpt><trkpt lat="43.645235" lon="11.5482583"><ele>348.99999999999994</ele><time>2026-04-04T14:41:57.011Z</time></trkpt><trkpt lat="43.645285" lon="11.54833"><ele>349.0</ele><time>2026-04-04T14:41:59.012Z</time></trkpt><trkpt lat="43.6453483" lon="11.5484017"><ele>348.71428571428567</ele><time>2026-04-04T14:42:01.012Z</time></trkpt><trkpt lat="43.6454067" lon="11.5484567"><ele>348.42857142857144</ele><time>2026-04-04T14:42:03.011Z</time></trkpt><trkpt lat="43.6454667" lon="11.5485117"><ele>348.1428571428571</ele><time>2026-04-04T14:42:05.009Z</time></trkpt><trkpt lat="43.6455267" lon="11.5485667"><ele>347.85714285714283</ele><time>2026-04-04T14:42:07.013Z</time></trkpt><trkpt lat="43.6455833" lon="11.548615"><ele>347.57142857142856</ele><time>2026-04-04T14:42:09.011Z</time></trkpt><trkpt lat="43.64564" lon="11.548675"><ele>347.2857142857143</ele><time>2026-04-04T14:42:11.011Z</time></trkpt><trkpt lat="43.6456967" lon="11.5487283"><ele>347.0</ele><time>2026-04-04T14:42:13.011Z</time></trkpt><trkpt lat="43.6457517" lon="11.5487867"><ele>347.8571428571429</ele><time>2026-04-04T14:42:15.012Z</time></trkpt><trkpt lat="43.6458033" lon="11.5488417"><ele>348.71428571428567</ele><time>2026-04-04T14:42:17.015Z</time></trkpt><trkpt lat="43.645855" lon="11.548895"><ele>349.57142857142856</ele><time>2026-04-04T14:42:19.014Z</time></trkpt><trkpt lat="43.6459083" lon="11.5489633"><ele>350.42857142857144</ele><time>2026-04-04T14:42:21.012Z</time></trkpt><trkpt lat="43.6459517" lon="11.54904"><ele>351.28571428571433</ele><time>2026-04-04T14:42:23.013Z</time></trkpt><trkpt lat="43.6459867" lon="11.5491167"><ele>352.1428571428571</ele><time>2026-04-04T14:42:25.013Z</time></trkpt><trkpt lat="43.6460233" lon="11.5492333"><ele>353.0</ele><time>2026-04-04T14:42:28.013Z</time></trkpt><trkpt lat="43.6460483" lon="11.5493583"><ele>353.0</ele><time>2026-04-04T14:42:31.011Z</time></trkpt><trkpt lat="43.6460583" lon="11.5494583"><ele>353.0</ele><time>2026-04-04T14:42:33.011Z</time></trkpt><trkpt lat="43.646065" lon="11.5495517"><ele>353.0</ele><time>2026-04-04T14:42:35.013Z</time></trkpt><trkpt lat="43.64607" lon="11.5496467"><ele>353.0</ele><time>2026-04-04T14:42:37.012Z</time></trkpt><trkpt lat="43.6460867" lon="11.5497333"><ele>353.0</ele><time>2026-04-04T14:42:39.013Z</time></trkpt><trkpt lat="43.6461083" lon="11.5498233"><ele>353.0</ele><time>2026-04-04T14:42:41.014Z</time></trkpt><trkpt lat="43.6461417" lon="11.5499183"><ele>353.0</ele><time>2026-04-04T14:42:43.013Z</time></trkpt><trkpt lat="43.6461733" lon="11.55"><ele>352.1428571428571</ele><time>2026-04-04T14:42:45.012Z</time></trkpt><trkpt lat="43.6462167" lon="11.550105"><ele>351.28571428571433</ele><time>2026-04-04T14:42:48.014Z</time></trkpt><trkpt lat="43.6462517" lon="11.5501883"><ele>350.42857142857144</ele><time>2026-04-04T14:42:50.013Z</time></trkpt><trkpt lat="43.6462917" lon="11.550265"><ele>349.57142857142856</ele><time>2026-04-04T14:42:52.013Z</time></trkpt><trkpt lat="43.6463317" lon="11.550345"><ele>348.71428571428567</ele><time>2026-04-04T14:42:54.012Z</time></trkpt><trkpt lat="43.6463733" lon="11.5504283"><ele>347.8571428571429</ele><time>2026-04-04T14:42:56.011Z</time></trkpt><trkpt lat="43.646425" lon="11.5505"><ele>347.0</ele><time>2026-04-04T14:42:58.015Z</time></trkpt><trkpt lat="43.6464783" lon="11.550585"><ele>349.1666666666667</ele><time>2026-04-04T14:43:00.014Z</time></trkpt><trkpt lat="43.646535" lon="11.5506733"><ele>351.33333333333337</ele><time>2026-04-04T14:43:02.013Z</time></trkpt><trkpt lat="43.6465817" lon="11.5507567"><ele>353.5</ele><time>2026-04-04T14:43:04.012Z</time></trkpt><trkpt lat="43.6466233" lon="11.5508367"><ele>355.6666666666667</ele><time>2026-04-04T14:43:06.011Z</time></trkpt><trkpt lat="43.6466733" lon="11.55093"><ele>357.8333333333333</ele><time>2026-04-04T14:43:08.012Z</time></trkpt><trkpt lat="43.6467233" lon="11.5510283"><ele>360.0</ele><time>2026-04-04T14:43:10.011Z</time></trkpt><trkpt lat="43.6467667" lon="11.5511383"><ele>359.2</ele><time>2026-04-04T14:43:12.012Z</time></trkpt><trkpt lat="43.6468217" lon="11.551245"><ele>358.4</ele><time>2026-04-04T14:43:14.014Z</time></trkpt><trkpt lat="43.64688" lon="11.5513583"><ele>357.6</ele><time>2026-04-04T14:43:16.014Z</time></trkpt><trkpt lat="43.64695" lon="11.55145"><ele>356.8</ele><time>2026-04-04T14:43:18.013Z</time></trkpt><trkpt lat="43.6470133" lon="11.5515567"><ele>356.0</ele><time>2026-04-04T14:43:20.012Z</time></trkpt><trkpt lat="43.647065" lon="11.5516667"><ele>356.0</ele><time>2026-04-04T14:43:22.01Z</time></trkpt><trkpt lat="43.6471183" lon="11.5517833"><ele>356.0</ele><time>2026-04-04T14:43:24.011Z</time></trkpt><trkpt lat="43.6471633" lon="11.5518733"><ele>356.0</ele><time>2026-04-04T14:43:26.013Z</time></trkpt><trkpt lat="43.647245" lon="11.5519667"><ele>356.0</ele><time>2026-04-04T14:43:28.01Z</time></trkpt><trkpt lat="43.6472983" lon="11.5520133"><ele>356.0</ele><time>2026-04-04T14:43:29.015Z</time></trkpt><trkpt lat="43.64736" lon="11.5520583"><ele>356.0</ele><time>2026-04-04T14:43:30.011Z</time></trkpt><trkpt lat="43.64742" lon="11.55209"><ele>356.83333333333337</ele><time>2026-04-04T14:43:31.011Z</time></trkpt><trkpt lat="43.6474833" lon="11.5521217"><ele>357.6666666666667</ele><time>2026-04-04T14:43:32.013Z</time></trkpt><trkpt lat="43.6475517" lon="11.55217"><ele>358.5</ele><time>2026-04-04T14:43:33.011Z</time></trkpt><trkpt lat="43.6476183" lon="11.5522283"><ele>359.3333333333333</ele><time>2026-04-04T14:43:34.011Z</time></trkpt><trkpt lat="43.6476817" lon="11.5522883"><ele>360.16666666666663</ele><time>2026-04-04T14:43:35.011Z</time></trkpt><trkpt lat="43.647745" lon="11.5523467"><ele>361.0</ele><time>2026-04-04T14:43:36.011Z</time></trkpt><trkpt lat="43.6478117" lon="11.5524067"><ele>361.0</ele><time>2026-04-04T14:43:37.011Z</time></trkpt><trkpt lat="43.6478717" lon="11.55246"><ele>361.0</ele><time>2026-04-04T14:43:38.012Z</time></trkpt><trkpt lat="43.6479317" lon="11.5525183"><ele>361.0</ele><time>2026-04-04T14:43:39.01Z</time></trkpt><trkpt lat="43.64799" lon="11.552575"><ele>361.0</ele><time>2026-04-04T14:43:40.011Z</time></trkpt><trkpt lat="43.6480483" lon="11.5526333"><ele>361.0</ele><time>2026-04-04T14:43:41.012Z</time></trkpt><trkpt lat="43.6481083" lon="11.55269"><ele>361.0</ele><time>2026-04-04T14:43:42.012Z</time></trkpt><trkpt lat="43.6481633" lon="11.5527517"><ele>361.0</ele><time>2026-04-04T14:43:43.011Z</time></trkpt><trkpt lat="43.6482217" lon="11.5528167"><ele>364.8333333333333</ele><time>2026-04-04T14:43:44.011Z</time></trkpt><trkpt lat="43.6482883" lon="11.5528783"><ele>368.66666666666663</ele><time>2026-04-04T14:43:45.01Z</time></trkpt><trkpt lat="43.64835" lon="11.5529433"><ele>372.5</ele><time>2026-04-04T14:43:46.012Z</time></trkpt><trkpt lat="43.648415" lon="11.5530083"><ele>376.3333333333333</ele><time>2026-04-04T14:43:47.012Z</time></trkpt><trkpt lat="43.64848" lon="11.5530717"><ele>380.1666666666667</ele><time>2026-04-04T14:43:48.01Z</time></trkpt><trkpt lat="43.6485467" lon="11.5531317"><ele>384.0</ele><time>2026-04-04T14:43:49.011Z</time></trkpt><trkpt lat="43.6486133" lon="11.55319"><ele>381.5</ele><time>2026-04-04T14:43:50.011Z</time></trkpt><trkpt lat="43.6486833" lon="11.5532467"><ele>379.0</ele><time>2026-04-04T14:43:51.01Z</time></trkpt><trkpt lat="43.64875" lon="11.5533067"><ele>376.5</ele><time>2026-04-04T14:43:52.012Z</time></trkpt><trkpt lat="43.64882" lon="11.5533667"><ele>374.0</ele><time>2026-04-04T14:43:53.01Z</time></trkpt><trkpt lat="43.64889" lon="11.5534267"><ele>371.5</ele><time>2026-04-04T14:43:54.014Z</time></trkpt><trkpt lat="43.6489583" lon="11.55348"><ele>369.0</ele><time>2026-04-04T14:43:55.011Z</time></trkpt><trkpt lat="43.6490333" lon="11.5535217"><ele>369.0</ele><time>2026-04-04T14:43:56.011Z</time></trkpt><trkpt lat="43.6491133" lon="11.5535483"><ele>369.0</ele><time>2026-04-04T14:43:57.011Z</time></trkpt><trkpt lat="43.6491917" lon="11.5535433"><ele>369.0</ele><time>2026-04-04T14:43:58.01Z</time></trkpt><trkpt lat="43.6492633" lon="11.5535017"><ele>369.0</ele><time>2026-04-04T14:43:59.012Z</time></trkpt><trkpt lat="43.6493183" lon="11.5534383"><ele>369.0</ele><time>2026-04-04T14:44:00.01Z</time></trkpt><trkpt lat="43.6493583" lon="11.5533333"><ele>369.0</ele><time>2026-04-04T14:44:01.01Z</time></trkpt><trkpt lat="43.6494" lon="11.553235"><ele>369.0</ele><time>2026-04-04T14:44:02.011Z</time></trkpt><trkpt lat="43.6494417" lon="11.553135"><ele>369.0</ele><time>2026-04-04T14:44:03.01Z</time></trkpt><trkpt lat="43.6494767" lon="11.553035"><ele>369.0</ele><time>2026-04-04T14:44:04.015Z</time></trkpt><trkpt lat="43.6494917" lon="11.5529383"><ele>369.0</ele><time>2026-04-04T14:44:05.013Z</time></trkpt><trkpt lat="43.64948" lon="11.5528417"><ele>369.0</ele><time>2026-04-04T14:44:06.013Z</time></trkpt><trkpt lat="43.64946" lon="11.55275"><ele>369.0</ele><time>2026-04-04T14:44:07.01Z</time></trkpt><trkpt lat="43.64943" lon="11.55266"><ele>369.0</ele><time>2026-04-04T14:44:08.012Z</time></trkpt><trkpt lat="43.6493967" lon="11.5525717"><ele>368.85714285714283</ele><time>2026-04-04T14:44:09.01Z</time></trkpt><trkpt lat="43.6493633" lon="11.5524867"><ele>368.71428571428567</ele><time>2026-04-04T14:44:10.01Z</time></trkpt><trkpt lat="43.64933" lon="11.5523983"><ele>368.57142857142856</ele><time>2026-04-04T14:44:11.009Z</time></trkpt><trkpt lat="43.649295" lon="11.552315"><ele>368.42857142857144</ele><time>2026-04-04T14:44:12.01Z</time></trkpt><trkpt lat="43.6492583" lon="11.552225"><ele>368.2857142857143</ele><time>2026-04-04T14:44:13.01Z</time></trkpt><trkpt lat="43.6492217" lon="11.5521433"><ele>368.14285714285717</ele><time>2026-04-04T14:44:14.011Z</time></trkpt><trkpt lat="43.64918" lon="11.5520633"><ele>368.0</ele><time>2026-04-04T14:44:15.012Z</time></trkpt><trkpt lat="43.6491383" lon="11.551985"><ele>368.0</ele><time>2026-04-04T14:44:16.011Z</time></trkpt><trkpt lat="43.6490917" lon="11.55191"><ele>368.0</ele><time>2026-04-04T14:44:17.011Z</time></trkpt><trkpt lat="43.6490433" lon="11.5518383"><ele>368.0</ele><time>2026-04-04T14:44:18.01Z</time></trkpt><trkpt lat="43.6490017" lon="11.5517633"><ele>368.0</ele><time>2026-04-04T14:44:19.012Z</time></trkpt><trkpt lat="43.6489617" lon="11.5516867"><ele>368.0</ele><time>2026-04-04T14:44:20.011Z</time></trkpt><trkpt lat="43.6489283" lon="11.5516033"><ele>368.0</ele><time>2026-04-04T14:44:21.01Z</time></trkpt><trkpt lat="43.6489033" lon="11.551515"><ele>368.0</ele><time>2026-04-04T14:44:22.013Z</time></trkpt><trkpt lat="43.6488867" lon="11.5514267"><ele>368.0</ele><time>2026-04-04T14:44:23.012Z</time></trkpt><trkpt lat="43.6488717" lon="11.55133"><ele>368.0</ele><time>2026-04-04T14:44:24.011Z</time></trkpt><trkpt lat="43.6488567" lon="11.55123"><ele>368.0</ele><time>2026-04-04T14:44:25.011Z</time></trkpt><trkpt lat="43.648845" lon="11.5511333"><ele>368.0</ele><time>2026-04-04T14:44:26.011Z</time></trkpt><trkpt lat="43.648825" lon="11.5509633"><ele>368.0</ele><time>2026-04-04T14:44:28.012Z</time></trkpt><trkpt lat="43.6487983" lon="11.550795"><ele>368.5714285714286</ele><time>2026-04-04T14:44:30.011Z</time></trkpt><trkpt lat="43.6487833" lon="11.55071"><ele>369.1428571428571</ele><time>2026-04-04T14:44:31.012Z</time></trkpt><trkpt lat="43.648765" lon="11.550615"><ele>369.7142857142857</ele><time>2026-04-04T14:44:32.011Z</time></trkpt><trkpt lat="43.6487483" lon="11.550525"><ele>370.28571428571433</ele><time>2026-04-04T14:44:33.012Z</time></trkpt><trkpt lat="43.6487283" lon="11.5504317"><ele>370.8571428571429</ele><time>2026-04-04T14:44:34.012Z</time></trkpt><trkpt lat="43.6487083" lon="11.550335"><ele>371.42857142857144</ele><time>2026-04-04T14:44:35.011Z</time></trkpt><trkpt lat="43.6486883" lon="11.5502433"><ele>372.0</ele><time>2026-04-04T14:44:36.012Z</time></trkpt><trkpt lat="43.6486717" lon="11.55015"><ele>372.0</ele><time>2026-04-04T14:44:37.012Z</time></trkpt><trkpt lat="43.6486567" lon="11.5499717"><ele>372.0</ele><time>2026-04-04T14:44:39.011Z</time></trkpt><trkpt lat="43.6486533" lon="11.5498783"><ele>372.0</ele><time>2026-04-04T14:44:40.011Z</time></trkpt><trkpt lat="43.648665" lon="11.54969"><ele>372.0</ele><time>2026-04-04T14:44:42.011Z</time></trkpt><trkpt lat="43.6486783" lon="11.5495367"><ele>372.0</ele><time>2026-04-04T14:44:44.011Z</time></trkpt><trkpt lat="43.6486933" lon="11.54938"><ele>371.8</ele><time>2026-04-04T14:44:46.011Z</time></trkpt><trkpt lat="43.6487067" lon="11.54923"><ele>371.6</ele><time>2026-04-04T14:44:48.012Z</time></trkpt><trkpt lat="43.6487283" lon="11.54907"><ele>371.40000000000003</ele><time>2026-04-04T14:44:50.011Z</time></trkpt><trkpt lat="43.6487733" lon="11.5489317"><ele>371.20000000000005</ele><time>2026-04-04T14:44:52.011Z</time></trkpt><trkpt lat="43.6488333" lon="11.54881"><ele>371.0</ele><time>2026-04-04T14:44:54.01Z</time></trkpt><trkpt lat="43.648915" lon="11.54871"><ele>371.0</ele><time>2026-04-04T14:44:56.011Z</time></trkpt><trkpt lat="43.6490117" lon="11.5486567"><ele>371.0</ele><time>2026-04-04T14:44:58.014Z</time></trkpt><trkpt lat="43.649125" lon="11.5486283"><ele>371.0</ele><time>2026-04-04T14:45:00.012Z</time></trkpt><trkpt lat="43.6492433" lon="11.5486433"><ele>371.0</ele><time>2026-04-04T14:45:02.011Z</time></trkpt><trkpt lat="43.649305" lon="11.5486683"><ele>371.0</ele><time>2026-04-04T14:45:03.013Z</time></trkpt><trkpt lat="43.6494233" lon="11.54872"><ele>370.42857142857144</ele><time>2026-04-04T14:45:05.011Z</time></trkpt><trkpt lat="43.6494867" lon="11.5487467"><ele>369.8571428571429</ele><time>2026-04-04T14:45:06.011Z</time></trkpt><trkpt lat="43.6495517" lon="11.5487733"><ele>369.2857142857143</ele><time>2026-04-04T14:45:07.012Z</time></trkpt><trkpt lat="43.64962" lon="11.5487983"><ele>368.7142857142857</ele><time>2026-04-04T14:45:08.011Z</time></trkpt><trkpt lat="43.649685" lon="11.54883"><ele>368.14285714285717</ele><time>2026-04-04T14:45:09.011Z</time></trkpt><trkpt lat="43.6497533" lon="11.54887"><ele>367.57142857142856</ele><time>2026-04-04T14:45:10.012Z</time></trkpt><trkpt lat="43.64982" lon="11.5489133"><ele>367.0</ele><time>2026-04-04T14:45:11.011Z</time></trkpt><trkpt lat="43.649885" lon="11.5489583"><ele>367.0</ele><time>2026-04-04T14:45:12.012Z</time></trkpt><trkpt lat="43.649955" lon="11.549005"><ele>367.0</ele><time>2026-04-04T14:45:13.012Z</time></trkpt><trkpt lat="43.65003" lon="11.549055"><ele>367.0</ele><time>2026-04-04T14:45:14.013Z</time></trkpt><trkpt lat="43.6501033" lon="11.5491083"><ele>367.0</ele><time>2026-04-04T14:45:15.012Z</time></trkpt><trkpt lat="43.6501783" lon="11.5491633"><ele>367.0</ele><time>2026-04-04T14:45:16.012Z</time></trkpt><trkpt lat="43.6502517" lon="11.54922"><ele>367.0</ele><time>2026-04-04T14:45:17.013Z</time></trkpt><trkpt lat="43.650325" lon="11.5492783"><ele>366.0</ele><time>2026-04-04T14:45:18.012Z</time></trkpt><trkpt lat="43.6503967" lon="11.54934"><ele>365.0</ele><time>2026-04-04T14:45:19.011Z</time></trkpt><trkpt lat="43.650465" lon="11.5494033"><ele>364.0</ele><time>2026-04-04T14:45:20.011Z</time></trkpt><trkpt lat="43.6505333" lon="11.54947"><ele>363.0</ele><time>2026-04-04T14:45:21.011Z</time></trkpt><trkpt lat="43.6506033" lon="11.54953"><ele>362.0</ele><time>2026-04-04T14:45:22.011Z</time></trkpt><trkpt lat="43.6506817" lon="11.5495833"><ele>361.0</ele><time>2026-04-04T14:45:23.013Z</time></trkpt><trkpt lat="43.650775" lon="11.5496133"><ele>363.5</ele><time>2026-04-04T14:45:24.011Z</time></trkpt><trkpt lat="43.650865" lon="11.5496183"><ele>366.0</ele><time>2026-04-04T14:45:25.011Z</time></trkpt><trkpt lat="43.65095" lon="11.5496017"><ele>368.5</ele><time>2026-04-04T14:45:26.013Z</time></trkpt><trkpt lat="43.6510317" lon="11.549575"><ele>371.0</ele><time>2026-04-04T14:45:27.01Z</time></trkpt><trkpt lat="43.65111" lon="11.5495617"><ele>373.5</ele><time>2026-04-04T14:45:28.011Z</time></trkpt><trkpt lat="43.6511917" lon="11.5495617"><ele>376.0</ele><time>2026-04-04T14:45:29.015Z</time></trkpt><trkpt lat="43.6512683" lon="11.5495867"><ele>376.5</ele><time>2026-04-04T14:45:30.011Z</time></trkpt><trkpt lat="43.6513367" lon="11.549615"><ele>377.0</ele><time>2026-04-04T14:45:31.016Z</time></trkpt><trkpt lat="43.6514017" lon="11.549635"><ele>377.5</ele><time>2026-04-04T14:45:32.012Z</time></trkpt><trkpt lat="43.6514683" lon="11.549635"><ele>378.0</ele><time>2026-04-04T14:45:33.011Z</time></trkpt><trkpt lat="43.6515733" lon="11.5495633"><ele>378.5</ele><time>2026-04-04T14:45:35.011Z</time></trkpt><trkpt lat="43.651605" lon="11.5494017"><ele>379.0</ele><time>2026-04-04T14:45:37.011Z</time></trkpt><trkpt lat="43.6515883" lon="11.54931"><ele>378.00000000000006</ele><time>2026-04-04T14:45:38.014Z</time></trkpt><trkpt lat="43.6515683" lon="11.5492183"><ele>377.0</ele><time>2026-04-04T14:45:39.011Z</time></trkpt><trkpt lat="43.6515417" lon="11.54913"><ele>376.0</ele><time>2026-04-04T14:45:40.012Z</time></trkpt><trkpt lat="43.6515117" lon="11.5490433"><ele>375.0</ele><time>2026-04-04T14:45:41.011Z</time></trkpt><trkpt lat="43.6514817" lon="11.5489583"><ele>374.0</ele><time>2026-04-04T14:45:42.011Z</time></trkpt><trkpt lat="43.651455" lon="11.54887"><ele>373.00000000000006</ele><time>2026-04-04T14:45:43.011Z</time></trkpt><trkpt lat="43.65143" lon="11.5487817"><ele>372.0</ele><time>2026-04-04T14:45:44.011Z</time></trkpt><trkpt lat="43.6514117" lon="11.5486833"><ele>371.40000000000003</ele><time>2026-04-04T14:45:45.011Z</time></trkpt><trkpt lat="43.6513917" lon="11.5485933"><ele>370.8</ele><time>2026-04-04T14:45:46.013Z</time></trkpt><trkpt lat="43.6513783" lon="11.54842"><ele>370.2</ele><time>2026-04-04T14:45:48.011Z</time></trkpt><trkpt lat="43.6514233" lon="11.5482533"><ele>369.6</ele><time>2026-04-04T14:45:50.013Z</time></trkpt><trkpt lat="43.651475" lon="11.5481967"><ele>369.0</ele><time>2026-04-04T14:45:51.013Z</time></trkpt><trkpt lat="43.6515383" lon="11.548145"><ele>369.0</ele><time>2026-04-04T14:45:52.012Z</time></trkpt><trkpt lat="43.6516067" lon="11.548095"><ele>369.0</ele><time>2026-04-04T14:45:53.011Z</time></trkpt><trkpt lat="43.6516717" lon="11.54803"><ele>369.0</ele><time>2026-04-04T14:45:54.013Z</time></trkpt><trkpt lat="43.6517267" lon="11.5479517"><ele>369.0</ele><time>2026-04-04T14:45:55.011Z</time></trkpt><trkpt lat="43.6517667" lon="11.54786"><ele>369.0</ele><time>2026-04-04T14:45:56.012Z</time></trkpt><trkpt lat="43.6517967" lon="11.5477633"><ele>369.0</ele><time>2026-04-04T14:45:57.011Z</time></trkpt><trkpt lat="43.65182" lon="11.5476583"><ele>368.6666666666667</ele><time>2026-04-04T14:45:58.01Z</time></trkpt><trkpt lat="43.6518383" lon="11.54755"><ele>368.3333333333333</ele><time>2026-04-04T14:45:59.012Z</time></trkpt><trkpt lat="43.6518583" lon="11.5474383"><ele>368.0</ele><time>2026-04-04T14:46:00.009Z</time></trkpt><trkpt lat="43.6518833" lon="11.5473217"><ele>367.66666666666663</ele><time>2026-04-04T14:46:01.011Z</time></trkpt><trkpt lat="43.651915" lon="11.5472"><ele>367.3333333333333</ele><time>2026-04-04T14:46:02.013Z</time></trkpt><trkpt lat="43.6519567" lon="11.5470867"><ele>367.0</ele><time>2026-04-04T14:46:03.011Z</time></trkpt><trkpt lat="43.6520017" lon="11.5469683"><ele>367.0</ele><time>2026-04-04T14:46:04.01Z</time></trkpt><trkpt lat="43.6520483" lon="11.54685"><ele>367.0</ele><time>2026-04-04T14:46:05.012Z</time></trkpt><trkpt lat="43.6520717" lon="11.5467217"><ele>367.0</ele><time>2026-04-04T14:46:06.009Z</time></trkpt><trkpt lat="43.652085" lon="11.5465917"><ele>367.0</ele><time>2026-04-04T14:46:07.01Z</time></trkpt><trkpt lat="43.65209" lon="11.54646"><ele>367.0</ele><time>2026-04-04T14:46:08.012Z</time></trkpt><trkpt lat="43.6520933" lon="11.54633"><ele>365.40000000000003</ele><time>2026-04-04T14:46:09.011Z</time></trkpt><trkpt lat="43.652105" lon="11.546195"><ele>363.8</ele><time>2026-04-04T14:46:10.01Z</time></trkpt><trkpt lat="43.652125" lon="11.5460633"><ele>362.2</ele><time>2026-04-04T14:46:11.012Z</time></trkpt><trkpt lat="43.6521567" lon="11.54593"><ele>360.6</ele><time>2026-04-04T14:46:12.013Z</time></trkpt><trkpt lat="43.6522" lon="11.5458117"><ele>359.0</ele><time>2026-04-04T14:46:13.011Z</time></trkpt><trkpt lat="43.6522617" lon="11.5457083"><ele>359.0</ele><time>2026-04-04T14:46:14.013Z</time></trkpt><trkpt lat="43.6523367" lon="11.5456233"><ele>359.0</ele><time>2026-04-04T14:46:15.012Z</time></trkpt><trkpt lat="43.6524217" lon="11.5455567"><ele>359.0</ele><time>2026-04-04T14:46:16.011Z</time></trkpt><trkpt lat="43.652515" lon="11.54551"><ele>359.0</ele><time>2026-04-04T14:46:17.012Z</time></trkpt><trkpt lat="43.6526167" lon="11.54548"><ele>359.0</ele><time>2026-04-04T14:46:18.013Z</time></trkpt><trkpt lat="43.6527167" lon="11.545485"><ele>359.79999999999995</ele><time>2026-04-04T14:46:19.012Z</time></trkpt><trkpt lat="43.65281" lon="11.54553"><ele>360.59999999999997</ele><time>2026-04-04T14:46:20.011Z</time></trkpt><trkpt lat="43.6529017" lon="11.54559"><ele>361.4</ele><time>2026-04-04T14:46:21.011Z</time></trkpt><trkpt lat="43.652995" lon="11.5456333"><ele>362.2</ele><time>2026-04-04T14:46:22.013Z</time></trkpt><trkpt lat="43.6530917" lon="11.545645"><ele>363.0</ele><time>2026-04-04T14:46:23.01Z</time></trkpt><trkpt lat="43.6531867" lon="11.5456283"><ele>363.0</ele><time>2026-04-04T14:46:24.012Z</time></trkpt><trkpt lat="43.6532767" lon="11.5456017"><ele>363.0</ele><time>2026-04-04T14:46:25.011Z</time></trkpt><trkpt lat="43.653365" lon="11.5455767"><ele>363.0</ele><time>2026-04-04T14:46:26.014Z</time></trkpt><trkpt lat="43.6534533" lon="11.54555"><ele>363.0</ele><time>2026-04-04T14:46:27.013Z</time></trkpt><trkpt lat="43.6535317" lon="11.5455233"><ele>363.0</ele><time>2026-04-04T14:46:28.011Z</time></trkpt><trkpt lat="43.653605" lon="11.545495"><ele>363.0</ele><time>2026-04-04T14:46:29.013Z</time></trkpt><trkpt lat="43.653665" lon="11.545455"><ele>363.1428571428571</ele><time>2026-04-04T14:46:30.011Z</time></trkpt><trkpt lat="43.6537133" lon="11.54539"><ele>363.2857142857143</ele><time>2026-04-04T14:46:31.012Z</time></trkpt><trkpt lat="43.6537417" lon="11.5453017"><ele>363.42857142857144</ele><time>2026-04-04T14:46:32.012Z</time></trkpt><trkpt lat="43.6537467" lon="11.5452017"><ele>363.57142857142856</ele><time>2026-04-04T14:46:33.014Z</time></trkpt><trkpt lat="43.65374" lon="11.5450983"><ele>363.7142857142857</ele><time>2026-04-04T14:46:34.012Z</time></trkpt><trkpt lat="43.6537433" lon="11.544995"><ele>363.85714285714283</ele><time>2026-04-04T14:46:35.012Z</time></trkpt><trkpt lat="43.6537583" lon="11.544895"><ele>364.0</ele><time>2026-04-04T14:46:36.011Z</time></trkpt><trkpt lat="43.65379" lon="11.5448033"><ele>364.0</ele><time>2026-04-04T14:46:37.013Z</time></trkpt><trkpt lat="43.6538467" lon="11.54473"><ele>364.0</ele><time>2026-04-04T14:46:38.012Z</time></trkpt><trkpt lat="43.6539167" lon="11.5446833"><ele>364.0</ele><time>2026-04-04T14:46:39.013Z</time></trkpt><trkpt lat="43.6539933" lon="11.5446517"><ele>364.0</ele><time>2026-04-04T14:46:40.011Z</time></trkpt><trkpt lat="43.6540717" lon="11.5446133"><ele>364.0</ele><time>2026-04-04T14:46:41.011Z</time></trkpt><trkpt lat="43.654145" lon="11.5445533"><ele>364.0</ele><time>2026-04-04T14:46:42.012Z</time></trkpt><trkpt lat="43.6542033" lon="11.5444717"><ele>362.16666666666663</ele><time>2026-04-04T14:46:43.012Z</time></trkpt><trkpt lat="43.6542433" lon="11.5443717"><ele>360.3333333333333</ele><time>2026-04-04T14:46:44.013Z</time></trkpt><trkpt lat="43.6542517" lon="11.544255"><ele>358.5</ele><time>2026-04-04T14:46:45.012Z</time></trkpt><trkpt lat="43.6542467" lon="11.5441283"><ele>356.6666666666667</ele><time>2026-04-04T14:46:46.01Z</time></trkpt><trkpt lat="43.654245" lon="11.5440033"><ele>354.83333333333337</ele><time>2026-04-04T14:46:47.011Z</time></trkpt><trkpt lat="43.65426" lon="11.543875"><ele>353.0</ele><time>2026-04-04T14:46:48.011Z</time></trkpt><trkpt lat="43.6542917" lon="11.543755"><ele>354.2</ele><time>2026-04-04T14:46:49.011Z</time></trkpt><trkpt lat="43.654325" lon="11.5436533"><ele>355.4</ele><time>2026-04-04T14:46:50.011Z</time></trkpt><trkpt lat="43.6543667" lon="11.5435533"><ele>356.59999999999997</ele><time>2026-04-04T14:46:51.011Z</time></trkpt><trkpt lat="43.6544167" lon="11.543435"><ele>357.79999999999995</ele><time>2026-04-04T14:46:52.011Z</time></trkpt><trkpt lat="43.65447" lon="11.5433267"><ele>359.0</ele><time>2026-04-04T14:46:53.01Z</time></trkpt><trkpt lat="43.6545317" lon="11.5432317"><ele>359.0</ele><time>2026-04-04T14:46:54.012Z</time></trkpt><trkpt lat="43.6545983" lon="11.54314"><ele>359.0</ele><time>2026-04-04T14:46:55.01Z</time></trkpt><trkpt lat="43.6546733" lon="11.5430583"><ele>359.0</ele><time>2026-04-04T14:46:56.011Z</time></trkpt><trkpt lat="43.6547533" lon="11.5429833"><ele>359.0</ele><time>2026-04-04T14:46:57.013Z</time></trkpt><trkpt lat="43.65484" lon="11.5429167"><ele>359.0</ele><time>2026-04-04T14:46:58.011Z</time></trkpt><trkpt lat="43.6549333" lon="11.5428633"><ele>357.6</ele><time>2026-04-04T14:46:59.014Z</time></trkpt><trkpt lat="43.655035" lon="11.542845"><ele>356.2</ele><time>2026-04-04T14:47:00.011Z</time></trkpt><trkpt lat="43.6551317" lon="11.5428433"><ele>354.8</ele><time>2026-04-04T14:47:01.011Z</time></trkpt><trkpt lat="43.6552317" lon="11.5428383"><ele>353.40000000000003</ele><time>2026-04-04T14:47:02.012Z</time></trkpt><trkpt lat="43.6553233" lon="11.5428067"><ele>352.0</ele><time>2026-04-04T14:47:03.011Z</time></trkpt><trkpt lat="43.6554083" lon="11.5427417"><ele>352.0</ele><time>2026-04-04T14:47:04.011Z</time></trkpt><trkpt lat="43.65549" lon="11.5426583"><ele>352.0</ele><time>2026-04-04T14:47:05.012Z</time></trkpt><trkpt lat="43.6555567" lon="11.5425617"><ele>352.0</ele><time>2026-04-04T14:47:06.013Z</time></trkpt><trkpt lat="43.655615" lon="11.5424483"><ele>352.0</ele><time>2026-04-04T14:47:07.011Z</time></trkpt><trkpt lat="43.6556783" lon="11.5423383"><ele>352.0</ele><time>2026-04-04T14:47:08.011Z</time></trkpt><trkpt lat="43.655755" lon="11.5422333"><ele>352.0</ele><time>2026-04-04T14:47:09.013Z</time></trkpt><trkpt lat="43.6558433" lon="11.5421617"><ele>352.0</ele><time>2026-04-04T14:47:10.011Z</time></trkpt><trkpt lat="43.655935" lon="11.5421233"><ele>352.0</ele><time>2026-04-04T14:47:11.012Z</time></trkpt><trkpt lat="43.65602" lon="11.542125"><ele>352.0</ele><time>2026-04-04T14:47:12.013Z</time></trkpt><trkpt lat="43.656095" lon="11.5421667"><ele>352.0</ele><time>2026-04-04T14:47:13.013Z</time></trkpt><trkpt lat="43.6561533" lon="11.5422367"><ele>352.0</ele><time>2026-04-04T14:47:14.012Z</time></trkpt><trkpt lat="43.6561867" lon="11.5423383"><ele>350.66666666666663</ele><time>2026-04-04T14:47:15.012Z</time></trkpt><trkpt lat="43.6562067" lon="11.5424483"><ele>349.3333333333333</ele><time>2026-04-04T14:47:16.011Z</time></trkpt><trkpt lat="43.6562233" lon="11.5425633"><ele>348.0</ele><time>2026-04-04T14:47:17.013Z</time></trkpt><trkpt lat="43.6562383" lon="11.54267"><ele>346.6666666666667</ele><time>2026-04-04T14:47:18.011Z</time></trkpt><trkpt lat="43.656255" lon="11.5427867"><ele>345.33333333333337</ele><time>2026-04-04T14:47:19.012Z</time></trkpt><trkpt lat="43.65626" lon="11.5429033"><ele>344.0</ele><time>2026-04-04T14:47:20.011Z</time></trkpt><trkpt lat="43.65626" lon="11.5430233"><ele>344.0</ele><time>2026-04-04T14:47:21.014Z</time></trkpt><trkpt lat="43.6562517" lon="11.543145"><ele>344.0</ele><time>2026-04-04T14:47:22.012Z</time></trkpt><trkpt lat="43.656235" lon="11.543265"><ele>344.0</ele><time>2026-04-04T14:47:23.012Z</time></trkpt><trkpt lat="43.6562233" lon="11.5433867"><ele>344.0</ele><time>2026-04-04T14:47:24.011Z</time></trkpt><trkpt lat="43.6562233" lon="11.5435133"><ele>344.0</ele><time>2026-04-04T14:47:25.013Z</time></trkpt><trkpt lat="43.65624" lon="11.5436317"><ele>344.0</ele><time>2026-04-04T14:47:26.011Z</time></trkpt><trkpt lat="43.656275" lon="11.5437417"><ele>346.0</ele><time>2026-04-04T14:47:27.011Z</time></trkpt><trkpt lat="43.6563283" lon="11.5438467"><ele>348.0</ele><time>2026-04-04T14:47:28.012Z</time></trkpt><trkpt lat="43.6563867" lon="11.5439417"><ele>350.0</ele><time>2026-04-04T14:47:29.011Z</time></trkpt><trkpt lat="43.6564483" lon="11.5440333"><ele>352.0</ele><time>2026-04-04T14:47:30.011Z</time></trkpt><trkpt lat="43.656515" lon="11.54412"><ele>354.0</ele><time>2026-04-04T14:47:31.011Z</time></trkpt><trkpt lat="43.656585" lon="11.5442"><ele>354.0</ele><time>2026-04-04T14:47:32.011Z</time></trkpt><trkpt lat="43.6566583" lon="11.5442783"><ele>354.0</ele><time>2026-04-04T14:47:33.012Z</time></trkpt><trkpt lat="43.6567283" lon="11.54435"><ele>354.0</ele><time>2026-04-04T14:47:34.012Z</time></trkpt><trkpt lat="43.656805" lon="11.5444133"><ele>354.0</ele><time>2026-04-04T14:47:35.011Z</time></trkpt><trkpt lat="43.6568833" lon="11.5444667"><ele>354.0</ele><time>2026-04-04T14:47:36.013Z</time></trkpt><trkpt lat="43.6569633" lon="11.5445167"><ele>354.0</ele><time>2026-04-04T14:47:37.011Z</time></trkpt><trkpt lat="43.6570417" lon="11.5445583"><ele>355.3333333333333</ele><time>2026-04-04T14:47:38.011Z</time></trkpt><trkpt lat="43.6571117" lon="11.5445783"><ele>356.6666666666667</ele><time>2026-04-04T14:47:39.011Z</time></trkpt><trkpt lat="43.6571783" lon="11.54457"><ele>358.0</ele><time>2026-04-04T14:47:40.012Z</time></trkpt><trkpt lat="43.65724" lon="11.5445217"><ele>359.33333333333337</ele><time>2026-04-04T14:47:41.013Z</time></trkpt><trkpt lat="43.657285" lon="11.5444267"><ele>360.6666666666667</ele><time>2026-04-04T14:47:42.013Z</time></trkpt><trkpt lat="43.65732" lon="11.5443183"><ele>362.0</ele><time>2026-04-04T14:47:43.012Z</time></trkpt><trkpt lat="43.6573483" lon="11.5442033"><ele>362.0</ele><time>2026-04-04T14:47:44.013Z</time></trkpt><trkpt lat="43.657375" lon="11.5440917"><ele>362.0</ele><time>2026-04-04T14:47:45.012Z</time></trkpt><trkpt lat="43.6574017" lon="11.5439767"><ele>362.0</ele><time>2026-04-04T14:47:46.012Z</time></trkpt><trkpt lat="43.6574267" lon="11.5438583"><ele>362.0</ele><time>2026-04-04T14:47:47.012Z</time></trkpt><trkpt lat="43.6574433" lon="11.54374"><ele>362.0</ele><time>2026-04-04T14:47:48.014Z</time></trkpt><trkpt lat="43.6574467" lon="11.5436167"><ele>362.0</ele><time>2026-04-04T14:47:49.011Z</time></trkpt><trkpt lat="43.65745" lon="11.543495"><ele>360.5</ele><time>2026-04-04T14:47:50.012Z</time></trkpt><trkpt lat="43.65745" lon="11.5433783"><ele>359.0</ele><time>2026-04-04T14:47:51.011Z</time></trkpt><trkpt lat="43.6574367" lon="11.5432567"><ele>357.5</ele><time>2026-04-04T14:47:52.013Z</time></trkpt><trkpt lat="43.6574217" lon="11.5431367"><ele>356.0</ele><time>2026-04-04T14:47:53.011Z</time></trkpt><trkpt lat="43.65741" lon="11.5430133"><ele>354.5</ele><time>2026-04-04T14:47:54.013Z</time></trkpt><trkpt lat="43.6574083" lon="11.5428867"><ele>353.0</ele><time>2026-04-04T14:47:55.011Z</time></trkpt><trkpt lat="43.657415" lon="11.5427633"><ele>351.79999999999995</ele><time>2026-04-04T14:47:56.012Z</time></trkpt><trkpt lat="43.657425" lon="11.5426333"><ele>350.6</ele><time>2026-04-04T14:47:57.012Z</time></trkpt><trkpt lat="43.6574333" lon="11.5425067"><ele>349.4</ele><time>2026-04-04T14:47:58.012Z</time></trkpt><trkpt lat="43.6574533" lon="11.5423833"><ele>348.20000000000005</ele><time>2026-04-04T14:47:59.014Z</time></trkpt><trkpt lat="43.657485" lon="11.5422667"><ele>347.0</ele><time>2026-04-04T14:48:00.013Z</time></trkpt><trkpt lat="43.657525" lon="11.5421517"><ele>347.0</ele><time>2026-04-04T14:48:01.01Z</time></trkpt><trkpt lat="43.6575817" lon="11.54206"><ele>347.0</ele><time>2026-04-04T14:48:02.012Z</time></trkpt><trkpt lat="43.6576533" lon="11.5419967"><ele>347.0</ele><time>2026-04-04T14:48:03.011Z</time></trkpt><trkpt lat="43.65773" lon="11.54196"><ele>347.0</ele><time>2026-04-04T14:48:04.011Z</time></trkpt><trkpt lat="43.6578217" lon="11.5419317"><ele>347.0</ele><time>2026-04-04T14:48:05.013Z</time></trkpt><trkpt lat="43.657905" lon="11.5419283"><ele>347.0</ele><time>2026-04-04T14:48:06.011Z</time></trkpt><trkpt lat="43.65799" lon="11.5419317"><ele>346.1666666666667</ele><time>2026-04-04T14:48:07.011Z</time></trkpt><trkpt lat="43.6580783" lon="11.5419367"><ele>345.33333333333337</ele><time>2026-04-04T14:48:08.012Z</time></trkpt><trkpt lat="43.658165" lon="11.5419433"><ele>344.5</ele><time>2026-04-04T14:48:09.01Z</time></trkpt><trkpt lat="43.6582533" lon="11.5419417"><ele>343.6666666666667</ele><time>2026-04-04T14:48:10.012Z</time></trkpt><trkpt lat="43.65834" lon="11.5419367"><ele>342.8333333333333</ele><time>2026-04-04T14:48:11.012Z</time></trkpt><trkpt lat="43.6584267" lon="11.541925"><ele>342.0</ele><time>2026-04-04T14:48:12.013Z</time></trkpt><trkpt lat="43.6585117" lon="11.541915"><ele>342.0</ele><time>2026-04-04T14:48:13.014Z</time></trkpt><trkpt lat="43.6585967" lon="11.5419083"><ele>342.0</ele><time>2026-04-04T14:48:14.012Z</time></trkpt><trkpt lat="43.65868" lon="11.5419117"><ele>342.0</ele><time>2026-04-04T14:48:15.013Z</time></trkpt><trkpt lat="43.6587583" lon="11.5419267"><ele>342.0</ele><time>2026-04-04T14:48:16.011Z</time></trkpt><trkpt lat="43.658835" lon="11.54196"><ele>342.0</ele><time>2026-04-04T14:48:17.014Z</time></trkpt><trkpt lat="43.6588983" lon="11.5420133"><ele>342.0</ele><time>2026-04-04T14:48:18.011Z</time></trkpt><trkpt lat="43.6589467" lon="11.5420967"><ele>343.8333333333333</ele><time>2026-04-04T14:48:19.012Z</time></trkpt><trkpt lat="43.6589933" lon="11.5421767"><ele>345.6666666666667</ele><time>2026-04-04T14:48:20.013Z</time></trkpt><trkpt lat="43.65904" lon="11.5422633"><ele>347.5</ele><time>2026-04-04T14:48:21.011Z</time></trkpt><trkpt lat="43.65909" lon="11.54234"><ele>349.33333333333337</ele><time>2026-04-04T14:48:22.011Z</time></trkpt><trkpt lat="43.6591433" lon="11.542415"><ele>351.1666666666667</ele><time>2026-04-04T14:48:23.012Z</time></trkpt><trkpt lat="43.65921" lon="11.542485"><ele>353.0</ele><time>2026-04-04T14:48:24.014Z</time></trkpt><trkpt lat="43.65927" lon="11.5425517"><ele>353.0</ele><time>2026-04-04T14:48:25.012Z</time></trkpt><trkpt lat="43.659335" lon="11.5426133"><ele>353.0</ele><time>2026-04-04T14:48:26.014Z</time></trkpt><trkpt lat="43.6593983" lon="11.5426817"><ele>353.0</ele><time>2026-04-04T14:48:27.01Z</time></trkpt><trkpt lat="43.6594667" lon="11.5427583"><ele>353.0</ele><time>2026-04-04T14:48:28.013Z</time></trkpt><trkpt lat="43.6595283" lon="11.5428383"><ele>353.0</ele><time>2026-04-04T14:48:29.01Z</time></trkpt><trkpt lat="43.65959" lon="11.5429117"><ele>353.0</ele><time>2026-04-04T14:48:30.013Z</time></trkpt><trkpt lat="43.6596517" lon="11.542975"><ele>352.6666666666667</ele><time>2026-04-04T14:48:31.013Z</time></trkpt><trkpt lat="43.6597117" lon="11.5430233"><ele>352.33333333333337</ele><time>2026-04-04T14:48:32.012Z</time></trkpt><trkpt lat="43.65984" lon="11.5429883"><ele>352.0</ele><time>2026-04-04T14:48:34.012Z</time></trkpt><trkpt lat="43.6598833" lon="11.5429083"><ele>351.6666666666667</ele><time>2026-04-04T14:48:35.012Z</time></trkpt><trkpt lat="43.659905" lon="11.5427967"><ele>351.3333333333333</ele><time>2026-04-04T14:48:36.013Z</time></trkpt><trkpt lat="43.6599167" lon="11.5426833"><ele>351.0</ele><time>2026-04-04T14:48:37.011Z</time></trkpt><trkpt lat="43.6599117" lon="11.5425667"><ele>351.0</ele><time>2026-04-04T14:48:38.011Z</time></trkpt><trkpt lat="43.6599017" lon="11.5424467"><ele>351.0</ele><time>2026-04-04T14:48:39.012Z</time></trkpt><trkpt lat="43.6598917" lon="11.5423217"><ele>351.0</ele><time>2026-04-04T14:48:40.013Z</time></trkpt><trkpt lat="43.6598783" lon="11.5422"><ele>351.0</ele><time>2026-04-04T14:48:41.012Z</time></trkpt><trkpt lat="43.659875" lon="11.5420783"><ele>351.0</ele><time>2026-04-04T14:48:42.012Z</time></trkpt><trkpt lat="43.6598783" lon="11.5419533"><ele>351.0</ele><time>2026-04-04T14:48:43.014Z</time></trkpt><trkpt lat="43.6598817" lon="11.541835"><ele>350.0</ele><time>2026-04-04T14:48:44.012Z</time></trkpt><trkpt lat="43.6598833" lon="11.5417117"><ele>349.0</ele><time>2026-04-04T14:48:45.013Z</time></trkpt><trkpt lat="43.659885" lon="11.5415917"><ele>348.0</ele><time>2026-04-04T14:48:46.011Z</time></trkpt><trkpt lat="43.6598933" lon="11.54147"><ele>347.0</ele><time>2026-04-04T14:48:47.012Z</time></trkpt><trkpt lat="43.65991" lon="11.5413417"><ele>346.0</ele><time>2026-04-04T14:48:48.012Z</time></trkpt><trkpt lat="43.6599333" lon="11.54121"><ele>345.8</ele><time>2026-04-04T14:48:49.012Z</time></trkpt><trkpt lat="43.6599817" lon="11.541095"><ele>345.6</ele><time>2026-04-04T14:48:50.012Z</time></trkpt><trkpt lat="43.6600467" lon="11.54099"><ele>345.4</ele><time>2026-04-04T14:48:51.013Z</time></trkpt><trkpt lat="43.6601283" lon="11.5409083"><ele>345.2</ele><time>2026-04-04T14:48:52.013Z</time></trkpt><trkpt lat="43.6602117" lon="11.5408383"><ele>345.0</ele><time>2026-04-04T14:48:53.012Z</time></trkpt><trkpt lat="43.6602983" lon="11.540765"><ele>345.0</ele><time>2026-04-04T14:48:54.011Z</time></trkpt><trkpt lat="43.6603817" lon="11.5406883"><ele>345.0</ele><time>2026-04-04T14:48:55.013Z</time></trkpt><trkpt lat="43.6604667" lon="11.54061"><ele>345.0</ele><time>2026-04-04T14:48:56.014Z</time></trkpt><trkpt lat="43.6605517" lon="11.540535"><ele>345.0</ele><time>2026-04-04T14:48:57.013Z</time></trkpt><trkpt lat="43.6606383" lon="11.5404683"><ele>345.0</ele><time>2026-04-04T14:48:58.011Z</time></trkpt><trkpt lat="43.6607283" lon="11.5404183"><ele>345.0</ele><time>2026-04-04T14:48:59.013Z</time></trkpt><trkpt lat="43.6608217" lon="11.54041"><ele>345.0</ele><time>2026-04-04T14:49:00.011Z</time></trkpt><trkpt lat="43.660915" lon="11.540425"><ele>345.0</ele><time>2026-04-04T14:49:01.012Z</time></trkpt><trkpt lat="43.66101" lon="11.5404517"><ele>345.0</ele><time>2026-04-04T14:49:02.01Z</time></trkpt><trkpt lat="43.6611083" lon="11.5404867"><ele>345.0</ele><time>2026-04-04T14:49:03.013Z</time></trkpt><trkpt lat="43.66121" lon="11.5405183"><ele>344.6</ele><time>2026-04-04T14:49:04.011Z</time></trkpt><trkpt lat="43.6613167" lon="11.5405483"><ele>344.2</ele><time>2026-04-04T14:49:05.012Z</time></trkpt><trkpt lat="43.6614217" lon="11.5405817"><ele>343.79999999999995</ele><time>2026-04-04T14:49:06.011Z</time></trkpt><trkpt lat="43.6615267" lon="11.540615"><ele>343.4</ele><time>2026-04-04T14:49:07.012Z</time></trkpt><trkpt lat="43.6616333" lon="11.5406467"><ele>343.0</ele><time>2026-04-04T14:49:08.014Z</time></trkpt><trkpt lat="43.661735" lon="11.540695"><ele>343.0</ele><time>2026-04-04T14:49:09.012Z</time></trkpt><trkpt lat="43.66183" lon="11.5407667"><ele>343.0</ele><time>2026-04-04T14:49:10.011Z</time></trkpt><trkpt lat="43.6619133" lon="11.5408617"><ele>343.0</ele><time>2026-04-04T14:49:11.013Z</time></trkpt><trkpt lat="43.6619883" lon="11.5409617"><ele>343.0</ele><time>2026-04-04T14:49:12.011Z</time></trkpt><trkpt lat="43.6620667" lon="11.5410533"><ele>343.0</ele><time>2026-04-04T14:49:13.012Z</time></trkpt><trkpt lat="43.6621417" lon="11.5411433"><ele>344.3333333333333</ele><time>2026-04-04T14:49:14.012Z</time></trkpt><trkpt lat="43.662215" lon="11.5412233"><ele>345.66666666666663</ele><time>2026-04-04T14:49:15.011Z</time></trkpt><trkpt lat="43.6622833" lon="11.5412883"><ele>347.0</ele><time>2026-04-04T14:49:16.01Z</time></trkpt><trkpt lat="43.662355" lon="11.5413267"><ele>348.3333333333333</ele><time>2026-04-04T14:49:17.011Z</time></trkpt><trkpt lat="43.662425" lon="11.54134"><ele>349.6666666666667</ele><time>2026-04-04T14:49:18.011Z</time></trkpt><trkpt lat="43.6624917" lon="11.54132"><ele>351.0</ele><time>2026-04-04T14:49:19.015Z</time></trkpt><trkpt lat="43.6625483" lon="11.5412617"><ele>349.7142857142857</ele><time>2026-04-04T14:49:20.011Z</time></trkpt><trkpt lat="43.66259" lon="11.5411833"><ele>348.42857142857144</ele><time>2026-04-04T14:49:21.012Z</time></trkpt><trkpt lat="43.6626117" lon="11.5410883"><ele>347.1428571428571</ele><time>2026-04-04T14:49:22.009Z</time></trkpt><trkpt lat="43.6626117" lon="11.5409883"><ele>345.8571428571429</ele><time>2026-04-04T14:49:23.011Z</time></trkpt><trkpt lat="43.6625883" lon="11.5408933"><ele>344.57142857142856</ele><time>2026-04-04T14:49:24.009Z</time></trkpt><trkpt lat="43.6625567" lon="11.5408"><ele>343.2857142857143</ele><time>2026-04-04T14:49:25.012Z</time></trkpt><trkpt lat="43.6625233" lon="11.5407067"><ele>342.0</ele><time>2026-04-04T14:49:26.011Z</time></trkpt><trkpt lat="43.66249" lon="11.54061"><ele>342.0</ele><time>2026-04-04T14:49:27.011Z</time></trkpt><trkpt lat="43.6624633" lon="11.54051"><ele>342.0</ele><time>2026-04-04T14:49:28.01Z</time></trkpt><trkpt lat="43.6624433" lon="11.540405"><ele>342.0</ele><time>2026-04-04T14:49:29.013Z</time></trkpt><trkpt lat="43.6624283" lon="11.5402983"><ele>342.0</ele><time>2026-04-04T14:49:30.011Z</time></trkpt><trkpt lat="43.6624267" lon="11.5401917"><ele>342.0</ele><time>2026-04-04T14:49:31.011Z</time></trkpt><trkpt lat="43.6624367" lon="11.5400783"><ele>342.0</ele><time>2026-04-04T14:49:32.013Z</time></trkpt><trkpt lat="43.66246" lon="11.539975"><ele>341.3333333333333</ele><time>2026-04-04T14:49:33.01Z</time></trkpt><trkpt lat="43.6624967" lon="11.5398733"><ele>340.6666666666667</ele><time>2026-04-04T14:49:34.01Z</time></trkpt><trkpt lat="43.66254" lon="11.5397817"><ele>340.0</ele><time>2026-04-04T14:49:35.01Z</time></trkpt><trkpt lat="43.6625867" lon="11.5396883"><ele>339.33333333333337</ele><time>2026-04-04T14:49:36.011Z</time></trkpt><trkpt lat="43.6626383" lon="11.5395983"><ele>338.6666666666667</ele><time>2026-04-04T14:49:37.01Z</time></trkpt><trkpt lat="43.6626967" lon="11.5395083"><ele>338.0</ele><time>2026-04-04T14:49:38.011Z</time></trkpt><trkpt lat="43.6627517" lon="11.5394217"><ele>338.0</ele><time>2026-04-04T14:49:39.012Z</time></trkpt><trkpt lat="43.6628117" lon="11.5393417"><ele>338.0</ele><time>2026-04-04T14:49:40.012Z</time></trkpt><trkpt lat="43.662875" lon="11.539265"><ele>338.0</ele><time>2026-04-04T14:49:41.012Z</time></trkpt><trkpt lat="43.6629417" lon="11.539195"><ele>338.0</ele><time>2026-04-04T14:49:42.011Z</time></trkpt><trkpt lat="43.6630117" lon="11.539135"><ele>338.0</ele><time>2026-04-04T14:49:43.013Z</time></trkpt><trkpt lat="43.6630867" lon="11.539085"><ele>338.0</ele><time>2026-04-04T14:49:44.012Z</time></trkpt><trkpt lat="43.6631667" lon="11.53905"><ele>338.0</ele><time>2026-04-04T14:49:45.012Z</time></trkpt><trkpt lat="43.66325" lon="11.5390367"><ele>338.0</ele><time>2026-04-04T14:49:46.01Z</time></trkpt><trkpt lat="43.6633367" lon="11.539045"><ele>338.0</ele><time>2026-04-04T14:49:47.012Z</time></trkpt><trkpt lat="43.663425" lon="11.53907"><ele>338.0</ele><time>2026-04-04T14:49:48.012Z</time></trkpt><trkpt lat="43.663515" lon="11.5391067"><ele>338.0</ele><time>2026-04-04T14:49:49.01Z</time></trkpt><trkpt lat="43.6636" lon="11.5391583"><ele>338.0</ele><time>2026-04-04T14:49:50.011Z</time></trkpt><trkpt lat="43.6636883" lon="11.5392133"><ele>337.0</ele><time>2026-04-04T14:49:51.015Z</time></trkpt><trkpt lat="43.663775" lon="11.5392683"><ele>336.0</ele><time>2026-04-04T14:49:52.011Z</time></trkpt><trkpt lat="43.66386" lon="11.5393217"><ele>335.0</ele><time>2026-04-04T14:49:53.01Z</time></trkpt><trkpt lat="43.6639433" lon="11.5393733"><ele>334.0</ele><time>2026-04-04T14:49:54.012Z</time></trkpt><trkpt lat="43.6640267" lon="11.5394217"><ele>333.0</ele><time>2026-04-04T14:49:55.012Z</time></trkpt><trkpt lat="43.6641117" lon="11.5394583"><ele>333.0</ele><time>2026-04-04T14:49:56.013Z</time></trkpt><trkpt lat="43.664205" lon="11.539485"><ele>333.0</ele><time>2026-04-04T14:49:57.011Z</time></trkpt><trkpt lat="43.6642967" lon="11.5394783"><ele>333.0</ele><time>2026-04-04T14:49:58.01Z</time></trkpt><trkpt lat="43.664385" lon="11.5394467"><ele>333.0</ele><time>2026-04-04T14:49:59.012Z</time></trkpt><trkpt lat="43.66447" lon="11.5393767"><ele>333.0</ele><time>2026-04-04T14:50:00.01Z</time></trkpt><trkpt lat="43.6645333" lon="11.53928"><ele>333.79999999999995</ele><time>2026-04-04T14:50:01.012Z</time></trkpt><trkpt lat="43.664585" lon="11.539165"><ele>334.6</ele><time>2026-04-04T14:50:02.015Z</time></trkpt><trkpt lat="43.6646167" lon="11.5390467"><ele>335.4</ele><time>2026-04-04T14:50:03.011Z</time></trkpt><trkpt lat="43.66464" lon="11.5389233"><ele>336.20000000000005</ele><time>2026-04-04T14:50:04.012Z</time></trkpt><trkpt lat="43.6646533" lon="11.538795"><ele>337.0</ele><time>2026-04-04T14:50:05.01Z</time></trkpt><trkpt lat="43.6646617" lon="11.53866"><ele>337.0</ele><time>2026-04-04T14:50:06.01Z</time></trkpt><trkpt lat="43.6646717" lon="11.5385283"><ele>337.0</ele><time>2026-04-04T14:50:07.009Z</time></trkpt><trkpt lat="43.6646883" lon="11.5383983"><ele>337.0</ele><time>2026-04-04T14:50:08.012Z</time></trkpt><trkpt lat="43.664715" lon="11.538275"><ele>337.0</ele><time>2026-04-04T14:50:09.011Z</time></trkpt><trkpt lat="43.6647583" lon="11.5381633"><ele>337.0</ele><time>2026-04-04T14:50:10.01Z</time></trkpt><trkpt lat="43.6648167" lon="11.5380683"><ele>337.0</ele><time>2026-04-04T14:50:11.013Z</time></trkpt><trkpt lat="43.6648917" lon="11.5379983"><ele>337.0</ele><time>2026-04-04T14:50:12.009Z</time></trkpt><trkpt lat="43.6649683" lon="11.5379267"><ele>337.0</ele><time>2026-04-04T14:50:13.013Z</time></trkpt><trkpt lat="43.665035" lon="11.53784"><ele>337.0</ele><time>2026-04-04T14:50:14.011Z</time></trkpt><trkpt lat="43.665085" lon="11.5377333"><ele>337.0</ele><time>2026-04-04T14:50:15.011Z</time></trkpt><trkpt lat="43.6651117" lon="11.5376117"><ele>336.0</ele><time>2026-04-04T14:50:16.012Z</time></trkpt><trkpt lat="43.6651333" lon="11.537485"><ele>335.0</ele><time>2026-04-04T14:50:17.01Z</time></trkpt><trkpt lat="43.66515" lon="11.537355"><ele>334.0</ele><time>2026-04-04T14:50:18.013Z</time></trkpt><trkpt lat="43.6651783" lon="11.5372217"><ele>333.0</ele><time>2026-04-04T14:50:19.01Z</time></trkpt><trkpt lat="43.66522" lon="11.5371033"><ele>332.0</ele><time>2026-04-04T14:50:20.012Z</time></trkpt><trkpt lat="43.6652833" lon="11.537"><ele>332.0</ele><time>2026-04-04T14:50:21.01Z</time></trkpt><trkpt lat="43.6653617" lon="11.5369217"><ele>332.0</ele><time>2026-04-04T14:50:22.011Z</time></trkpt><trkpt lat="43.6654467" lon="11.53686"><ele>332.0</ele><time>2026-04-04T14:50:23.014Z</time></trkpt><trkpt lat="43.665535" lon="11.5368117"><ele>332.0</ele><time>2026-04-04T14:50:24.012Z</time></trkpt><trkpt lat="43.665625" lon="11.5367583"><ele>332.0</ele><time>2026-04-04T14:50:25.011Z</time></trkpt><trkpt lat="43.66571" lon="11.5367"><ele>332.0</ele><time>2026-04-04T14:50:26.013Z</time></trkpt><trkpt lat="43.66579" lon="11.53663"><ele>332.0</ele><time>2026-04-04T14:50:27.012Z</time></trkpt><trkpt lat="43.665865" lon="11.536545"><ele>332.0</ele><time>2026-04-04T14:50:28.011Z</time></trkpt><trkpt lat="43.665935" lon="11.5364533"><ele>332.0</ele><time>2026-04-04T14:50:29.012Z</time></trkpt><trkpt lat="43.6660033" lon="11.5363583"><ele>332.0</ele><time>2026-04-04T14:50:30.011Z</time></trkpt><trkpt lat="43.6660817" lon="11.5362867"><ele>334.20000000000005</ele><time>2026-04-04T14:50:31.011Z</time></trkpt><trkpt lat="43.666165" lon="11.5362567"><ele>336.4</ele><time>2026-04-04T14:50:32.012Z</time></trkpt><trkpt lat="43.66626" lon="11.5362533"><ele>338.6</ele><time>2026-04-04T14:50:33.011Z</time></trkpt><trkpt lat="43.6663633" lon="11.5362517"><ele>340.79999999999995</ele><time>2026-04-04T14:50:34.011Z</time></trkpt><trkpt lat="43.6664633" lon="11.5362467"><ele>343.0</ele><time>2026-04-04T14:50:35.01Z</time></trkpt><trkpt lat="43.6665583" lon="11.53622"><ele>340.2</ele><time>2026-04-04T14:50:36.012Z</time></trkpt><trkpt lat="43.6666433" lon="11.5361617"><ele>337.4</ele><time>2026-04-04T14:50:37.012Z</time></trkpt><trkpt lat="43.666715" lon="11.53608"><ele>334.59999999999997</ele><time>2026-04-04T14:50:38.011Z</time></trkpt><trkpt lat="43.6667767" lon="11.535985"><ele>331.79999999999995</ele><time>2026-04-04T14:50:39.012Z</time></trkpt><trkpt lat="43.6668367" lon="11.5358967"><ele>329.0</ele><time>2026-04-04T14:50:40.01Z</time></trkpt><trkpt lat="43.6669033" lon="11.5358067"><ele>329.79999999999995</ele><time>2026-04-04T14:50:41.01Z</time></trkpt><trkpt lat="43.6669833" lon="11.5357383"><ele>330.59999999999997</ele><time>2026-04-04T14:50:42.011Z</time></trkpt><trkpt lat="43.6670717" lon="11.5356983"><ele>331.4</ele><time>2026-04-04T14:50:43.01Z</time></trkpt><trkpt lat="43.6671617" lon="11.535675"><ele>332.2</ele><time>2026-04-04T14:50:44.011Z</time></trkpt><trkpt lat="43.6672517" lon="11.5356567"><ele>333.0</ele><time>2026-04-04T14:50:45.012Z</time></trkpt><trkpt lat="43.6673417" lon="11.5356333"><ele>333.0</ele><time>2026-04-04T14:50:46.012Z</time></trkpt><trkpt lat="43.66743" lon="11.5356217"><ele>333.0</ele><time>2026-04-04T14:50:47.01Z</time></trkpt><trkpt lat="43.66752" lon="11.5356233"><ele>333.0</ele><time>2026-04-04T14:50:48.012Z</time></trkpt><trkpt lat="43.6676167" lon="11.5356417"><ele>333.0</ele><time>2026-04-04T14:50:49.01Z</time></trkpt><trkpt lat="43.6677133" lon="11.5356667"><ele>333.0</ele><time>2026-04-04T14:50:50.012Z</time></trkpt><trkpt lat="43.6678033" lon="11.5357033"><ele>331.59999999999997</ele><time>2026-04-04T14:50:51.011Z</time></trkpt><trkpt lat="43.6678967" lon="11.5357267"><ele>330.2</ele><time>2026-04-04T14:50:52.011Z</time></trkpt><trkpt lat="43.6679933" lon="11.5357483"><ele>328.8</ele><time>2026-04-04T14:50:53.013Z</time></trkpt><trkpt lat="43.6680867" lon="11.535775"><ele>327.4</ele><time>2026-04-04T14:50:54.011Z</time></trkpt><trkpt lat="43.6681783" lon="11.5358133"><ele>326.0</ele><time>2026-04-04T14:50:55.011Z</time></trkpt><trkpt lat="43.66827" lon="11.5358733"><ele>326.0</ele><time>2026-04-04T14:50:56.013Z</time></trkpt><trkpt lat="43.66835" lon="11.5359417"><ele>326.0</ele><time>2026-04-04T14:50:57.013Z</time></trkpt><trkpt lat="43.668415" lon="11.5360383"><ele>326.0</ele><time>2026-04-04T14:50:58.011Z</time></trkpt><trkpt lat="43.6684767" lon="11.5361417"><ele>326.0</ele><time>2026-04-04T14:50:59.01Z</time></trkpt><trkpt lat="43.6685467" lon="11.5362383"><ele>326.0</ele><time>2026-04-04T14:51:00.011Z</time></trkpt><trkpt lat="43.6686283" lon="11.53631"><ele>328.0</ele><time>2026-04-04T14:51:01.012Z</time></trkpt><trkpt lat="43.6687217" lon="11.536355"><ele>330.0</ele><time>2026-04-04T14:51:02.013Z</time></trkpt><trkpt lat="43.6688183" lon="11.5363633"><ele>332.0</ele><time>2026-04-04T14:51:03.012Z</time></trkpt><trkpt lat="43.6689133" lon="11.536345"><ele>334.0</ele><time>2026-04-04T14:51:04.01Z</time></trkpt><trkpt lat="43.6690083" lon="11.5363367"><ele>336.0</ele><time>2026-04-04T14:51:05.011Z</time></trkpt><trkpt lat="43.6691033" lon="11.53634"><ele>336.0</ele><time>2026-04-04T14:51:06.012Z</time></trkpt><trkpt lat="43.6691967" lon="11.536375"><ele>336.0</ele><time>2026-04-04T14:51:07.011Z</time></trkpt><trkpt lat="43.669285" lon="11.5364267"><ele>336.0</ele><time>2026-04-04T14:51:08.013Z</time></trkpt><trkpt lat="43.6693667" lon="11.53649"><ele>336.0</ele><time>2026-04-04T14:51:09.011Z</time></trkpt><trkpt lat="43.6694483" lon="11.5365483"><ele>336.0</ele><time>2026-04-04T14:51:10.011Z</time></trkpt><trkpt lat="43.66953" lon="11.5366167"><ele>335.0</ele><time>2026-04-04T14:51:11.011Z</time></trkpt><trkpt lat="43.6696183" lon="11.5366833"><ele>334.0</ele><time>2026-04-04T14:51:12.011Z</time></trkpt><trkpt lat="43.6696967" lon="11.5367567"><ele>333.0</ele><time>2026-04-04T14:51:13.012Z</time></trkpt><trkpt lat="43.6697633" lon="11.53684"><ele>332.0</ele><time>2026-04-04T14:51:14.011Z</time></trkpt><trkpt lat="43.669825" lon="11.5369333"><ele>331.0</ele><time>2026-04-04T14:51:15.011Z</time></trkpt><trkpt lat="43.6698633" lon="11.5370567"><ele>331.0</ele><time>2026-04-04T14:51:16.012Z</time></trkpt><trkpt lat="43.669885" lon="11.5371833"><ele>331.0</ele><time>2026-04-04T14:51:17.011Z</time></trkpt><trkpt lat="43.669905" lon="11.5373367"><ele>331.0</ele><time>2026-04-04T14:51:18.011Z</time></trkpt><trkpt lat="43.6699333" lon="11.5374717"><ele>331.0</ele><time>2026-04-04T14:51:19.012Z</time></trkpt><trkpt lat="43.6699717" lon="11.5375917"><ele>331.0</ele><time>2026-04-04T14:51:20.014Z</time></trkpt><trkpt lat="43.670025" lon="11.5377"><ele>331.0</ele><time>2026-04-04T14:51:21.011Z</time></trkpt><trkpt lat="43.6700917" lon="11.5378"><ele>331.0</ele><time>2026-04-04T14:51:22.011Z</time></trkpt><trkpt lat="43.67015" lon="11.5378983"><ele>331.0</ele><time>2026-04-04T14:51:23.012Z</time></trkpt><trkpt lat="43.6702067" lon="11.5379917"><ele>331.0</ele><time>2026-04-04T14:51:24.012Z</time></trkpt><trkpt lat="43.67026" lon="11.5380783"><ele>331.0</ele><time>2026-04-04T14:51:25.013Z</time></trkpt><trkpt lat="43.67032" lon="11.5381567"><ele>331.0</ele><time>2026-04-04T14:51:26.011Z</time></trkpt><trkpt lat="43.67038" lon="11.5382467"><ele>331.0</ele><time>2026-04-04T14:51:27.01Z</time></trkpt><trkpt lat="43.6704417" lon="11.5383217"><ele>331.0</ele><time>2026-04-04T14:51:28.012Z</time></trkpt><trkpt lat="43.6705017" lon="11.5383917"><ele>331.0</ele><time>2026-04-04T14:51:29.012Z</time></trkpt><trkpt lat="43.6705633" lon="11.5384533"><ele>331.0</ele><time>2026-04-04T14:51:30.011Z</time></trkpt><trkpt lat="43.6706283" lon="11.5385167"><ele>331.0</ele><time>2026-04-04T14:51:31.011Z</time></trkpt><trkpt lat="43.6706917" lon="11.5385717"><ele>331.0</ele><time>2026-04-04T14:51:32.012Z</time></trkpt><trkpt lat="43.67075" lon="11.538625"><ele>331.0</ele><time>2026-04-04T14:51:33.011Z</time></trkpt><trkpt lat="43.6708033" lon="11.5386817"><ele>331.0</ele><time>2026-04-04T14:51:34.011Z</time></trkpt><trkpt lat="43.67086" lon="11.5387383"><ele>331.0</ele><time>2026-04-04T14:51:35.011Z</time></trkpt><trkpt lat="43.6709167" lon="11.5387933"><ele>331.0</ele><time>2026-04-04T14:51:36.011Z</time></trkpt><trkpt lat="43.6709817" lon="11.538835"><ele>331.0</ele><time>2026-04-04T14:51:37.011Z</time></trkpt><trkpt lat="43.671045" lon="11.5388533"><ele>331.0</ele><time>2026-04-04T14:51:38.011Z</time></trkpt><trkpt lat="43.67111" lon="11.53885"><ele>331.0</ele><time>2026-04-04T14:51:39.011Z</time></trkpt><trkpt lat="43.6711717" lon="11.538825"><ele>333.20000000000005</ele><time>2026-04-04T14:51:40.011Z</time></trkpt><trkpt lat="43.67126" lon="11.53871"><ele>335.40000000000003</ele><time>2026-04-04T14:51:42.011Z</time></trkpt><trkpt lat="43.6713083" lon="11.5385717"><ele>337.6</ele><time>2026-04-04T14:51:44.011Z</time></trkpt><trkpt lat="43.671325" lon="11.5384267"><ele>339.8</ele><time>2026-04-04T14:51:46.012Z</time></trkpt><trkpt lat="43.6713217" lon="11.5382983"><ele>342.0</ele><time>2026-04-04T14:51:48.011Z</time></trkpt><trkpt lat="43.6713183" lon="11.5381733"><ele>342.0</ele><time>2026-04-04T14:51:50.013Z</time></trkpt><trkpt lat="43.6713117" lon="11.5380467"><ele>342.0</ele><time>2026-04-04T14:51:52.012Z</time></trkpt><trkpt lat="43.671305" lon="11.5379083"><ele>342.0</ele><time>2026-04-04T14:51:54.011Z</time></trkpt><trkpt lat="43.67131" lon="11.5377733"><ele>342.0</ele><time>2026-04-04T14:51:56.012Z</time></trkpt><trkpt lat="43.6713183" lon="11.537635"><ele>342.0</ele><time>2026-04-04T14:51:58.01Z</time></trkpt><trkpt lat="43.67134" lon="11.5375033"><ele>342.40000000000003</ele><time>2026-04-04T14:52:00.012Z</time></trkpt><trkpt lat="43.671385" lon="11.5373717"><ele>342.8</ele><time>2026-04-04T14:52:02.011Z</time></trkpt><trkpt lat="43.6714517" lon="11.5372633"><ele>343.2</ele><time>2026-04-04T14:52:04.013Z</time></trkpt><trkpt lat="43.671505" lon="11.537165"><ele>343.6</ele><time>2026-04-04T14:52:06.012Z</time></trkpt><trkpt lat="43.6715317" lon="11.53704"><ele>344.0</ele><time>2026-04-04T14:52:08.01Z</time></trkpt><trkpt lat="43.67152" lon="11.5369233"><ele>344.0</ele><time>2026-04-04T14:52:10.012Z</time></trkpt><trkpt lat="43.6714633" lon="11.5368267"><ele>344.0</ele><time>2026-04-04T14:52:12.011Z</time></trkpt><trkpt lat="43.6713783" lon="11.53677"><ele>344.0</ele><time>2026-04-04T14:52:14.012Z</time></trkpt><trkpt lat="43.6712867" lon="11.536725"><ele>344.0</ele><time>2026-04-04T14:52:16.011Z</time></trkpt><trkpt lat="43.6712" lon="11.5366517"><ele>344.0</ele><time>2026-04-04T14:52:18.012Z</time></trkpt><trkpt lat="43.6711367" lon="11.5365533"><ele>341.4</ele><time>2026-04-04T14:52:20.012Z</time></trkpt><trkpt lat="43.671085" lon="11.536435"><ele>338.79999999999995</ele><time>2026-04-04T14:52:22.014Z</time></trkpt><trkpt lat="43.6710433" lon="11.5363217"><ele>336.20000000000005</ele><time>2026-04-04T14:52:24.012Z</time></trkpt><trkpt lat="43.671005" lon="11.5362"><ele>333.6</ele><time>2026-04-04T14:52:26.013Z</time></trkpt><trkpt lat="43.6709767" lon="11.5360883"><ele>331.0</ele><time>2026-04-04T14:52:28.009Z</time></trkpt><trkpt lat="43.6709517" lon="11.535945"><ele>331.0</ele><time>2026-04-04T14:52:30.011Z</time></trkpt><trkpt lat="43.6709417" lon="11.5358"><ele>331.0</ele><time>2026-04-04T14:52:32.01Z</time></trkpt><trkpt lat="43.67095" lon="11.5356483"><ele>331.0</ele><time>2026-04-04T14:52:34.008Z</time></trkpt><trkpt lat="43.67097" lon="11.535485"><ele>331.0</ele><time>2026-04-04T14:52:36.009Z</time></trkpt><trkpt lat="43.6710167" lon="11.5353267"><ele>330.8</ele><time>2026-04-04T14:52:38.012Z</time></trkpt><trkpt lat="43.6710833" lon="11.5351933"><ele>330.6</ele><time>2026-04-04T14:52:40.011Z</time></trkpt><trkpt lat="43.67115" lon="11.535075"><ele>330.4</ele><time>2026-04-04T14:52:42.014Z</time></trkpt><trkpt lat="43.67121" lon="11.53495"><ele>330.2</ele><time>2026-04-04T14:52:44.012Z</time></trkpt><trkpt lat="43.6712583" lon="11.5348133"><ele>330.0</ele><time>2026-04-04T14:52:46.011Z</time></trkpt><trkpt lat="43.6712917" lon="11.5346583"><ele>332.8</ele><time>2026-04-04T14:52:48.009Z</time></trkpt><trkpt lat="43.6713117" lon="11.5345033"><ele>335.6</ele><time>2026-04-04T14:52:50.011Z</time></trkpt><trkpt lat="43.6713317" lon="11.534365"><ele>338.4</ele><time>2026-04-04T14:52:52.011Z</time></trkpt><trkpt lat="43.6713583" lon="11.534225"><ele>341.2</ele><time>2026-04-04T14:52:54.011Z</time></trkpt><trkpt lat="43.6713933" lon="11.53408"><ele>344.0</ele><time>2026-04-04T14:52:56.012Z</time></trkpt><trkpt lat="43.6714533" lon="11.5339467"><ele>344.0</ele><time>2026-04-04T14:52:58.013Z</time></trkpt><trkpt lat="43.671535" lon="11.5338333"><ele>344.0</ele><time>2026-04-04T14:53:00.011Z</time></trkpt><trkpt lat="43.6716333" lon="11.53375"><ele>344.0</ele><time>2026-04-04T14:53:02.014Z</time></trkpt><trkpt lat="43.67174" lon="11.5336833"><ele>344.0</ele><time>2026-04-04T14:53:04.012Z</time></trkpt><trkpt lat="43.6718517" lon="11.533625"><ele>343.4</ele><time>2026-04-04T14:53:06.012Z</time></trkpt><trkpt lat="43.6719533" lon="11.533575"><ele>342.79999999999995</ele><time>2026-04-04T14:53:08.011Z</time></trkpt><trkpt lat="43.672055" lon="11.53352"><ele>342.20000000000005</ele><time>2026-04-04T14:53:10.009Z</time></trkpt><trkpt lat="43.672115" lon="11.533485"><ele>341.6</ele><time>2026-04-04T14:53:11.011Z</time></trkpt><trkpt lat="43.67222" lon="11.5334383"><ele>341.0</ele><time>2026-04-04T14:53:13.011Z</time></trkpt><trkpt lat="43.6723083" lon="11.5333867"><ele>341.0</ele><time>2026-04-04T14:53:15.012Z</time></trkpt><trkpt lat="43.6724" lon="11.53333"><ele>341.0</ele><time>2026-04-04T14:53:17.013Z</time></trkpt><trkpt lat="43.6724933" lon="11.5332867"><ele>341.0</ele><time>2026-04-04T14:53:19.012Z</time></trkpt><trkpt lat="43.67259" lon="11.5332467"><ele>341.0</ele><time>2026-04-04T14:53:21.014Z</time></trkpt><trkpt lat="43.67268" lon="11.5332083"><ele>341.0</ele><time>2026-04-04T14:53:23.011Z</time></trkpt><trkpt lat="43.6727667" lon="11.5331533"><ele>342.5</ele><time>2026-04-04T14:53:25.011Z</time></trkpt><trkpt lat="43.6728533" lon="11.5331133"><ele>344.0</ele><time>2026-04-04T14:53:27.012Z</time></trkpt><trkpt lat="43.6729367" lon="11.5330733"><ele>345.5</ele><time>2026-04-04T14:53:29.011Z</time></trkpt><trkpt lat="43.6730183" lon="11.53304"><ele>347.0</ele><time>2026-04-04T14:53:31.011Z</time></trkpt><trkpt lat="43.673095" lon="11.5330183"><ele>348.5</ele><time>2026-04-04T14:53:33.012Z</time></trkpt><trkpt lat="43.673175" lon="11.5329983"><ele>350.0</ele><time>2026-04-04T14:53:35.012Z</time></trkpt><trkpt lat="43.673265" lon="11.5329733"><ele>350.0</ele><time>2026-04-04T14:53:37.01Z</time></trkpt><trkpt lat="43.6733433" lon="11.5329633"><ele>350.0</ele><time>2026-04-04T14:53:39.012Z</time></trkpt><trkpt lat="43.6734267" lon="11.5329633"><ele>350.0</ele><time>2026-04-04T14:53:41.012Z</time></trkpt><trkpt lat="43.673505" lon="11.53297"><ele>350.0</ele><time>2026-04-04T14:53:43.01Z</time></trkpt><trkpt lat="43.6735833" lon="11.5329833"><ele>350.0</ele><time>2026-04-04T14:53:45.013Z</time></trkpt><trkpt lat="43.673655" lon="11.5329967"><ele>350.0</ele><time>2026-04-04T14:53:47.011Z</time></trkpt><trkpt lat="43.6737367" lon="11.533015"><ele>350.5</ele><time>2026-04-04T14:53:49.012Z</time></trkpt><trkpt lat="43.6738167" lon="11.5330317"><ele>351.0</ele><time>2026-04-04T14:53:51.012Z</time></trkpt><trkpt lat="43.6738967" lon="11.533055"><ele>351.5</ele><time>2026-04-04T14:53:53.011Z</time></trkpt><trkpt lat="43.6739717" lon="11.5330717"><ele>352.0</ele><time>2026-04-04T14:53:55.012Z</time></trkpt><trkpt lat="43.67405" lon="11.5330967"><ele>352.5</ele><time>2026-04-04T14:53:57.011Z</time></trkpt><trkpt lat="43.67413" lon="11.5331133"><ele>353.0</ele><time>2026-04-04T14:53:59.011Z</time></trkpt><trkpt lat="43.6742067" lon="11.5331333"><ele>353.0</ele><time>2026-04-04T14:54:01.011Z</time></trkpt><trkpt lat="43.67428" lon="11.5331567"><ele>353.0</ele><time>2026-04-04T14:54:03.011Z</time></trkpt><trkpt lat="43.674365" lon="11.5331817"><ele>353.0</ele><time>2026-04-04T14:54:05.012Z</time></trkpt><trkpt lat="43.6744467" lon="11.5332183"><ele>353.0</ele><time>2026-04-04T14:54:07.01Z</time></trkpt><trkpt lat="43.6745233" lon="11.5332583"><ele>353.0</ele><time>2026-04-04T14:54:09.012Z</time></trkpt><trkpt lat="43.6745933" lon="11.533305"><ele>353.0</ele><time>2026-04-04T14:54:11.012Z</time></trkpt><trkpt lat="43.674665" lon="11.5333617"><ele>352.83333333333337</ele><time>2026-04-04T14:54:13.012Z</time></trkpt><trkpt lat="43.6747333" lon="11.53342"><ele>352.6666666666667</ele><time>2026-04-04T14:54:15.011Z</time></trkpt><trkpt lat="43.6748067" lon="11.5334733"><ele>352.5</ele><time>2026-04-04T14:54:17.011Z</time></trkpt><trkpt lat="43.6748767" lon="11.5335283"><ele>352.3333333333333</ele><time>2026-04-04T14:54:19.011Z</time></trkpt><trkpt lat="43.6749567" lon="11.53358"><ele>352.16666666666663</ele><time>2026-04-04T14:54:21.014Z</time></trkpt><trkpt lat="43.6750383" lon="11.5336283"><ele>352.0</ele><time>2026-04-04T14:54:23.015Z</time></trkpt><trkpt lat="43.6751217" lon="11.5336717"><ele>352.0</ele><time>2026-04-04T14:54:25.015Z</time></trkpt><trkpt lat="43.6752033" lon="11.5336967"><ele>352.0</ele><time>2026-04-04T14:54:27.011Z</time></trkpt><trkpt lat="43.67529" lon="11.5337067"><ele>352.0</ele><time>2026-04-04T14:54:29.01Z</time></trkpt><trkpt lat="43.6753767" lon="11.5336933"><ele>352.0</ele><time>2026-04-04T14:54:31.011Z</time></trkpt><trkpt lat="43.6754683" lon="11.533625"><ele>352.0</ele><time>2026-04-04T14:54:33.011Z</time></trkpt><trkpt lat="43.67553" lon="11.53351"><ele>351.0</ele><time>2026-04-04T14:54:35.013Z</time></trkpt><trkpt lat="43.6755467" lon="11.5333617"><ele>350.0</ele><time>2026-04-04T14:54:37.012Z</time></trkpt><trkpt lat="43.6755283" lon="11.5332183"><ele>349.0</ele><time>2026-04-04T14:54:39.011Z</time></trkpt><trkpt lat="43.675505" lon="11.5330767"><ele>348.0</ele><time>2026-04-04T14:54:41.014Z</time></trkpt><trkpt lat="43.6755" lon="11.5329283"><ele>347.0</ele><time>2026-04-04T14:54:43.011Z</time></trkpt><trkpt lat="43.6755267" lon="11.5328"><ele>347.0</ele><time>2026-04-04T14:54:45.011Z</time></trkpt><trkpt lat="43.6755833" lon="11.5326917"><ele>347.0</ele><time>2026-04-04T14:54:47.012Z</time></trkpt><trkpt lat="43.6756733" lon="11.532645"><ele>347.0</ele><time>2026-04-04T14:54:49.011Z</time></trkpt><trkpt lat="43.6757733" lon="11.5326317"><ele>347.0</ele><time>2026-04-04T14:54:51.012Z</time></trkpt><trkpt lat="43.6758883" lon="11.5326683"><ele>347.0</ele><time>2026-04-04T14:54:53.013Z</time></trkpt><trkpt lat="43.6759783" lon="11.5326917"><ele>347.0</ele><time>2026-04-04T14:54:55.011Z</time></trkpt><trkpt lat="43.6760733" lon="11.5327433"><ele>347.0</ele><time>2026-04-04T14:54:57.013Z</time></trkpt><trkpt lat="43.676175" lon="11.5328"><ele>347.0</ele><time>2026-04-04T14:54:59.011Z</time></trkpt><trkpt lat="43.6762633" lon="11.532845"><ele>347.0</ele><time>2026-04-04T14:55:01.012Z</time></trkpt><trkpt lat="43.6763533" lon="11.5329267"><ele>347.0</ele><time>2026-04-04T14:55:03.012Z</time></trkpt><trkpt lat="43.6764267" lon="11.5329967"><ele>350.33333333333337</ele><time>2026-04-04T14:55:05.013Z</time></trkpt><trkpt lat="43.6765067" lon="11.5330617"><ele>353.6666666666667</ele><time>2026-04-04T14:55:07.013Z</time></trkpt><trkpt lat="43.6765867" lon="11.5331233"><ele>357.0</ele><time>2026-04-04T14:55:09.012Z</time></trkpt><trkpt lat="43.6766617" lon="11.5331817"><ele>360.3333333333333</ele><time>2026-04-04T14:55:11.011Z</time></trkpt><trkpt lat="43.6767333" lon="11.5332433"><ele>363.66666666666663</ele><time>2026-04-04T14:55:13.014Z</time></trkpt><trkpt lat="43.6768133" lon="11.5333017"><ele>367.0</ele><time>2026-04-04T14:55:15.013Z</time></trkpt><trkpt lat="43.6769033" lon="11.53338"><ele>365.5</ele><time>2026-04-04T14:55:17.01Z</time></trkpt><trkpt lat="43.6769783" lon="11.53343"><ele>364.0</ele><time>2026-04-04T14:55:19.012Z</time></trkpt><trkpt lat="43.6770633" lon="11.533495"><ele>362.5</ele><time>2026-04-04T14:55:21.013Z</time></trkpt><trkpt lat="43.677135" lon="11.5335483"><ele>361.0</ele><time>2026-04-04T14:55:23.011Z</time></trkpt><trkpt lat="43.6772117" lon="11.53361"><ele>359.5</ele><time>2026-04-04T14:55:25.012Z</time></trkpt><trkpt lat="43.67729" lon="11.53367"><ele>358.0</ele><time>2026-04-04T14:55:27.012Z</time></trkpt><trkpt lat="43.6773633" lon="11.533735"><ele>359.5</ele><time>2026-04-04T14:55:29.011Z</time></trkpt><trkpt lat="43.6774417" lon="11.5338033"><ele>361.0</ele><time>2026-04-04T14:55:31.011Z</time></trkpt><trkpt lat="43.6775183" lon="11.5338583"><ele>362.5</ele><time>2026-04-04T14:55:33.012Z</time></trkpt><trkpt lat="43.6776" lon="11.5339017"><ele>364.0</ele><time>2026-04-04T14:55:35.013Z</time></trkpt><trkpt lat="43.6776767" lon="11.5339467"><ele>365.5</ele><time>2026-04-04T14:55:37.012Z</time></trkpt><trkpt lat="43.6777567" lon="11.5339967"><ele>367.0</ele><time>2026-04-04T14:55:39.011Z</time></trkpt><trkpt lat="43.6778433" lon="11.5340567"><ele>367.0</ele><time>2026-04-04T14:55:41.013Z</time></trkpt><trkpt lat="43.6779133" lon="11.5341167"><ele>367.0</ele><time>2026-04-04T14:55:43.011Z</time></trkpt><trkpt lat="43.6779867" lon="11.534175"><ele>367.0</ele><time>2026-04-04T14:55:45.01Z</time></trkpt><trkpt lat="43.6780667" lon="11.5342517"><ele>367.0</ele><time>2026-04-04T14:55:47.013Z</time></trkpt><trkpt lat="43.6781367" lon="11.534305"><ele>367.0</ele><time>2026-04-04T14:55:49.011Z</time></trkpt><trkpt lat="43.6782083" lon="11.534355"><ele>367.0</ele><time>2026-04-04T14:55:51.013Z</time></trkpt><trkpt lat="43.678285" lon="11.5344083"><ele>367.0</ele><time>2026-04-04T14:55:53.011Z</time></trkpt><trkpt lat="43.6783583" lon="11.534475"><ele>367.0</ele><time>2026-04-04T14:55:55.012Z</time></trkpt><trkpt lat="43.6784267" lon="11.53452"><ele>367.0</ele><time>2026-04-04T14:55:57.011Z</time></trkpt><trkpt lat="43.6785" lon="11.5345617"><ele>367.0</ele><time>2026-04-04T14:55:59.012Z</time></trkpt><trkpt lat="43.6785733" lon="11.534605"><ele>367.0</ele><time>2026-04-04T14:56:01.01Z</time></trkpt><trkpt lat="43.6786467" lon="11.5346467"><ele>367.0</ele><time>2026-04-04T14:56:03.009Z</time></trkpt><trkpt lat="43.6787417" lon="11.534695"><ele>368.3333333333333</ele><time>2026-04-04T14:56:06.011Z</time></trkpt><trkpt lat="43.678815" lon="11.5347283"><ele>369.66666666666663</ele><time>2026-04-04T14:56:08.011Z</time></trkpt><trkpt lat="43.67888" lon="11.534785"><ele>371.0</ele><time>2026-04-04T14:56:10.008Z</time></trkpt><trkpt lat="43.6789367" lon="11.5348467"><ele>372.3333333333333</ele><time>2026-04-04T14:56:12.01Z</time></trkpt><trkpt lat="43.679" lon="11.5349083"><ele>373.6666666666667</ele><time>2026-04-04T14:56:14.011Z</time></trkpt><trkpt lat="43.6790733" lon="11.5349733"><ele>375.0</ele><time>2026-04-04T14:56:16.009Z</time></trkpt><trkpt lat="43.6791433" lon="11.5350583"><ele>375.0</ele><time>2026-04-04T14:56:18.011Z</time></trkpt><trkpt lat="43.679215" lon="11.53515"><ele>375.0</ele><time>2026-04-04T14:56:20.01Z</time></trkpt><trkpt lat="43.6792983" lon="11.5352333"><ele>375.0</ele><time>2026-04-04T14:56:22.011Z</time></trkpt><trkpt lat="43.67937" lon="11.535325"><ele>375.0</ele><time>2026-04-04T14:56:24.011Z</time></trkpt><trkpt lat="43.6794483" lon="11.5353933"><ele>375.0</ele><time>2026-04-04T14:56:26.011Z</time></trkpt><trkpt lat="43.6795283" lon="11.535445"><ele>376.6666666666667</ele><time>2026-04-04T14:56:28.01Z</time></trkpt><trkpt lat="43.6796083" lon="11.535495"><ele>378.33333333333337</ele><time>2026-04-04T14:56:30.011Z</time></trkpt><trkpt lat="43.67969" lon="11.53552"><ele>380.0</ele><time>2026-04-04T14:56:32.009Z</time></trkpt><trkpt lat="43.6797717" lon="11.5355383"><ele>381.6666666666667</ele><time>2026-04-04T14:56:34.01Z</time></trkpt><trkpt lat="43.6798633" lon="11.5355567"><ele>383.33333333333337</ele><time>2026-04-04T14:56:36.009Z</time></trkpt><trkpt lat="43.6799467" lon="11.5355717"><ele>385.0</ele><time>2026-04-04T14:56:38.011Z</time></trkpt><trkpt lat="43.6800267" lon="11.535585"><ele>385.00000000000006</ele><time>2026-04-04T14:56:40.01Z</time></trkpt><trkpt lat="43.6801" lon="11.535595"><ele>385.0</ele><time>2026-04-04T14:56:42.01Z</time></trkpt><trkpt lat="43.6801783" lon="11.5356233"><ele>385.0</ele><time>2026-04-04T14:56:44.011Z</time></trkpt><trkpt lat="43.6802583" lon="11.535645"><ele>385.0</ele><time>2026-04-04T14:56:46.01Z</time></trkpt><trkpt lat="43.6803367" lon="11.5356783"><ele>385.00000000000006</ele><time>2026-04-04T14:56:48.011Z</time></trkpt><trkpt lat="43.680415" lon="11.53571"><ele>385.0</ele><time>2026-04-04T14:56:50.01Z</time></trkpt><trkpt lat="43.6805017" lon="11.5357567"><ele>384.33333333333337</ele><time>2026-04-04T14:56:52.009Z</time></trkpt><trkpt lat="43.680575" lon="11.5358217"><ele>383.6666666666667</ele><time>2026-04-04T14:56:54.012Z</time></trkpt><trkpt lat="43.680645" lon="11.5358867"><ele>383.0</ele><time>2026-04-04T14:56:56.011Z</time></trkpt><trkpt lat="43.6807167" lon="11.5359533"><ele>382.33333333333337</ele><time>2026-04-04T14:56:58.01Z</time></trkpt><trkpt lat="43.680795" lon="11.5360283"><ele>381.6666666666667</ele><time>2026-04-04T14:57:00.01Z</time></trkpt><trkpt lat="43.6808667" lon="11.53611"><ele>381.0</ele><time>2026-04-04T14:57:02.011Z</time></trkpt><trkpt lat="43.6809233" lon="11.536185"><ele>382.2857142857143</ele><time>2026-04-04T14:57:04.011Z</time></trkpt><trkpt lat="43.68098" lon="11.536245"><ele>383.5714285714286</ele><time>2026-04-04T14:57:06.011Z</time></trkpt><trkpt lat="43.6810367" lon="11.5362933"><ele>384.8571428571429</ele><time>2026-04-04T14:57:08.011Z</time></trkpt><trkpt lat="43.6810867" lon="11.5363517"><ele>386.1428571428571</ele><time>2026-04-04T14:57:10.011Z</time></trkpt><trkpt lat="43.68115" lon="11.536435"><ele>387.42857142857144</ele><time>2026-04-04T14:57:13.011Z</time></trkpt><trkpt lat="43.6812017" lon="11.536495"><ele>388.7142857142857</ele><time>2026-04-04T14:57:15.011Z</time></trkpt><trkpt lat="43.681245" lon="11.5365733"><ele>390.0</ele><time>2026-04-04T14:57:17.011Z</time></trkpt><trkpt lat="43.6812883" lon="11.5366533"><ele>390.0</ele><time>2026-04-04T14:57:19.01Z</time></trkpt><trkpt lat="43.6813467" lon="11.53676"><ele>390.0</ele><time>2026-04-04T14:57:21.01Z</time></trkpt><trkpt lat="43.681375" lon="11.5368383"><ele>390.0</ele><time>2026-04-04T14:57:23.011Z</time></trkpt><trkpt lat="43.6814117" lon="11.5369417"><ele>390.0</ele><time>2026-04-04T14:57:25.012Z</time></trkpt><trkpt lat="43.68145" lon="11.537045"><ele>390.0</ele><time>2026-04-04T14:57:28.011Z</time></trkpt><trkpt lat="43.681515" lon="11.5371517"><ele>390.0</ele><time>2026-04-04T14:57:30.011Z</time></trkpt><trkpt lat="43.6815083" lon="11.5370633"><ele>390.0</ele><time>2026-04-04T14:58:20.011Z</time></trkpt><trkpt lat="43.6815667" lon="11.53699"><ele>390.0</ele><time>2026-04-04T14:58:23.011Z</time></trkpt><trkpt lat="43.6816233" lon="11.5369333"><ele>390.0</ele><time>2026-04-04T14:58:25.01Z</time></trkpt><trkpt lat="43.6816867" lon="11.5368767"><ele>390.0</ele><time>2026-04-04T14:58:27.01Z</time></trkpt><trkpt lat="43.6817583" lon="11.5368167"><ele>390.0</ele><time>2026-04-04T14:58:29.01Z</time></trkpt><trkpt lat="43.6818333" lon="11.5367533"><ele>390.0</ele><time>2026-04-04T14:58:31.009Z</time></trkpt><trkpt lat="43.681885" lon="11.5367017"><ele>390.8</ele><time>2026-04-04T14:58:33.013Z</time></trkpt><trkpt lat="43.6819333" lon="11.5366367"><ele>391.6</ele><time>2026-04-04T14:58:35.01Z</time></trkpt><trkpt lat="43.6820117" lon="11.5365533"><ele>392.4</ele><time>2026-04-04T14:58:37.01Z</time></trkpt><trkpt lat="43.6821033" lon="11.5364617"><ele>393.2</ele><time>2026-04-04T14:58:39.009Z</time></trkpt><trkpt lat="43.6821983" lon="11.536375"><ele>394.0</ele><time>2026-04-04T14:58:41.01Z</time></trkpt><trkpt lat="43.6822833" lon="11.5362783"><ele>394.1666666666667</ele><time>2026-04-04T14:58:43.01Z</time></trkpt><trkpt lat="43.6823767" lon="11.5362017"><ele>394.33333333333337</ele><time>2026-04-04T14:58:45.01Z</time></trkpt><trkpt lat="43.68247" lon="11.5361317"><ele>394.5</ele><time>2026-04-04T14:58:47.01Z</time></trkpt><trkpt lat="43.6825383" lon="11.5360733"><ele>394.66666666666663</ele><time>2026-04-04T14:58:49.011Z</time></trkpt><trkpt lat="43.6825883" lon="11.5360117"><ele>394.8333333333333</ele><time>2026-04-04T14:58:51.01Z</time></trkpt><trkpt lat="43.6826017" lon="11.5359083"><ele>395.0</ele><time>2026-04-04T14:58:53.011Z</time></trkpt><trkpt lat="43.68259" lon="11.53579"><ele>394.99999999999994</ele><time>2026-04-04T14:58:55.011Z</time></trkpt><trkpt lat="43.6825733" lon="11.5356783"><ele>395.0</ele><time>2026-04-04T14:58:58.01Z</time></trkpt><trkpt lat="43.68256" lon="11.53559"><ele>395.0</ele><time>2026-04-04T14:59:22.012Z</time></trkpt><trkpt lat="43.6825417" lon="11.535485"><ele>395.0</ele><time>2026-04-04T14:59:25.012Z</time></trkpt><trkpt lat="43.6825317" lon="11.535375"><ele>394.99999999999994</ele><time>2026-04-04T14:59:27.011Z</time></trkpt><trkpt lat="43.6825233" lon="11.5352567"><ele>395.0</ele><time>2026-04-04T14:59:29.014Z</time></trkpt><trkpt lat="43.68251" lon="11.5351183"><ele>395.2</ele><time>2026-04-04T14:59:31.011Z</time></trkpt><trkpt lat="43.6825" lon="11.5349583"><ele>395.4</ele><time>2026-04-04T14:59:33.011Z</time></trkpt><trkpt lat="43.6824883" lon="11.53487"><ele>395.6</ele><time>2026-04-04T14:59:34.012Z</time></trkpt><trkpt lat="43.6824667" lon="11.5347217"><ele>395.8</ele><time>2026-04-04T14:59:36.013Z</time></trkpt><trkpt lat="43.682445" lon="11.5345817"><ele>396.0</ele><time>2026-04-04T14:59:38.013Z</time></trkpt><trkpt lat="43.68244" lon="11.5344167"><ele>395.0</ele><time>2026-04-04T14:59:40.014Z</time></trkpt><trkpt lat="43.6824433" lon="11.5342983"><ele>394.0</ele><time>2026-04-04T14:59:42.014Z</time></trkpt><trkpt lat="43.6824383" lon="11.53417"><ele>393.0</ele><time>2026-04-04T14:59:44.012Z</time></trkpt><trkpt lat="43.682425" lon="11.534005"><ele>392.0</ele><time>2026-04-04T14:59:46.011Z</time></trkpt><trkpt lat="43.6824167" lon="11.5339117"><ele>391.0</ele><time>2026-04-04T14:59:47.014Z</time></trkpt><trkpt lat="43.6824133" lon="11.53381"><ele>390.0</ele><time>2026-04-04T14:59:48.012Z</time></trkpt><trkpt lat="43.6824083" lon="11.533705"><ele>389.5</ele><time>2026-04-04T14:59:49.012Z</time></trkpt><trkpt lat="43.6824017" lon="11.5335933"><ele>389.0</ele><time>2026-04-04T14:59:50.013Z</time></trkpt><trkpt lat="43.6823933" lon="11.53347"><ele>388.5</ele><time>2026-04-04T14:59:51.012Z</time></trkpt><trkpt lat="43.6823817" lon="11.5333467"><ele>388.0</ele><time>2026-04-04T14:59:52.012Z</time></trkpt><trkpt lat="43.6823733" lon="11.5332217"><ele>387.5</ele><time>2026-04-04T14:59:53.014Z</time></trkpt><trkpt lat="43.682365" lon="11.5330917"><ele>387.0</ele><time>2026-04-04T14:59:54.014Z</time></trkpt><trkpt lat="43.6823617" lon="11.5329533"><ele>386.40000000000003</ele><time>2026-04-04T14:59:55.013Z</time></trkpt><trkpt lat="43.6823583" lon="11.5328117"><ele>385.8</ele><time>2026-04-04T14:59:56.012Z</time></trkpt><trkpt lat="43.68235" lon="11.5326767"><ele>385.2</ele><time>2026-04-04T14:59:57.011Z</time></trkpt><trkpt lat="43.6823417" lon="11.5325333"><ele>384.6</ele><time>2026-04-04T14:59:58.014Z</time></trkpt><trkpt lat="43.6823333" lon="11.5323783"><ele>384.0</ele><time>2026-04-04T14:59:59.011Z</time></trkpt><trkpt lat="43.682325" lon="11.532225"><ele>384.0</ele><time>2026-04-04T15:00:00.013Z</time></trkpt><trkpt lat="43.6823183" lon="11.5320733"><ele>384.0</ele><time>2026-04-04T15:00:01.014Z</time></trkpt><trkpt lat="43.6823083" lon="11.5319183"><ele>384.0</ele><time>2026-04-04T15:00:02.013Z</time></trkpt><trkpt lat="43.6822983" lon="11.5317567"><ele>384.0</ele><time>2026-04-04T15:00:03.012Z</time></trkpt><trkpt lat="43.68229" lon="11.5316017"><ele>383.25</ele><time>2026-04-04T15:00:04.013Z</time></trkpt><trkpt lat="43.6822833" lon="11.5314467"><ele>382.5</ele><time>2026-04-04T15:00:05.015Z</time></trkpt><trkpt lat="43.6822767" lon="11.5312867"><ele>381.75</ele><time>2026-04-04T15:00:06.015Z</time></trkpt><trkpt lat="43.6822683" lon="11.531135"><ele>381.0</ele><time>2026-04-04T15:00:07.012Z</time></trkpt><trkpt lat="43.6822617" lon="11.53098"><ele>380.4</ele><time>2026-04-04T15:00:08.011Z</time></trkpt><trkpt lat="43.682255" lon="11.5308267"><ele>379.8</ele><time>2026-04-04T15:00:09.013Z</time></trkpt><trkpt lat="43.6822517" lon="11.5306817"><ele>379.2</ele><time>2026-04-04T15:00:10.012Z</time></trkpt><trkpt lat="43.6822483" lon="11.5305333"><ele>378.59999999999997</ele><time>2026-04-04T15:00:11.015Z</time></trkpt><trkpt lat="43.6822433" lon="11.5303883"><ele>378.0</ele><time>2026-04-04T15:00:12.014Z</time></trkpt><trkpt lat="43.68224" lon="11.53024"><ele>377.4</ele><time>2026-04-04T15:00:13.013Z</time></trkpt><trkpt lat="43.6822367" lon="11.53009"><ele>376.79999999999995</ele><time>2026-04-04T15:00:14.015Z</time></trkpt><trkpt lat="43.68223" lon="11.5299417"><ele>376.2</ele><time>2026-04-04T15:00:15.013Z</time></trkpt><trkpt lat="43.6822217" lon="11.529795"><ele>375.6</ele><time>2026-04-04T15:00:16.012Z</time></trkpt><trkpt lat="43.682215" lon="11.5296517"><ele>375.0</ele><time>2026-04-04T15:00:17.012Z</time></trkpt><trkpt lat="43.68221" lon="11.5295083"><ele>374.4</ele><time>2026-04-04T15:00:18.013Z</time></trkpt><trkpt lat="43.682205" lon="11.5293717"><ele>373.8</ele><time>2026-04-04T15:00:19.013Z</time></trkpt><trkpt lat="43.6821983" lon="11.5292417"><ele>373.20000000000005</ele><time>2026-04-04T15:00:20.013Z</time></trkpt><trkpt lat="43.682185" lon="11.5291083"><ele>372.6</ele><time>2026-04-04T15:00:21.013Z</time></trkpt><trkpt lat="43.68217" lon="11.5289733"><ele>372.0</ele><time>2026-04-04T15:00:22.012Z</time></trkpt><trkpt lat="43.682155" lon="11.5288417"><ele>371.6</ele><time>2026-04-04T15:00:23.013Z</time></trkpt><trkpt lat="43.6821383" lon="11.5287083"><ele>371.20000000000005</ele><time>2026-04-04T15:00:24.012Z</time></trkpt><trkpt lat="43.6821233" lon="11.5285767"><ele>370.8</ele><time>2026-04-04T15:00:25.013Z</time></trkpt><trkpt lat="43.6821117" lon="11.5284467"><ele>370.4</ele><time>2026-04-04T15:00:26.013Z</time></trkpt><trkpt lat="43.6820983" lon="11.5283217"><ele>370.0</ele><time>2026-04-04T15:00:27.012Z</time></trkpt><trkpt lat="43.6820817" lon="11.5282"><ele>370.0</ele><time>2026-04-04T15:00:28.011Z</time></trkpt><trkpt lat="43.682065" lon="11.5280767"><ele>370.0</ele><time>2026-04-04T15:00:29.01Z</time></trkpt><trkpt lat="43.6820483" lon="11.527955"><ele>370.0</ele><time>2026-04-04T15:00:30.01Z</time></trkpt><trkpt lat="43.68203" lon="11.5278267"><ele>370.0</ele><time>2026-04-04T15:00:31.01Z</time></trkpt><trkpt lat="43.6820117" lon="11.5277017"><ele>370.0</ele><time>2026-04-04T15:00:32.01Z</time></trkpt><trkpt lat="43.681995" lon="11.5275733"><ele>370.2</ele><time>2026-04-04T15:00:33.01Z</time></trkpt><trkpt lat="43.681975" lon="11.52744"><ele>370.4</ele><time>2026-04-04T15:00:34.01Z</time></trkpt><trkpt lat="43.6819583" lon="11.52731"><ele>370.6</ele><time>2026-04-04T15:00:35.009Z</time></trkpt><trkpt lat="43.6819417" lon="11.527185"><ele>370.8</ele><time>2026-04-04T15:00:36.01Z</time></trkpt><trkpt lat="43.6819217" lon="11.5270567"><ele>371.0</ele><time>2026-04-04T15:00:37.011Z</time></trkpt><trkpt lat="43.681895" lon="11.526925"><ele>368.6</ele><time>2026-04-04T15:00:38.015Z</time></trkpt><trkpt lat="43.6818667" lon="11.5268"><ele>366.20000000000005</ele><time>2026-04-04T15:00:39.012Z</time></trkpt><trkpt lat="43.68184" lon="11.526675"><ele>363.79999999999995</ele><time>2026-04-04T15:00:40.012Z</time></trkpt><trkpt lat="43.6818117" lon="11.5265433"><ele>361.4</ele><time>2026-04-04T15:00:41.014Z</time></trkpt><trkpt lat="43.6817833" lon="11.52642"><ele>359.0</ele><time>2026-04-04T15:00:42.013Z</time></trkpt><trkpt lat="43.681755" lon="11.5262983"><ele>359.4</ele><time>2026-04-04T15:00:43.013Z</time></trkpt><trkpt lat="43.6817217" lon="11.526175"><ele>359.79999999999995</ele><time>2026-04-04T15:00:44.012Z</time></trkpt><trkpt lat="43.681685" lon="11.5260433"><ele>360.20000000000005</ele><time>2026-04-04T15:00:45.012Z</time></trkpt><trkpt lat="43.68165" lon="11.5259133"><ele>360.6</ele><time>2026-04-04T15:00:46.011Z</time></trkpt><trkpt lat="43.6816167" lon="11.5257867"><ele>361.0</ele><time>2026-04-04T15:00:47.012Z</time></trkpt><trkpt lat="43.681585" lon="11.5256633"><ele>361.0</ele><time>2026-04-04T15:00:48.012Z</time></trkpt><trkpt lat="43.681555" lon="11.525535"><ele>361.0</ele><time>2026-04-04T15:00:49.014Z</time></trkpt><trkpt lat="43.68153" lon="11.5254083"><ele>361.0</ele><time>2026-04-04T15:00:50.013Z</time></trkpt><trkpt lat="43.6815067" lon="11.52529"><ele>361.0</ele><time>2026-04-04T15:00:51.013Z</time></trkpt><trkpt lat="43.6814833" lon="11.5251683"><ele>361.0</ele><time>2026-04-04T15:00:52.014Z</time></trkpt><trkpt lat="43.6814533" lon="11.5250583"><ele>360.8</ele><time>2026-04-04T15:00:53.014Z</time></trkpt><trkpt lat="43.6814233" lon="11.52493"><ele>360.6</ele><time>2026-04-04T15:00:54.012Z</time></trkpt><trkpt lat="43.6813917" lon="11.5248"><ele>360.4</ele><time>2026-04-04T15:00:55.012Z</time></trkpt><trkpt lat="43.681365" lon="11.524675"><ele>360.2</ele><time>2026-04-04T15:00:56.012Z</time></trkpt><trkpt lat="43.681335" lon="11.524535"><ele>360.0</ele><time>2026-04-04T15:00:57.014Z</time></trkpt><trkpt lat="43.681305" lon="11.5243933"><ele>358.8</ele><time>2026-04-04T15:00:58.012Z</time></trkpt><trkpt lat="43.6812717" lon="11.5242417"><ele>357.6</ele><time>2026-04-04T15:00:59.012Z</time></trkpt><trkpt lat="43.6812367" lon="11.524095"><ele>356.4</ele><time>2026-04-04T15:01:00.012Z</time></trkpt><trkpt lat="43.68121" lon="11.5239567"><ele>355.2</ele><time>2026-04-04T15:01:01.012Z</time></trkpt><trkpt lat="43.681195" lon="11.5238267"><ele>354.0</ele><time>2026-04-04T15:01:02.014Z</time></trkpt><trkpt lat="43.6812017" lon="11.5236933"><ele>353.4</ele><time>2026-04-04T15:01:03.011Z</time></trkpt><trkpt lat="43.681235" lon="11.5235767"><ele>352.79999999999995</ele><time>2026-04-04T15:01:04.011Z</time></trkpt><trkpt lat="43.6812883" lon="11.5234733"><ele>352.20000000000005</ele><time>2026-04-04T15:01:05.013Z</time></trkpt><trkpt lat="43.6813567" lon="11.523395"><ele>351.6</ele><time>2026-04-04T15:01:06.012Z</time></trkpt><trkpt lat="43.6814367" lon="11.523325"><ele>351.0</ele><time>2026-04-04T15:01:07.012Z</time></trkpt><trkpt lat="43.68152" lon="11.5232567"><ele>351.0</ele><time>2026-04-04T15:01:08.015Z</time></trkpt><trkpt lat="43.6816117" lon="11.523195"><ele>351.0</ele><time>2026-04-04T15:01:09.014Z</time></trkpt><trkpt lat="43.6817017" lon="11.5231433"><ele>351.0</ele><time>2026-04-04T15:01:10.011Z</time></trkpt><trkpt lat="43.68179" lon="11.5230883"><ele>351.0</ele><time>2026-04-04T15:01:11.012Z</time></trkpt><trkpt lat="43.6818767" lon="11.5230317"><ele>351.0</ele><time>2026-04-04T15:01:12.014Z</time></trkpt><trkpt lat="43.68196" lon="11.522965"><ele>351.20000000000005</ele><time>2026-04-04T15:01:13.013Z</time></trkpt><trkpt lat="43.6820417" lon="11.5229033"><ele>351.40000000000003</ele><time>2026-04-04T15:01:14.015Z</time></trkpt><trkpt lat="43.6821283" lon="11.5228417"><ele>351.6</ele><time>2026-04-04T15:01:15.012Z</time></trkpt><trkpt lat="43.682215" lon="11.5227833"><ele>351.8</ele><time>2026-04-04T15:01:16.014Z</time></trkpt><trkpt lat="43.6823017" lon="11.522725"><ele>352.0</ele><time>2026-04-04T15:01:17.014Z</time></trkpt><trkpt lat="43.6823917" lon="11.5226683"><ele>351.20000000000005</ele><time>2026-04-04T15:01:18.012Z</time></trkpt><trkpt lat="43.6824833" lon="11.5226317"><ele>350.4</ele><time>2026-04-04T15:01:19.013Z</time></trkpt><trkpt lat="43.6825783" lon="11.5226267"><ele>349.6</ele><time>2026-04-04T15:01:20.013Z</time></trkpt><trkpt lat="43.68267" lon="11.5226567"><ele>348.79999999999995</ele><time>2026-04-04T15:01:21.014Z</time></trkpt><trkpt lat="43.6827467" lon="11.5227317"><ele>348.0</ele><time>2026-04-04T15:01:22.014Z</time></trkpt><trkpt lat="43.68281" lon="11.5228333"><ele>347.79999999999995</ele><time>2026-04-04T15:01:23.012Z</time></trkpt><trkpt lat="43.6828567" lon="11.5229583"><ele>347.6</ele><time>2026-04-04T15:01:24.015Z</time></trkpt><trkpt lat="43.6828983" lon="11.5230783"><ele>347.4</ele><time>2026-04-04T15:01:25.013Z</time></trkpt><trkpt lat="43.6829517" lon="11.5231767"><ele>347.20000000000005</ele><time>2026-04-04T15:01:26.012Z</time></trkpt><trkpt lat="43.683015" lon="11.5232617"><ele>347.0</ele><time>2026-04-04T15:01:27.01Z</time></trkpt><trkpt lat="43.6830917" lon="11.52332"><ele>347.0</ele><time>2026-04-04T15:01:28.01Z</time></trkpt><trkpt lat="43.6831783" lon="11.5233367"><ele>347.0</ele><time>2026-04-04T15:01:29.011Z</time></trkpt><trkpt lat="43.6832667" lon="11.523305"><ele>347.0</ele><time>2026-04-04T15:01:30.011Z</time></trkpt><trkpt lat="43.6833467" lon="11.5232317"><ele>347.0</ele><time>2026-04-04T15:01:31.013Z</time></trkpt><trkpt lat="43.683415" lon="11.5231283"><ele>347.0</ele><time>2026-04-04T15:01:32.009Z</time></trkpt><trkpt lat="43.683465" lon="11.5230083"><ele>345.40000000000003</ele><time>2026-04-04T15:01:33.01Z</time></trkpt><trkpt lat="43.683495" lon="11.5228783"><ele>343.8</ele><time>2026-04-04T15:01:34.009Z</time></trkpt><trkpt lat="43.6835117" lon="11.5227483"><ele>342.2</ele><time>2026-04-04T15:01:35.011Z</time></trkpt><trkpt lat="43.6835333" lon="11.5226083"><ele>340.6</ele><time>2026-04-04T15:01:36.012Z</time></trkpt><trkpt lat="43.683555" lon="11.5224633"><ele>339.0</ele><time>2026-04-04T15:01:37.01Z</time></trkpt><trkpt lat="43.6835767" lon="11.5223117"><ele>338.6</ele><time>2026-04-04T15:01:38.011Z</time></trkpt><trkpt lat="43.6836" lon="11.5221683"><ele>338.2</ele><time>2026-04-04T15:01:39.01Z</time></trkpt><trkpt lat="43.6836267" lon="11.5220333"><ele>337.8</ele><time>2026-04-04T15:01:40.013Z</time></trkpt><trkpt lat="43.6836717" lon="11.5219283"><ele>337.40000000000003</ele><time>2026-04-04T15:01:41.01Z</time></trkpt><trkpt lat="43.68374" lon="11.5218433"><ele>337.0</ele><time>2026-04-04T15:01:42.012Z</time></trkpt><trkpt lat="43.6838217" lon="11.521785"><ele>337.0</ele><time>2026-04-04T15:01:43.01Z</time></trkpt><trkpt lat="43.6839183" lon="11.521775"><ele>337.0</ele><time>2026-04-04T15:01:44.011Z</time></trkpt><trkpt lat="43.68401" lon="11.52181"><ele>337.0</ele><time>2026-04-04T15:01:45.011Z</time></trkpt><trkpt lat="43.6840867" lon="11.5218967"><ele>337.0</ele><time>2026-04-04T15:01:46.01Z</time></trkpt><trkpt lat="43.684165" lon="11.5219917"><ele>337.0</ele><time>2026-04-04T15:01:47.012Z</time></trkpt><trkpt lat="43.6842433" lon="11.52209"><ele>337.0</ele><time>2026-04-04T15:01:48.011Z</time></trkpt><trkpt lat="43.68432" lon="11.5222"><ele>337.0</ele><time>2026-04-04T15:01:49.01Z</time></trkpt><trkpt lat="43.6843967" lon="11.5223133"><ele>337.0</ele><time>2026-04-04T15:01:50.011Z</time></trkpt><trkpt lat="43.68448" lon="11.522425"><ele>337.0</ele><time>2026-04-04T15:01:51.011Z</time></trkpt><trkpt lat="43.6845633" lon="11.5225383"><ele>334.75</ele><time>2026-04-04T15:01:52.01Z</time></trkpt><trkpt lat="43.68465" lon="11.52265"><ele>332.5</ele><time>2026-04-04T15:01:53.011Z</time></trkpt><trkpt lat="43.6847417" lon="11.5227583"><ele>330.25</ele><time>2026-04-04T15:01:54.01Z</time></trkpt><trkpt lat="43.6848333" lon="11.5228683"><ele>328.0</ele><time>2026-04-04T15:01:55.011Z</time></trkpt><trkpt lat="43.684925" lon="11.5229717"><ele>328.0</ele><time>2026-04-04T15:01:56.009Z</time></trkpt><trkpt lat="43.68502" lon="11.5230733"><ele>328.0</ele><time>2026-04-04T15:01:57.01Z</time></trkpt><trkpt lat="43.6850967" lon="11.5231883"><ele>328.0</ele><time>2026-04-04T15:01:58.011Z</time></trkpt><trkpt lat="43.685175" lon="11.52329"><ele>328.0</ele><time>2026-04-04T15:01:59.012Z</time></trkpt><trkpt lat="43.685255" lon="11.5233767"><ele>328.0</ele><time>2026-04-04T15:02:00.011Z</time></trkpt><trkpt lat="43.6853417" lon="11.52345"><ele>327.79999999999995</ele><time>2026-04-04T15:02:01.011Z</time></trkpt><trkpt lat="43.685435" lon="11.5235"><ele>327.6</ele><time>2026-04-04T15:02:02.012Z</time></trkpt><trkpt lat="43.6855333" lon="11.5235117"><ele>327.4</ele><time>2026-04-04T15:02:03.011Z</time></trkpt><trkpt lat="43.6856267" lon="11.5235133"><ele>327.20000000000005</ele><time>2026-04-04T15:02:04.012Z</time></trkpt><trkpt lat="43.6857217" lon="11.5234683"><ele>327.0</ele><time>2026-04-04T15:02:05.011Z</time></trkpt><trkpt lat="43.6857967" lon="11.523385"><ele>327.0</ele><time>2026-04-04T15:02:06.01Z</time></trkpt><trkpt lat="43.685855" lon="11.5232833"><ele>327.0</ele><time>2026-04-04T15:02:07.013Z</time></trkpt><trkpt lat="43.6858967" lon="11.5231633"><ele>327.0</ele><time>2026-04-04T15:02:08.012Z</time></trkpt><trkpt lat="43.68592" lon="11.5230283"><ele>327.0</ele><time>2026-04-04T15:02:09.011Z</time></trkpt><trkpt lat="43.6859283" lon="11.522885"><ele>327.0</ele><time>2026-04-04T15:02:10.011Z</time></trkpt><trkpt lat="43.6859117" lon="11.5227517"><ele>326.6</ele><time>2026-04-04T15:02:11.011Z</time></trkpt><trkpt lat="43.6858733" lon="11.5226233"><ele>326.20000000000005</ele><time>2026-04-04T15:02:12.01Z</time></trkpt><trkpt lat="43.68582" lon="11.522515"><ele>325.8</ele><time>2026-04-04T15:02:13.012Z</time></trkpt><trkpt lat="43.6857633" lon="11.5224067"><ele>325.4</ele><time>2026-04-04T15:02:14.01Z</time></trkpt><trkpt lat="43.685705" lon="11.5223033"><ele>325.0</ele><time>2026-04-04T15:02:15.011Z</time></trkpt><trkpt lat="43.6856517" lon="11.522185"><ele>325.0</ele><time>2026-04-04T15:02:16.009Z</time></trkpt><trkpt lat="43.6856067" lon="11.5220767"><ele>325.0</ele><time>2026-04-04T15:02:17.012Z</time></trkpt><trkpt lat="43.685575" lon="11.521955"><ele>325.0</ele><time>2026-04-04T15:02:18.01Z</time></trkpt><trkpt lat="43.68556" lon="11.5218333"><ele>325.0</ele><time>2026-04-04T15:02:19.01Z</time></trkpt><trkpt lat="43.6855567" lon="11.5216983"><ele>325.0</ele><time>2026-04-04T15:02:20.012Z</time></trkpt><trkpt lat="43.6855583" lon="11.5215667"><ele>324.8</ele><time>2026-04-04T15:02:21.01Z</time></trkpt><trkpt lat="43.6855617" lon="11.5214267"><ele>324.6</ele><time>2026-04-04T15:02:22.01Z</time></trkpt><trkpt lat="43.6855667" lon="11.5212967"><ele>324.4</ele><time>2026-04-04T15:02:23.009Z</time></trkpt><trkpt lat="43.685575" lon="11.52116"><ele>324.2</ele><time>2026-04-04T15:02:24.01Z</time></trkpt><trkpt lat="43.68558" lon="11.521025"><ele>324.0</ele><time>2026-04-04T15:02:25.012Z</time></trkpt><trkpt lat="43.685585" lon="11.520895"><ele>324.0</ele><time>2026-04-04T15:02:26.01Z</time></trkpt><trkpt lat="43.6855883" lon="11.520755"><ele>324.0</ele><time>2026-04-04T15:02:27.01Z</time></trkpt><trkpt lat="43.6855933" lon="11.5206217"><ele>324.0</ele><time>2026-04-04T15:02:28.01Z</time></trkpt><trkpt lat="43.6855967" lon="11.5204917"><ele>324.0</ele><time>2026-04-04T15:02:29.014Z</time></trkpt><trkpt lat="43.685605" lon="11.5203567"><ele>324.0</ele><time>2026-04-04T15:02:30.01Z</time></trkpt><trkpt lat="43.6856217" lon="11.5202233"><ele>323.6</ele><time>2026-04-04T15:02:31.011Z</time></trkpt><trkpt lat="43.6856467" lon="11.5201"><ele>323.2</ele><time>2026-04-04T15:02:32.011Z</time></trkpt><trkpt lat="43.685675" lon="11.5199817"><ele>322.8</ele><time>2026-04-04T15:02:33.01Z</time></trkpt><trkpt lat="43.685705" lon="11.5198583"><ele>322.40000000000003</ele><time>2026-04-04T15:02:34.012Z</time></trkpt><trkpt lat="43.6857383" lon="11.5197467"><ele>322.0</ele><time>2026-04-04T15:02:35.011Z</time></trkpt><trkpt lat="43.68577" lon="11.519625"><ele>321.0</ele><time>2026-04-04T15:02:36.011Z</time></trkpt><trkpt lat="43.6858" lon="11.5195033"><ele>320.0</ele><time>2026-04-04T15:02:37.01Z</time></trkpt><trkpt lat="43.6858317" lon="11.5193817"><ele>319.0</ele><time>2026-04-04T15:02:38.01Z</time></trkpt><trkpt lat="43.6858617" lon="11.5192583"><ele>318.0</ele><time>2026-04-04T15:02:39.011Z</time></trkpt><trkpt lat="43.685895" lon="11.519135"><ele>317.0</ele><time>2026-04-04T15:02:40.01Z</time></trkpt><trkpt lat="43.68593" lon="11.5190167"><ele>317.0</ele><time>2026-04-04T15:02:41.01Z</time></trkpt><trkpt lat="43.6859617" lon="11.5188933"><ele>317.0</ele><time>2026-04-04T15:02:42.011Z</time></trkpt><trkpt lat="43.68599" lon="11.5187733"><ele>317.0</ele><time>2026-04-04T15:02:43.01Z</time></trkpt><trkpt lat="43.6860167" lon="11.518655"><ele>317.0</ele><time>2026-04-04T15:02:44.012Z</time></trkpt><trkpt lat="43.6860467" lon="11.5185383"><ele>317.0</ele><time>2026-04-04T15:02:45.01Z</time></trkpt><trkpt lat="43.6860717" lon="11.51842"><ele>316.33333333333337</ele><time>2026-04-04T15:02:46.01Z</time></trkpt><trkpt lat="43.68608" lon="11.5182967"><ele>315.6666666666667</ele><time>2026-04-04T15:02:47.012Z</time></trkpt><trkpt lat="43.68607" lon="11.518175"><ele>315.0</ele><time>2026-04-04T15:02:48.011Z</time></trkpt><trkpt lat="43.6860417" lon="11.5180567"><ele>314.3333333333333</ele><time>2026-04-04T15:02:49.011Z</time></trkpt><trkpt lat="43.6859967" lon="11.5179483"><ele>313.66666666666663</ele><time>2026-04-04T15:02:50.012Z</time></trkpt><trkpt lat="43.6859383" lon="11.517865"><ele>313.0</ele><time>2026-04-04T15:02:51.01Z</time></trkpt><trkpt lat="43.6858717" lon="11.51779"><ele>313.0</ele><time>2026-04-04T15:02:52.011Z</time></trkpt><trkpt lat="43.6858" lon="11.5177283"><ele>313.0</ele><time>2026-04-04T15:02:53.01Z</time></trkpt><trkpt lat="43.68572" lon="11.5176617"><ele>313.0</ele><time>2026-04-04T15:02:54.011Z</time></trkpt><trkpt lat="43.6856383" lon="11.5176"><ele>313.0</ele><time>2026-04-04T15:02:55.01Z</time></trkpt><trkpt lat="43.6855633" lon="11.5175367"><ele>313.0</ele><time>2026-04-04T15:02:56.011Z</time></trkpt><trkpt lat="43.6854933" lon="11.51747"><ele>313.0</ele><time>2026-04-04T15:02:57.01Z</time></trkpt><trkpt lat="43.6854367" lon="11.5173867"><ele>313.0</ele><time>2026-04-04T15:02:58.012Z</time></trkpt><trkpt lat="43.6853983" lon="11.5172883"><ele>313.0</ele><time>2026-04-04T15:02:59.01Z</time></trkpt><trkpt lat="43.68537" lon="11.5171767"><ele>313.0</ele><time>2026-04-04T15:03:00.012Z</time></trkpt><trkpt lat="43.6853717" lon="11.5170617"><ele>313.0</ele><time>2026-04-04T15:03:01.011Z</time></trkpt><trkpt lat="43.685375" lon="11.5169417"><ele>313.0</ele><time>2026-04-04T15:03:02.011Z</time></trkpt><trkpt lat="43.685395" lon="11.5168333"><ele>313.0</ele><time>2026-04-04T15:03:03.011Z</time></trkpt><trkpt lat="43.6854283" lon="11.51673"><ele>313.16666666666663</ele><time>2026-04-04T15:03:04.011Z</time></trkpt><trkpt lat="43.6854767" lon="11.5166433"><ele>313.3333333333333</ele><time>2026-04-04T15:03:05.01Z</time></trkpt><trkpt lat="43.6855383" lon="11.51657"><ele>313.5</ele><time>2026-04-04T15:03:06.012Z</time></trkpt><trkpt lat="43.685615" lon="11.5165167"><ele>313.6666666666667</ele><time>2026-04-04T15:03:07.01Z</time></trkpt><trkpt lat="43.6856983" lon="11.5164717"><ele>313.83333333333337</ele><time>2026-04-04T15:03:08.012Z</time></trkpt><trkpt lat="43.685775" lon="11.5164417"><ele>314.0</ele><time>2026-04-04T15:03:09.01Z</time></trkpt><trkpt lat="43.68585" lon="11.5164067"><ele>314.0</ele><time>2026-04-04T15:03:10.011Z</time></trkpt><trkpt lat="43.685925" lon="11.5163717"><ele>314.0</ele><time>2026-04-04T15:03:11.013Z</time></trkpt><trkpt lat="43.6859983" lon="11.5163333"><ele>314.0</ele><time>2026-04-04T15:03:12.011Z</time></trkpt><trkpt lat="43.6860717" lon="11.5162933"><ele>314.0</ele><time>2026-04-04T15:03:13.01Z</time></trkpt><trkpt lat="43.686145" lon="11.5162483"><ele>314.0</ele><time>2026-04-04T15:03:14.01Z</time></trkpt><trkpt lat="43.6862183" lon="11.51619"><ele>314.0</ele><time>2026-04-04T15:03:15.01Z</time></trkpt><trkpt lat="43.6862917" lon="11.5161533"><ele>313.1666666666667</ele><time>2026-04-04T15:03:16.01Z</time></trkpt><trkpt lat="43.6863667" lon="11.516115"><ele>312.33333333333337</ele><time>2026-04-04T15:03:17.01Z</time></trkpt><trkpt lat="43.6864433" lon="11.51608"><ele>311.5</ele><time>2026-04-04T15:03:18.011Z</time></trkpt><trkpt lat="43.6865183" lon="11.5160417"><ele>310.6666666666667</ele><time>2026-04-04T15:03:19.01Z</time></trkpt><trkpt lat="43.6865933" lon="11.516"><ele>309.8333333333333</ele><time>2026-04-04T15:03:20.01Z</time></trkpt><trkpt lat="43.68667" lon="11.5159583"><ele>309.0</ele><time>2026-04-04T15:03:21.011Z</time></trkpt><trkpt lat="43.686745" lon="11.5159167"><ele>309.00000000000006</ele><time>2026-04-04T15:03:22.011Z</time></trkpt><trkpt lat="43.6868133" lon="11.515865"><ele>309.0</ele><time>2026-04-04T15:03:23.012Z</time></trkpt><trkpt lat="43.686875" lon="11.5157983"><ele>309.0</ele><time>2026-04-04T15:03:24.011Z</time></trkpt><trkpt lat="43.6869183" lon="11.5157167"><ele>309.0</ele><time>2026-04-04T15:03:25.01Z</time></trkpt><trkpt lat="43.686945" lon="11.5156233"><ele>309.0</ele><time>2026-04-04T15:03:26.011Z</time></trkpt><trkpt lat="43.6869583" lon="11.5155317"><ele>309.00000000000006</ele><time>2026-04-04T15:03:27.01Z</time></trkpt><trkpt lat="43.6869567" lon="11.5154333"><ele>309.0</ele><time>2026-04-04T15:03:28.011Z</time></trkpt><trkpt lat="43.6869483" lon="11.51533"><ele>308.6666666666667</ele><time>2026-04-04T15:03:29.011Z</time></trkpt><trkpt lat="43.686935" lon="11.5152267"><ele>308.3333333333333</ele><time>2026-04-04T15:03:30.013Z</time></trkpt><trkpt lat="43.68692" lon="11.5151217"><ele>308.0</ele><time>2026-04-04T15:03:31.011Z</time></trkpt><trkpt lat="43.6869" lon="11.51502"><ele>307.66666666666663</ele><time>2026-04-04T15:03:32.012Z</time></trkpt><trkpt lat="43.6868733" lon="11.5149233"><ele>307.3333333333333</ele><time>2026-04-04T15:03:33.011Z</time></trkpt><trkpt lat="43.6868333" lon="11.51484"><ele>307.0</ele><time>2026-04-04T15:03:34.01Z</time></trkpt><trkpt lat="43.6867783" lon="11.5147717"><ele>307.0</ele><time>2026-04-04T15:03:35.011Z</time></trkpt><trkpt lat="43.686715" lon="11.51472"><ele>307.0</ele><time>2026-04-04T15:03:36.013Z</time></trkpt><trkpt lat="43.6866433" lon="11.51469"><ele>307.0</ele><time>2026-04-04T15:03:37.011Z</time></trkpt><trkpt lat="43.686565" lon="11.5146667"><ele>307.0</ele><time>2026-04-04T15:03:38.011Z</time></trkpt><trkpt lat="43.6864867" lon="11.51465"><ele>307.0</ele><time>2026-04-04T15:03:39.011Z</time></trkpt><trkpt lat="43.6864117" lon="11.5146283"><ele>307.0</ele><time>2026-04-04T15:03:40.01Z</time></trkpt><trkpt lat="43.686335" lon="11.5145933"><ele>306.3333333333333</ele><time>2026-04-04T15:03:41.01Z</time></trkpt><trkpt lat="43.6862583" lon="11.5145417"><ele>305.66666666666663</ele><time>2026-04-04T15:03:42.01Z</time></trkpt><trkpt lat="43.6861967" lon="11.514475"><ele>305.0</ele><time>2026-04-04T15:03:43.01Z</time></trkpt><trkpt lat="43.6861517" lon="11.5143883"><ele>304.3333333333333</ele><time>2026-04-04T15:03:44.011Z</time></trkpt><trkpt lat="43.6861133" lon="11.5143033"><ele>303.6666666666667</ele><time>2026-04-04T15:03:45.01Z</time></trkpt><trkpt lat="43.6860717" lon="11.5142183"><ele>303.0</ele><time>2026-04-04T15:03:46.01Z</time></trkpt><trkpt lat="43.6860317" lon="11.5141283"><ele>303.0</ele><time>2026-04-04T15:03:47.01Z</time></trkpt><trkpt lat="43.68599" lon="11.51404"><ele>303.0</ele><time>2026-04-04T15:03:48.01Z</time></trkpt><trkpt lat="43.685955" lon="11.5139517"><ele>303.0</ele><time>2026-04-04T15:03:49.01Z</time></trkpt><trkpt lat="43.68592" lon="11.5138667"><ele>303.0</ele><time>2026-04-04T15:03:50.01Z</time></trkpt><trkpt lat="43.6858917" lon="11.5137783"><ele>303.0</ele><time>2026-04-04T15:03:51.01Z</time></trkpt><trkpt lat="43.685875" lon="11.5136817"><ele>303.0</ele><time>2026-04-04T15:03:52.012Z</time></trkpt><trkpt lat="43.6858783" lon="11.513585"><ele>303.0</ele><time>2026-04-04T15:03:53.014Z</time></trkpt><trkpt lat="43.6858983" lon="11.5134933"><ele>304.2857142857143</ele><time>2026-04-04T15:03:54.01Z</time></trkpt><trkpt lat="43.6859367" lon="11.5134067"><ele>305.57142857142856</ele><time>2026-04-04T15:03:55.013Z</time></trkpt><trkpt lat="43.6859883" lon="11.5133317"><ele>306.8571428571429</ele><time>2026-04-04T15:03:56.011Z</time></trkpt><trkpt lat="43.6860433" lon="11.5132617"><ele>308.1428571428571</ele><time>2026-04-04T15:03:57.011Z</time></trkpt><trkpt lat="43.6860983" lon="11.513195"><ele>309.4285714285714</ele><time>2026-04-04T15:03:58.012Z</time></trkpt><trkpt lat="43.68615" lon="11.513135"><ele>310.7142857142857</ele><time>2026-04-04T15:03:59.009Z</time></trkpt><trkpt lat="43.6862067" lon="11.5130683"><ele>312.0</ele><time>2026-04-04T15:04:00.013Z</time></trkpt><trkpt lat="43.686265" lon="11.513005"><ele>312.5714285714286</ele><time>2026-04-04T15:04:01.011Z</time></trkpt><trkpt lat="43.68632" lon="11.5129417"><ele>313.1428571428571</ele><time>2026-04-04T15:04:02.01Z</time></trkpt><trkpt lat="43.686375" lon="11.512875"><ele>313.7142857142857</ele><time>2026-04-04T15:04:03.01Z</time></trkpt><trkpt lat="43.6864283" lon="11.5128117"><ele>314.28571428571433</ele><time>2026-04-04T15:04:04.01Z</time></trkpt><trkpt lat="43.68648" lon="11.5127517"><ele>314.8571428571429</ele><time>2026-04-04T15:04:05.01Z</time></trkpt><trkpt lat="43.68653" lon="11.5126933"><ele>315.42857142857144</ele><time>2026-04-04T15:04:06.013Z</time></trkpt><trkpt lat="43.6865817" lon="11.5126417"><ele>316.0</ele><time>2026-04-04T15:04:07.011Z</time></trkpt><trkpt lat="43.6866783" lon="11.51254"><ele>316.0</ele><time>2026-04-04T15:04:09.01Z</time></trkpt><trkpt lat="43.6867283" lon="11.5124817"><ele>316.0</ele><time>2026-04-04T15:04:10.01Z</time></trkpt><trkpt lat="43.6867783" lon="11.5124217"><ele>316.0</ele><time>2026-04-04T15:04:11.01Z</time></trkpt><trkpt lat="43.6868267" lon="11.512365"><ele>316.0</ele><time>2026-04-04T15:04:12.011Z</time></trkpt><trkpt lat="43.6869267" lon="11.5122533"><ele>316.0</ele><time>2026-04-04T15:04:14.01Z</time></trkpt><trkpt lat="43.6869783" lon="11.5121983"><ele>316.0</ele><time>2026-04-04T15:04:15.009Z</time></trkpt><trkpt lat="43.6870817" lon="11.5120983"><ele>317.16666666666663</ele><time>2026-04-04T15:04:17.009Z</time></trkpt><trkpt lat="43.6871783" lon="11.512005"><ele>318.3333333333333</ele><time>2026-04-04T15:04:19.01Z</time></trkpt><trkpt lat="43.6872317" lon="11.5119483"><ele>319.5</ele><time>2026-04-04T15:04:20.009Z</time></trkpt><trkpt lat="43.6872817" lon="11.51189"><ele>320.6666666666667</ele><time>2026-04-04T15:04:21.009Z</time></trkpt><trkpt lat="43.687335" lon="11.5118367"><ele>321.83333333333337</ele><time>2026-04-04T15:04:22.01Z</time></trkpt><trkpt lat="43.6874317" lon="11.5117417"><ele>323.0</ele><time>2026-04-04T15:04:24.011Z</time></trkpt><trkpt lat="43.6875133" lon="11.5116417"><ele>323.0</ele><time>2026-04-04T15:04:26.012Z</time></trkpt><trkpt lat="43.6876067" lon="11.5115433"><ele>323.0</ele><time>2026-04-04T15:04:28.012Z</time></trkpt><trkpt lat="43.6876983" lon="11.5114617"><ele>323.0</ele><time>2026-04-04T15:04:30.01Z</time></trkpt><trkpt lat="43.6877933" lon="11.5113833"><ele>323.0</ele><time>2026-04-04T15:04:32.012Z</time></trkpt><trkpt lat="43.6878883" lon="11.5113067"><ele>323.0</ele><time>2026-04-04T15:04:34.013Z</time></trkpt><trkpt lat="43.6879833" lon="11.5112317"><ele>322.59999999999997</ele><time>2026-04-04T15:04:36.013Z</time></trkpt><trkpt lat="43.688085" lon="11.5111567"><ele>322.2</ele><time>2026-04-04T15:04:38.011Z</time></trkpt><trkpt lat="43.68819" lon="11.5110833"><ele>321.8</ele><time>2026-04-04T15:04:40.012Z</time></trkpt><trkpt lat="43.6883017" lon="11.5110167"><ele>321.4</ele><time>2026-04-04T15:04:42.011Z</time></trkpt><trkpt lat="43.6883617" lon="11.510985"><ele>321.0</ele><time>2026-04-04T15:04:43.011Z</time></trkpt><trkpt lat="43.688475" lon="11.5109267"><ele>321.0</ele><time>2026-04-04T15:04:45.011Z</time></trkpt><trkpt lat="43.688585" lon="11.5108717"><ele>321.0</ele><time>2026-04-04T15:04:47.01Z</time></trkpt><trkpt lat="43.6886933" lon="11.5108133"><ele>321.0</ele><time>2026-04-04T15:04:49.013Z</time></trkpt><trkpt lat="43.688795" lon="11.51076"><ele>321.0</ele><time>2026-04-04T15:04:51.01Z</time></trkpt><trkpt lat="43.6889033" lon="11.5107"><ele>322.20000000000005</ele><time>2026-04-04T15:04:53.012Z</time></trkpt><trkpt lat="43.6890033" lon="11.51065"><ele>323.40000000000003</ele><time>2026-04-04T15:04:55.013Z</time></trkpt><trkpt lat="43.6890967" lon="11.5106083"><ele>324.6</ele><time>2026-04-04T15:04:57.011Z</time></trkpt><trkpt lat="43.6891983" lon="11.5105967"><ele>325.8</ele><time>2026-04-04T15:04:59.011Z</time></trkpt><trkpt lat="43.6892733" lon="11.51067"><ele>327.0</ele><time>2026-04-04T15:05:01.012Z</time></trkpt><trkpt lat="43.6893117" lon="11.51077"><ele>327.0</ele><time>2026-04-04T15:05:03.011Z</time></trkpt><trkpt lat="43.689315" lon="11.5109017"><ele>327.0</ele><time>2026-04-04T15:05:05.011Z</time></trkpt><trkpt lat="43.689285" lon="11.51103"><ele>327.0</ele><time>2026-04-04T15:05:07.01Z</time></trkpt><trkpt lat="43.689255" lon="11.5111667"><ele>327.0</ele><time>2026-04-04T15:05:09.011Z</time></trkpt><trkpt lat="43.689225" lon="11.51131"><ele>327.0</ele><time>2026-04-04T15:05:11.011Z</time></trkpt><trkpt lat="43.689215" lon="11.51146"><ele>327.40000000000003</ele><time>2026-04-04T15:05:13.012Z</time></trkpt><trkpt lat="43.6891983" lon="11.5115967"><ele>327.8</ele><time>2026-04-04T15:05:15.013Z</time></trkpt><trkpt lat="43.6891733" lon="11.5117233"><ele>328.2</ele><time>2026-04-04T15:05:17.012Z</time></trkpt><trkpt lat="43.6891533" lon="11.5118517"><ele>328.6</ele><time>2026-04-04T15:05:19.011Z</time></trkpt><trkpt lat="43.6891433" lon="11.5119783"><ele>329.0</ele><time>2026-04-04T15:05:21.012Z</time></trkpt><trkpt lat="43.6891183" lon="11.5120933"><ele>329.57142857142856</ele><time>2026-04-04T15:05:23.011Z</time></trkpt><trkpt lat="43.6891" lon="11.5122083"><ele>330.1428571428571</ele><time>2026-04-04T15:05:25.011Z</time></trkpt><trkpt lat="43.68908" lon="11.5123117"><ele>330.7142857142857</ele><time>2026-04-04T15:05:27.012Z</time></trkpt><trkpt lat="43.6890683" lon="11.5124083"><ele>331.2857142857143</ele><time>2026-04-04T15:05:29.012Z</time></trkpt><trkpt lat="43.6890633" lon="11.5125033"><ele>331.85714285714283</ele><time>2026-04-04T15:05:31.011Z</time></trkpt><trkpt lat="43.6890533" lon="11.5125933"><ele>332.42857142857144</ele><time>2026-04-04T15:05:33.012Z</time></trkpt><trkpt lat="43.6890383" lon="11.5126783"><ele>333.0</ele><time>2026-04-04T15:05:35.013Z</time></trkpt><trkpt lat="43.6890317" lon="11.5127783"><ele>333.0</ele><time>2026-04-04T15:05:37.011Z</time></trkpt><trkpt lat="43.6890083" lon="11.5128783"><ele>333.0</ele><time>2026-04-04T15:05:39.011Z</time></trkpt><trkpt lat="43.68898" lon="11.5129867"><ele>333.0</ele><time>2026-04-04T15:05:42.012Z</time></trkpt><trkpt lat="43.6889633" lon="11.5130783"><ele>333.0</ele><time>2026-04-04T15:05:45.01Z</time></trkpt><trkpt lat="43.68899" lon="11.5131583"><ele>333.0</ele><time>2026-04-04T15:05:48.011Z</time></trkpt><trkpt lat="43.6890633" lon="11.5132317"><ele>333.0</ele><time>2026-04-04T15:05:51.01Z</time></trkpt><trkpt lat="43.6891383" lon="11.5133033"><ele>333.5</ele><time>2026-04-04T15:05:54.009Z</time></trkpt><trkpt lat="43.68921" lon="11.51337"><ele>334.0</ele><time>2026-04-04T15:05:57.008Z</time></trkpt><trkpt lat="43.6892833" lon="11.5134433"><ele>334.5</ele><time>2026-04-04T15:06:00.013Z</time></trkpt><trkpt lat="43.68936" lon="11.51347"><ele>335.0</ele><time>2026-04-04T15:06:03.012Z</time></trkpt><trkpt lat="43.6894217" lon="11.5135233"><ele>335.5</ele><time>2026-04-04T15:06:06.011Z</time></trkpt><trkpt lat="43.6894983" lon="11.513595"><ele>336.0</ele><time>2026-04-04T15:06:09.009Z</time></trkpt><trkpt lat="43.6895717" lon="11.513675"><ele>337.14285714285717</ele><time>2026-04-04T15:06:12.012Z</time></trkpt><trkpt lat="43.6896283" lon="11.5137417"><ele>338.2857142857143</ele><time>2026-04-04T15:06:17.013Z</time></trkpt><trkpt lat="43.6896983" lon="11.513825"><ele>339.42857142857144</ele><time>2026-04-04T15:06:22.012Z</time></trkpt><trkpt lat="43.6897433" lon="11.513895"><ele>340.57142857142856</ele><time>2026-04-04T15:06:26.012Z</time></trkpt><trkpt lat="43.689795" lon="11.5139483"><ele>341.7142857142857</ele><time>2026-04-04T15:06:28.013Z</time></trkpt><trkpt lat="43.6898417" lon="11.5140117"><ele>342.8571428571429</ele><time>2026-04-04T15:06:31.012Z</time></trkpt><trkpt lat="43.6899067" lon="11.5140833"><ele>344.0</ele><time>2026-04-04T15:06:35.013Z</time></trkpt><trkpt lat="43.6899683" lon="11.5141417"><ele>344.0</ele><time>2026-04-04T15:06:38.011Z</time></trkpt><trkpt lat="43.6900217" lon="11.5142167"><ele>344.0</ele><time>2026-04-04T15:06:41.01Z</time></trkpt><trkpt lat="43.6900783" lon="11.5142867"><ele>344.0</ele><time>2026-04-04T15:06:43.011Z</time></trkpt><trkpt lat="43.69013" lon="11.5143683"><ele>344.0</ele><time>2026-04-04T15:06:46.011Z</time></trkpt><trkpt lat="43.6901917" lon="11.514465"><ele>344.0</ele><time>2026-04-04T15:06:49.012Z</time></trkpt><trkpt lat="43.690245" lon="11.5145483"><ele>344.0</ele><time>2026-04-04T15:06:52.012Z</time></trkpt><trkpt lat="43.6903033" lon="11.51463"><ele>345.14285714285717</ele><time>2026-04-04T15:06:55.013Z</time></trkpt><trkpt lat="43.6903483" lon="11.5147233"><ele>346.2857142857143</ele><time>2026-04-04T15:06:58.013Z</time></trkpt><trkpt lat="43.6904067" lon="11.5147967"><ele>347.42857142857144</ele><time>2026-04-04T15:07:01.013Z</time></trkpt><trkpt lat="43.6904533" lon="11.5148733"><ele>348.57142857142856</ele><time>2026-04-04T15:07:04.013Z</time></trkpt><trkpt lat="43.6905017" lon="11.5149517"><ele>349.7142857142857</ele><time>2026-04-04T15:07:06.011Z</time></trkpt><trkpt lat="43.6905533" lon="11.5150217"><ele>350.8571428571429</ele><time>2026-04-04T15:07:08.011Z</time></trkpt><trkpt lat="43.6906067" lon="11.5150817"><ele>352.0</ele><time>2026-04-04T15:07:10.013Z</time></trkpt><trkpt lat="43.6906533" lon="11.5151433"><ele>352.0</ele><time>2026-04-04T15:07:12.01Z</time></trkpt><trkpt lat="43.6907" lon="11.5152017"><ele>352.0</ele><time>2026-04-04T15:07:14.013Z</time></trkpt><trkpt lat="43.6907483" lon="11.5152617"><ele>352.0</ele><time>2026-04-04T15:07:16.014Z</time></trkpt><trkpt lat="43.6908183" lon="11.5153517"><ele>352.0</ele><time>2026-04-04T15:07:19.012Z</time></trkpt><trkpt lat="43.69087" lon="11.5154117"><ele>352.0</ele><time>2026-04-04T15:07:21.015Z</time></trkpt><trkpt lat="43.69094" lon="11.5154933"><ele>352.0</ele><time>2026-04-04T15:07:24.011Z</time></trkpt><trkpt lat="43.6909883" lon="11.5155583"><ele>351.8571428571429</ele><time>2026-04-04T15:07:26.011Z</time></trkpt><trkpt lat="43.691055" lon="11.5156433"><ele>351.7142857142857</ele><time>2026-04-04T15:07:29.01Z</time></trkpt><trkpt lat="43.6911" lon="11.5157067"><ele>351.57142857142856</ele><time>2026-04-04T15:07:31.013Z</time></trkpt><trkpt lat="43.6911633" lon="11.5157883"><ele>351.42857142857144</ele><time>2026-04-04T15:07:34.014Z</time></trkpt><trkpt lat="43.691205" lon="11.5158567"><ele>351.2857142857143</ele><time>2026-04-04T15:07:36.011Z</time></trkpt><trkpt lat="43.6912483" lon="11.5159217"><ele>351.14285714285717</ele><time>2026-04-04T15:07:38.011Z</time></trkpt><trkpt lat="43.6913017" lon="11.515975"><ele>351.0</ele><time>2026-04-04T15:07:40.012Z</time></trkpt><trkpt lat="43.6913733" lon="11.5160583"><ele>352.3333333333333</ele><time>2026-04-04T15:07:43.013Z</time></trkpt><trkpt lat="43.6914233" lon="11.516115"><ele>353.6666666666667</ele><time>2026-04-04T15:07:45.014Z</time></trkpt><trkpt lat="43.6914867" lon="11.5161967"><ele>355.0</ele><time>2026-04-04T15:07:48.013Z</time></trkpt><trkpt lat="43.691555" lon="11.5162817"><ele>356.33333333333337</ele><time>2026-04-04T15:07:51.012Z</time></trkpt><trkpt lat="43.69162" lon="11.516355"><ele>357.6666666666667</ele><time>2026-04-04T15:07:54.012Z</time></trkpt><trkpt lat="43.6916867" lon="11.5164433"><ele>359.0</ele><time>2026-04-04T15:07:57.012Z</time></trkpt><trkpt lat="43.6917417" lon="11.5165483"><ele>359.0</ele><time>2026-04-04T15:08:00.012Z</time></trkpt><trkpt lat="43.6918033" lon="11.51664"><ele>359.0</ele><time>2026-04-04T15:08:03.012Z</time></trkpt><trkpt lat="43.6918617" lon="11.5167283"><ele>359.0</ele><time>2026-04-04T15:08:06.013Z</time></trkpt><trkpt lat="43.69193" lon="11.516795"><ele>359.0</ele><time>2026-04-04T15:08:09.013Z</time></trkpt><trkpt lat="43.6919983" lon="11.5168733"><ele>359.0</ele><time>2026-04-04T15:08:12.014Z</time></trkpt><trkpt lat="43.6920667" lon="11.5169467"><ele>359.0</ele><time>2026-04-04T15:08:15.01Z</time></trkpt><trkpt lat="43.6921417" lon="11.5170117"><ele>360.1666666666667</ele><time>2026-04-04T15:08:18.012Z</time></trkpt><trkpt lat="43.6922283" lon="11.51706"><ele>361.33333333333337</ele><time>2026-04-04T15:08:21.01Z</time></trkpt><trkpt lat="43.6923083" lon="11.51711"><ele>362.5</ele><time>2026-04-04T15:08:24.011Z</time></trkpt><trkpt lat="43.6923833" lon="11.5171617"><ele>363.6666666666667</ele><time>2026-04-04T15:08:27.01Z</time></trkpt><trkpt lat="43.69246" lon="11.517235"><ele>364.8333333333333</ele><time>2026-04-04T15:08:30.011Z</time></trkpt><trkpt lat="43.69253" lon="11.517265"><ele>366.0</ele><time>2026-04-04T15:08:32.01Z</time></trkpt><trkpt lat="43.6926133" lon="11.517305"><ele>366.0</ele><time>2026-04-04T15:08:35.01Z</time></trkpt><trkpt lat="43.6926833" lon="11.51737"><ele>366.0</ele><time>2026-04-04T15:08:38.009Z</time></trkpt><trkpt lat="43.69277" lon="11.5174133"><ele>366.0</ele><time>2026-04-04T15:08:41.009Z</time></trkpt><trkpt lat="43.6928433" lon="11.51747"><ele>366.0</ele><time>2026-04-04T15:08:44.01Z</time></trkpt><trkpt lat="43.6929083" lon="11.5175317"><ele>366.0</ele><time>2026-04-04T15:08:47.011Z</time></trkpt><trkpt lat="43.692985" lon="11.51758"><ele>366.0</ele><time>2026-04-04T15:08:50.012Z</time></trkpt><trkpt lat="43.6930633" lon="11.5176283"><ele>367.6666666666667</ele><time>2026-04-04T15:08:53.009Z</time></trkpt><trkpt lat="43.6931417" lon="11.5176733"><ele>369.3333333333333</ele><time>2026-04-04T15:08:56.011Z</time></trkpt><trkpt lat="43.6932083" lon="11.517695"><ele>371.0</ele><time>2026-04-04T15:08:58.01Z</time></trkpt><trkpt lat="43.6932817" lon="11.517755"><ele>372.66666666666663</ele><time>2026-04-04T15:09:01.01Z</time></trkpt><trkpt lat="43.6933583" lon="11.5178183"><ele>374.3333333333333</ele><time>2026-04-04T15:09:04.012Z</time></trkpt><trkpt lat="43.6934383" lon="11.5178783"><ele>376.0</ele><time>2026-04-04T15:09:07.01Z</time></trkpt><trkpt lat="43.6935183" lon="11.5179317"><ele>376.5</ele><time>2026-04-04T15:09:10.011Z</time></trkpt><trkpt lat="43.693595" lon="11.51799"><ele>377.0</ele><time>2026-04-04T15:09:13.011Z</time></trkpt><trkpt lat="43.6936817" lon="11.5180417"><ele>377.5</ele><time>2026-04-04T15:09:16.009Z</time></trkpt><trkpt lat="43.6937617" lon="11.5181017"><ele>378.0</ele><time>2026-04-04T15:09:19.011Z</time></trkpt><trkpt lat="43.6938483" lon="11.51816"><ele>378.5</ele><time>2026-04-04T15:09:22.01Z</time></trkpt><trkpt lat="43.6939083" lon="11.5182067"><ele>379.0</ele><time>2026-04-04T15:09:24.01Z</time></trkpt><trkpt lat="43.6939717" lon="11.5182433"><ele>379.0</ele><time>2026-04-04T15:09:26.011Z</time></trkpt><trkpt lat="43.694055" lon="11.5183"><ele>379.0</ele><time>2026-04-04T15:09:28.01Z</time></trkpt><trkpt lat="43.69415" lon="11.5183683"><ele>379.0</ele><time>2026-04-04T15:09:30.011Z</time></trkpt><trkpt lat="43.6942583" lon="11.5184333"><ele>379.0</ele><time>2026-04-04T15:09:32.011Z</time></trkpt><trkpt lat="43.6943183" lon="11.5184617"><ele>379.0</ele><time>2026-04-04T15:09:33.012Z</time></trkpt><trkpt lat="43.6944383" lon="11.5184467"><ele>380.2</ele><time>2026-04-04T15:09:35.011Z</time></trkpt><trkpt lat="43.6945" lon="11.5184117"><ele>381.4</ele><time>2026-04-04T15:09:36.011Z</time></trkpt><trkpt lat="43.694555" lon="11.5183667"><ele>382.6</ele><time>2026-04-04T15:09:37.011Z</time></trkpt><trkpt lat="43.6946333" lon="11.5182617"><ele>383.8</ele><time>2026-04-04T15:09:39.01Z</time></trkpt><trkpt lat="43.6946783" lon="11.5181317"><ele>385.0</ele><time>2026-04-04T15:09:41.011Z</time></trkpt><trkpt lat="43.6947183" lon="11.5179917"><ele>384.00000000000006</ele><time>2026-04-04T15:09:43.011Z</time></trkpt><trkpt lat="43.694775" lon="11.51788"><ele>383.0</ele><time>2026-04-04T15:09:45.012Z</time></trkpt><trkpt lat="43.69484" lon="11.517825"><ele>382.0</ele><time>2026-04-04T15:09:47.01Z</time></trkpt><trkpt lat="43.69491" lon="11.5177717"><ele>381.0</ele><time>2026-04-04T15:09:49.01Z</time></trkpt><trkpt lat="43.6949717" lon="11.517745"><ele>380.0</ele><time>2026-04-04T15:09:51.012Z</time></trkpt><trkpt lat="43.6950383" lon="11.5177217"><ele>379.0</ele><time>2026-04-04T15:09:53.011Z</time></trkpt><trkpt lat="43.6951217" lon="11.517695"><ele>379.0</ele><time>2026-04-04T15:09:56.011Z</time></trkpt><trkpt lat="43.6952033" lon="11.5176833"><ele>379.0</ele><time>2026-04-04T15:09:59.011Z</time></trkpt><trkpt lat="43.69529" lon="11.51766"><ele>379.0</ele><time>2026-04-04T15:10:02.011Z</time></trkpt><trkpt lat="43.6953633" lon="11.5176383"><ele>379.0</ele><time>2026-04-04T15:10:05.012Z</time></trkpt><trkpt lat="43.695435" lon="11.5176267"><ele>379.0</ele><time>2026-04-04T15:10:08.012Z</time></trkpt><trkpt lat="43.6955233" lon="11.5176217"><ele>379.0</ele><time>2026-04-04T15:10:11.012Z</time></trkpt><trkpt lat="43.6956" lon="11.51766"><ele>379.8333333333333</ele><time>2026-04-04T15:10:14.012Z</time></trkpt><trkpt lat="43.6956483" lon="11.51774"><ele>380.66666666666663</ele><time>2026-04-04T15:10:17.01Z</time></trkpt><trkpt lat="43.6956833" lon="11.5178583"><ele>381.5</ele><time>2026-04-04T15:10:20.012Z</time></trkpt><trkpt lat="43.6957017" lon="11.5179783"><ele>382.3333333333333</ele><time>2026-04-04T15:10:23.011Z</time></trkpt><trkpt lat="43.6957267" lon="11.518085"><ele>383.1666666666667</ele><time>2026-04-04T15:10:26.011Z</time></trkpt><trkpt lat="43.6957517" lon="11.518195"><ele>384.0</ele><time>2026-04-04T15:10:29.011Z</time></trkpt><trkpt lat="43.695785" lon="11.5183067"><ele>385.3333333333333</ele><time>2026-04-04T15:10:32.013Z</time></trkpt><trkpt lat="43.6958033" lon="11.5184183"><ele>386.66666666666663</ele><time>2026-04-04T15:10:35.011Z</time></trkpt><trkpt lat="43.695825" lon="11.51852"><ele>388.0</ele><time>2026-04-04T15:10:38.011Z</time></trkpt><trkpt lat="43.695855" lon="11.5186267"><ele>389.3333333333333</ele><time>2026-04-04T15:10:41.01Z</time></trkpt><trkpt lat="43.6958733" lon="11.518735"><ele>390.66666666666663</ele><time>2026-04-04T15:10:44.012Z</time></trkpt><trkpt lat="43.6958967" lon="11.5188317"><ele>392.0</ele><time>2026-04-04T15:10:47.01Z</time></trkpt><trkpt lat="43.6959233" lon="11.5189367"><ele>392.49999999999994</ele><time>2026-04-04T15:10:50.012Z</time></trkpt><trkpt lat="43.6959533" lon="11.5190433"><ele>393.0</ele><time>2026-04-04T15:10:53.011Z</time></trkpt><trkpt lat="43.695985" lon="11.5191467"><ele>393.5</ele><time>2026-04-04T15:10:56.013Z</time></trkpt><trkpt lat="43.6960033" lon="11.519245"><ele>394.0</ele><time>2026-04-04T15:10:59.01Z</time></trkpt><trkpt lat="43.696025" lon="11.5193417"><ele>394.49999999999994</ele><time>2026-04-04T15:11:02.013Z</time></trkpt><trkpt lat="43.6960417" lon="11.51945"><ele>395.0</ele><time>2026-04-04T15:11:06.012Z</time></trkpt><trkpt lat="43.69607" lon="11.5195533"><ele>396.16666666666663</ele><time>2026-04-04T15:11:10.011Z</time></trkpt><trkpt lat="43.6961033" lon="11.5196533"><ele>397.3333333333333</ele><time>2026-04-04T15:11:13.012Z</time></trkpt><trkpt lat="43.6961267" lon="11.5197483"><ele>398.5</ele><time>2026-04-04T15:11:16.012Z</time></trkpt><trkpt lat="43.6961517" lon="11.5198583"><ele>399.66666666666663</ele><time>2026-04-04T15:11:19.012Z</time></trkpt><trkpt lat="43.69618" lon="11.519955"><ele>400.8333333333333</ele><time>2026-04-04T15:11:22.012Z</time></trkpt><trkpt lat="43.6962133" lon="11.5200483"><ele>402.0</ele><time>2026-04-04T15:11:25.011Z</time></trkpt><trkpt lat="43.696255" lon="11.52013"><ele>402.0</ele><time>2026-04-04T15:11:28.011Z</time></trkpt><trkpt lat="43.6963133" lon="11.5202183"><ele>402.0</ele><time>2026-04-04T15:11:31.011Z</time></trkpt><trkpt lat="43.696375" lon="11.5203017"><ele>402.0</ele><time>2026-04-04T15:11:34.011Z</time></trkpt><trkpt lat="43.6964267" lon="11.5203817"><ele>402.0</ele><time>2026-04-04T15:11:37.013Z</time></trkpt><trkpt lat="43.696475" lon="11.5204567"><ele>402.0</ele><time>2026-04-04T15:11:40.012Z</time></trkpt><trkpt lat="43.6965467" lon="11.52056"><ele>402.0</ele><time>2026-04-04T15:11:43.012Z</time></trkpt><trkpt lat="43.696595" lon="11.520645"><ele>402.57142857142856</ele><time>2026-04-04T15:11:45.011Z</time></trkpt><trkpt lat="43.6966367" lon="11.5207117"><ele>403.14285714285717</ele><time>2026-04-04T15:11:47.013Z</time></trkpt><trkpt lat="43.6966817" lon="11.5207767"><ele>403.7142857142857</ele><time>2026-04-04T15:11:49.013Z</time></trkpt><trkpt lat="43.6967333" lon="11.520835"><ele>404.2857142857143</ele><time>2026-04-04T15:11:51.012Z</time></trkpt><trkpt lat="43.696795" lon="11.52089"><ele>404.8571428571429</ele><time>2026-04-04T15:11:53.012Z</time></trkpt><trkpt lat="43.6968517" lon="11.5209733"><ele>405.42857142857144</ele><time>2026-04-04T15:11:55.012Z</time></trkpt><trkpt lat="43.6969033" lon="11.5210583"><ele>406.0</ele><time>2026-04-04T15:11:57.013Z</time></trkpt><trkpt lat="43.6969367" lon="11.5211567"><ele>407.0</ele><time>2026-04-04T15:11:59.01Z</time></trkpt><trkpt lat="43.696965" lon="11.52126"><ele>408.0</ele><time>2026-04-04T15:12:01.013Z</time></trkpt><trkpt lat="43.6969933" lon="11.521345"><ele>409.0</ele><time>2026-04-04T15:12:03.012Z</time></trkpt><trkpt lat="43.697025" lon="11.5214367"><ele>410.0</ele><time>2026-04-04T15:12:05.012Z</time></trkpt><trkpt lat="43.6970467" lon="11.52153"><ele>411.0</ele><time>2026-04-04T15:12:07.012Z</time></trkpt><trkpt lat="43.697065" lon="11.52162"><ele>412.0</ele><time>2026-04-04T15:12:09.012Z</time></trkpt><trkpt lat="43.69707" lon="11.5217283"><ele>413.0</ele><time>2026-04-04T15:12:12.012Z</time></trkpt><trkpt lat="43.6970883" lon="11.52185"><ele>412.99999999999994</ele><time>2026-04-04T15:12:15.011Z</time></trkpt><trkpt lat="43.697115" lon="11.5219683"><ele>413.0</ele><time>2026-04-04T15:12:18.012Z</time></trkpt><trkpt lat="43.6971317" lon="11.5220933"><ele>413.0</ele><time>2026-04-04T15:12:21.013Z</time></trkpt><trkpt lat="43.697155" lon="11.522215"><ele>413.0</ele><time>2026-04-04T15:12:24.013Z</time></trkpt><trkpt lat="43.6971683" lon="11.52234"><ele>412.99999999999994</ele><time>2026-04-04T15:12:27.013Z</time></trkpt><trkpt lat="43.6971767" lon="11.5224483"><ele>413.0</ele><time>2026-04-04T15:12:30.01Z</time></trkpt><trkpt lat="43.6971933" lon="11.5225333"><ele>414.16666666666663</ele><time>2026-04-04T15:12:32.011Z</time></trkpt><trkpt lat="43.69721" lon="11.5226233"><ele>415.3333333333333</ele><time>2026-04-04T15:12:34.011Z</time></trkpt><trkpt lat="43.697225" lon="11.5227083"><ele>416.5</ele><time>2026-04-04T15:12:36.013Z</time></trkpt><trkpt lat="43.69724" lon="11.522795"><ele>417.66666666666663</ele><time>2026-04-04T15:12:38.013Z</time></trkpt><trkpt lat="43.6972517" lon="11.5229283"><ele>418.8333333333333</ele><time>2026-04-04T15:12:41.012Z</time></trkpt><trkpt lat="43.69726" lon="11.52305"><ele>420.0</ele><time>2026-04-04T15:12:44.01Z</time></trkpt><trkpt lat="43.6972533" lon="11.5231583"><ele>421.14285714285717</ele><time>2026-04-04T15:12:47.01Z</time></trkpt><trkpt lat="43.6972467" lon="11.523245"><ele>422.2857142857143</ele><time>2026-04-04T15:12:49.011Z</time></trkpt><trkpt lat="43.6972333" lon="11.523335"><ele>423.42857142857144</ele><time>2026-04-04T15:12:51.011Z</time></trkpt><trkpt lat="43.6972317" lon="11.52345"><ele>424.57142857142856</ele><time>2026-04-04T15:12:54.01Z</time></trkpt><trkpt lat="43.6972033" lon="11.5235567"><ele>425.7142857142857</ele><time>2026-04-04T15:12:58.008Z</time></trkpt><trkpt lat="43.697195" lon="11.5236533"><ele>426.8571428571429</ele><time>2026-04-04T15:13:01.009Z</time></trkpt><trkpt lat="43.6971983" lon="11.5237633"><ele>428.0</ele><time>2026-04-04T15:13:05.01Z</time></trkpt><trkpt lat="43.6972167" lon="11.52388"><ele>428.99999999999994</ele><time>2026-04-04T15:13:08.011Z</time></trkpt><trkpt lat="43.6972283" lon="11.5240017"><ele>430.0</ele><time>2026-04-04T15:13:11.01Z</time></trkpt><trkpt lat="43.6972483" lon="11.5241"><ele>431.0</ele><time>2026-04-04T15:13:14.01Z</time></trkpt><trkpt lat="43.6972833" lon="11.52421"><ele>432.0</ele><time>2026-04-04T15:13:17.011Z</time></trkpt><trkpt lat="43.6973267" lon="11.5243083"><ele>432.99999999999994</ele><time>2026-04-04T15:13:20.01Z</time></trkpt><trkpt lat="43.6973717" lon="11.5244133"><ele>434.0</ele><time>2026-04-04T15:13:23.01Z</time></trkpt><trkpt lat="43.6974317" lon="11.5245133"><ele>434.8333333333333</ele><time>2026-04-04T15:13:26.011Z</time></trkpt><trkpt lat="43.697485" lon="11.5246033"><ele>435.66666666666663</ele><time>2026-04-04T15:13:29.011Z</time></trkpt><trkpt lat="43.697525" lon="11.5247"><ele>436.5</ele><time>2026-04-04T15:13:32.009Z</time></trkpt><trkpt lat="43.6975783" lon="11.524785"><ele>437.33333333333337</ele><time>2026-04-04T15:13:35.011Z</time></trkpt><trkpt lat="43.6976433" lon="11.52486"><ele>438.1666666666667</ele><time>2026-04-04T15:13:38.011Z</time></trkpt><trkpt lat="43.6977017" lon="11.5249367"><ele>439.0</ele><time>2026-04-04T15:13:41.011Z</time></trkpt><trkpt lat="43.6977633" lon="11.5250017"><ele>440.33333333333337</ele><time>2026-04-04T15:13:44.011Z</time></trkpt><trkpt lat="43.69782" lon="11.5250883"><ele>441.6666666666667</ele><time>2026-04-04T15:13:47.013Z</time></trkpt><trkpt lat="43.697885" lon="11.52516"><ele>443.0</ele><time>2026-04-04T15:13:50.01Z</time></trkpt><trkpt lat="43.6979583" lon="11.5252333"><ele>444.33333333333337</ele><time>2026-04-04T15:13:53.011Z</time></trkpt><trkpt lat="43.69802" lon="11.5252833"><ele>445.6666666666667</ele><time>2026-04-04T15:13:55.01Z</time></trkpt><trkpt lat="43.69808" lon="11.5253717"><ele>447.0</ele><time>2026-04-04T15:13:58.01Z</time></trkpt><trkpt lat="43.6981367" lon="11.5254483"><ele>448.1666666666667</ele><time>2026-04-04T15:14:01.01Z</time></trkpt><trkpt lat="43.6982" lon="11.5255117"><ele>449.33333333333337</ele><time>2026-04-04T15:14:04.01Z</time></trkpt><trkpt lat="43.6982817" lon="11.52554"><ele>450.5</ele><time>2026-04-04T15:14:07.01Z</time></trkpt><trkpt lat="43.698375" lon="11.5255417"><ele>451.6666666666667</ele><time>2026-04-04T15:14:10.009Z</time></trkpt><trkpt lat="43.6984417" lon="11.525525"><ele>452.83333333333337</ele><time>2026-04-04T15:14:12.012Z</time></trkpt><trkpt lat="43.6985283" lon="11.5255067"><ele>454.0</ele><time>2026-04-04T15:14:15.01Z</time></trkpt><trkpt lat="43.6985917" lon="11.5254767"><ele>454.1666666666667</ele><time>2026-04-04T15:14:17.011Z</time></trkpt><trkpt lat="43.6986783" lon="11.5254183"><ele>454.33333333333337</ele><time>2026-04-04T15:14:20.01Z</time></trkpt><trkpt lat="43.6987533" lon="11.5253483"><ele>454.5</ele><time>2026-04-04T15:14:23.011Z</time></trkpt><trkpt lat="43.6988217" lon="11.5253533"><ele>454.66666666666663</ele><time>2026-04-04T15:14:26.01Z</time></trkpt><trkpt lat="43.6987833" lon="11.52545"><ele>454.8333333333333</ele><time>2026-04-04T15:14:29.01Z</time></trkpt><trkpt lat="43.69872" lon="11.5255317"><ele>455.0</ele><time>2026-04-04T15:14:32.012Z</time></trkpt><trkpt lat="43.69867" lon="11.5255933"><ele>454.8</ele><time>2026-04-04T15:14:34.01Z</time></trkpt><trkpt lat="43.698615" lon="11.525675"><ele>454.6</ele><time>2026-04-04T15:14:36.012Z</time></trkpt><trkpt lat="43.6985633" lon="11.5257667"><ele>454.4</ele><time>2026-04-04T15:14:38.011Z</time></trkpt><trkpt lat="43.6985" lon="11.5258833"><ele>454.2</ele><time>2026-04-04T15:14:40.014Z</time></trkpt><trkpt lat="43.6984233" lon="11.5260067"><ele>454.0</ele><time>2026-04-04T15:14:42.012Z</time></trkpt><trkpt lat="43.6983533" lon="11.5261217"><ele>455.25</ele><time>2026-04-04T15:14:44.011Z</time></trkpt><trkpt lat="43.6982717" lon="11.5262483"><ele>456.5</ele><time>2026-04-04T15:14:46.011Z</time></trkpt><trkpt lat="43.6981983" lon="11.5263767"><ele>457.75</ele><time>2026-04-04T15:14:48.011Z</time></trkpt><trkpt lat="43.698135" lon="11.5264867"><ele>459.0</ele><time>2026-04-04T15:14:50.011Z</time></trkpt><trkpt lat="43.6980567" lon="11.5266"><ele>459.0</ele><time>2026-04-04T15:14:52.01Z</time></trkpt><trkpt lat="43.698015" lon="11.526735"><ele>459.0</ele><time>2026-04-04T15:14:54.012Z</time></trkpt><trkpt lat="43.6980083" lon="11.52688"><ele>459.0</ele><time>2026-04-04T15:14:56.012Z</time></trkpt><trkpt lat="43.6980167" lon="11.5270283"><ele>459.0</ele><time>2026-04-04T15:14:58.01Z</time></trkpt><trkpt lat="43.6980267" lon="11.5271633"><ele>459.0</ele><time>2026-04-04T15:15:00.011Z</time></trkpt><trkpt lat="43.6980283" lon="11.5272967"><ele>459.4</ele><time>2026-04-04T15:15:02.011Z</time></trkpt><trkpt lat="43.69803" lon="11.52744"><ele>459.79999999999995</ele><time>2026-04-04T15:15:04.011Z</time></trkpt><trkpt lat="43.6980317" lon="11.5275717"><ele>460.20000000000005</ele><time>2026-04-04T15:15:06.012Z</time></trkpt><trkpt lat="43.6980417" lon="11.5277067"><ele>460.6</ele><time>2026-04-04T15:15:08.012Z</time></trkpt><trkpt lat="43.6980483" lon="11.52785"><ele>461.0</ele><time>2026-04-04T15:15:10.011Z</time></trkpt><trkpt lat="43.698055" lon="11.527985"><ele>461.4</ele><time>2026-04-04T15:15:12.012Z</time></trkpt><trkpt lat="43.698065" lon="11.5281333"><ele>461.8</ele><time>2026-04-04T15:15:14.016Z</time></trkpt><trkpt lat="43.6980733" lon="11.5282867"><ele>462.19999999999993</ele><time>2026-04-04T15:15:16.01Z</time></trkpt><trkpt lat="43.698085" lon="11.528445"><ele>462.59999999999997</ele><time>2026-04-04T15:15:18.013Z</time></trkpt><trkpt lat="43.6980933" lon="11.5285933"><ele>463.0</ele><time>2026-04-04T15:15:20.013Z</time></trkpt><trkpt lat="43.6981017" lon="11.5287433"><ele>463.4</ele><time>2026-04-04T15:15:22.01Z</time></trkpt><trkpt lat="43.6981217" lon="11.5288933"><ele>463.79999999999995</ele><time>2026-04-04T15:15:24.009Z</time></trkpt><trkpt lat="43.69814" lon="11.5290433"><ele>464.2</ele><time>2026-04-04T15:15:26.011Z</time></trkpt><trkpt lat="43.698155" lon="11.5291917"><ele>464.6</ele><time>2026-04-04T15:15:28.009Z</time></trkpt><trkpt lat="43.6981617" lon="11.529335"><ele>465.0</ele><time>2026-04-04T15:15:30.01Z</time></trkpt><trkpt lat="43.698115" lon="11.5294617"><ele>465.2</ele><time>2026-04-04T15:15:32.011Z</time></trkpt><trkpt lat="43.6980317" lon="11.52956"><ele>465.4</ele><time>2026-04-04T15:15:34.012Z</time></trkpt><trkpt lat="43.6979483" lon="11.5296517"><ele>465.6</ele><time>2026-04-04T15:15:36.012Z</time></trkpt><trkpt lat="43.6978567" lon="11.52967"><ele>465.8</ele><time>2026-04-04T15:15:38.013Z</time></trkpt><trkpt lat="43.6977567" lon="11.5296367"><ele>466.0</ele><time>2026-04-04T15:15:40.013Z</time></trkpt><trkpt lat="43.697655" lon="11.52955"><ele>466.0</ele><time>2026-04-04T15:15:42.012Z</time></trkpt><trkpt lat="43.6975667" lon="11.52943"><ele>466.0</ele><time>2026-04-04T15:15:44.011Z</time></trkpt><trkpt lat="43.697505" lon="11.529275"><ele>466.0</ele><time>2026-04-04T15:15:46.012Z</time></trkpt><trkpt lat="43.6974817" lon="11.5291883"><ele>466.0</ele><time>2026-04-04T15:15:47.012Z</time></trkpt><trkpt lat="43.6974617" lon="11.5290983"><ele>466.0</ele><time>2026-04-04T15:15:48.013Z</time></trkpt><trkpt lat="43.6974383" lon="11.5290133"><ele>466.00000000000006</ele><time>2026-04-04T15:15:49.014Z</time></trkpt><trkpt lat="43.69741" lon="11.5289217"><ele>466.0</ele><time>2026-04-04T15:15:50.013Z</time></trkpt><trkpt lat="43.6973633" lon="11.5288333"><ele>466.0</ele><time>2026-04-04T15:15:51.013Z</time></trkpt><trkpt lat="43.6973267" lon="11.5287333"><ele>466.0</ele><time>2026-04-04T15:15:52.013Z</time></trkpt><trkpt lat="43.6972867" lon="11.5286417"><ele>466.00000000000006</ele><time>2026-04-04T15:15:53.013Z</time></trkpt><trkpt lat="43.697235" lon="11.5285633"><ele>466.0</ele><time>2026-04-04T15:15:54.013Z</time></trkpt><trkpt lat="43.697175" lon="11.5284867"><ele>464.6</ele><time>2026-04-04T15:15:55.014Z</time></trkpt><trkpt lat="43.697105" lon="11.5284383"><ele>463.20000000000005</ele><time>2026-04-04T15:15:56.012Z</time></trkpt><trkpt lat="43.6970233" lon="11.5284033"><ele>461.79999999999995</ele><time>2026-04-04T15:15:57.012Z</time></trkpt><trkpt lat="43.6969417" lon="11.5283917"><ele>460.4</ele><time>2026-04-04T15:15:58.013Z</time></trkpt><trkpt lat="43.69683" lon="11.5284933"><ele>459.0</ele><time>2026-04-04T15:16:00.012Z</time></trkpt><trkpt lat="43.69677" lon="11.5285517"><ele>459.0</ele><time>2026-04-04T15:16:01.012Z</time></trkpt><trkpt lat="43.6967167" lon="11.5286217"><ele>459.0</ele><time>2026-04-04T15:16:02.012Z</time></trkpt><trkpt lat="43.696655" lon="11.5286867"><ele>459.0</ele><time>2026-04-04T15:16:03.012Z</time></trkpt><trkpt lat="43.6966083" lon="11.5287617"><ele>459.0</ele><time>2026-04-04T15:16:04.011Z</time></trkpt><trkpt lat="43.696565" lon="11.528835"><ele>459.0</ele><time>2026-04-04T15:16:05.013Z</time></trkpt><trkpt lat="43.6965267" lon="11.52891"><ele>459.0</ele><time>2026-04-04T15:16:06.013Z</time></trkpt><trkpt lat="43.6964567" lon="11.529045"><ele>460.7142857142857</ele><time>2026-04-04T15:16:08.014Z</time></trkpt><trkpt lat="43.6964183" lon="11.529115"><ele>462.42857142857144</ele><time>2026-04-04T15:16:09.012Z</time></trkpt><trkpt lat="43.696375" lon="11.5291833"><ele>464.14285714285717</ele><time>2026-04-04T15:16:10.011Z</time></trkpt><trkpt lat="43.6963317" lon="11.5292533"><ele>465.8571428571429</ele><time>2026-04-04T15:16:11.012Z</time></trkpt><trkpt lat="43.6962867" lon="11.5293183"><ele>467.57142857142856</ele><time>2026-04-04T15:16:12.012Z</time></trkpt><trkpt lat="43.6962433" lon="11.5293933"><ele>469.28571428571433</ele><time>2026-04-04T15:16:13.011Z</time></trkpt><trkpt lat="43.6962033" lon="11.529465"><ele>471.00000000000006</ele><time>2026-04-04T15:16:14.012Z</time></trkpt><trkpt lat="43.6961667" lon="11.5295367"><ele>471.5</ele><time>2026-04-04T15:16:15.011Z</time></trkpt><trkpt lat="43.6961217" lon="11.5296"><ele>472.0</ele><time>2026-04-04T15:16:16.013Z</time></trkpt><trkpt lat="43.6960367" lon="11.5297083"><ele>472.5</ele><time>2026-04-04T15:16:18.013Z</time></trkpt><trkpt lat="43.6959183" lon="11.5297483"><ele>473.0</ele><time>2026-04-04T15:16:20.012Z</time></trkpt><trkpt lat="43.695855" lon="11.5297567"><ele>473.5</ele><time>2026-04-04T15:16:21.014Z</time></trkpt><trkpt lat="43.695785" lon="11.5297533"><ele>474.0</ele><time>2026-04-04T15:16:22.012Z</time></trkpt><trkpt lat="43.695715" lon="11.52974"><ele>474.0</ele><time>2026-04-04T15:16:23.011Z</time></trkpt><trkpt lat="43.6956483" lon="11.5297283"><ele>474.0</ele><time>2026-04-04T15:16:24.011Z</time></trkpt><trkpt lat="43.6955433" lon="11.5297133"><ele>474.0</ele><time>2026-04-04T15:16:26.012Z</time></trkpt><trkpt lat="43.6954367" lon="11.529705"><ele>474.0</ele><time>2026-04-04T15:16:28.012Z</time></trkpt><trkpt lat="43.6953267" lon="11.5297083"><ele>474.0</ele><time>2026-04-04T15:16:30.013Z</time></trkpt><trkpt lat="43.695225" lon="11.52969"><ele>473.0</ele><time>2026-04-04T15:16:32.012Z</time></trkpt><trkpt lat="43.69516" lon="11.529605"><ele>472.0</ele><time>2026-04-04T15:16:34.012Z</time></trkpt><trkpt lat="43.69512" lon="11.52949"><ele>471.0</ele><time>2026-04-04T15:16:36.012Z</time></trkpt><trkpt lat="43.6950967" lon="11.5293767"><ele>470.0</ele><time>2026-04-04T15:16:38.012Z</time></trkpt><trkpt lat="43.695075" lon="11.5292583"><ele>469.0</ele><time>2026-04-04T15:16:40.014Z</time></trkpt><trkpt lat="43.6950417" lon="11.5291383"><ele>468.0</ele><time>2026-04-04T15:16:42.013Z</time></trkpt><trkpt lat="43.6950017" lon="11.529015"><ele>468.0</ele><time>2026-04-04T15:16:44.011Z</time></trkpt><trkpt lat="43.6949417" lon="11.52888"><ele>467.99999999999994</ele><time>2026-04-04T15:16:46.01Z</time></trkpt><trkpt lat="43.694845" lon="11.528755"><ele>467.99999999999994</ele><time>2026-04-04T15:16:48.009Z</time></trkpt><trkpt lat="43.69478" lon="11.5287017"><ele>468.0</ele><time>2026-04-04T15:16:49.01Z</time></trkpt><trkpt lat="43.69471" lon="11.5286567"><ele>468.0</ele><time>2026-04-04T15:16:50.011Z</time></trkpt><trkpt lat="43.6946383" lon="11.528615"><ele>466.3333333333333</ele><time>2026-04-04T15:16:51.007Z</time></trkpt><trkpt lat="43.6945567" lon="11.5285733"><ele>464.66666666666663</ele><time>2026-04-04T15:16:52.008Z</time></trkpt><trkpt lat="43.69447" lon="11.5285283"><ele>463.0</ele><time>2026-04-04T15:16:53.011Z</time></trkpt><trkpt lat="43.6943867" lon="11.5284817"><ele>461.3333333333333</ele><time>2026-04-04T15:16:54.012Z</time></trkpt><trkpt lat="43.6943067" lon="11.52844"><ele>459.66666666666663</ele><time>2026-04-04T15:16:55.011Z</time></trkpt><trkpt lat="43.6942233" lon="11.5284067"><ele>458.0</ele><time>2026-04-04T15:16:56.014Z</time></trkpt><trkpt lat="43.6941417" lon="11.52839"><ele>457.99999999999994</ele><time>2026-04-04T15:16:57.012Z</time></trkpt><trkpt lat="43.6940517" lon="11.5283933"><ele>458.0</ele><time>2026-04-04T15:16:58.011Z</time></trkpt><trkpt lat="43.6939667" lon="11.5284217"><ele>458.0</ele><time>2026-04-04T15:16:59.012Z</time></trkpt><trkpt lat="43.6939" lon="11.52849"><ele>458.0</ele><time>2026-04-04T15:17:00.012Z</time></trkpt><trkpt lat="43.693845" lon="11.5285883"><ele>457.99999999999994</ele><time>2026-04-04T15:17:01.012Z</time></trkpt><trkpt lat="43.6937867" lon="11.5286867"><ele>458.0</ele><time>2026-04-04T15:17:02.01Z</time></trkpt><trkpt lat="43.6937267" lon="11.5287883"><ele>457.79999999999995</ele><time>2026-04-04T15:17:03.01Z</time></trkpt><trkpt lat="43.6936717" lon="11.5288883"><ele>457.59999999999997</ele><time>2026-04-04T15:17:04.011Z</time></trkpt><trkpt lat="43.6936167" lon="11.5289917"><ele>457.40000000000003</ele><time>2026-04-04T15:17:05.011Z</time></trkpt><trkpt lat="43.69356" lon="11.5290967"><ele>457.20000000000005</ele><time>2026-04-04T15:17:06.01Z</time></trkpt><trkpt lat="43.6935033" lon="11.5292017"><ele>457.0</ele><time>2026-04-04T15:17:07.011Z</time></trkpt><trkpt lat="43.6934467" lon="11.5293017"><ele>457.00000000000006</ele><time>2026-04-04T15:17:08.009Z</time></trkpt><trkpt lat="43.69339" lon="11.5294"><ele>457.0</ele><time>2026-04-04T15:17:09.011Z</time></trkpt><trkpt lat="43.6933333" lon="11.52949"><ele>457.0</ele><time>2026-04-04T15:17:10.012Z</time></trkpt><trkpt lat="43.6932783" lon="11.5295833"><ele>457.0</ele><time>2026-04-04T15:17:11.01Z</time></trkpt><trkpt lat="43.6932233" lon="11.529675"><ele>457.00000000000006</ele><time>2026-04-04T15:17:12.01Z</time></trkpt><trkpt lat="43.6931667" lon="11.5297633"><ele>457.0</ele><time>2026-04-04T15:17:13.012Z</time></trkpt><trkpt lat="43.6931083" lon="11.5298517"><ele>458.6666666666667</ele><time>2026-04-04T15:17:14.012Z</time></trkpt><trkpt lat="43.6930533" lon="11.52994"><ele>460.33333333333337</ele><time>2026-04-04T15:17:15.011Z</time></trkpt><trkpt lat="43.693" lon="11.5300317"><ele>462.0</ele><time>2026-04-04T15:17:16.01Z</time></trkpt><trkpt lat="43.6929533" lon="11.53012"><ele>463.66666666666663</ele><time>2026-04-04T15:17:17.012Z</time></trkpt><trkpt lat="43.692905" lon="11.5302083"><ele>465.3333333333333</ele><time>2026-04-04T15:17:18.011Z</time></trkpt><trkpt lat="43.6928583" lon="11.5303"><ele>467.0</ele><time>2026-04-04T15:17:19.013Z</time></trkpt><trkpt lat="43.6928117" lon="11.5303867"><ele>465.99999999999994</ele><time>2026-04-04T15:17:20.013Z</time></trkpt><trkpt lat="43.6927667" lon="11.5304817"><ele>465.0</ele><time>2026-04-04T15:17:21.01Z</time></trkpt><trkpt lat="43.6927217" lon="11.530575"><ele>464.0</ele><time>2026-04-04T15:17:22.01Z</time></trkpt><trkpt lat="43.692675" lon="11.5306633"><ele>463.0</ele><time>2026-04-04T15:17:23.012Z</time></trkpt><trkpt lat="43.6926283" lon="11.53075"><ele>461.99999999999994</ele><time>2026-04-04T15:17:24.009Z</time></trkpt><trkpt lat="43.6925833" lon="11.5308367"><ele>461.0</ele><time>2026-04-04T15:17:25.012Z</time></trkpt><trkpt lat="43.6925367" lon="11.5309217"><ele>460.99999999999994</ele><time>2026-04-04T15:17:26.01Z</time></trkpt><trkpt lat="43.6924917" lon="11.5310133"><ele>461.0</ele><time>2026-04-04T15:17:27.011Z</time></trkpt><trkpt lat="43.6924467" lon="11.5311067"><ele>461.0</ele><time>2026-04-04T15:17:28.013Z</time></trkpt><trkpt lat="43.6923967" lon="11.531205"><ele>461.0</ele><time>2026-04-04T15:17:29.009Z</time></trkpt><trkpt lat="43.6923467" lon="11.5313033"><ele>460.99999999999994</ele><time>2026-04-04T15:17:30.011Z</time></trkpt><trkpt lat="43.6922983" lon="11.5313967"><ele>461.0</ele><time>2026-04-04T15:17:31.013Z</time></trkpt><trkpt lat="43.6922533" lon="11.531485"><ele>461.42857142857144</ele><time>2026-04-04T15:17:32.013Z</time></trkpt><trkpt lat="43.6922117" lon="11.5315667"><ele>461.8571428571429</ele><time>2026-04-04T15:17:33.011Z</time></trkpt><trkpt lat="43.692185" lon="11.531655"><ele>462.28571428571433</ele><time>2026-04-04T15:17:34.01Z</time></trkpt><trkpt lat="43.6921783" lon="11.5317533"><ele>462.7142857142858</ele><time>2026-04-04T15:17:35.011Z</time></trkpt><trkpt lat="43.6921867" lon="11.53185"><ele>463.14285714285717</ele><time>2026-04-04T15:17:36.011Z</time></trkpt><trkpt lat="43.6922083" lon="11.5319533"><ele>463.57142857142867</ele><time>2026-04-04T15:17:37.01Z</time></trkpt><trkpt lat="43.6922383" lon="11.53206"><ele>464.00000000000006</ele><time>2026-04-04T15:17:38.011Z</time></trkpt><trkpt lat="43.6922717" lon="11.5321617"><ele>462.4</ele><time>2026-04-04T15:17:39.012Z</time></trkpt><trkpt lat="43.6923183" lon="11.5322633"><ele>460.79999999999995</ele><time>2026-04-04T15:17:40.01Z</time></trkpt><trkpt lat="43.6923667" lon="11.5323617"><ele>459.20000000000005</ele><time>2026-04-04T15:17:41.011Z</time></trkpt><trkpt lat="43.69242" lon="11.5324667"><ele>457.6</ele><time>2026-04-04T15:17:42.01Z</time></trkpt><trkpt lat="43.6924717" lon="11.5325833"><ele>456.0</ele><time>2026-04-04T15:17:43.012Z</time></trkpt><trkpt lat="43.692505" lon="11.5327133"><ele>456.0</ele><time>2026-04-04T15:17:44.012Z</time></trkpt><trkpt lat="43.69252" lon="11.5328533"><ele>456.0</ele><time>2026-04-04T15:17:45.01Z</time></trkpt><trkpt lat="43.6925283" lon="11.5329983"><ele>456.0</ele><time>2026-04-04T15:17:46.011Z</time></trkpt><trkpt lat="43.69253" lon="11.5331483"><ele>456.0</ele><time>2026-04-04T15:17:47.01Z</time></trkpt><trkpt lat="43.6925333" lon="11.5332933"><ele>456.0</ele><time>2026-04-04T15:17:48.011Z</time></trkpt><trkpt lat="43.6925383" lon="11.5334267"><ele>455.8333333333333</ele><time>2026-04-04T15:17:49.012Z</time></trkpt><trkpt lat="43.69254" lon="11.533545"><ele>455.66666666666663</ele><time>2026-04-04T15:17:50.011Z</time></trkpt><trkpt lat="43.6925317" lon="11.5336667"><ele>455.5</ele><time>2026-04-04T15:17:51.01Z</time></trkpt><trkpt lat="43.6925067" lon="11.5337833"><ele>455.3333333333333</ele><time>2026-04-04T15:17:52.01Z</time></trkpt><trkpt lat="43.6924633" lon="11.5338683"><ele>455.16666666666663</ele><time>2026-04-04T15:17:53.011Z</time></trkpt><trkpt lat="43.6923867" lon="11.5339233"><ele>455.0</ele><time>2026-04-04T15:17:54.012Z</time></trkpt><trkpt lat="43.69229" lon="11.5339633"><ele>455.0</ele><time>2026-04-04T15:17:55.011Z</time></trkpt><trkpt lat="43.692195" lon="11.5340067"><ele>455.0</ele><time>2026-04-04T15:17:56.012Z</time></trkpt><trkpt lat="43.692095" lon="11.5340533"><ele>455.0</ele><time>2026-04-04T15:17:57.01Z</time></trkpt><trkpt lat="43.6920017" lon="11.5341067"><ele>455.0</ele><time>2026-04-04T15:17:58.012Z</time></trkpt><trkpt lat="43.6919183" lon="11.5341667"><ele>455.0</ele><time>2026-04-04T15:17:59.011Z</time></trkpt><trkpt lat="43.69184" lon="11.5342317"><ele>452.99999999999994</ele><time>2026-04-04T15:18:00.012Z</time></trkpt><trkpt lat="43.6917667" lon="11.5343067"><ele>451.0</ele><time>2026-04-04T15:18:01.009Z</time></trkpt><trkpt lat="43.6917067" lon="11.5343867"><ele>449.0</ele><time>2026-04-04T15:18:02.011Z</time></trkpt><trkpt lat="43.6916617" lon="11.53447"><ele>447.0</ele><time>2026-04-04T15:18:03.009Z</time></trkpt><trkpt lat="43.6916283" lon="11.53456"><ele>444.99999999999994</ele><time>2026-04-04T15:18:04.011Z</time></trkpt><trkpt lat="43.6916317" lon="11.5346683"><ele>443.0</ele><time>2026-04-04T15:18:05.01Z</time></trkpt><trkpt lat="43.6916517" lon="11.53478"><ele>442.99999999999994</ele><time>2026-04-04T15:18:06.01Z</time></trkpt><trkpt lat="43.6916667" lon="11.534895"><ele>443.0</ele><time>2026-04-04T15:18:07.01Z</time></trkpt><trkpt lat="43.691665" lon="11.5350117"><ele>443.0</ele><time>2026-04-04T15:18:08.009Z</time></trkpt><trkpt lat="43.6916567" lon="11.5351367"><ele>443.0</ele><time>2026-04-04T15:18:09.01Z</time></trkpt><trkpt lat="43.6916567" lon="11.53527"><ele>442.99999999999994</ele><time>2026-04-04T15:18:10.011Z</time></trkpt><trkpt lat="43.6916567" lon="11.5353967"><ele>443.0</ele><time>2026-04-04T15:18:11.01Z</time></trkpt><trkpt lat="43.69168" lon="11.5355267"><ele>443.3333333333333</ele><time>2026-04-04T15:18:12.012Z</time></trkpt><trkpt lat="43.691705" lon="11.5356517"><ele>443.66666666666663</ele><time>2026-04-04T15:18:13.01Z</time></trkpt><trkpt lat="43.691715" lon="11.535765"><ele>444.0</ele><time>2026-04-04T15:18:14.011Z</time></trkpt><trkpt lat="43.691705" lon="11.535875"><ele>444.33333333333337</ele><time>2026-04-04T15:18:15.01Z</time></trkpt><trkpt lat="43.6916733" lon="11.53597"><ele>444.6666666666667</ele><time>2026-04-04T15:18:16.01Z</time></trkpt><trkpt lat="43.6915967" lon="11.5359983"><ele>445.0</ele><time>2026-04-04T15:18:17.011Z</time></trkpt><trkpt lat="43.691515" lon="11.5360183"><ele>445.00000000000006</ele><time>2026-04-04T15:18:18.01Z</time></trkpt><trkpt lat="43.6914333" lon="11.536015"><ele>445.0</ele><time>2026-04-04T15:18:19.011Z</time></trkpt><trkpt lat="43.6913617" lon="11.5359733"><ele>445.0</ele><time>2026-04-04T15:18:20.011Z</time></trkpt><trkpt lat="43.6913083" lon="11.5358867"><ele>445.0</ele><time>2026-04-04T15:18:21.01Z</time></trkpt><trkpt lat="43.6912567" lon="11.5357867"><ele>445.00000000000006</ele><time>2026-04-04T15:18:22.012Z</time></trkpt><trkpt lat="43.6912183" lon="11.535665"><ele>445.0</ele><time>2026-04-04T15:18:23.011Z</time></trkpt><trkpt lat="43.69117" lon="11.5355467"><ele>445.0</ele><time>2026-04-04T15:18:24.011Z</time></trkpt><trkpt lat="43.69112" lon="11.5354317"><ele>445.0</ele><time>2026-04-04T15:18:25.012Z</time></trkpt><trkpt lat="43.6910617" lon="11.5353283"><ele>445.0</ele><time>2026-04-04T15:18:26.013Z</time></trkpt><trkpt lat="43.6909917" lon="11.5352383"><ele>445.0</ele><time>2026-04-04T15:18:27.01Z</time></trkpt><trkpt lat="43.69091" lon="11.5351683"><ele>445.0</ele><time>2026-04-04T15:18:28.011Z</time></trkpt><trkpt lat="43.6908283" lon="11.5351033"><ele>445.6666666666667</ele><time>2026-04-04T15:18:29.011Z</time></trkpt><trkpt lat="43.6907517" lon="11.53503"><ele>446.33333333333337</ele><time>2026-04-04T15:18:30.011Z</time></trkpt><trkpt lat="43.6906917" lon="11.534935"><ele>447.0</ele><time>2026-04-04T15:18:31.012Z</time></trkpt><trkpt lat="43.69064" lon="11.5348317"><ele>447.66666666666663</ele><time>2026-04-04T15:18:32.011Z</time></trkpt><trkpt lat="43.6905917" lon="11.53473"><ele>448.3333333333333</ele><time>2026-04-04T15:18:33.011Z</time></trkpt><trkpt lat="43.6905417" lon="11.53464"><ele>449.0</ele><time>2026-04-04T15:18:34.011Z</time></trkpt><trkpt lat="43.6904833" lon="11.5345533"><ele>448.66666666666663</ele><time>2026-04-04T15:18:35.01Z</time></trkpt><trkpt lat="43.6904183" lon="11.5344783"><ele>448.3333333333333</ele><time>2026-04-04T15:18:36.011Z</time></trkpt><trkpt lat="43.6903517" lon="11.5344183"><ele>448.0</ele><time>2026-04-04T15:18:37.013Z</time></trkpt><trkpt lat="43.69028" lon="11.5343733"><ele>447.66666666666663</ele><time>2026-04-04T15:18:38.011Z</time></trkpt><trkpt lat="43.6902083" lon="11.53434"><ele>447.3333333333333</ele><time>2026-04-04T15:18:39.011Z</time></trkpt><trkpt lat="43.690135" lon="11.534305"><ele>447.0</ele><time>2026-04-04T15:18:40.011Z</time></trkpt><trkpt lat="43.69006" lon="11.5342617"><ele>447.0</ele><time>2026-04-04T15:18:41.013Z</time></trkpt><trkpt lat="43.69" lon="11.5341917"><ele>447.0</ele><time>2026-04-04T15:18:42.013Z</time></trkpt><trkpt lat="43.68995" lon="11.5341133"><ele>447.0</ele><time>2026-04-04T15:18:43.011Z</time></trkpt><trkpt lat="43.6898967" lon="11.5340217"><ele>447.0</ele><time>2026-04-04T15:18:44.011Z</time></trkpt><trkpt lat="43.6898483" lon="11.5339217"><ele>447.0</ele><time>2026-04-04T15:18:45.012Z</time></trkpt><trkpt lat="43.6897967" lon="11.5338267"><ele>447.0</ele><time>2026-04-04T15:18:46.011Z</time></trkpt><trkpt lat="43.6897367" lon="11.5337483"><ele>445.5</ele><time>2026-04-04T15:18:47.011Z</time></trkpt><trkpt lat="43.689665" lon="11.5336933"><ele>444.0</ele><time>2026-04-04T15:18:48.011Z</time></trkpt><trkpt lat="43.68959" lon="11.533655"><ele>442.5</ele><time>2026-04-04T15:18:49.01Z</time></trkpt><trkpt lat="43.6895117" lon="11.5336267"><ele>441.0</ele><time>2026-04-04T15:18:50.01Z</time></trkpt><trkpt lat="43.6894217" lon="11.5336"><ele>439.5</ele><time>2026-04-04T15:18:51.011Z</time></trkpt><trkpt lat="43.68934" lon="11.533575"><ele>438.0</ele><time>2026-04-04T15:18:52.011Z</time></trkpt><trkpt lat="43.6892567" lon="11.533555"><ele>438.0</ele><time>2026-04-04T15:18:53.012Z</time></trkpt><trkpt lat="43.6891733" lon="11.53353"><ele>438.0</ele><time>2026-04-04T15:18:54.012Z</time></trkpt><trkpt lat="43.68909" lon="11.5334967"><ele>438.0</ele><time>2026-04-04T15:18:55.011Z</time></trkpt><trkpt lat="43.6890133" lon="11.5334617"><ele>438.0</ele><time>2026-04-04T15:18:56.011Z</time></trkpt><trkpt lat="43.68893" lon="11.5334117"><ele>438.0</ele><time>2026-04-04T15:18:57.012Z</time></trkpt><trkpt lat="43.6888517" lon="11.5333633"><ele>438.0</ele><time>2026-04-04T15:18:58.01Z</time></trkpt><trkpt lat="43.68877" lon="11.533315"><ele>438.0</ele><time>2026-04-04T15:18:59.013Z</time></trkpt><trkpt lat="43.6886883" lon="11.5332683"><ele>438.0</ele><time>2026-04-04T15:19:00.012Z</time></trkpt><trkpt lat="43.6886133" lon="11.5332217"><ele>438.0</ele><time>2026-04-04T15:19:01.011Z</time></trkpt><trkpt lat="43.6885367" lon="11.533185"><ele>438.0</ele><time>2026-04-04T15:19:02.011Z</time></trkpt><trkpt lat="43.6884583" lon="11.53316"><ele>438.0</ele><time>2026-04-04T15:19:03.011Z</time></trkpt><trkpt lat="43.68838" lon="11.53315"><ele>438.0</ele><time>2026-04-04T15:19:04.009Z</time></trkpt><trkpt lat="43.6883" lon="11.5331533"><ele>437.59999999999997</ele><time>2026-04-04T15:19:05.011Z</time></trkpt><trkpt lat="43.68822" lon="11.5331783"><ele>437.19999999999993</ele><time>2026-04-04T15:19:06.011Z</time></trkpt><trkpt lat="43.6881333" lon="11.533225"><ele>436.8</ele><time>2026-04-04T15:19:07.011Z</time></trkpt><trkpt lat="43.68805" lon="11.5332917"><ele>436.4</ele><time>2026-04-04T15:19:08.011Z</time></trkpt><trkpt lat="43.687975" lon="11.533375"><ele>436.0</ele><time>2026-04-04T15:19:09.013Z</time></trkpt><trkpt lat="43.68791" lon="11.5334717"><ele>436.0</ele><time>2026-04-04T15:19:10.01Z</time></trkpt><trkpt lat="43.68784" lon="11.5335767"><ele>436.0</ele><time>2026-04-04T15:19:11.013Z</time></trkpt><trkpt lat="43.6877633" lon="11.533675"><ele>436.0</ele><time>2026-04-04T15:19:12.011Z</time></trkpt><trkpt lat="43.6876683" lon="11.533755"><ele>436.0</ele><time>2026-04-04T15:19:13.012Z</time></trkpt><trkpt lat="43.68756" lon="11.5338017"><ele>436.0</ele><time>2026-04-04T15:19:14.011Z</time></trkpt><trkpt lat="43.6874433" lon="11.5338217"><ele>435.8</ele><time>2026-04-04T15:19:15.012Z</time></trkpt><trkpt lat="43.6873317" lon="11.5338267"><ele>435.6</ele><time>2026-04-04T15:19:16.01Z</time></trkpt><trkpt lat="43.6872283" lon="11.5338483"><ele>435.4</ele><time>2026-04-04T15:19:17.01Z</time></trkpt><trkpt lat="43.6871317" lon="11.533895"><ele>435.2</ele><time>2026-04-04T15:19:18.011Z</time></trkpt><trkpt lat="43.6870583" lon="11.533975"><ele>435.0</ele><time>2026-04-04T15:19:19.011Z</time></trkpt><trkpt lat="43.6870017" lon="11.534085"><ele>435.0</ele><time>2026-04-04T15:19:20.01Z</time></trkpt><trkpt lat="43.6869567" lon="11.5342133"><ele>435.0</ele><time>2026-04-04T15:19:21.011Z</time></trkpt><trkpt lat="43.686915" lon="11.53435"><ele>435.0</ele><time>2026-04-04T15:19:22.012Z</time></trkpt><trkpt lat="43.6868717" lon="11.534475"><ele>435.0</ele><time>2026-04-04T15:19:23.011Z</time></trkpt><trkpt lat="43.6868133" lon="11.5345767"><ele>435.0</ele><time>2026-04-04T15:19:24.011Z</time></trkpt><trkpt lat="43.6867333" lon="11.5346433"><ele>434.6</ele><time>2026-04-04T15:19:25.011Z</time></trkpt><trkpt lat="43.686645" lon="11.5346583"><ele>434.2</ele><time>2026-04-04T15:19:26.011Z</time></trkpt><trkpt lat="43.68655" lon="11.5346183"><ele>433.79999999999995</ele><time>2026-04-04T15:19:27.012Z</time></trkpt><trkpt lat="43.6864567" lon="11.5345267"><ele>433.4</ele><time>2026-04-04T15:19:28.011Z</time></trkpt><trkpt lat="43.6863767" lon="11.534395"><ele>433.0</ele><time>2026-04-04T15:19:29.011Z</time></trkpt><trkpt lat="43.68631" lon="11.5342383"><ele>430.5</ele><time>2026-04-04T15:19:30.014Z</time></trkpt><trkpt lat="43.686255" lon="11.5340733"><ele>428.0</ele><time>2026-04-04T15:19:31.011Z</time></trkpt><trkpt lat="43.6862117" lon="11.5339017"><ele>425.5</ele><time>2026-04-04T15:19:32.013Z</time></trkpt><trkpt lat="43.6861717" lon="11.533725"><ele>423.0</ele><time>2026-04-04T15:19:33.011Z</time></trkpt><trkpt lat="43.6861267" lon="11.5335483"><ele>422.5</ele><time>2026-04-04T15:19:34.011Z</time></trkpt><trkpt lat="43.6860767" lon="11.5333783"><ele>422.0</ele><time>2026-04-04T15:19:35.012Z</time></trkpt><trkpt lat="43.68603" lon="11.5332067"><ele>421.5</ele><time>2026-04-04T15:19:36.012Z</time></trkpt><trkpt lat="43.6859817" lon="11.5330317"><ele>421.0</ele><time>2026-04-04T15:19:37.01Z</time></trkpt><trkpt lat="43.685925" lon="11.5328633"><ele>418.75</ele><time>2026-04-04T15:19:38.013Z</time></trkpt><trkpt lat="43.6858633" lon="11.5326967"><ele>416.5</ele><time>2026-04-04T15:19:39.011Z</time></trkpt><trkpt lat="43.6857967" lon="11.5325267"><ele>414.25</ele><time>2026-04-04T15:19:40.011Z</time></trkpt><trkpt lat="43.6857367" lon="11.5323517"><ele>412.0</ele><time>2026-04-04T15:19:41.012Z</time></trkpt><trkpt lat="43.6856983" lon="11.5321667"><ele>409.5</ele><time>2026-04-04T15:19:42.011Z</time></trkpt><trkpt lat="43.6856783" lon="11.5319717"><ele>407.0</ele><time>2026-04-04T15:19:43.012Z</time></trkpt><trkpt lat="43.6856633" lon="11.5317767"><ele>404.5</ele><time>2026-04-04T15:19:44.011Z</time></trkpt><trkpt lat="43.6856283" lon="11.5315783"><ele>402.0</ele><time>2026-04-04T15:19:45.012Z</time></trkpt><trkpt lat="43.6855833" lon="11.5313883"><ele>399.0</ele><time>2026-04-04T15:19:46.012Z</time></trkpt><trkpt lat="43.6855317" lon="11.5312033"><ele>396.0</ele><time>2026-04-04T15:19:47.011Z</time></trkpt><trkpt lat="43.6854833" lon="11.5310333"><ele>393.0</ele><time>2026-04-04T15:19:48.013Z</time></trkpt><trkpt lat="43.6854467" lon="11.5308767"><ele>390.0</ele><time>2026-04-04T15:19:49.012Z</time></trkpt><trkpt lat="43.6854133" lon="11.5307317"><ele>390.0</ele><time>2026-04-04T15:19:50.011Z</time></trkpt><trkpt lat="43.68537" lon="11.5305883"><ele>390.0</ele><time>2026-04-04T15:19:51.01Z</time></trkpt><trkpt lat="43.68531" lon="11.5304733"><ele>390.0</ele><time>2026-04-04T15:19:52.011Z</time></trkpt><trkpt lat="43.6852333" lon="11.53039"><ele>390.0</ele><time>2026-04-04T15:19:53.01Z</time></trkpt><trkpt lat="43.68514" lon="11.530335"><ele>390.0</ele><time>2026-04-04T15:19:54.012Z</time></trkpt><trkpt lat="43.68504" lon="11.5302983"><ele>390.4</ele><time>2026-04-04T15:19:55.012Z</time></trkpt><trkpt lat="43.6849383" lon="11.530285"><ele>390.8</ele><time>2026-04-04T15:19:56.011Z</time></trkpt><trkpt lat="43.684845" lon="11.5303017"><ele>391.20000000000005</ele><time>2026-04-04T15:19:57.013Z</time></trkpt><trkpt lat="43.68476" lon="11.5303383"><ele>391.6</ele><time>2026-04-04T15:19:58.012Z</time></trkpt><trkpt lat="43.6846867" lon="11.530415"><ele>392.0</ele><time>2026-04-04T15:19:59.014Z</time></trkpt><trkpt lat="43.68464" lon="11.530535"><ele>391.75</ele><time>2026-04-04T15:20:00.012Z</time></trkpt><trkpt lat="43.684585" lon="11.5306633"><ele>391.5</ele><time>2026-04-04T15:20:01.014Z</time></trkpt><trkpt lat="43.6845133" lon="11.5307833"><ele>391.25</ele><time>2026-04-04T15:20:02.013Z</time></trkpt><trkpt lat="43.6844267" lon="11.5308883"><ele>391.0</ele><time>2026-04-04T15:20:03.012Z</time></trkpt><trkpt lat="43.68433" lon="11.5309783"><ele>391.0</ele><time>2026-04-04T15:20:04.012Z</time></trkpt><trkpt lat="43.6842267" lon="11.5310633"><ele>391.0</ele><time>2026-04-04T15:20:05.012Z</time></trkpt><trkpt lat="43.6841183" lon="11.53114"><ele>391.0</ele><time>2026-04-04T15:20:06.011Z</time></trkpt><trkpt lat="43.6840083" lon="11.53121"><ele>391.0</ele><time>2026-04-04T15:20:07.013Z</time></trkpt><trkpt lat="43.6839" lon="11.5312833"><ele>391.20000000000005</ele><time>2026-04-04T15:20:08.013Z</time></trkpt><trkpt lat="43.683795" lon="11.5313517"><ele>391.40000000000003</ele><time>2026-04-04T15:20:09.012Z</time></trkpt><trkpt lat="43.683695" lon="11.5314183"><ele>391.6</ele><time>2026-04-04T15:20:10.013Z</time></trkpt><trkpt lat="43.68359" lon="11.5314733"><ele>391.8</ele><time>2026-04-04T15:20:11.011Z</time></trkpt><trkpt lat="43.6834867" lon="11.53152"><ele>392.0</ele><time>2026-04-04T15:20:12.014Z</time></trkpt><trkpt lat="43.6833717" lon="11.5315633"><ele>392.0</ele><time>2026-04-04T15:20:13.014Z</time></trkpt><trkpt lat="43.6832633" lon="11.5316033"><ele>392.0</ele><time>2026-04-04T15:20:14.012Z</time></trkpt><trkpt lat="43.6831567" lon="11.5316517"><ele>392.0</ele><time>2026-04-04T15:20:15.013Z</time></trkpt><trkpt lat="43.68306" lon="11.5317217"><ele>392.0</ele><time>2026-04-04T15:20:16.01Z</time></trkpt><trkpt lat="43.682975" lon="11.5318167"><ele>392.0</ele><time>2026-04-04T15:20:17.011Z</time></trkpt><trkpt lat="43.6829017" lon="11.5319317"><ele>393.5</ele><time>2026-04-04T15:20:18.014Z</time></trkpt><trkpt lat="43.6828383" lon="11.5320633"><ele>395.0</ele><time>2026-04-04T15:20:19.012Z</time></trkpt><trkpt lat="43.68278" lon="11.5322033"><ele>396.5</ele><time>2026-04-04T15:20:20.014Z</time></trkpt><trkpt lat="43.6827317" lon="11.5323533"><ele>398.0</ele><time>2026-04-04T15:20:21.013Z</time></trkpt><trkpt lat="43.6826833" lon="11.532505"><ele>395.79999999999995</ele><time>2026-04-04T15:20:22.012Z</time></trkpt><trkpt lat="43.68264" lon="11.5326533"><ele>393.6</ele><time>2026-04-04T15:20:23.011Z</time></trkpt><trkpt lat="43.6826033" lon="11.5327983"><ele>391.4</ele><time>2026-04-04T15:20:24.013Z</time></trkpt><trkpt lat="43.682575" lon="11.53294"><ele>389.20000000000005</ele><time>2026-04-04T15:20:25.012Z</time></trkpt><trkpt lat="43.6825433" lon="11.5330617"><ele>387.0</ele><time>2026-04-04T15:20:26.013Z</time></trkpt><trkpt lat="43.6825183" lon="11.5331667"><ele>387.0</ele><time>2026-04-04T15:20:27.013Z</time></trkpt><trkpt lat="43.6825017" lon="11.5332567"><ele>387.0</ele><time>2026-04-04T15:20:28.013Z</time></trkpt><trkpt lat="43.682505" lon="11.53342"><ele>387.0</ele><time>2026-04-04T15:20:30.013Z</time></trkpt><trkpt lat="43.6825267" lon="11.5335517"><ele>387.0</ele><time>2026-04-04T15:20:32.013Z</time></trkpt><trkpt lat="43.6825317" lon="11.5336517"><ele>387.0</ele><time>2026-04-04T15:20:34.011Z</time></trkpt><trkpt lat="43.68252" lon="11.53377"><ele>387.0</ele><time>2026-04-04T15:20:37.013Z</time></trkpt><trkpt lat="43.6825283" lon="11.5338683"><ele>387.5</ele><time>2026-04-04T15:20:40.012Z</time></trkpt><trkpt lat="43.68256" lon="11.533955"><ele>388.0</ele><time>2026-04-04T15:20:44.013Z</time></trkpt><trkpt lat="43.6825983" lon="11.5341367"><ele>388.5</ele><time>2026-04-04T15:22:31.013Z</time></trkpt><trkpt lat="43.6825967" lon="11.534225"><ele>389.0</ele><time>2026-04-04T15:22:34.011Z</time></trkpt><trkpt lat="43.682595" lon="11.5343183"><ele>389.5</ele><time>2026-04-04T15:22:38.012Z</time></trkpt><trkpt lat="43.6825217" lon="11.5343283"><ele>390.0</ele><time>2026-04-04T15:22:42.012Z</time></trkpt><trkpt lat="43.68246" lon="11.5343017"><ele>390.0</ele><time>2026-04-04T15:22:46.009Z</time></trkpt><trkpt lat="43.682395" lon="11.5342683"><ele>390.0</ele><time>2026-04-04T15:22:57.008Z</time></trkpt><trkpt lat="43.68239" lon="11.5341717"><ele>390.0</ele><time>2026-04-04T15:23:00.013Z</time></trkpt><trkpt lat="43.6823783" lon="11.5340667"><ele>390.0</ele><time>2026-04-04T15:23:02.011Z</time></trkpt><trkpt lat="43.6823233" lon="11.5339983"><ele>390.0</ele><time>2026-04-04T15:23:04.01Z</time></trkpt><trkpt lat="43.6822333" lon="11.5340217"><ele>390.0</ele><time>2026-04-04T15:23:06.008Z</time></trkpt><trkpt lat="43.6821567" lon="11.5340683"><ele>390.0</ele><time>2026-04-04T15:23:08.01Z</time></trkpt><trkpt lat="43.6820833" lon="11.5341017"><ele>390.0</ele><time>2026-04-04T15:23:11.012Z</time></trkpt><trkpt lat="43.6820167" lon="11.5341333"><ele>390.0</ele><time>2026-04-04T15:23:15.008Z</time></trkpt><trkpt lat="43.6819567" lon="11.534175"><ele>390.0</ele><time>2026-04-04T15:23:20.008Z</time></trkpt><trkpt lat="43.681895" lon="11.5342167"><ele>390.0</ele><time>2026-04-04T15:23:23.01Z</time></trkpt><trkpt lat="43.6818283" lon="11.5342483"><ele>390.0</ele><time>2026-04-04T15:23:27.01Z</time></trkpt><trkpt lat="43.6817433" lon="11.5342167"><ele>390.0</ele><time>2026-04-04T15:23:45.009Z</time></trkpt><trkpt lat="43.6817017" lon="11.5341483"><ele>389.1666666666667</ele><time>2026-04-04T15:23:47.009Z</time></trkpt><trkpt lat="43.681655" lon="11.5340883"><ele>388.33333333333337</ele><time>2026-04-04T15:23:49.009Z</time></trkpt><trkpt lat="43.6815983" lon="11.5340167"><ele>387.5</ele><time>2026-04-04T15:23:51.009Z</time></trkpt><trkpt lat="43.681535" lon="11.533915"><ele>386.6666666666667</ele><time>2026-04-04T15:23:53.008Z</time></trkpt><trkpt lat="43.6814517" lon="11.5338083"><ele>385.83333333333337</ele><time>2026-04-04T15:23:55.01Z</time></trkpt><trkpt lat="43.6814067" lon="11.5337467"><ele>385.0</ele><time>2026-04-04T15:23:56.009Z</time></trkpt><trkpt lat="43.6813533" lon="11.5336783"><ele>384.83333333333337</ele><time>2026-04-04T15:23:57.008Z</time></trkpt><trkpt lat="43.6813" lon="11.5336083"><ele>384.6666666666667</ele><time>2026-04-04T15:23:58.008Z</time></trkpt><trkpt lat="43.68124" lon="11.5335333"><ele>384.5</ele><time>2026-04-04T15:23:59.01Z</time></trkpt><trkpt lat="43.6811817" lon="11.5334583"><ele>384.33333333333337</ele><time>2026-04-04T15:24:00.009Z</time></trkpt><trkpt lat="43.68112" lon="11.5333767"><ele>384.1666666666667</ele><time>2026-04-04T15:24:01.008Z</time></trkpt><trkpt lat="43.6810633" lon="11.5332983"><ele>384.0</ele><time>2026-04-04T15:24:02.009Z</time></trkpt><trkpt lat="43.681015" lon="11.53323"><ele>382.6666666666667</ele><time>2026-04-04T15:24:03.008Z</time></trkpt><trkpt lat="43.6809433" lon="11.5331267"><ele>381.3333333333333</ele><time>2026-04-04T15:24:05.008Z</time></trkpt><trkpt lat="43.68088" lon="11.5330367"><ele>380.0</ele><time>2026-04-04T15:24:07.009Z</time></trkpt><trkpt lat="43.6808367" lon="11.5329733"><ele>378.66666666666663</ele><time>2026-04-04T15:24:09.008Z</time></trkpt><trkpt lat="43.680795" lon="11.5328933"><ele>377.3333333333333</ele><time>2026-04-04T15:24:12.008Z</time></trkpt><trkpt lat="43.68075" lon="11.53283"><ele>376.0</ele><time>2026-04-04T15:24:15.01Z</time></trkpt><trkpt lat="43.68069" lon="11.5327683"><ele>376.0</ele><time>2026-04-04T15:24:19.01Z</time></trkpt><trkpt lat="43.6806317" lon="11.5326983"><ele>376.0</ele><time>2026-04-04T15:24:21.009Z</time></trkpt><trkpt lat="43.6805533" lon="11.5326067"><ele>376.0</ele><time>2026-04-04T15:24:23.008Z</time></trkpt><trkpt lat="43.680475" lon="11.532505"><ele>376.0</ele><time>2026-04-04T15:24:25.01Z</time></trkpt><trkpt lat="43.680385" lon="11.532385"><ele>376.0</ele><time>2026-04-04T15:24:27.009Z</time></trkpt><trkpt lat="43.680335" lon="11.532315"><ele>376.0</ele><time>2026-04-04T15:24:28.01Z</time></trkpt><trkpt lat="43.68028" lon="11.5322467"><ele>376.0</ele><time>2026-04-04T15:24:29.01Z</time></trkpt><trkpt lat="43.6802183" lon="11.5321767"><ele>376.0</ele><time>2026-04-04T15:24:30.009Z</time></trkpt><trkpt lat="43.680155" lon="11.5321083"><ele>376.0</ele><time>2026-04-04T15:24:31.009Z</time></trkpt><trkpt lat="43.68009" lon="11.5320417"><ele>376.0</ele><time>2026-04-04T15:24:32.009Z</time></trkpt><trkpt lat="43.68002" lon="11.531965"><ele>376.0</ele><time>2026-04-04T15:24:33.01Z</time></trkpt><trkpt lat="43.67995" lon="11.5318867"><ele>374.6</ele><time>2026-04-04T15:24:34.011Z</time></trkpt><trkpt lat="43.6798767" lon="11.5318133"><ele>373.20000000000005</ele><time>2026-04-04T15:24:35.009Z</time></trkpt><trkpt lat="43.6798017" lon="11.53174"><ele>371.79999999999995</ele><time>2026-04-04T15:24:36.009Z</time></trkpt><trkpt lat="43.6797233" lon="11.5316633"><ele>370.4</ele><time>2026-04-04T15:24:37.01Z</time></trkpt><trkpt lat="43.67964" lon="11.531595"><ele>369.0</ele><time>2026-04-04T15:24:38.009Z</time></trkpt><trkpt lat="43.679555" lon="11.5315317"><ele>369.0</ele><time>2026-04-04T15:24:39.009Z</time></trkpt><trkpt lat="43.6794683" lon="11.53146"><ele>369.0</ele><time>2026-04-04T15:24:40.01Z</time></trkpt><trkpt lat="43.679375" lon="11.5314017"><ele>369.0</ele><time>2026-04-04T15:24:41.009Z</time></trkpt><trkpt lat="43.679275" lon="11.5313583"><ele>369.0</ele><time>2026-04-04T15:24:42.009Z</time></trkpt><trkpt lat="43.6791783" lon="11.531305"><ele>369.0</ele><time>2026-04-04T15:24:43.009Z</time></trkpt><trkpt lat="43.67908" lon="11.53125"><ele>368.0</ele><time>2026-04-04T15:24:44.009Z</time></trkpt><trkpt lat="43.67898" lon="11.531195"><ele>367.0</ele><time>2026-04-04T15:24:45.01Z</time></trkpt><trkpt lat="43.67888" lon="11.53114"><ele>366.0</ele><time>2026-04-04T15:24:46.01Z</time></trkpt><trkpt lat="43.6787783" lon="11.53109"><ele>365.0</ele><time>2026-04-04T15:24:47.009Z</time></trkpt><trkpt lat="43.6786733" lon="11.5310367"><ele>364.0</ele><time>2026-04-04T15:24:48.008Z</time></trkpt><trkpt lat="43.6785667" lon="11.53098"><ele>362.4</ele><time>2026-04-04T15:24:49.01Z</time></trkpt><trkpt lat="43.6784667" lon="11.5309183"><ele>360.79999999999995</ele><time>2026-04-04T15:24:50.012Z</time></trkpt><trkpt lat="43.678375" lon="11.5308583"><ele>359.20000000000005</ele><time>2026-04-04T15:24:51.011Z</time></trkpt><trkpt lat="43.6782933" lon="11.5308017"><ele>357.6</ele><time>2026-04-04T15:24:52.009Z</time></trkpt><trkpt lat="43.6782183" lon="11.5307567"><ele>356.0</ele><time>2026-04-04T15:24:53.009Z</time></trkpt><trkpt lat="43.67815" lon="11.5307183"><ele>356.0</ele><time>2026-04-04T15:24:54.009Z</time></trkpt><trkpt lat="43.6780883" lon="11.530685"><ele>356.0</ele><time>2026-04-04T15:24:55.009Z</time></trkpt><trkpt lat="43.6779783" lon="11.53062"><ele>356.0</ele><time>2026-04-04T15:24:57.009Z</time></trkpt><trkpt lat="43.67788" lon="11.530545"><ele>356.0</ele><time>2026-04-04T15:24:59.013Z</time></trkpt><trkpt lat="43.6778033" lon="11.53042"><ele>356.0</ele><time>2026-04-04T15:25:01.011Z</time></trkpt><trkpt lat="43.677785" lon="11.5303367"><ele>355.8</ele><time>2026-04-04T15:25:02.01Z</time></trkpt><trkpt lat="43.6777733" lon="11.5302433"><ele>355.6</ele><time>2026-04-04T15:25:03.01Z</time></trkpt><trkpt lat="43.6777717" lon="11.53015"><ele>355.4</ele><time>2026-04-04T15:25:04.009Z</time></trkpt><trkpt lat="43.677765" lon="11.5299917"><ele>355.2</ele><time>2026-04-04T15:25:06.009Z</time></trkpt><trkpt lat="43.67771" lon="11.5298833"><ele>355.0</ele><time>2026-04-04T15:25:08.011Z</time></trkpt><trkpt lat="43.6776067" lon="11.52983"><ele>354.8333333333333</ele><time>2026-04-04T15:25:10.008Z</time></trkpt><trkpt lat="43.6775433" lon="11.529805"><ele>354.66666666666663</ele><time>2026-04-04T15:25:11.009Z</time></trkpt><trkpt lat="43.6774767" lon="11.5297683"><ele>354.5</ele><time>2026-04-04T15:25:12.01Z</time></trkpt><trkpt lat="43.6774067" lon="11.52973"><ele>354.3333333333333</ele><time>2026-04-04T15:25:13.009Z</time></trkpt><trkpt lat="43.677335" lon="11.5296867"><ele>354.1666666666667</ele><time>2026-04-04T15:25:14.009Z</time></trkpt><trkpt lat="43.6772567" lon="11.5296467"><ele>354.0</ele><time>2026-04-04T15:25:15.009Z</time></trkpt><trkpt lat="43.67718" lon="11.5296033"><ele>354.0</ele><time>2026-04-04T15:25:16.009Z</time></trkpt><trkpt lat="43.6771017" lon="11.5295633"><ele>354.0</ele><time>2026-04-04T15:25:17.01Z</time></trkpt><trkpt lat="43.6770217" lon="11.529525"><ele>354.0</ele><time>2026-04-04T15:25:18.009Z</time></trkpt><trkpt lat="43.676945" lon="11.5294867"><ele>354.0</ele><time>2026-04-04T15:25:19.01Z</time></trkpt><trkpt lat="43.6768717" lon="11.52944"><ele>354.0</ele><time>2026-04-04T15:25:20.01Z</time></trkpt><trkpt lat="43.6768033" lon="11.529395"><ele>354.0</ele><time>2026-04-04T15:25:21.009Z</time></trkpt><trkpt lat="43.6767367" lon="11.5293517"><ele>353.1666666666667</ele><time>2026-04-04T15:25:22.011Z</time></trkpt><trkpt lat="43.67667" lon="11.5292983"><ele>352.3333333333333</ele><time>2026-04-04T15:25:23.013Z</time></trkpt><trkpt lat="43.6766017" lon="11.529245"><ele>351.5</ele><time>2026-04-04T15:25:24.011Z</time></trkpt><trkpt lat="43.67654" lon="11.5291767"><ele>350.66666666666663</ele><time>2026-04-04T15:25:25.013Z</time></trkpt><trkpt lat="43.6764683" lon="11.5291083"><ele>349.8333333333333</ele><time>2026-04-04T15:25:26.01Z</time></trkpt><trkpt lat="43.6764017" lon="11.529035"><ele>349.0</ele><time>2026-04-04T15:25:27.008Z</time></trkpt><trkpt lat="43.676335" lon="11.5289533"><ele>349.0</ele><time>2026-04-04T15:25:28.01Z</time></trkpt><trkpt lat="43.6762733" lon="11.528875"><ele>349.0</ele><time>2026-04-04T15:25:29.01Z</time></trkpt><trkpt lat="43.6762233" lon="11.528795"><ele>349.0</ele><time>2026-04-04T15:25:30.009Z</time></trkpt><trkpt lat="43.6761767" lon="11.528725"><ele>349.0</ele><time>2026-04-04T15:25:31.011Z</time></trkpt><trkpt lat="43.6761" lon="11.528615"><ele>349.0</ele><time>2026-04-04T15:25:33.01Z</time></trkpt><trkpt lat="43.6760483" lon="11.5285467"><ele>349.0</ele><time>2026-04-04T15:25:35.009Z</time></trkpt><trkpt lat="43.6760217" lon="11.5284333"><ele>348.0</ele><time>2026-04-04T15:25:38.01Z</time></trkpt><trkpt lat="43.675995" lon="11.5283317"><ele>347.0</ele><time>2026-04-04T15:25:40.01Z</time></trkpt><trkpt lat="43.6759183" lon="11.528265"><ele>346.0</ele><time>2026-04-04T15:25:42.01Z</time></trkpt><trkpt lat="43.6758133" lon="11.5282667"><ele>345.0</ele><time>2026-04-04T15:25:44.013Z</time></trkpt><trkpt lat="43.675695" lon="11.52824"><ele>344.0</ele><time>2026-04-04T15:25:46.01Z</time></trkpt><trkpt lat="43.6755867" lon="11.5281667"><ele>344.0</ele><time>2026-04-04T15:25:48.009Z</time></trkpt><trkpt lat="43.6755233" lon="11.5281617"><ele>344.0</ele><time>2026-04-04T15:25:49.008Z</time></trkpt><trkpt lat="43.675395" lon="11.5281117"><ele>344.0</ele><time>2026-04-04T15:25:51.008Z</time></trkpt><trkpt lat="43.6753267" lon="11.52807"><ele>344.0</ele><time>2026-04-04T15:25:52.009Z</time></trkpt><trkpt lat="43.6752567" lon="11.5280367"><ele>344.0</ele><time>2026-04-04T15:25:53.01Z</time></trkpt><trkpt lat="43.67519" lon="11.5280033"><ele>344.0</ele><time>2026-04-04T15:25:54.009Z</time></trkpt><trkpt lat="43.6751233" lon="11.5279667"><ele>343.1666666666667</ele><time>2026-04-04T15:25:55.01Z</time></trkpt><trkpt lat="43.675055" lon="11.5279133"><ele>342.33333333333337</ele><time>2026-04-04T15:25:56.011Z</time></trkpt><trkpt lat="43.6749883" lon="11.5278367"><ele>341.5</ele><time>2026-04-04T15:25:57.01Z</time></trkpt><trkpt lat="43.6749267" lon="11.5277417"><ele>340.6666666666667</ele><time>2026-04-04T15:25:58.01Z</time></trkpt><trkpt lat="43.6748717" lon="11.5276383"><ele>339.8333333333333</ele><time>2026-04-04T15:25:59.009Z</time></trkpt><trkpt lat="43.6748483" lon="11.527505"><ele>339.0</ele><time>2026-04-04T15:26:00.011Z</time></trkpt><trkpt lat="43.67484" lon="11.5273667"><ele>338.6</ele><time>2026-04-04T15:26:01.01Z</time></trkpt><trkpt lat="43.6748183" lon="11.5272367"><ele>338.2</ele><time>2026-04-04T15:26:02.018Z</time></trkpt><trkpt lat="43.6747983" lon="11.5271117"><ele>337.8</ele><time>2026-04-04T15:26:03.01Z</time></trkpt><trkpt lat="43.6747767" lon="11.5269567"><ele>337.40000000000003</ele><time>2026-04-04T15:26:04.009Z</time></trkpt><trkpt lat="43.6747533" lon="11.5268233"><ele>337.0</ele><time>2026-04-04T15:26:05.009Z</time></trkpt><trkpt lat="43.67473" lon="11.5266967"><ele>336.6</ele><time>2026-04-04T15:26:06.009Z</time></trkpt><trkpt lat="43.6747033" lon="11.5265717"><ele>336.20000000000005</ele><time>2026-04-04T15:26:07.01Z</time></trkpt><trkpt lat="43.6746833" lon="11.526445"><ele>335.8</ele><time>2026-04-04T15:26:08.01Z</time></trkpt><trkpt lat="43.67466" lon="11.5263233"><ele>335.4</ele><time>2026-04-04T15:26:09.01Z</time></trkpt><trkpt lat="43.6746333" lon="11.5262033"><ele>335.0</ele><time>2026-04-04T15:26:10.009Z</time></trkpt><trkpt lat="43.6746067" lon="11.52609"><ele>334.6</ele><time>2026-04-04T15:26:11.011Z</time></trkpt><trkpt lat="43.67459" lon="11.525985"><ele>334.2</ele><time>2026-04-04T15:26:12.01Z</time></trkpt><trkpt lat="43.6745783" lon="11.525885"><ele>333.79999999999995</ele><time>2026-04-04T15:26:13.01Z</time></trkpt><trkpt lat="43.6745717" lon="11.5257433"><ele>333.4</ele><time>2026-04-04T15:26:15.009Z</time></trkpt><trkpt lat="43.6745017" lon="11.5256767"><ele>333.0</ele><time>2026-04-04T15:26:17.011Z</time></trkpt><trkpt lat="43.6743867" lon="11.5257"><ele>332.6666666666667</ele><time>2026-04-04T15:26:19.009Z</time></trkpt><trkpt lat="43.674315" lon="11.5257333"><ele>332.3333333333333</ele><time>2026-04-04T15:26:20.01Z</time></trkpt><trkpt lat="43.67423" lon="11.5257683"><ele>332.0</ele><time>2026-04-04T15:26:21.01Z</time></trkpt><trkpt lat="43.6741433" lon="11.5257983"><ele>331.66666666666663</ele><time>2026-04-04T15:26:22.01Z</time></trkpt><trkpt lat="43.67406" lon="11.52583"><ele>331.3333333333333</ele><time>2026-04-04T15:26:23.009Z</time></trkpt><trkpt lat="43.6739717" lon="11.525865"><ele>331.0</ele><time>2026-04-04T15:26:24.011Z</time></trkpt><trkpt lat="43.67388" lon="11.5258967"><ele>331.0</ele><time>2026-04-04T15:26:25.009Z</time></trkpt><trkpt lat="43.6737867" lon="11.52593"><ele>331.0</ele><time>2026-04-04T15:26:26.012Z</time></trkpt><trkpt lat="43.673695" lon="11.525965"><ele>331.0</ele><time>2026-04-04T15:26:27.011Z</time></trkpt><trkpt lat="43.6736033" lon="11.5260033"><ele>331.0</ele><time>2026-04-04T15:26:28.011Z</time></trkpt><trkpt lat="43.6735117" lon="11.5260483"><ele>331.0</ele><time>2026-04-04T15:26:29.012Z</time></trkpt><trkpt lat="43.673425" lon="11.5261017"><ele>330.6</ele><time>2026-04-04T15:26:30.01Z</time></trkpt><trkpt lat="43.6733383" lon="11.52616"><ele>330.20000000000005</ele><time>2026-04-04T15:26:31.01Z</time></trkpt><trkpt lat="43.6732517" lon="11.5262217"><ele>329.79999999999995</ele><time>2026-04-04T15:26:32.011Z</time></trkpt><trkpt lat="43.673165" lon="11.5262817"><ele>329.4</ele><time>2026-04-04T15:26:33.009Z</time></trkpt><trkpt lat="43.6730717" lon="11.526345"><ele>329.0</ele><time>2026-04-04T15:26:34.009Z</time></trkpt><trkpt lat="43.6729817" lon="11.526405"><ele>329.0</ele><time>2026-04-04T15:26:35.01Z</time></trkpt><trkpt lat="43.6728917" lon="11.5264667"><ele>329.0</ele><time>2026-04-04T15:26:36.009Z</time></trkpt><trkpt lat="43.6728033" lon="11.52653"><ele>329.0</ele><time>2026-04-04T15:26:37.01Z</time></trkpt><trkpt lat="43.6727183" lon="11.5265933"><ele>329.0</ele><time>2026-04-04T15:26:38.011Z</time></trkpt><trkpt lat="43.6726367" lon="11.5266683"><ele>329.0</ele><time>2026-04-04T15:26:39.01Z</time></trkpt><trkpt lat="43.672565" lon="11.5267533"><ele>329.2</ele><time>2026-04-04T15:26:40.009Z</time></trkpt><trkpt lat="43.6724933" lon="11.5268467"><ele>329.4</ele><time>2026-04-04T15:26:41.009Z</time></trkpt><trkpt lat="43.6724367" lon="11.52695"><ele>329.6</ele><time>2026-04-04T15:26:42.008Z</time></trkpt><trkpt lat="43.6723867" lon="11.527055"><ele>329.8</ele><time>2026-04-04T15:26:43.008Z</time></trkpt><trkpt lat="43.6723383" lon="11.5271633"><ele>330.0</ele><time>2026-04-04T15:26:44.009Z</time></trkpt><trkpt lat="43.6722967" lon="11.52727"><ele>330.0</ele><time>2026-04-04T15:26:45.009Z</time></trkpt><trkpt lat="43.672255" lon="11.527375"><ele>330.0</ele><time>2026-04-04T15:26:46.01Z</time></trkpt><trkpt lat="43.6722067" lon="11.52748"><ele>330.0</ele><time>2026-04-04T15:26:47.01Z</time></trkpt><trkpt lat="43.6721583" lon="11.52758"><ele>330.0</ele><time>2026-04-04T15:26:48.009Z</time></trkpt><trkpt lat="43.6720967" lon="11.52767"><ele>330.0</ele><time>2026-04-04T15:26:49.01Z</time></trkpt><trkpt lat="43.672025" lon="11.527745"><ele>330.0</ele><time>2026-04-04T15:26:50.013Z</time></trkpt><trkpt lat="43.671945" lon="11.5278017"><ele>329.2</ele><time>2026-04-04T15:26:51.009Z</time></trkpt><trkpt lat="43.67186" lon="11.5278333"><ele>328.4</ele><time>2026-04-04T15:26:52.01Z</time></trkpt><trkpt lat="43.671765" lon="11.527835"><ele>327.6</ele><time>2026-04-04T15:26:53.011Z</time></trkpt><trkpt lat="43.6716633" lon="11.52782"><ele>326.8</ele><time>2026-04-04T15:26:54.009Z</time></trkpt><trkpt lat="43.67156" lon="11.527805"><ele>326.0</ele><time>2026-04-04T15:26:55.012Z</time></trkpt><trkpt lat="43.671455" lon="11.5277917"><ele>326.0</ele><time>2026-04-04T15:26:56.009Z</time></trkpt><trkpt lat="43.67135" lon="11.5277817"><ele>326.0</ele><time>2026-04-04T15:26:57.009Z</time></trkpt><trkpt lat="43.6712417" lon="11.52777"><ele>326.0</ele><time>2026-04-04T15:26:58.008Z</time></trkpt><trkpt lat="43.6711317" lon="11.5277617"><ele>326.0</ele><time>2026-04-04T15:26:59.01Z</time></trkpt><trkpt lat="43.6710183" lon="11.52775"><ele>326.0</ele><time>2026-04-04T15:27:00.008Z</time></trkpt><trkpt lat="43.6709033" lon="11.5277267"><ele>324.25</ele><time>2026-04-04T15:27:01.014Z</time></trkpt><trkpt lat="43.6707817" lon="11.5277133"><ele>322.5</ele><time>2026-04-04T15:27:02.014Z</time></trkpt><trkpt lat="43.67066" lon="11.5277067"><ele>320.75</ele><time>2026-04-04T15:27:03.008Z</time></trkpt><trkpt lat="43.67054" lon="11.527695"><ele>319.0</ele><time>2026-04-04T15:27:04.01Z</time></trkpt><trkpt lat="43.67042" lon="11.5276817"><ele>319.0</ele><time>2026-04-04T15:27:05.01Z</time></trkpt><trkpt lat="43.6703017" lon="11.5276617"><ele>319.0</ele><time>2026-04-04T15:27:06.009Z</time></trkpt><trkpt lat="43.6701867" lon="11.5276267"><ele>319.0</ele><time>2026-04-04T15:27:07.009Z</time></trkpt><trkpt lat="43.670075" lon="11.5275683"><ele>319.0</ele><time>2026-04-04T15:27:08.012Z</time></trkpt><trkpt lat="43.6699633" lon="11.5275"><ele>317.5</ele><time>2026-04-04T15:27:09.009Z</time></trkpt><trkpt lat="43.669855" lon="11.52743"><ele>316.0</ele><time>2026-04-04T15:27:10.009Z</time></trkpt><trkpt lat="43.6697483" lon="11.527355"><ele>314.5</ele><time>2026-04-04T15:27:11.011Z</time></trkpt><trkpt lat="43.669645" lon="11.5272783"><ele>313.0</ele><time>2026-04-04T15:27:12.008Z</time></trkpt><trkpt lat="43.669545" lon="11.5271933"><ele>313.0</ele><time>2026-04-04T15:27:13.011Z</time></trkpt><trkpt lat="43.6694483" lon="11.5270983"><ele>313.0</ele><time>2026-04-04T15:27:14.011Z</time></trkpt><trkpt lat="43.6693567" lon="11.5269967"><ele>313.0</ele><time>2026-04-04T15:27:15.009Z</time></trkpt><trkpt lat="43.6692667" lon="11.5268883"><ele>313.0</ele><time>2026-04-04T15:27:16.011Z</time></trkpt><trkpt lat="43.6691783" lon="11.52678"><ele>313.0</ele><time>2026-04-04T15:27:17.01Z</time></trkpt><trkpt lat="43.6690933" lon="11.5266717"><ele>313.0</ele><time>2026-04-04T15:27:18.008Z</time></trkpt><trkpt lat="43.6690067" lon="11.5265633"><ele>313.0</ele><time>2026-04-04T15:27:19.011Z</time></trkpt><trkpt lat="43.668915" lon="11.526465"><ele>313.0</ele><time>2026-04-04T15:27:20.01Z</time></trkpt><trkpt lat="43.6688217" lon="11.526365"><ele>313.0</ele><time>2026-04-04T15:27:21.011Z</time></trkpt><trkpt lat="43.668725" lon="11.5262667"><ele>313.0</ele><time>2026-04-04T15:27:22.012Z</time></trkpt><trkpt lat="43.6686283" lon="11.5261633"><ele>313.0</ele><time>2026-04-04T15:27:23.01Z</time></trkpt><trkpt lat="43.6685317" lon="11.5260567"><ele>313.0</ele><time>2026-04-04T15:27:24.01Z</time></trkpt><trkpt lat="43.6684317" lon="11.5259517"><ele>311.5</ele><time>2026-04-04T15:27:25.01Z</time></trkpt><trkpt lat="43.66833" lon="11.5258517"><ele>310.0</ele><time>2026-04-04T15:27:26.011Z</time></trkpt><trkpt lat="43.6682283" lon="11.5257567"><ele>308.5</ele><time>2026-04-04T15:27:27.01Z</time></trkpt><trkpt lat="43.66812" lon="11.525665"><ele>307.0</ele><time>2026-04-04T15:27:28.014Z</time></trkpt><trkpt lat="43.6680133" lon="11.5255767"><ele>307.0</ele><time>2026-04-04T15:27:29.01Z</time></trkpt><trkpt lat="43.667905" lon="11.525495"><ele>307.0</ele><time>2026-04-04T15:27:30.01Z</time></trkpt><trkpt lat="43.6677933" lon="11.5254117"><ele>307.0</ele><time>2026-04-04T15:27:31.011Z</time></trkpt><trkpt lat="43.6676833" lon="11.52533"><ele>307.0</ele><time>2026-04-04T15:27:32.01Z</time></trkpt><trkpt lat="43.6675767" lon="11.5252433"><ele>306.25</ele><time>2026-04-04T15:27:33.011Z</time></trkpt><trkpt lat="43.667465" lon="11.52516"><ele>305.5</ele><time>2026-04-04T15:27:34.008Z</time></trkpt><trkpt lat="43.6673533" lon="11.5250733"><ele>304.75</ele><time>2026-04-04T15:27:35.009Z</time></trkpt><trkpt lat="43.6672417" lon="11.5249867"><ele>304.0</ele><time>2026-04-04T15:27:36.008Z</time></trkpt><trkpt lat="43.6671317" lon="11.5249"><ele>304.0</ele><time>2026-04-04T15:27:37.009Z</time></trkpt><trkpt lat="43.6670183" lon="11.5248183"><ele>304.0</ele><time>2026-04-04T15:27:38.009Z</time></trkpt><trkpt lat="43.6669033" lon="11.5247383"><ele>304.0</ele><time>2026-04-04T15:27:39.009Z</time></trkpt><trkpt lat="43.666785" lon="11.52467"><ele>304.0</ele><time>2026-04-04T15:27:40.013Z</time></trkpt><trkpt lat="43.6666667" lon="11.5246"><ele>302.25</ele><time>2026-04-04T15:27:41.011Z</time></trkpt><trkpt lat="43.66655" lon="11.52453"><ele>300.5</ele><time>2026-04-04T15:27:42.01Z</time></trkpt><trkpt lat="43.6664333" lon="11.52446"><ele>298.75</ele><time>2026-04-04T15:27:43.01Z</time></trkpt><trkpt lat="43.666315" lon="11.5243933"><ele>297.0</ele><time>2026-04-04T15:27:44.011Z</time></trkpt><trkpt lat="43.6661967" lon="11.524325"><ele>296.5</ele><time>2026-04-04T15:27:45.01Z</time></trkpt><trkpt lat="43.6660767" lon="11.5242567"><ele>296.0</ele><time>2026-04-04T15:27:46.011Z</time></trkpt><trkpt lat="43.6659567" lon="11.52419"><ele>295.5</ele><time>2026-04-04T15:27:47.011Z</time></trkpt><trkpt lat="43.6658367" lon="11.5241317"><ele>295.0</ele><time>2026-04-04T15:27:48.011Z</time></trkpt><trkpt lat="43.665715" lon="11.52408"><ele>295.0</ele><time>2026-04-04T15:27:49.008Z</time></trkpt><trkpt lat="43.6655933" lon="11.524025"><ele>295.0</ele><time>2026-04-04T15:27:50.009Z</time></trkpt><trkpt lat="43.665475" lon="11.523965"><ele>295.0</ele><time>2026-04-04T15:27:51.008Z</time></trkpt><trkpt lat="43.6653567" lon="11.5239017"><ele>295.0</ele><time>2026-04-04T15:27:52.008Z</time></trkpt><trkpt lat="43.66524" lon="11.5238383"><ele>294.0</ele><time>2026-04-04T15:27:53.01Z</time></trkpt><trkpt lat="43.6651217" lon="11.523775"><ele>293.0</ele><time>2026-04-04T15:27:54.011Z</time></trkpt><trkpt lat="43.6650033" lon="11.523705"><ele>292.0</ele><time>2026-04-04T15:27:55.011Z</time></trkpt><trkpt lat="43.6648867" lon="11.52363"><ele>291.0</ele><time>2026-04-04T15:27:56.01Z</time></trkpt><trkpt lat="43.6647733" lon="11.5235483"><ele>291.0</ele><time>2026-04-04T15:27:57.011Z</time></trkpt><trkpt lat="43.6646633" lon="11.5234633"><ele>291.0</ele><time>2026-04-04T15:27:58.012Z</time></trkpt><trkpt lat="43.6645517" lon="11.5233783"><ele>291.0</ele><time>2026-04-04T15:27:59.008Z</time></trkpt><trkpt lat="43.66444" lon="11.5232933"><ele>291.0</ele><time>2026-04-04T15:28:00.008Z</time></trkpt><trkpt lat="43.6643283" lon="11.523205"><ele>290.0</ele><time>2026-04-04T15:28:01.011Z</time></trkpt><trkpt lat="43.66422" lon="11.523105"><ele>289.0</ele><time>2026-04-04T15:28:02.01Z</time></trkpt><trkpt lat="43.66412" lon="11.5229983"><ele>288.0</ele><time>2026-04-04T15:28:03.008Z</time></trkpt><trkpt lat="43.6640267" lon="11.522885"><ele>287.0</ele><time>2026-04-04T15:28:04.011Z</time></trkpt><trkpt lat="43.663935" lon="11.5227717"><ele>286.5</ele><time>2026-04-04T15:28:05.011Z</time></trkpt><trkpt lat="43.6638467" lon="11.52266"><ele>286.0</ele><time>2026-04-04T15:28:06.01Z</time></trkpt><trkpt lat="43.66376" lon="11.5225467"><ele>285.5</ele><time>2026-04-04T15:28:07.008Z</time></trkpt><trkpt lat="43.6636733" lon="11.5224383"><ele>285.0</ele><time>2026-04-04T15:28:08.01Z</time></trkpt><trkpt lat="43.6635867" lon="11.5223283"><ele>284.75</ele><time>2026-04-04T15:28:09.009Z</time></trkpt><trkpt lat="43.6635" lon="11.522215"><ele>284.5</ele><time>2026-04-04T15:28:10.011Z</time></trkpt><trkpt lat="43.663415" lon="11.5221017"><ele>284.25</ele><time>2026-04-04T15:28:11.01Z</time></trkpt><trkpt lat="43.6633367" lon="11.5219867"><ele>284.0</ele><time>2026-04-04T15:28:12.008Z</time></trkpt><trkpt lat="43.6632583" lon="11.52186"><ele>283.5</ele><time>2026-04-04T15:28:13.009Z</time></trkpt><trkpt lat="43.66318" lon="11.5217383"><ele>283.0</ele><time>2026-04-04T15:28:14.009Z</time></trkpt><trkpt lat="43.6631017" lon="11.5216167"><ele>282.5</ele><time>2026-04-04T15:28:15.008Z</time></trkpt><trkpt lat="43.6630183" lon="11.5215017"><ele>282.0</ele><time>2026-04-04T15:28:16.01Z</time></trkpt><trkpt lat="43.66293" lon="11.521395"><ele>282.0</ele><time>2026-04-04T15:28:17.009Z</time></trkpt><trkpt lat="43.6628367" lon="11.5213033"><ele>282.0</ele><time>2026-04-04T15:28:18.011Z</time></trkpt><trkpt lat="43.66273" lon="11.5212367"><ele>282.0</ele><time>2026-04-04T15:28:19.01Z</time></trkpt><trkpt lat="43.6626183" lon="11.5212033"><ele>282.0</ele><time>2026-04-04T15:28:20.012Z</time></trkpt><trkpt lat="43.6625" lon="11.5211917"><ele>281.25</ele><time>2026-04-04T15:28:21.011Z</time></trkpt><trkpt lat="43.66238" lon="11.521195"><ele>280.5</ele><time>2026-04-04T15:28:22.011Z</time></trkpt><trkpt lat="43.66226" lon="11.5212033"><ele>279.75</ele><time>2026-04-04T15:28:23.011Z</time></trkpt><trkpt lat="43.6621383" lon="11.52122"><ele>279.0</ele><time>2026-04-04T15:28:24.011Z</time></trkpt><trkpt lat="43.662015" lon="11.5212183"><ele>278.25</ele><time>2026-04-04T15:28:25.01Z</time></trkpt><trkpt lat="43.661895" lon="11.5211983"><ele>277.5</ele><time>2026-04-04T15:28:26.01Z</time></trkpt><trkpt lat="43.661775" lon="11.5211667"><ele>276.75</ele><time>2026-04-04T15:28:27.011Z</time></trkpt><trkpt lat="43.6616567" lon="11.5211133"><ele>276.0</ele><time>2026-04-04T15:28:28.011Z</time></trkpt><trkpt lat="43.6615467" lon="11.5210417"><ele>276.0</ele><time>2026-04-04T15:28:29.012Z</time></trkpt><trkpt lat="43.66144" lon="11.5209633"><ele>276.0</ele><time>2026-04-04T15:28:30.01Z</time></trkpt><trkpt lat="43.66134" lon="11.5208783"><ele>276.0</ele><time>2026-04-04T15:28:31.011Z</time></trkpt><trkpt lat="43.66124" lon="11.5207967"><ele>276.0</ele><time>2026-04-04T15:28:32.012Z</time></trkpt><trkpt lat="43.66114" lon="11.5207167"><ele>274.75</ele><time>2026-04-04T15:28:33.01Z</time></trkpt><trkpt lat="43.6610383" lon="11.5206367"><ele>273.5</ele><time>2026-04-04T15:28:34.011Z</time></trkpt><trkpt lat="43.66094" lon="11.52055"><ele>272.25</ele><time>2026-04-04T15:28:35.01Z</time></trkpt><trkpt lat="43.6608417" lon="11.520465"><ele>271.0</ele><time>2026-04-04T15:28:36.01Z</time></trkpt><trkpt lat="43.6607467" lon="11.520375"><ele>271.0</ele><time>2026-04-04T15:28:37.012Z</time></trkpt><trkpt lat="43.6606567" lon="11.5202717"><ele>271.0</ele><time>2026-04-04T15:28:38.011Z</time></trkpt><trkpt lat="43.6605667" lon="11.52016"><ele>271.0</ele><time>2026-04-04T15:28:39.01Z</time></trkpt><trkpt lat="43.6604833" lon="11.52004"><ele>271.0</ele><time>2026-04-04T15:28:40.011Z</time></trkpt><trkpt lat="43.6604067" lon="11.51991"><ele>271.0</ele><time>2026-04-04T15:28:41.014Z</time></trkpt><trkpt lat="43.6603333" lon="11.51978"><ele>271.0</ele><time>2026-04-04T15:28:42.011Z</time></trkpt><trkpt lat="43.66026" lon="11.51966"><ele>271.0</ele><time>2026-04-04T15:28:43.01Z</time></trkpt><trkpt lat="43.6601733" lon="11.519555"><ele>271.0</ele><time>2026-04-04T15:28:44.013Z</time></trkpt><trkpt lat="43.66007" lon="11.519485"><ele>270.5</ele><time>2026-04-04T15:28:45.012Z</time></trkpt><trkpt lat="43.659955" lon="11.51945"><ele>270.0</ele><time>2026-04-04T15:28:46.011Z</time></trkpt><trkpt lat="43.6598333" lon="11.519455"><ele>269.5</ele><time>2026-04-04T15:28:47.01Z</time></trkpt><trkpt lat="43.65971" lon="11.5194833"><ele>269.0</ele><time>2026-04-04T15:28:48.013Z</time></trkpt><trkpt lat="43.659585" lon="11.519525"><ele>267.5</ele><time>2026-04-04T15:28:49.012Z</time></trkpt><trkpt lat="43.6594583" lon="11.5195717"><ele>266.0</ele><time>2026-04-04T15:28:50.012Z</time></trkpt><trkpt lat="43.6593333" lon="11.5196367"><ele>264.5</ele><time>2026-04-04T15:28:51.011Z</time></trkpt><trkpt lat="43.6592117" lon="11.51971"><ele>263.0</ele><time>2026-04-04T15:28:52.01Z</time></trkpt><trkpt lat="43.6590917" lon="11.51979"><ele>261.25</ele><time>2026-04-04T15:28:53.009Z</time></trkpt><trkpt lat="43.6589667" lon="11.5198633"><ele>259.5</ele><time>2026-04-04T15:28:54.007Z</time></trkpt><trkpt lat="43.6588367" lon="11.519925"><ele>257.75</ele><time>2026-04-04T15:28:55.009Z</time></trkpt><trkpt lat="43.6587067" lon="11.5199733"><ele>256.0</ele><time>2026-04-04T15:28:56.009Z</time></trkpt><trkpt lat="43.6585833" lon="11.5200083"><ele>254.4</ele><time>2026-04-04T15:28:57.008Z</time></trkpt><trkpt lat="43.65847" lon="11.5200317"><ele>252.8</ele><time>2026-04-04T15:28:58.012Z</time></trkpt><trkpt lat="43.6583583" lon="11.5200333"><ele>251.20000000000002</ele><time>2026-04-04T15:28:59.011Z</time></trkpt><trkpt lat="43.6582533" lon="11.5199933"><ele>249.60000000000002</ele><time>2026-04-04T15:29:00.009Z</time></trkpt><trkpt lat="43.6581633" lon="11.5198967"><ele>248.0</ele><time>2026-04-04T15:29:01.011Z</time></trkpt><trkpt lat="43.6580933" lon="11.51977"><ele>248.0</ele><time>2026-04-04T15:29:02.01Z</time></trkpt><trkpt lat="43.6580383" lon="11.5196283"><ele>248.0</ele><time>2026-04-04T15:29:03.009Z</time></trkpt><trkpt lat="43.657975" lon="11.5194917"><ele>248.0</ele><time>2026-04-04T15:29:04.01Z</time></trkpt><trkpt lat="43.6578883" lon="11.519375"><ele>248.0</ele><time>2026-04-04T15:29:05.011Z</time></trkpt><trkpt lat="43.6577883" lon="11.5192767"><ele>245.75</ele><time>2026-04-04T15:29:06.01Z</time></trkpt><trkpt lat="43.65768" lon="11.5191867"><ele>243.5</ele><time>2026-04-04T15:29:07.01Z</time></trkpt><trkpt lat="43.6575683" lon="11.5190883"><ele>241.25</ele><time>2026-04-04T15:29:08.011Z</time></trkpt><trkpt lat="43.6574783" lon="11.5189767"><ele>239.0</ele><time>2026-04-04T15:29:09.009Z</time></trkpt><trkpt lat="43.6574" lon="11.5188567"><ele>239.0</ele><time>2026-04-04T15:29:10.008Z</time></trkpt><trkpt lat="43.657315" lon="11.51875"><ele>239.0</ele><time>2026-04-04T15:29:11.008Z</time></trkpt><trkpt lat="43.65721" lon="11.5186733"><ele>239.0</ele><time>2026-04-04T15:29:12.011Z</time></trkpt><trkpt lat="43.65709" lon="11.5186433"><ele>239.0</ele><time>2026-04-04T15:29:13.009Z</time></trkpt><trkpt lat="43.6569617" lon="11.5186233"><ele>238.75</ele><time>2026-04-04T15:29:14.009Z</time></trkpt><trkpt lat="43.6568333" lon="11.5185833"><ele>238.5</ele><time>2026-04-04T15:29:15.009Z</time></trkpt><trkpt lat="43.656715" lon="11.5184933"><ele>238.25</ele><time>2026-04-04T15:29:16.007Z</time></trkpt><trkpt lat="43.6566" lon="11.51839"><ele>238.0</ele><time>2026-04-04T15:29:17.009Z</time></trkpt><trkpt lat="43.6564833" lon="11.5182767"><ele>238.0</ele><time>2026-04-04T15:29:18.008Z</time></trkpt><trkpt lat="43.6563667" lon="11.5181633"><ele>238.0</ele><time>2026-04-04T15:29:19.008Z</time></trkpt><trkpt lat="43.65624" lon="11.5180633"><ele>238.0</ele><time>2026-04-04T15:29:20.011Z</time></trkpt><trkpt lat="43.6561067" lon="11.51797"><ele>238.0</ele><time>2026-04-04T15:29:21.008Z</time></trkpt><trkpt lat="43.65597" lon="11.517885"><ele>238.0</ele><time>2026-04-04T15:29:22.01Z</time></trkpt><trkpt lat="43.65583" lon="11.5178017"><ele>238.0</ele><time>2026-04-04T15:29:23.01Z</time></trkpt><trkpt lat="43.6556883" lon="11.5177133"><ele>238.0</ele><time>2026-04-04T15:29:24.008Z</time></trkpt><trkpt lat="43.65555" lon="11.51762"><ele>238.0</ele><time>2026-04-04T15:29:25.01Z</time></trkpt><trkpt lat="43.6554183" lon="11.5175"><ele>238.0</ele><time>2026-04-04T15:29:26.01Z</time></trkpt><trkpt lat="43.6552933" lon="11.5173683"><ele>238.0</ele><time>2026-04-04T15:29:27.009Z</time></trkpt><trkpt lat="43.65517" lon="11.517225"><ele>235.0</ele><time>2026-04-04T15:29:28.011Z</time></trkpt><trkpt lat="43.655045" lon="11.5170967"><ele>232.0</ele><time>2026-04-04T15:29:29.012Z</time></trkpt><trkpt lat="43.65492" lon="11.5169667"><ele>229.0</ele><time>2026-04-04T15:29:30.01Z</time></trkpt><trkpt lat="43.6547917" lon="11.51685"><ele>229.0</ele><time>2026-04-04T15:29:31.012Z</time></trkpt><trkpt lat="43.6546583" lon="11.516745"><ele>229.0</ele><time>2026-04-04T15:29:32.009Z</time></trkpt><trkpt lat="43.6545217" lon="11.516655"><ele>229.0</ele><time>2026-04-04T15:29:33.01Z</time></trkpt><trkpt lat="43.6543817" lon="11.516575"><ele>225.5</ele><time>2026-04-04T15:29:34.009Z</time></trkpt><trkpt lat="43.654245" lon="11.5165"><ele>222.0</ele><time>2026-04-04T15:29:35.009Z</time></trkpt><trkpt lat="43.65411" lon="11.5164283"><ele>218.5</ele><time>2026-04-04T15:29:36.008Z</time></trkpt><trkpt lat="43.6539767" lon="11.516355"><ele>215.0</ele><time>2026-04-04T15:29:37.009Z</time></trkpt><trkpt lat="43.653845" lon="11.5162817"><ele>213.5</ele><time>2026-04-04T15:29:38.008Z</time></trkpt><trkpt lat="43.65372" lon="11.5162017"><ele>212.0</ele><time>2026-04-04T15:29:39.008Z</time></trkpt><trkpt lat="43.6536033" lon="11.51611"><ele>210.5</ele><time>2026-04-04T15:29:40.009Z</time></trkpt><trkpt lat="43.6534967" lon="11.5160133"><ele>209.0</ele><time>2026-04-04T15:29:41.009Z</time></trkpt><trkpt lat="43.653405" lon="11.5158983"><ele>209.0</ele><time>2026-04-04T15:29:42.009Z</time></trkpt><trkpt lat="43.65333" lon="11.5157633"><ele>209.0</ele><time>2026-04-04T15:29:43.009Z</time></trkpt><trkpt lat="43.6532817" lon="11.515605"><ele>209.0</ele><time>2026-04-04T15:29:44.009Z</time></trkpt><trkpt lat="43.6532483" lon="11.5154383"><ele>209.0</ele><time>2026-04-04T15:29:45.008Z</time></trkpt><trkpt lat="43.653205" lon="11.515275"><ele>212.0</ele><time>2026-04-04T15:29:46.009Z</time></trkpt><trkpt lat="43.6531367" lon="11.5151383"><ele>215.0</ele><time>2026-04-04T15:29:47.009Z</time></trkpt><trkpt lat="43.6530483" lon="11.5150267"><ele>218.0</ele><time>2026-04-04T15:29:48.009Z</time></trkpt><trkpt lat="43.6529433" lon="11.5149483"><ele>221.0</ele><time>2026-04-04T15:29:49.008Z</time></trkpt><trkpt lat="43.65283" lon="11.51489"><ele>216.75</ele><time>2026-04-04T15:29:50.01Z</time></trkpt><trkpt lat="43.65271" lon="11.514845"><ele>212.5</ele><time>2026-04-04T15:29:51.009Z</time></trkpt><trkpt lat="43.65259" lon="11.5147983"><ele>208.25</ele><time>2026-04-04T15:29:52.008Z</time></trkpt><trkpt lat="43.6524633" lon="11.5147533"><ele>204.0</ele><time>2026-04-04T15:29:53.009Z</time></trkpt><trkpt lat="43.652335" lon="11.5146967"><ele>204.0</ele><time>2026-04-04T15:29:54.009Z</time></trkpt><trkpt lat="43.6522133" lon="11.5146217"><ele>204.0</ele><time>2026-04-04T15:29:55.009Z</time></trkpt><trkpt lat="43.6520967" lon="11.5145333"><ele>204.0</ele><time>2026-04-04T15:29:56.009Z</time></trkpt><trkpt lat="43.6519783" lon="11.514445"><ele>204.0</ele><time>2026-04-04T15:29:57.009Z</time></trkpt><trkpt lat="43.651865" lon="11.5143383"><ele>204.5</ele><time>2026-04-04T15:29:58.01Z</time></trkpt><trkpt lat="43.65175" lon="11.514235"><ele>205.0</ele><time>2026-04-04T15:29:59.01Z</time></trkpt><trkpt lat="43.6516233" lon="11.514145"><ele>205.5</ele><time>2026-04-04T15:30:00.011Z</time></trkpt><trkpt lat="43.6514917" lon="11.5140733"><ele>206.0</ele><time>2026-04-04T15:30:01.01Z</time></trkpt><trkpt lat="43.6513583" lon="11.5140083"><ele>206.0</ele><time>2026-04-04T15:30:02.011Z</time></trkpt><trkpt lat="43.6512233" lon="11.5139367"><ele>206.0</ele><time>2026-04-04T15:30:03.009Z</time></trkpt><trkpt lat="43.6510883" lon="11.5138633"><ele>206.0</ele><time>2026-04-04T15:30:04.009Z</time></trkpt><trkpt lat="43.65096" lon="11.513775"><ele>206.0</ele><time>2026-04-04T15:30:05.009Z</time></trkpt><trkpt lat="43.6508317" lon="11.5136817"><ele>208.5</ele><time>2026-04-04T15:30:06.01Z</time></trkpt><trkpt lat="43.6507083" lon="11.513575"><ele>211.0</ele><time>2026-04-04T15:30:07.011Z</time></trkpt><trkpt lat="43.6505883" lon="11.5134567"><ele>213.5</ele><time>2026-04-04T15:30:08.009Z</time></trkpt><trkpt lat="43.6504717" lon="11.5133367"><ele>216.0</ele><time>2026-04-04T15:30:09.009Z</time></trkpt><trkpt lat="43.6503583" lon="11.5132167"><ele>212.0</ele><time>2026-04-04T15:30:10.011Z</time></trkpt><trkpt lat="43.6502467" lon="11.513095"><ele>208.0</ele><time>2026-04-04T15:30:11.012Z</time></trkpt><trkpt lat="43.65015" lon="11.512955"><ele>204.0</ele><time>2026-04-04T15:30:12.01Z</time></trkpt><trkpt lat="43.6500667" lon="11.512815"><ele>200.0</ele><time>2026-04-04T15:30:13.01Z</time></trkpt><trkpt lat="43.6499817" lon="11.512685"><ele>200.0</ele><time>2026-04-04T15:30:14.008Z</time></trkpt><trkpt lat="43.6498817" lon="11.5125767"><ele>200.0</ele><time>2026-04-04T15:30:15.008Z</time></trkpt><trkpt lat="43.649765" lon="11.512505"><ele>200.0</ele><time>2026-04-04T15:30:16.009Z</time></trkpt><trkpt lat="43.649635" lon="11.51247"><ele>200.0</ele><time>2026-04-04T15:30:17.009Z</time></trkpt><trkpt lat="43.6495017" lon="11.5124717"><ele>197.0</ele><time>2026-04-04T15:30:18.01Z</time></trkpt><trkpt lat="43.649365" lon="11.51249"><ele>194.0</ele><time>2026-04-04T15:30:19.009Z</time></trkpt><trkpt lat="43.6492233" lon="11.51252"><ele>191.0</ele><time>2026-04-04T15:30:20.011Z</time></trkpt><trkpt lat="43.64908" lon="11.5125467"><ele>188.0</ele><time>2026-04-04T15:30:21.009Z</time></trkpt><trkpt lat="43.648935" lon="11.5125583"><ele>188.0</ele><time>2026-04-04T15:30:22.011Z</time></trkpt><trkpt lat="43.6487883" lon="11.51257"><ele>188.0</ele><time>2026-04-04T15:30:23.009Z</time></trkpt><trkpt lat="43.6486417" lon="11.5125767"><ele>188.0</ele><time>2026-04-04T15:30:24.009Z</time></trkpt><trkpt lat="43.6484883" lon="11.51257"><ele>188.0</ele><time>2026-04-04T15:30:25.011Z</time></trkpt><trkpt lat="43.6483383" lon="11.5125583"><ele>187.75</ele><time>2026-04-04T15:30:26.009Z</time></trkpt><trkpt lat="43.6481917" lon="11.51254"><ele>187.5</ele><time>2026-04-04T15:30:27.01Z</time></trkpt><trkpt lat="43.6480433" lon="11.512515"><ele>187.25</ele><time>2026-04-04T15:30:28.009Z</time></trkpt><trkpt lat="43.6478983" lon="11.51248"><ele>187.0</ele><time>2026-04-04T15:30:29.009Z</time></trkpt><trkpt lat="43.6477483" lon="11.5124433"><ele>183.66666666666669</ele><time>2026-04-04T15:30:30.009Z</time></trkpt><trkpt lat="43.6475983" lon="11.51241"><ele>180.33333333333334</ele><time>2026-04-04T15:30:31.009Z</time></trkpt><trkpt lat="43.6474483" lon="11.51239"><ele>177.0</ele><time>2026-04-04T15:30:32.009Z</time></trkpt><trkpt lat="43.6472967" lon="11.5123867"><ele>177.0</ele><time>2026-04-04T15:30:33.01Z</time></trkpt><trkpt lat="43.6471433" lon="11.5123883"><ele>177.0</ele><time>2026-04-04T15:30:34.009Z</time></trkpt><trkpt lat="43.6469883" lon="11.512405"><ele>177.0</ele><time>2026-04-04T15:30:35.01Z</time></trkpt><trkpt lat="43.646835" lon="11.5124267"><ele>175.0</ele><time>2026-04-04T15:30:36.01Z</time></trkpt><trkpt lat="43.6466783" lon="11.5124567"><ele>173.0</ele><time>2026-04-04T15:30:37.009Z</time></trkpt><trkpt lat="43.6465267" lon="11.5124883"><ele>171.0</ele><time>2026-04-04T15:30:38.01Z</time></trkpt><trkpt lat="43.64638" lon="11.512525"><ele>171.0</ele><time>2026-04-04T15:30:39.009Z</time></trkpt><trkpt lat="43.6462417" lon="11.5125767"><ele>171.0</ele><time>2026-04-04T15:30:40.01Z</time></trkpt><trkpt lat="43.6461083" lon="11.5126467"><ele>171.0</ele><time>2026-04-04T15:30:41.01Z</time></trkpt><trkpt lat="43.6459767" lon="11.5127183"><ele>171.0</ele><time>2026-04-04T15:30:42.012Z</time></trkpt><trkpt lat="43.6458467" lon="11.5128"><ele>170.5</ele><time>2026-04-04T15:30:43.01Z</time></trkpt><trkpt lat="43.6457217" lon="11.5128783"><ele>170.0</ele><time>2026-04-04T15:30:44.01Z</time></trkpt><trkpt lat="43.6455967" lon="11.512955"><ele>169.5</ele><time>2026-04-04T15:30:45.01Z</time></trkpt><trkpt lat="43.6454717" lon="11.5130217"><ele>169.0</ele><time>2026-04-04T15:30:46.011Z</time></trkpt><trkpt lat="43.645355" lon="11.5130883"><ele>167.0</ele><time>2026-04-04T15:30:47.009Z</time></trkpt><trkpt lat="43.6452433" lon="11.513135"><ele>165.0</ele><time>2026-04-04T15:30:48.009Z</time></trkpt><trkpt lat="43.645125" lon="11.5131383"><ele>163.0</ele><time>2026-04-04T15:30:49.009Z</time></trkpt><trkpt lat="43.6450133" lon="11.513095"><ele>161.0</ele><time>2026-04-04T15:30:50.012Z</time></trkpt><trkpt lat="43.64492" lon="11.5129983"><ele>161.75</ele><time>2026-04-04T15:30:51.009Z</time></trkpt><trkpt lat="43.6448433" lon="11.5128783"><ele>162.5</ele><time>2026-04-04T15:30:52.012Z</time></trkpt><trkpt lat="43.6447733" lon="11.51275"><ele>163.25</ele><time>2026-04-04T15:30:53.01Z</time></trkpt><trkpt lat="43.644705" lon="11.512625"><ele>164.0</ele><time>2026-04-04T15:30:54.008Z</time></trkpt><trkpt lat="43.64464" lon="11.5124967"><ele>164.0</ele><time>2026-04-04T15:30:55.012Z</time></trkpt><trkpt lat="43.6445833" lon="11.5123667"><ele>164.0</ele><time>2026-04-04T15:30:56.01Z</time></trkpt><trkpt lat="43.6445267" lon="11.5122417"><ele>164.0</ele><time>2026-04-04T15:30:57.01Z</time></trkpt><trkpt lat="43.64447" lon="11.512125"><ele>164.0</ele><time>2026-04-04T15:30:58.01Z</time></trkpt><trkpt lat="43.6444117" lon="11.5120133"><ele>164.0</ele><time>2026-04-04T15:30:59.009Z</time></trkpt><trkpt lat="43.64435" lon="11.5118983"><ele>163.6</ele><time>2026-04-04T15:31:00.01Z</time></trkpt><trkpt lat="43.644285" lon="11.511795"><ele>163.2</ele><time>2026-04-04T15:31:01.009Z</time></trkpt><trkpt lat="43.6442167" lon="11.5116967"><ele>162.79999999999998</ele><time>2026-04-04T15:31:02.012Z</time></trkpt><trkpt lat="43.6441433" lon="11.51161"><ele>162.39999999999998</ele><time>2026-04-04T15:31:03.009Z</time></trkpt><trkpt lat="43.6440617" lon="11.5115467"><ele>162.0</ele><time>2026-04-04T15:31:04.009Z</time></trkpt><trkpt lat="43.6439783" lon="11.5114917"><ele>162.0</ele><time>2026-04-04T15:31:05.011Z</time></trkpt><trkpt lat="43.643895" lon="11.5114383"><ele>162.0</ele><time>2026-04-04T15:31:06.013Z</time></trkpt><trkpt lat="43.6438067" lon="11.5113867"><ele>162.0</ele><time>2026-04-04T15:31:07.01Z</time></trkpt><trkpt lat="43.64372" lon="11.5113333"><ele>162.0</ele><time>2026-04-04T15:31:08.013Z</time></trkpt><trkpt lat="43.643635" lon="11.51128"><ele>162.0</ele><time>2026-04-04T15:31:09.01Z</time></trkpt><trkpt lat="43.64355" lon="11.5112317"><ele>161.6</ele><time>2026-04-04T15:31:10.01Z</time></trkpt><trkpt lat="43.6434617" lon="11.5111683"><ele>161.2</ele><time>2026-04-04T15:31:11.012Z</time></trkpt><trkpt lat="43.6433817" lon="11.511105"><ele>160.8</ele><time>2026-04-04T15:31:12.009Z</time></trkpt><trkpt lat="43.64331" lon="11.5110283"><ele>160.4</ele><time>2026-04-04T15:31:13.009Z</time></trkpt><trkpt lat="43.6432483" lon="11.51094"><ele>160.0</ele><time>2026-04-04T15:31:14.009Z</time></trkpt><trkpt lat="43.64319" lon="11.5108467"><ele>160.0</ele><time>2026-04-04T15:31:15.013Z</time></trkpt><trkpt lat="43.643135" lon="11.5107533"><ele>160.0</ele><time>2026-04-04T15:31:16.01Z</time></trkpt><trkpt lat="43.6430833" lon="11.5106567"><ele>160.0</ele><time>2026-04-04T15:31:17.01Z</time></trkpt><trkpt lat="43.64303" lon="11.5105617"><ele>160.0</ele><time>2026-04-04T15:31:18.01Z</time></trkpt><trkpt lat="43.6429767" lon="11.5104667"><ele>160.0</ele><time>2026-04-04T15:31:19.011Z</time></trkpt><trkpt lat="43.6429267" lon="11.5103717"><ele>160.0</ele><time>2026-04-04T15:31:20.01Z</time></trkpt><trkpt lat="43.6428733" lon="11.51028"><ele>160.5</ele><time>2026-04-04T15:31:21.01Z</time></trkpt><trkpt lat="43.6428233" lon="11.5101917"><ele>161.0</ele><time>2026-04-04T15:31:22.012Z</time></trkpt><trkpt lat="43.642775" lon="11.51011"><ele>161.5</ele><time>2026-04-04T15:31:23.01Z</time></trkpt><trkpt lat="43.6427333" lon="11.5100183"><ele>162.0</ele><time>2026-04-04T15:31:24.012Z</time></trkpt><trkpt lat="43.6427" lon="11.5099167"><ele>162.5</ele><time>2026-04-04T15:31:25.01Z</time></trkpt><trkpt lat="43.6426683" lon="11.50981"><ele>163.0</ele><time>2026-04-04T15:31:26.01Z</time></trkpt><trkpt lat="43.6426417" lon="11.5097017"><ele>162.0</ele><time>2026-04-04T15:31:27.009Z</time></trkpt><trkpt lat="43.6426167" lon="11.50959"><ele>161.0</ele><time>2026-04-04T15:31:28.01Z</time></trkpt><trkpt lat="43.6425883" lon="11.5094833"><ele>160.0</ele><time>2026-04-04T15:31:29.009Z</time></trkpt><trkpt lat="43.642565" lon="11.509355"><ele>159.0</ele><time>2026-04-04T15:31:30.009Z</time></trkpt><trkpt lat="43.6425433" lon="11.5092333"><ele>158.0</ele><time>2026-04-04T15:31:31.015Z</time></trkpt><trkpt lat="43.6425167" lon="11.5091167"><ele>157.0</ele><time>2026-04-04T15:31:32.011Z</time></trkpt><trkpt lat="43.6424917" lon="11.5090033"><ele>157.0</ele><time>2026-04-04T15:31:33.01Z</time></trkpt><trkpt lat="43.64246" lon="11.5088967"><ele>157.0</ele><time>2026-04-04T15:31:34.009Z</time></trkpt><trkpt lat="43.64243" lon="11.5087767"><ele>157.0</ele><time>2026-04-04T15:31:35.009Z</time></trkpt><trkpt lat="43.6423967" lon="11.508655"><ele>157.0</ele><time>2026-04-04T15:31:36.01Z</time></trkpt><trkpt lat="43.6423583" lon="11.5085367"><ele>157.0</ele><time>2026-04-04T15:31:37.011Z</time></trkpt><trkpt lat="43.64231" lon="11.508415"><ele>157.0</ele><time>2026-04-04T15:31:38.014Z</time></trkpt><trkpt lat="43.6422517" lon="11.50831"><ele>157.0</ele><time>2026-04-04T15:31:39.011Z</time></trkpt><trkpt lat="43.6421783" lon="11.5082283"><ele>157.0</ele><time>2026-04-04T15:31:40.009Z</time></trkpt><trkpt lat="43.6420933" lon="11.5081667"><ele>157.0</ele><time>2026-04-04T15:31:41.012Z</time></trkpt><trkpt lat="43.6420017" lon="11.5081117"><ele>157.0</ele><time>2026-04-04T15:31:42.01Z</time></trkpt><trkpt lat="43.6419067" lon="11.5080667"><ele>156.4</ele><time>2026-04-04T15:31:43.012Z</time></trkpt><trkpt lat="43.641815" lon="11.5080217"><ele>155.79999999999998</ele><time>2026-04-04T15:31:44.009Z</time></trkpt><trkpt lat="43.64172" lon="11.5079833"><ele>155.2</ele><time>2026-04-04T15:31:45.01Z</time></trkpt><trkpt lat="43.64163" lon="11.5079433"><ele>154.6</ele><time>2026-04-04T15:31:46.01Z</time></trkpt><trkpt lat="43.6415383" lon="11.5079033"><ele>154.0</ele><time>2026-04-04T15:31:47.01Z</time></trkpt><trkpt lat="43.64145" lon="11.50786"><ele>154.0</ele><time>2026-04-04T15:31:48.009Z</time></trkpt><trkpt lat="43.64136" lon="11.50782"><ele>154.0</ele><time>2026-04-04T15:31:49.012Z</time></trkpt><trkpt lat="43.6412717" lon="11.5077833"><ele>154.0</ele><time>2026-04-04T15:31:50.012Z</time></trkpt><trkpt lat="43.641185" lon="11.507745"><ele>154.0</ele><time>2026-04-04T15:31:51.01Z</time></trkpt><trkpt lat="43.6411" lon="11.5077017"><ele>154.0</ele><time>2026-04-04T15:31:52.011Z</time></trkpt><trkpt lat="43.6410167" lon="11.5076483"><ele>153.5</ele><time>2026-04-04T15:31:53.012Z</time></trkpt><trkpt lat="43.6409367" lon="11.5075933"><ele>153.0</ele><time>2026-04-04T15:31:54.01Z</time></trkpt><trkpt lat="43.6408617" lon="11.5075283"><ele>152.5</ele><time>2026-04-04T15:31:55.01Z</time></trkpt><trkpt lat="43.6407867" lon="11.5074567"><ele>152.0</ele><time>2026-04-04T15:31:56.011Z</time></trkpt><trkpt lat="43.6407133" lon="11.5073883"><ele>151.5</ele><time>2026-04-04T15:31:57.01Z</time></trkpt><trkpt lat="43.64064" lon="11.5073183"><ele>151.0</ele><time>2026-04-04T15:31:58.009Z</time></trkpt><trkpt lat="43.6405667" lon="11.50724"><ele>151.0</ele><time>2026-04-04T15:31:59.011Z</time></trkpt><trkpt lat="43.6404933" lon="11.50715"><ele>151.0</ele><time>2026-04-04T15:32:00.011Z</time></trkpt><trkpt lat="43.6404217" lon="11.5070583"><ele>151.0</ele><time>2026-04-04T15:32:01.012Z</time></trkpt><trkpt lat="43.6403483" lon="11.5069667"><ele>151.0</ele><time>2026-04-04T15:32:02.011Z</time></trkpt><trkpt lat="43.6402733" lon="11.5068733"><ele>151.0</ele><time>2026-04-04T15:32:03.01Z</time></trkpt><trkpt lat="43.6402033" lon="11.5067783"><ele>150.4</ele><time>2026-04-04T15:32:04.01Z</time></trkpt><trkpt lat="43.6401317" lon="11.5066883"><ele>149.8</ele><time>2026-04-04T15:32:05.009Z</time></trkpt><trkpt lat="43.6400617" lon="11.5066"><ele>149.20000000000002</ele><time>2026-04-04T15:32:06.008Z</time></trkpt><trkpt lat="43.6399933" lon="11.5065117"><ele>148.6</ele><time>2026-04-04T15:32:07.011Z</time></trkpt><trkpt lat="43.6399283" lon="11.5064167"><ele>148.0</ele><time>2026-04-04T15:32:08.01Z</time></trkpt><trkpt lat="43.639865" lon="11.5063267"><ele>148.0</ele><time>2026-04-04T15:32:09.009Z</time></trkpt><trkpt lat="43.6398" lon="11.5062383"><ele>148.0</ele><time>2026-04-04T15:32:10.01Z</time></trkpt><trkpt lat="43.639735" lon="11.50615"><ele>148.0</ele><time>2026-04-04T15:32:11.01Z</time></trkpt><trkpt lat="43.63967" lon="11.5060633"><ele>148.0</ele><time>2026-04-04T15:32:12.009Z</time></trkpt><trkpt lat="43.6396033" lon="11.5059783"><ele>148.0</ele><time>2026-04-04T15:32:13.011Z</time></trkpt><trkpt lat="43.6395383" lon="11.5058917"><ele>148.0</ele><time>2026-04-04T15:32:14.011Z</time></trkpt><trkpt lat="43.6394767" lon="11.5058067"><ele>148.0</ele><time>2026-04-04T15:32:15.01Z</time></trkpt><trkpt lat="43.639415" lon="11.5057183"><ele>148.0</ele><time>2026-04-04T15:32:16.012Z</time></trkpt><trkpt lat="43.639355" lon="11.5056283"><ele>148.0</ele><time>2026-04-04T15:32:17.013Z</time></trkpt><trkpt lat="43.6392967" lon="11.5055383"><ele>148.0</ele><time>2026-04-04T15:32:18.009Z</time></trkpt><trkpt lat="43.6392417" lon="11.5054433"><ele>148.0</ele><time>2026-04-04T15:32:19.01Z</time></trkpt><trkpt lat="43.6391867" lon="11.5053483"><ele>147.83333333333334</ele><time>2026-04-04T15:32:20.01Z</time></trkpt><trkpt lat="43.6391333" lon="11.50525"><ele>147.66666666666669</ele><time>2026-04-04T15:32:21.008Z</time></trkpt><trkpt lat="43.63908" lon="11.5051517"><ele>147.5</ele><time>2026-04-04T15:32:22.009Z</time></trkpt><trkpt lat="43.6390283" lon="11.5050517"><ele>147.33333333333334</ele><time>2026-04-04T15:32:23.011Z</time></trkpt><trkpt lat="43.638975" lon="11.504955"><ele>147.16666666666666</ele><time>2026-04-04T15:32:24.011Z</time></trkpt><trkpt lat="43.638925" lon="11.5048517"><ele>147.0</ele><time>2026-04-04T15:32:25.012Z</time></trkpt><trkpt lat="43.6388717" lon="11.5047567"><ele>147.0</ele><time>2026-04-04T15:32:26.011Z</time></trkpt><trkpt lat="43.63882" lon="11.504665"><ele>147.0</ele><time>2026-04-04T15:32:27.01Z</time></trkpt><trkpt lat="43.63877" lon="11.5045717"><ele>147.0</ele><time>2026-04-04T15:32:28.02Z</time></trkpt><trkpt lat="43.63872" lon="11.5044783"><ele>147.0</ele><time>2026-04-04T15:32:29.011Z</time></trkpt><trkpt lat="43.6386683" lon="11.5043833"><ele>147.0</ele><time>2026-04-04T15:32:30.01Z</time></trkpt><trkpt lat="43.6386167" lon="11.5042883"><ele>147.0</ele><time>2026-04-04T15:32:31.01Z</time></trkpt><trkpt lat="43.6385667" lon="11.504195"><ele>146.83333333333334</ele><time>2026-04-04T15:32:32.01Z</time></trkpt><trkpt lat="43.63852" lon="11.5040967"><ele>146.66666666666666</ele><time>2026-04-04T15:32:33.01Z</time></trkpt><trkpt lat="43.6384683" lon="11.5040083"><ele>146.5</ele><time>2026-04-04T15:32:34.011Z</time></trkpt><trkpt lat="43.6384167" lon="11.5039183"><ele>146.33333333333331</ele><time>2026-04-04T15:32:35.01Z</time></trkpt><trkpt lat="43.63837" lon="11.50382"><ele>146.16666666666666</ele><time>2026-04-04T15:32:36.011Z</time></trkpt><trkpt lat="43.6383217" lon="11.50373"><ele>146.0</ele><time>2026-04-04T15:32:37.011Z</time></trkpt><trkpt lat="43.6382717" lon="11.5036383"><ele>146.0</ele><time>2026-04-04T15:32:38.01Z</time></trkpt><trkpt lat="43.638225" lon="11.5035467"><ele>146.0</ele><time>2026-04-04T15:32:39.01Z</time></trkpt><trkpt lat="43.6381733" lon="11.5034617"><ele>146.0</ele><time>2026-04-04T15:32:40.009Z</time></trkpt><trkpt lat="43.6381283" lon="11.503375"><ele>146.0</ele><time>2026-04-04T15:32:41.011Z</time></trkpt><trkpt lat="43.6380833" lon="11.5032867"><ele>146.0</ele><time>2026-04-04T15:32:42.01Z</time></trkpt><trkpt lat="43.6380367" lon="11.5032"><ele>146.0</ele><time>2026-04-04T15:32:43.011Z</time></trkpt><trkpt lat="43.6379933" lon="11.5031133"><ele>146.0</ele><time>2026-04-04T15:32:44.011Z</time></trkpt><trkpt lat="43.6379517" lon="11.5030217"><ele>146.0</ele><time>2026-04-04T15:32:45.009Z</time></trkpt><trkpt lat="43.6379117" lon="11.5029317"><ele>146.0</ele><time>2026-04-04T15:32:46.01Z</time></trkpt><trkpt lat="43.637875" lon="11.50283"><ele>146.0</ele><time>2026-04-04T15:32:47.011Z</time></trkpt><trkpt lat="43.637845" lon="11.502725"><ele>146.0</ele><time>2026-04-04T15:32:48.01Z</time></trkpt><trkpt lat="43.63783" lon="11.5026117"><ele>146.0</ele><time>2026-04-04T15:32:49.01Z</time></trkpt><trkpt lat="43.6378283" lon="11.5025017"><ele>146.16666666666666</ele><time>2026-04-04T15:32:50.01Z</time></trkpt><trkpt lat="43.6378267" lon="11.5023933"><ele>146.33333333333331</ele><time>2026-04-04T15:32:51.011Z</time></trkpt><trkpt lat="43.6378083" lon="11.5022883"><ele>146.5</ele><time>2026-04-04T15:32:52.009Z</time></trkpt><trkpt lat="43.6377733" lon="11.50219"><ele>146.66666666666666</ele><time>2026-04-04T15:32:53.009Z</time></trkpt><trkpt lat="43.637725" lon="11.5021"><ele>146.83333333333334</ele><time>2026-04-04T15:32:54.01Z</time></trkpt><trkpt lat="43.6376733" lon="11.5020117"><ele>147.0</ele><time>2026-04-04T15:32:55.01Z</time></trkpt><trkpt lat="43.6376233" lon="11.5019167"><ele>145.83333333333334</ele><time>2026-04-04T15:32:56.01Z</time></trkpt><trkpt lat="43.6375683" lon="11.501825"><ele>144.66666666666666</ele><time>2026-04-04T15:32:57.009Z</time></trkpt><trkpt lat="43.6375117" lon="11.5017383"><ele>143.5</ele><time>2026-04-04T15:32:58.01Z</time></trkpt><trkpt lat="43.6374467" lon="11.5016633"><ele>142.33333333333331</ele><time>2026-04-04T15:32:59.011Z</time></trkpt><trkpt lat="43.63738" lon="11.5015817"><ele>141.16666666666666</ele><time>2026-04-04T15:33:00.011Z</time></trkpt><trkpt lat="43.6373183" lon="11.5014967"><ele>140.0</ele><time>2026-04-04T15:33:01.013Z</time></trkpt><trkpt lat="43.6372583" lon="11.501405"><ele>140.0</ele><time>2026-04-04T15:33:02.011Z</time></trkpt><trkpt lat="43.6372" lon="11.50131"><ele>140.0</ele><time>2026-04-04T15:33:03.014Z</time></trkpt><trkpt lat="43.637145" lon="11.5012117"><ele>140.0</ele><time>2026-04-04T15:33:04.011Z</time></trkpt><trkpt lat="43.6370933" lon="11.5011133"><ele>140.0</ele><time>2026-04-04T15:33:05.011Z</time></trkpt><trkpt lat="43.63704" lon="11.5010167"><ele>140.0</ele><time>2026-04-04T15:33:06.01Z</time></trkpt><trkpt lat="43.636985" lon="11.5009233"><ele>140.0</ele><time>2026-04-04T15:33:07.012Z</time></trkpt><trkpt lat="43.6369317" lon="11.5008333"><ele>139.83333333333331</ele><time>2026-04-04T15:33:08.011Z</time></trkpt><trkpt lat="43.6368767" lon="11.500745"><ele>139.66666666666666</ele><time>2026-04-04T15:33:09.013Z</time></trkpt><trkpt lat="43.6368217" lon="11.50066"><ele>139.5</ele><time>2026-04-04T15:33:10.011Z</time></trkpt><trkpt lat="43.636765" lon="11.5005767"><ele>139.33333333333334</ele><time>2026-04-04T15:33:11.011Z</time></trkpt><trkpt lat="43.6367033" lon="11.5004917"><ele>139.16666666666669</ele><time>2026-04-04T15:33:12.01Z</time></trkpt><trkpt lat="43.6366383" lon="11.500415"><ele>139.0</ele><time>2026-04-04T15:33:13.012Z</time></trkpt><trkpt lat="43.6365717" lon="11.50034"><ele>139.0</ele><time>2026-04-04T15:33:14.012Z</time></trkpt><trkpt lat="43.6365017" lon="11.50027"><ele>139.0</ele><time>2026-04-04T15:33:15.011Z</time></trkpt><trkpt lat="43.6364283" lon="11.5002033"><ele>139.0</ele><time>2026-04-04T15:33:16.011Z</time></trkpt><trkpt lat="43.636355" lon="11.5001367"><ele>139.0</ele><time>2026-04-04T15:33:17.01Z</time></trkpt><trkpt lat="43.6362833" lon="11.5000783"><ele>139.0</ele><time>2026-04-04T15:33:18.011Z</time></trkpt><trkpt lat="43.6362083" lon="11.5000267"><ele>139.0</ele><time>2026-04-04T15:33:19.011Z</time></trkpt><trkpt lat="43.6361333" lon="11.49998"><ele>138.5</ele><time>2026-04-04T15:33:20.01Z</time></trkpt><trkpt lat="43.636055" lon="11.4999383"><ele>138.0</ele><time>2026-04-04T15:33:21.011Z</time></trkpt><trkpt lat="43.6359733" lon="11.4998967"><ele>137.5</ele><time>2026-04-04T15:33:22.01Z</time></trkpt><trkpt lat="43.6358933" lon="11.4998533"><ele>137.0</ele><time>2026-04-04T15:33:23.011Z</time></trkpt><trkpt lat="43.63581" lon="11.4998083"><ele>136.5</ele><time>2026-04-04T15:33:24.013Z</time></trkpt><trkpt lat="43.6357283" lon="11.4997617"><ele>136.0</ele><time>2026-04-04T15:33:25.011Z</time></trkpt><trkpt lat="43.6356483" lon="11.499705"><ele>136.0</ele><time>2026-04-04T15:33:26.011Z</time></trkpt><trkpt lat="43.635565" lon="11.49964"><ele>136.0</ele><time>2026-04-04T15:33:27.011Z</time></trkpt><trkpt lat="43.6354817" lon="11.4995783"><ele>136.0</ele><time>2026-04-04T15:33:28.01Z</time></trkpt><trkpt lat="43.6354" lon="11.4995217"><ele>136.0</ele><time>2026-04-04T15:33:29.011Z</time></trkpt><trkpt lat="43.6353167" lon="11.4994633"><ele>136.0</ele><time>2026-04-04T15:33:30.01Z</time></trkpt><trkpt lat="43.6352383" lon="11.4994"><ele>136.4</ele><time>2026-04-04T15:33:31.011Z</time></trkpt><trkpt lat="43.63516" lon="11.4993317"><ele>136.8</ele><time>2026-04-04T15:33:32.011Z</time></trkpt><trkpt lat="43.6350867" lon="11.4992567"><ele>137.20000000000002</ele><time>2026-04-04T15:33:33.011Z</time></trkpt><trkpt lat="43.63502" lon="11.4991717"><ele>137.6</ele><time>2026-04-04T15:33:34.012Z</time></trkpt><trkpt lat="43.6349583" lon="11.499085"><ele>138.0</ele><time>2026-04-04T15:33:35.011Z</time></trkpt><trkpt lat="43.6349" lon="11.4989933"><ele>138.0</ele><time>2026-04-04T15:33:36.009Z</time></trkpt><trkpt lat="43.634845" lon="11.498895"><ele>138.0</ele><time>2026-04-04T15:33:37.011Z</time></trkpt><trkpt lat="43.6347933" lon="11.4987933"><ele>138.0</ele><time>2026-04-04T15:33:38.011Z</time></trkpt><trkpt lat="43.63474" lon="11.4986917"><ele>138.0</ele><time>2026-04-04T15:33:39.01Z</time></trkpt><trkpt lat="43.634685" lon="11.4985933"><ele>138.0</ele><time>2026-04-04T15:33:40.012Z</time></trkpt><trkpt lat="43.6346283" lon="11.4984983"><ele>137.83333333333334</ele><time>2026-04-04T15:33:41.012Z</time></trkpt><trkpt lat="43.634575" lon="11.4984033"><ele>137.66666666666666</ele><time>2026-04-04T15:33:42.008Z</time></trkpt><trkpt lat="43.63452" lon="11.4983083"><ele>137.5</ele><time>2026-04-04T15:33:43.012Z</time></trkpt><trkpt lat="43.634465" lon="11.4982133"><ele>137.33333333333331</ele><time>2026-04-04T15:33:44.011Z</time></trkpt><trkpt lat="43.6344083" lon="11.4981183"><ele>137.16666666666666</ele><time>2026-04-04T15:33:45.009Z</time></trkpt><trkpt lat="43.6343517" lon="11.498025"><ele>137.0</ele><time>2026-04-04T15:33:46.01Z</time></trkpt><trkpt lat="43.6342967" lon="11.4979317"><ele>136.79999999999998</ele><time>2026-04-04T15:33:47.011Z</time></trkpt><trkpt lat="43.6342433" lon="11.4978383"><ele>136.6</ele><time>2026-04-04T15:33:48.013Z</time></trkpt><trkpt lat="43.6341917" lon="11.497735"><ele>136.39999999999998</ele><time>2026-04-04T15:33:49.017Z</time></trkpt><trkpt lat="43.6341367" lon="11.4976333"><ele>136.2</ele><time>2026-04-04T15:33:50.011Z</time></trkpt><trkpt lat="43.6340817" lon="11.49753"><ele>136.0</ele><time>2026-04-04T15:33:51.009Z</time></trkpt><trkpt lat="43.6340267" lon="11.4974333"><ele>136.0</ele><time>2026-04-04T15:33:52.012Z</time></trkpt><trkpt lat="43.63397" lon="11.49734"><ele>136.0</ele><time>2026-04-04T15:33:53.012Z</time></trkpt><trkpt lat="43.633915" lon="11.4972367"><ele>136.0</ele><time>2026-04-04T15:33:54.009Z</time></trkpt><trkpt lat="43.63386" lon="11.4971333"><ele>136.0</ele><time>2026-04-04T15:33:55.011Z</time></trkpt><trkpt lat="43.6338133" lon="11.4970217"><ele>136.0</ele><time>2026-04-04T15:33:56.013Z</time></trkpt><trkpt lat="43.6337667" lon="11.4969167"><ele>136.0</ele><time>2026-04-04T15:33:57.011Z</time></trkpt><trkpt lat="43.6337183" lon="11.49681"><ele>136.0</ele><time>2026-04-04T15:33:58.011Z</time></trkpt><trkpt lat="43.6336717" lon="11.4967"><ele>136.0</ele><time>2026-04-04T15:33:59.011Z</time></trkpt><trkpt lat="43.6336267" lon="11.49659"><ele>136.0</ele><time>2026-04-04T15:34:00.011Z</time></trkpt><trkpt lat="43.6335783" lon="11.496485"><ele>136.0</ele><time>2026-04-04T15:34:01.01Z</time></trkpt><trkpt lat="43.6335267" lon="11.49638"><ele>135.6</ele><time>2026-04-04T15:34:02.012Z</time></trkpt><trkpt lat="43.6334783" lon="11.4962717"><ele>135.2</ele><time>2026-04-04T15:34:03.011Z</time></trkpt><trkpt lat="43.6334283" lon="11.4961683"><ele>134.8</ele><time>2026-04-04T15:34:04.009Z</time></trkpt><trkpt lat="43.6333783" lon="11.496065"><ele>134.4</ele><time>2026-04-04T15:34:05.011Z</time></trkpt><trkpt lat="43.633335" lon="11.495955"><ele>134.0</ele><time>2026-04-04T15:34:06.01Z</time></trkpt><trkpt lat="43.6332917" lon="11.4958433"><ele>134.0</ele><time>2026-04-04T15:34:07.01Z</time></trkpt><trkpt lat="43.6332517" lon="11.4957333"><ele>134.0</ele><time>2026-04-04T15:34:08.011Z</time></trkpt><trkpt lat="43.6332183" lon="11.495615"><ele>134.0</ele><time>2026-04-04T15:34:09.01Z</time></trkpt><trkpt lat="43.6331933" lon="11.4954933"><ele>134.0</ele><time>2026-04-04T15:34:10.011Z</time></trkpt><trkpt lat="43.6331733" lon="11.4953717"><ele>134.0</ele><time>2026-04-04T15:34:11.01Z</time></trkpt><trkpt lat="43.633155" lon="11.4952467"><ele>134.2</ele><time>2026-04-04T15:34:12.011Z</time></trkpt><trkpt lat="43.6331367" lon="11.4951183"><ele>134.4</ele><time>2026-04-04T15:34:13.012Z</time></trkpt><trkpt lat="43.6331183" lon="11.49499"><ele>134.6</ele><time>2026-04-04T15:34:14.01Z</time></trkpt><trkpt lat="43.6330983" lon="11.494865"><ele>134.8</ele><time>2026-04-04T15:34:15.009Z</time></trkpt><trkpt lat="43.6330767" lon="11.49474"><ele>135.0</ele><time>2026-04-04T15:34:16.011Z</time></trkpt><trkpt lat="43.6330517" lon="11.4946133"><ele>135.4</ele><time>2026-04-04T15:34:17.013Z</time></trkpt><trkpt lat="43.6330233" lon="11.49449"><ele>135.8</ele><time>2026-04-04T15:34:18.011Z</time></trkpt><trkpt lat="43.6329967" lon="11.494365"><ele>136.2</ele><time>2026-04-04T15:34:19.012Z</time></trkpt><trkpt lat="43.63297" lon="11.4942417"><ele>136.6</ele><time>2026-04-04T15:34:20.011Z</time></trkpt><trkpt lat="43.6329433" lon="11.4941183"><ele>137.0</ele><time>2026-04-04T15:34:21.011Z</time></trkpt><trkpt lat="43.6329167" lon="11.4939967"><ele>137.0</ele><time>2026-04-04T15:34:22.011Z</time></trkpt><trkpt lat="43.6328867" lon="11.4938783"><ele>137.0</ele><time>2026-04-04T15:34:23.011Z</time></trkpt><trkpt lat="43.6328567" lon="11.4937533"><ele>137.0</ele><time>2026-04-04T15:34:24.011Z</time></trkpt><trkpt lat="43.6328267" lon="11.49363"><ele>137.0</ele><time>2026-04-04T15:34:25.012Z</time></trkpt><trkpt lat="43.63279" lon="11.4935117"><ele>137.0</ele><time>2026-04-04T15:34:26.013Z</time></trkpt><trkpt lat="43.6327467" lon="11.493395"><ele>136.4</ele><time>2026-04-04T15:34:27.009Z</time></trkpt><trkpt lat="43.6327033" lon="11.49328"><ele>135.79999999999998</ele><time>2026-04-04T15:34:28.011Z</time></trkpt><trkpt lat="43.632655" lon="11.4931733"><ele>135.2</ele><time>2026-04-04T15:34:29.011Z</time></trkpt><trkpt lat="43.632605" lon="11.4930717"><ele>134.6</ele><time>2026-04-04T15:34:30.01Z</time></trkpt><trkpt lat="43.6325517" lon="11.492975"><ele>134.0</ele><time>2026-04-04T15:34:31.011Z</time></trkpt><trkpt lat="43.6324933" lon="11.4928833"><ele>134.0</ele><time>2026-04-04T15:34:32.013Z</time></trkpt><trkpt lat="43.63243" lon="11.4927917"><ele>134.0</ele><time>2026-04-04T15:34:33.014Z</time></trkpt><trkpt lat="43.6323633" lon="11.492705"><ele>134.0</ele><time>2026-04-04T15:34:34.012Z</time></trkpt><trkpt lat="43.6322983" lon="11.4926183"><ele>134.0</ele><time>2026-04-04T15:34:35.012Z</time></trkpt><trkpt lat="43.6322333" lon="11.4925317"><ele>134.0</ele><time>2026-04-04T15:34:36.013Z</time></trkpt><trkpt lat="43.6321683" lon="11.4924467"><ele>134.0</ele><time>2026-04-04T15:34:37.012Z</time></trkpt><trkpt lat="43.6321" lon="11.4923667"><ele>134.0</ele><time>2026-04-04T15:34:38.013Z</time></trkpt><trkpt lat="43.632035" lon="11.492285"><ele>134.0</ele><time>2026-04-04T15:34:39.01Z</time></trkpt><trkpt lat="43.6319683" lon="11.4922033"><ele>134.0</ele><time>2026-04-04T15:34:40.012Z</time></trkpt><trkpt lat="43.6319017" lon="11.4921183"><ele>134.0</ele><time>2026-04-04T15:34:41.013Z</time></trkpt><trkpt lat="43.6318333" lon="11.4920383"><ele>134.0</ele><time>2026-04-04T15:34:42.011Z</time></trkpt><trkpt lat="43.6317633" lon="11.4919583"><ele>133.66666666666666</ele><time>2026-04-04T15:34:43.012Z</time></trkpt><trkpt lat="43.631695" lon="11.49188"><ele>133.33333333333331</ele><time>2026-04-04T15:34:44.01Z</time></trkpt><trkpt lat="43.631625" lon="11.4918"><ele>133.0</ele><time>2026-04-04T15:34:45.011Z</time></trkpt><trkpt lat="43.631555" lon="11.49173"><ele>132.66666666666666</ele><time>2026-04-04T15:34:46.011Z</time></trkpt><trkpt lat="43.6314867" lon="11.4916517"><ele>132.33333333333334</ele><time>2026-04-04T15:34:47.01Z</time></trkpt><trkpt lat="43.6314167" lon="11.4915733"><ele>132.0</ele><time>2026-04-04T15:34:48.01Z</time></trkpt><trkpt lat="43.6313467" lon="11.4914967"><ele>132.0</ele><time>2026-04-04T15:34:49.012Z</time></trkpt><trkpt lat="43.631275" lon="11.491415"><ele>132.0</ele><time>2026-04-04T15:34:50.013Z</time></trkpt><trkpt lat="43.6312017" lon="11.4913433"><ele>132.0</ele><time>2026-04-04T15:34:51.01Z</time></trkpt><trkpt lat="43.63113" lon="11.4912717"><ele>132.0</ele><time>2026-04-04T15:34:52.01Z</time></trkpt><trkpt lat="43.6310533" lon="11.4912083"><ele>132.0</ele><time>2026-04-04T15:34:53.012Z</time></trkpt><trkpt lat="43.630975" lon="11.4911483"><ele>131.33333333333334</ele><time>2026-04-04T15:34:54.011Z</time></trkpt><trkpt lat="43.6308967" lon="11.4910917"><ele>130.66666666666666</ele><time>2026-04-04T15:34:55.011Z</time></trkpt><trkpt lat="43.6308167" lon="11.49104"><ele>130.0</ele><time>2026-04-04T15:34:56.012Z</time></trkpt><trkpt lat="43.630735" lon="11.4909917"><ele>129.33333333333331</ele><time>2026-04-04T15:34:57.011Z</time></trkpt><trkpt lat="43.6306517" lon="11.4909433"><ele>128.66666666666666</ele><time>2026-04-04T15:34:58.014Z</time></trkpt><trkpt lat="43.6305667" lon="11.4908967"><ele>128.0</ele><time>2026-04-04T15:34:59.014Z</time></trkpt><trkpt lat="43.6304833" lon="11.4908517"><ele>127.99999999999999</ele><time>2026-04-04T15:35:00.013Z</time></trkpt><trkpt lat="43.6304" lon="11.4908067"><ele>128.0</ele><time>2026-04-04T15:35:01.015Z</time></trkpt><trkpt lat="43.6303133" lon="11.4907667"><ele>128.0</ele><time>2026-04-04T15:35:02.014Z</time></trkpt><trkpt lat="43.6302283" lon="11.490725"><ele>128.0</ele><time>2026-04-04T15:35:03.012Z</time></trkpt><trkpt lat="43.6301433" lon="11.4906867"><ele>127.99999999999999</ele><time>2026-04-04T15:35:04.01Z</time></trkpt><trkpt lat="43.63006" lon="11.49065"><ele>128.0</ele><time>2026-04-04T15:35:05.011Z</time></trkpt><trkpt lat="43.629975" lon="11.4906183"><ele>127.99999999999999</ele><time>2026-04-04T15:35:06.01Z</time></trkpt><trkpt lat="43.62989" lon="11.49059"><ele>128.0</ele><time>2026-04-04T15:35:07.012Z</time></trkpt><trkpt lat="43.6298067" lon="11.490565"><ele>128.0</ele><time>2026-04-04T15:35:08.013Z</time></trkpt><trkpt lat="43.6297183" lon="11.4905433"><ele>128.0</ele><time>2026-04-04T15:35:09.01Z</time></trkpt><trkpt lat="43.6296317" lon="11.4905233"><ele>127.99999999999999</ele><time>2026-04-04T15:35:10.01Z</time></trkpt><trkpt lat="43.629545" lon="11.490505"><ele>128.0</ele><time>2026-04-04T15:35:11.011Z</time></trkpt><trkpt lat="43.6294583" lon="11.4904883"><ele>127.99999999999999</ele><time>2026-04-04T15:35:12.01Z</time></trkpt><trkpt lat="43.6293733" lon="11.4904717"><ele>128.0</ele><time>2026-04-04T15:35:13.013Z</time></trkpt><trkpt lat="43.6292883" lon="11.4904583"><ele>128.0</ele><time>2026-04-04T15:35:14.011Z</time></trkpt><trkpt lat="43.6292017" lon="11.49044"><ele>128.0</ele><time>2026-04-04T15:35:15.01Z</time></trkpt><trkpt lat="43.6291133" lon="11.4904233"><ele>127.99999999999999</ele><time>2026-04-04T15:35:16.012Z</time></trkpt><trkpt lat="43.6290267" lon="11.490405"><ele>128.0</ele><time>2026-04-04T15:35:17.012Z</time></trkpt><trkpt lat="43.6289417" lon="11.4903867"><ele>127.83333333333333</ele><time>2026-04-04T15:35:18.013Z</time></trkpt><trkpt lat="43.628855" lon="11.4903683"><ele>127.66666666666666</ele><time>2026-04-04T15:35:19.011Z</time></trkpt><trkpt lat="43.6287717" lon="11.4903467"><ele>127.5</ele><time>2026-04-04T15:35:20.011Z</time></trkpt><trkpt lat="43.6286867" lon="11.4903233"><ele>127.33333333333334</ele><time>2026-04-04T15:35:21.011Z</time></trkpt><trkpt lat="43.6286033" lon="11.4902967"><ele>127.16666666666667</ele><time>2026-04-04T15:35:22.013Z</time></trkpt><trkpt lat="43.6285183" lon="11.49026"><ele>127.0</ele><time>2026-04-04T15:35:23.011Z</time></trkpt><trkpt lat="43.6284383" lon="11.4902133"><ele>127.00000000000001</ele><time>2026-04-04T15:35:24.01Z</time></trkpt><trkpt lat="43.6283633" lon="11.4901533"><ele>127.0</ele><time>2026-04-04T15:35:25.01Z</time></trkpt><trkpt lat="43.62829" lon="11.4900817"><ele>127.0</ele><time>2026-04-04T15:35:26.011Z</time></trkpt><trkpt lat="43.6282283" lon="11.4899967"><ele>127.0</ele><time>2026-04-04T15:35:27.011Z</time></trkpt><trkpt lat="43.628175" lon="11.4899"><ele>127.00000000000001</ele><time>2026-04-04T15:35:28.011Z</time></trkpt><trkpt lat="43.6281317" lon="11.4897933"><ele>127.0</ele><time>2026-04-04T15:35:29.011Z</time></trkpt><trkpt lat="43.6280967" lon="11.4896783"><ele>126.66666666666667</ele><time>2026-04-04T15:35:30.011Z</time></trkpt><trkpt lat="43.628065" lon="11.4895667"><ele>126.33333333333334</ele><time>2026-04-04T15:35:31.011Z</time></trkpt><trkpt lat="43.6280367" lon="11.4894517"><ele>126.0</ele><time>2026-04-04T15:35:32.015Z</time></trkpt><trkpt lat="43.6280083" lon="11.4893383"><ele>125.66666666666666</ele><time>2026-04-04T15:35:33.01Z</time></trkpt><trkpt lat="43.6279867" lon="11.4892233"><ele>125.33333333333333</ele><time>2026-04-04T15:35:34.012Z</time></trkpt><trkpt lat="43.6279633" lon="11.4891067"><ele>125.0</ele><time>2026-04-04T15:35:35.011Z</time></trkpt><trkpt lat="43.62794" lon="11.4889917"><ele>124.99999999999999</ele><time>2026-04-04T15:35:36.011Z</time></trkpt><trkpt lat="43.6279133" lon="11.488875"><ele>125.0</ele><time>2026-04-04T15:35:37.013Z</time></trkpt><trkpt lat="43.627885" lon="11.4887583"><ele>125.0</ele><time>2026-04-04T15:35:38.011Z</time></trkpt><trkpt lat="43.6278567" lon="11.488645"><ele>125.0</ele><time>2026-04-04T15:35:39.011Z</time></trkpt><trkpt lat="43.62783" lon="11.48853"><ele>124.99999999999999</ele><time>2026-04-04T15:35:40.011Z</time></trkpt><trkpt lat="43.6278017" lon="11.4884167"><ele>125.0</ele><time>2026-04-04T15:35:41.01Z</time></trkpt><trkpt lat="43.627775" lon="11.488305"><ele>125.16666666666666</ele><time>2026-04-04T15:35:42.01Z</time></trkpt><trkpt lat="43.6277467" lon="11.4881933"><ele>125.33333333333333</ele><time>2026-04-04T15:35:43.011Z</time></trkpt><trkpt lat="43.62772" lon="11.4880817"><ele>125.5</ele><time>2026-04-04T15:35:44.014Z</time></trkpt><trkpt lat="43.6276967" lon="11.487965"><ele>125.66666666666666</ele><time>2026-04-04T15:35:45.012Z</time></trkpt><trkpt lat="43.627675" lon="11.48785"><ele>125.83333333333333</ele><time>2026-04-04T15:35:46.011Z</time></trkpt><trkpt lat="43.6276517" lon="11.487735"><ele>126.0</ele><time>2026-04-04T15:35:47.011Z</time></trkpt><trkpt lat="43.627625" lon="11.487625"><ele>126.0</ele><time>2026-04-04T15:35:48.012Z</time></trkpt><trkpt lat="43.627595" lon="11.4875133"><ele>126.0</ele><time>2026-04-04T15:35:49.011Z</time></trkpt><trkpt lat="43.6275617" lon="11.4874033"><ele>126.0</ele><time>2026-04-04T15:35:50.01Z</time></trkpt><trkpt lat="43.6275267" lon="11.4872933"><ele>126.0</ele><time>2026-04-04T15:35:51.01Z</time></trkpt><trkpt lat="43.6274867" lon="11.4871883"><ele>126.0</ele><time>2026-04-04T15:35:52.011Z</time></trkpt><trkpt lat="43.6274467" lon="11.4870817"><ele>126.0</ele><time>2026-04-04T15:35:53.011Z</time></trkpt><trkpt lat="43.6274067" lon="11.486975"><ele>126.0</ele><time>2026-04-04T15:35:54.01Z</time></trkpt><trkpt lat="43.62737" lon="11.486865"><ele>126.0</ele><time>2026-04-04T15:35:55.011Z</time></trkpt><trkpt lat="43.627335" lon="11.48676"><ele>126.0</ele><time>2026-04-04T15:35:56.011Z</time></trkpt><trkpt lat="43.6273017" lon="11.4866533"><ele>126.0</ele><time>2026-04-04T15:35:57.012Z</time></trkpt><trkpt lat="43.6272667" lon="11.4865467"><ele>126.0</ele><time>2026-04-04T15:35:58.01Z</time></trkpt><trkpt lat="43.6272333" lon="11.4864417"><ele>126.0</ele><time>2026-04-04T15:35:59.011Z</time></trkpt><trkpt lat="43.6272" lon="11.486335"><ele>125.83333333333333</ele><time>2026-04-04T15:36:00.012Z</time></trkpt><trkpt lat="43.6271667" lon="11.4862267"><ele>125.66666666666666</ele><time>2026-04-04T15:36:01.011Z</time></trkpt><trkpt lat="43.6271333" lon="11.4861183"><ele>125.5</ele><time>2026-04-04T15:36:02.011Z</time></trkpt><trkpt lat="43.6270967" lon="11.4860133"><ele>125.33333333333333</ele><time>2026-04-04T15:36:03.011Z</time></trkpt><trkpt lat="43.627065" lon="11.4859017"><ele>125.16666666666666</ele><time>2026-04-04T15:36:04.011Z</time></trkpt><trkpt lat="43.6270317" lon="11.4857933"><ele>125.0</ele><time>2026-04-04T15:36:05.012Z</time></trkpt><trkpt lat="43.6269933" lon="11.4856883"><ele>124.83333333333333</ele><time>2026-04-04T15:36:06.01Z</time></trkpt><trkpt lat="43.6269533" lon="11.4855917"><ele>124.66666666666666</ele><time>2026-04-04T15:36:07.011Z</time></trkpt><trkpt lat="43.6269117" lon="11.4854917"><ele>124.5</ele><time>2026-04-04T15:36:08.011Z</time></trkpt><trkpt lat="43.6268733" lon="11.48539"><ele>124.33333333333334</ele><time>2026-04-04T15:36:09.01Z</time></trkpt><trkpt lat="43.626835" lon="11.48529"><ele>124.16666666666667</ele><time>2026-04-04T15:36:10.01Z</time></trkpt><trkpt lat="43.6267967" lon="11.4851917"><ele>124.0</ele><time>2026-04-04T15:36:11.015Z</time></trkpt><trkpt lat="43.6267567" lon="11.485095"><ele>124.00000000000001</ele><time>2026-04-04T15:36:12.01Z</time></trkpt><trkpt lat="43.6267133" lon="11.4849983"><ele>124.0</ele><time>2026-04-04T15:36:13.013Z</time></trkpt><trkpt lat="43.6266683" lon="11.4849067"><ele>124.0</ele><time>2026-04-04T15:36:14.01Z</time></trkpt><trkpt lat="43.6266233" lon="11.484815"><ele>124.0</ele><time>2026-04-04T15:36:15.01Z</time></trkpt><trkpt lat="43.6265767" lon="11.4847233"><ele>124.00000000000001</ele><time>2026-04-04T15:36:16.012Z</time></trkpt><trkpt lat="43.62653" lon="11.484635"><ele>124.0</ele><time>2026-04-04T15:36:17.013Z</time></trkpt><trkpt lat="43.62649" lon="11.484545"><ele>124.0</ele><time>2026-04-04T15:36:18.011Z</time></trkpt><trkpt lat="43.6264567" lon="11.4844533"><ele>124.00000000000001</ele><time>2026-04-04T15:36:19.012Z</time></trkpt><trkpt lat="43.6264283" lon="11.4843683"><ele>124.0</ele><time>2026-04-04T15:36:20.012Z</time></trkpt><trkpt lat="43.626405" lon="11.48428"><ele>124.0</ele><time>2026-04-04T15:36:21.011Z</time></trkpt><trkpt lat="43.626385" lon="11.4841867"><ele>124.00000000000001</ele><time>2026-04-04T15:36:22.01Z</time></trkpt><trkpt lat="43.6263767" lon="11.4840883"><ele>124.0</ele><time>2026-04-04T15:36:23.009Z</time></trkpt><trkpt lat="43.6263867" lon="11.4839833"><ele>124.0</ele><time>2026-04-04T15:36:24.009Z</time></trkpt><trkpt lat="43.62641" lon="11.483885"><ele>124.00000000000001</ele><time>2026-04-04T15:36:25.009Z</time></trkpt><trkpt lat="43.6264467" lon="11.4837833"><ele>124.0</ele><time>2026-04-04T15:36:26.011Z</time></trkpt><trkpt lat="43.62648" lon="11.483685"><ele>124.0</ele><time>2026-04-04T15:36:27.008Z</time></trkpt><trkpt lat="43.6265133" lon="11.4835867"><ele>124.0</ele><time>2026-04-04T15:36:28.008Z</time></trkpt><trkpt lat="43.62655" lon="11.4834867"><ele>124.00000000000001</ele><time>2026-04-04T15:36:29.01Z</time></trkpt><trkpt lat="43.626585" lon="11.4833867"><ele>124.0</ele><time>2026-04-04T15:36:30.01Z</time></trkpt><trkpt lat="43.6266233" lon="11.4832833"><ele>124.00000000000001</ele><time>2026-04-04T15:36:31.01Z</time></trkpt><trkpt lat="43.6266617" lon="11.48318"><ele>124.0</ele><time>2026-04-04T15:36:32.009Z</time></trkpt><trkpt lat="43.6267017" lon="11.4830783"><ele>124.0</ele><time>2026-04-04T15:36:33.011Z</time></trkpt><trkpt lat="43.6267417" lon="11.4829767"><ele>124.0</ele><time>2026-04-04T15:36:34.009Z</time></trkpt><trkpt lat="43.6267833" lon="11.48288"><ele>124.00000000000001</ele><time>2026-04-04T15:36:35.011Z</time></trkpt><trkpt lat="43.626825" lon="11.482785"><ele>124.0</ele><time>2026-04-04T15:36:36.009Z</time></trkpt><trkpt lat="43.62686" lon="11.48269"><ele>124.00000000000001</ele><time>2026-04-04T15:36:37.009Z</time></trkpt><trkpt lat="43.6268967" lon="11.4825917"><ele>124.0</ele><time>2026-04-04T15:36:38.01Z</time></trkpt><trkpt lat="43.6269283" lon="11.48249"><ele>124.0</ele><time>2026-04-04T15:36:39.01Z</time></trkpt><trkpt lat="43.6269583" lon="11.4823883"><ele>124.0</ele><time>2026-04-04T15:36:40.009Z</time></trkpt><trkpt lat="43.6269933" lon="11.482285"><ele>124.00000000000001</ele><time>2026-04-04T15:36:41.009Z</time></trkpt><trkpt lat="43.6270283" lon="11.4821883"><ele>124.0</ele><time>2026-04-04T15:36:42.01Z</time></trkpt><trkpt lat="43.6270633" lon="11.4820933"><ele>124.16666666666667</ele><time>2026-04-04T15:36:43.011Z</time></trkpt><trkpt lat="43.6271017" lon="11.481995"><ele>124.33333333333334</ele><time>2026-04-04T15:36:44.01Z</time></trkpt><trkpt lat="43.6271367" lon="11.4818967"><ele>124.5</ele><time>2026-04-04T15:36:45.012Z</time></trkpt><trkpt lat="43.6271767" lon="11.4818017"><ele>124.66666666666666</ele><time>2026-04-04T15:36:46.008Z</time></trkpt><trkpt lat="43.6272117" lon="11.4817067"><ele>124.83333333333333</ele><time>2026-04-04T15:36:47.011Z</time></trkpt><trkpt lat="43.6272533" lon="11.4816117"><ele>125.0</ele><time>2026-04-04T15:36:48.01Z</time></trkpt><trkpt lat="43.627295" lon="11.48152"><ele>124.99999999999999</ele><time>2026-04-04T15:36:49.009Z</time></trkpt><trkpt lat="43.62734" lon="11.4814233"><ele>125.0</ele><time>2026-04-04T15:36:50.01Z</time></trkpt><trkpt lat="43.62739" lon="11.481325"><ele>125.0</ele><time>2026-04-04T15:36:51.009Z</time></trkpt><trkpt lat="43.62744" lon="11.4812333"><ele>125.0</ele><time>2026-04-04T15:36:52.009Z</time></trkpt><trkpt lat="43.6274883" lon="11.4811383"><ele>124.99999999999999</ele><time>2026-04-04T15:36:53.009Z</time></trkpt><trkpt lat="43.6275383" lon="11.4810483"><ele>125.0</ele><time>2026-04-04T15:36:54.009Z</time></trkpt><trkpt lat="43.6275867" lon="11.4809567"><ele>124.83333333333333</ele><time>2026-04-04T15:36:55.01Z</time></trkpt><trkpt lat="43.6276367" lon="11.48087"><ele>124.66666666666666</ele><time>2026-04-04T15:36:56.011Z</time></trkpt><trkpt lat="43.62768" lon="11.4807817"><ele>124.5</ele><time>2026-04-04T15:36:57.009Z</time></trkpt><trkpt lat="43.6277183" lon="11.4806933"><ele>124.33333333333334</ele><time>2026-04-04T15:36:58.009Z</time></trkpt><trkpt lat="43.6277517" lon="11.4805983"><ele>124.16666666666667</ele><time>2026-04-04T15:36:59.009Z</time></trkpt><trkpt lat="43.6277817" lon="11.4804967"><ele>124.0</ele><time>2026-04-04T15:37:00.009Z</time></trkpt><trkpt lat="43.6278083" lon="11.4803917"><ele>124.16666666666667</ele><time>2026-04-04T15:37:01.013Z</time></trkpt><trkpt lat="43.627825" lon="11.4802817"><ele>124.33333333333334</ele><time>2026-04-04T15:37:02.01Z</time></trkpt><trkpt lat="43.627845" lon="11.4801667"><ele>124.5</ele><time>2026-04-04T15:37:03.01Z</time></trkpt><trkpt lat="43.6278633" lon="11.4800533"><ele>124.66666666666666</ele><time>2026-04-04T15:37:04.009Z</time></trkpt><trkpt lat="43.6278767" lon="11.4799433"><ele>124.83333333333333</ele><time>2026-04-04T15:37:05.01Z</time></trkpt><trkpt lat="43.6278867" lon="11.4798333"><ele>125.0</ele><time>2026-04-04T15:37:06.011Z</time></trkpt><trkpt lat="43.6278983" lon="11.479725"><ele>124.99999999999999</ele><time>2026-04-04T15:37:07.009Z</time></trkpt><trkpt lat="43.6279133" lon="11.4796233"><ele>125.0</ele><time>2026-04-04T15:37:08.01Z</time></trkpt><trkpt lat="43.6279267" lon="11.4795217"><ele>125.0</ele><time>2026-04-04T15:37:09.009Z</time></trkpt><trkpt lat="43.627945" lon="11.479425"><ele>125.0</ele><time>2026-04-04T15:37:10.01Z</time></trkpt><trkpt lat="43.62796" lon="11.4793217"><ele>124.99999999999999</ele><time>2026-04-04T15:37:11.011Z</time></trkpt><trkpt lat="43.6279783" lon="11.47922"><ele>125.0</ele><time>2026-04-04T15:37:12.009Z</time></trkpt><trkpt lat="43.628" lon="11.47912"><ele>124.83333333333333</ele><time>2026-04-04T15:37:13.01Z</time></trkpt><trkpt lat="43.6280217" lon="11.4790233"><ele>124.66666666666666</ele><time>2026-04-04T15:37:14.009Z</time></trkpt><trkpt lat="43.6280483" lon="11.478935"><ele>124.5</ele><time>2026-04-04T15:37:15.009Z</time></trkpt><trkpt lat="43.6280917" lon="11.4787917"><ele>124.33333333333334</ele><time>2026-04-04T15:37:17.009Z</time></trkpt><trkpt lat="43.6281233" lon="11.478685"><ele>124.16666666666667</ele><time>2026-04-04T15:37:19.009Z</time></trkpt><trkpt lat="43.6281583" lon="11.4785533"><ele>124.0</ele><time>2026-04-04T15:37:21.01Z</time></trkpt><trkpt lat="43.6281717" lon="11.478395"><ele>124.0</ele><time>2026-04-04T15:37:23.009Z</time></trkpt><trkpt lat="43.6281117" lon="11.47827"><ele>124.0</ele><time>2026-04-04T15:37:25.009Z</time></trkpt><trkpt lat="43.6280083" lon="11.478195"><ele>124.0</ele><time>2026-04-04T15:37:27.01Z</time></trkpt><trkpt lat="43.6278933" lon="11.478215"><ele>124.0</ele><time>2026-04-04T15:37:29.01Z</time></trkpt><trkpt lat="43.6277683" lon="11.4782683"><ele>124.0</ele><time>2026-04-04T15:37:31.01Z</time></trkpt><trkpt lat="43.6276967" lon="11.4782933"><ele>124.00000000000001</ele><time>2026-04-04T15:37:32.009Z</time></trkpt><trkpt lat="43.6276317" lon="11.4783217"><ele>124.0</ele><time>2026-04-04T15:37:33.009Z</time></trkpt><trkpt lat="43.62756" lon="11.4783517"><ele>124.0</ele><time>2026-04-04T15:37:34.01Z</time></trkpt><trkpt lat="43.627495" lon="11.4783833"><ele>124.00000000000001</ele><time>2026-04-04T15:37:35.01Z</time></trkpt><trkpt lat="43.6274233" lon="11.4784133"><ele>124.0</ele><time>2026-04-04T15:37:36.012Z</time></trkpt><trkpt lat="43.6273583" lon="11.4784483"><ele>124.0</ele><time>2026-04-04T15:37:37.012Z</time></trkpt><trkpt lat="43.6272933" lon="11.47849"><ele>124.0</ele><time>2026-04-04T15:37:38.01Z</time></trkpt><trkpt lat="43.6272267" lon="11.4785333"><ele>124.00000000000001</ele><time>2026-04-04T15:37:39.01Z</time></trkpt><trkpt lat="43.627165" lon="11.478585"><ele>124.0</ele><time>2026-04-04T15:37:40.01Z</time></trkpt><trkpt lat="43.6271" lon="11.4786383"><ele>124.0</ele><time>2026-04-04T15:37:41.012Z</time></trkpt><trkpt lat="43.6270367" lon="11.4786933"><ele>124.00000000000001</ele><time>2026-04-04T15:37:42.011Z</time></trkpt><trkpt lat="43.6269767" lon="11.4787533"><ele>124.0</ele><time>2026-04-04T15:37:43.012Z</time></trkpt><trkpt lat="43.6269183" lon="11.4788183"><ele>124.0</ele><time>2026-04-04T15:37:44.01Z</time></trkpt><trkpt lat="43.6268583" lon="11.4788867"><ele>124.16666666666667</ele><time>2026-04-04T15:37:45.012Z</time></trkpt><trkpt lat="43.6267967" lon="11.4789517"><ele>124.33333333333334</ele><time>2026-04-04T15:37:46.01Z</time></trkpt><trkpt lat="43.6267367" lon="11.4790133"><ele>124.5</ele><time>2026-04-04T15:37:47.011Z</time></trkpt><trkpt lat="43.626675" lon="11.4790767"><ele>124.66666666666666</ele><time>2026-04-04T15:37:48.01Z</time></trkpt><trkpt lat="43.6266133" lon="11.4791433"><ele>124.83333333333333</ele><time>2026-04-04T15:37:49.009Z</time></trkpt><trkpt lat="43.6265517" lon="11.47921"><ele>125.0</ele><time>2026-04-04T15:37:50.011Z</time></trkpt><trkpt lat="43.62649" lon="11.4792783"><ele>125.0</ele><time>2026-04-04T15:37:51.008Z</time></trkpt><trkpt lat="43.62643" lon="11.4793467"><ele>125.0</ele><time>2026-04-04T15:37:52.011Z</time></trkpt><trkpt lat="43.6263683" lon="11.4794167"><ele>125.0</ele><time>2026-04-04T15:37:53.011Z</time></trkpt><trkpt lat="43.6263067" lon="11.4794867"><ele>125.0</ele><time>2026-04-04T15:37:54.009Z</time></trkpt><trkpt lat="43.626205" lon="11.4796117"><ele>125.0</ele><time>2026-04-04T15:37:56.01Z</time></trkpt><trkpt lat="43.6261367" lon="11.4796733"><ele>125.16666666666666</ele><time>2026-04-04T15:37:57.011Z</time></trkpt><trkpt lat="43.6260717" lon="11.479745"><ele>125.33333333333333</ele><time>2026-04-04T15:37:58.01Z</time></trkpt><trkpt lat="43.6260083" lon="11.479815"><ele>125.5</ele><time>2026-04-04T15:37:59.009Z</time></trkpt><trkpt lat="43.6259433" lon="11.4798833"><ele>125.66666666666666</ele><time>2026-04-04T15:38:00.009Z</time></trkpt><trkpt lat="43.6258717" lon="11.479945"><ele>125.83333333333333</ele><time>2026-04-04T15:38:01.009Z</time></trkpt><trkpt lat="43.6257983" lon="11.4800033"><ele>126.0</ele><time>2026-04-04T15:38:02.01Z</time></trkpt><trkpt lat="43.625725" lon="11.480055"><ele>126.0</ele><time>2026-04-04T15:38:03.008Z</time></trkpt><trkpt lat="43.6256483" lon="11.4801033"><ele>126.0</ele><time>2026-04-04T15:38:04.009Z</time></trkpt><trkpt lat="43.6255867" lon="11.4801517"><ele>126.0</ele><time>2026-04-04T15:38:05.01Z</time></trkpt><trkpt lat="43.6255217" lon="11.4801933"><ele>126.0</ele><time>2026-04-04T15:38:06.009Z</time></trkpt><trkpt lat="43.62545" lon="11.4802383"><ele>126.0</ele><time>2026-04-04T15:38:07.01Z</time></trkpt><trkpt lat="43.62538" lon="11.480285"><ele>126.0</ele><time>2026-04-04T15:38:08.009Z</time></trkpt><trkpt lat="43.6253083" lon="11.4803317"><ele>125.83333333333333</ele><time>2026-04-04T15:38:09.01Z</time></trkpt><trkpt lat="43.6252367" lon="11.48038"><ele>125.66666666666666</ele><time>2026-04-04T15:38:10.009Z</time></trkpt><trkpt lat="43.625165" lon="11.4804317"><ele>125.5</ele><time>2026-04-04T15:38:11.011Z</time></trkpt><trkpt lat="43.6250983" lon="11.4804833"><ele>125.33333333333333</ele><time>2026-04-04T15:38:12.009Z</time></trkpt><trkpt lat="43.6250367" lon="11.4805417"><ele>125.16666666666666</ele><time>2026-04-04T15:38:13.009Z</time></trkpt><trkpt lat="43.6249767" lon="11.48061"><ele>125.0</ele><time>2026-04-04T15:38:14.01Z</time></trkpt><trkpt lat="43.62492" lon="11.48068"><ele>124.85714285714286</ele><time>2026-04-04T15:38:15.009Z</time></trkpt><trkpt lat="43.6248617" lon="11.480755"><ele>124.71428571428572</ele><time>2026-04-04T15:38:16.009Z</time></trkpt><trkpt lat="43.624805" lon="11.48083"><ele>124.57142857142858</ele><time>2026-04-04T15:38:17.011Z</time></trkpt><trkpt lat="43.62475" lon="11.4809"><ele>124.42857142857143</ele><time>2026-04-04T15:38:18.012Z</time></trkpt><trkpt lat="43.624695" lon="11.4809633"><ele>124.2857142857143</ele><time>2026-04-04T15:38:19.009Z</time></trkpt><trkpt lat="43.6246433" lon="11.48103"><ele>124.14285714285715</ele><time>2026-04-04T15:38:20.01Z</time></trkpt><trkpt lat="43.624595" lon="11.4810967"><ele>124.0</ele><time>2026-04-04T15:38:21.01Z</time></trkpt><trkpt lat="43.6245467" lon="11.4811617"><ele>124.00000000000001</ele><time>2026-04-04T15:38:22.01Z</time></trkpt><trkpt lat="43.6244983" lon="11.4812283"><ele>124.0</ele><time>2026-04-04T15:38:23.009Z</time></trkpt><trkpt lat="43.6244333" lon="11.4813433"><ele>124.0</ele><time>2026-04-04T15:38:25.011Z</time></trkpt><trkpt lat="43.6243917" lon="11.4814167"><ele>124.0</ele><time>2026-04-04T15:38:27.01Z</time></trkpt><trkpt lat="43.6243333" lon="11.48151"><ele>124.00000000000001</ele><time>2026-04-04T15:38:30.01Z</time></trkpt><trkpt lat="43.6242783" lon="11.4815633"><ele>124.0</ele><time>2026-04-04T15:38:32.011Z</time></trkpt><trkpt lat="43.6242167" lon="11.481595"><ele>124.80000000000001</ele><time>2026-04-04T15:38:34.01Z</time></trkpt><trkpt lat="43.6241167" lon="11.4815983"><ele>125.60000000000001</ele><time>2026-04-04T15:38:36.009Z</time></trkpt><trkpt lat="43.6240017" lon="11.4816317"><ele>126.4</ele><time>2026-04-04T15:38:38.008Z</time></trkpt><trkpt lat="43.6239267" lon="11.4817633"><ele>127.2</ele><time>2026-04-04T15:38:40.01Z</time></trkpt><trkpt lat="43.62392" lon="11.4818617"><ele>128.0</ele><time>2026-04-04T15:38:41.009Z</time></trkpt><trkpt lat="43.6239083" lon="11.4819583"><ele>127.99999999999999</ele><time>2026-04-04T15:38:42.009Z</time></trkpt><trkpt lat="43.6239033" lon="11.48207"><ele>128.0</ele><time>2026-04-04T15:38:43.009Z</time></trkpt><trkpt lat="43.6238733" lon="11.4821717"><ele>128.0</ele><time>2026-04-04T15:38:44.01Z</time></trkpt><trkpt lat="43.6238483" lon="11.4822783"><ele>128.0</ele><time>2026-04-04T15:38:45.009Z</time></trkpt><trkpt lat="43.6238217" lon="11.4823817"><ele>127.99999999999999</ele><time>2026-04-04T15:38:46.011Z</time></trkpt><trkpt lat="43.6237767" lon="11.48248"><ele>128.0</ele><time>2026-04-04T15:38:47.01Z</time></trkpt><trkpt lat="43.623735" lon="11.4825767"><ele>127.83333333333333</ele><time>2026-04-04T15:38:48.01Z</time></trkpt><trkpt lat="43.6236933" lon="11.4826733"><ele>127.66666666666666</ele><time>2026-04-04T15:38:49.01Z</time></trkpt><trkpt lat="43.6236433" lon="11.4827667"><ele>127.5</ele><time>2026-04-04T15:38:50.009Z</time></trkpt><trkpt lat="43.6235983" lon="11.48286"><ele>127.33333333333334</ele><time>2026-04-04T15:38:51.011Z</time></trkpt><trkpt lat="43.623555" lon="11.4829517"><ele>127.16666666666667</ele><time>2026-04-04T15:38:52.01Z</time></trkpt><trkpt lat="43.62351" lon="11.4830417"><ele>127.0</ele><time>2026-04-04T15:38:53.01Z</time></trkpt><trkpt lat="43.623465" lon="11.4831333"><ele>126.50000000000001</ele><time>2026-04-04T15:38:54.009Z</time></trkpt><trkpt lat="43.6234267" lon="11.4832233"><ele>126.0</ele><time>2026-04-04T15:38:55.009Z</time></trkpt><trkpt lat="43.62339" lon="11.4833133"><ele>125.5</ele><time>2026-04-04T15:38:56.009Z</time></trkpt><trkpt lat="43.62335" lon="11.4834"><ele>125.0</ele><time>2026-04-04T15:38:57.01Z</time></trkpt><trkpt lat="43.6233083" lon="11.4834933"><ele>124.50000000000001</ele><time>2026-04-04T15:38:58.009Z</time></trkpt><trkpt lat="43.6232667" lon="11.4835867"><ele>124.0</ele><time>2026-04-04T15:38:59.01Z</time></trkpt><trkpt lat="43.6232217" lon="11.48368"><ele>124.00000000000001</ele><time>2026-04-04T15:39:00.009Z</time></trkpt><trkpt lat="43.6231733" lon="11.483775"><ele>124.0</ele><time>2026-04-04T15:39:01.01Z</time></trkpt><trkpt lat="43.62313" lon="11.48387"><ele>124.0</ele><time>2026-04-04T15:39:02.011Z</time></trkpt><trkpt lat="43.6230833" lon="11.4839683"><ele>124.0</ele><time>2026-04-04T15:39:03.009Z</time></trkpt><trkpt lat="43.62304" lon="11.4840633"><ele>124.00000000000001</ele><time>2026-04-04T15:39:04.011Z</time></trkpt><trkpt lat="43.6229967" lon="11.4841583"><ele>124.0</ele><time>2026-04-04T15:39:05.01Z</time></trkpt><trkpt lat="43.6229533" lon="11.4842517"><ele>124.00000000000001</ele><time>2026-04-04T15:39:06.011Z</time></trkpt><trkpt lat="43.6229067" lon="11.484345"><ele>124.0</ele><time>2026-04-04T15:39:07.01Z</time></trkpt><trkpt lat="43.6228617" lon="11.484435"><ele>124.0</ele><time>2026-04-04T15:39:08.01Z</time></trkpt><trkpt lat="43.62282" lon="11.4845267"><ele>124.0</ele><time>2026-04-04T15:39:09.01Z</time></trkpt><trkpt lat="43.62278" lon="11.4846217"><ele>124.00000000000001</ele><time>2026-04-04T15:39:10.009Z</time></trkpt><trkpt lat="43.6227417" lon="11.4847167"><ele>124.0</ele><time>2026-04-04T15:39:11.009Z</time></trkpt><trkpt lat="43.6227" lon="11.4848083"><ele>123.83333333333334</ele><time>2026-04-04T15:39:12.009Z</time></trkpt><trkpt lat="43.622655" lon="11.4849033"><ele>123.66666666666667</ele><time>2026-04-04T15:39:13.01Z</time></trkpt><trkpt lat="43.622605" lon="11.4849933"><ele>123.5</ele><time>2026-04-04T15:39:14.009Z</time></trkpt><trkpt lat="43.6225633" lon="11.4850867"><ele>123.33333333333334</ele><time>2026-04-04T15:39:15.009Z</time></trkpt><trkpt lat="43.6225183" lon="11.4851767"><ele>123.16666666666667</ele><time>2026-04-04T15:39:16.01Z</time></trkpt><trkpt lat="43.62247" lon="11.4852683"><ele>123.0</ele><time>2026-04-04T15:39:17.013Z</time></trkpt><trkpt lat="43.6224217" lon="11.4853533"><ele>123.33333333333333</ele><time>2026-04-04T15:39:18.01Z</time></trkpt><trkpt lat="43.6223717" lon="11.4854433"><ele>123.66666666666666</ele><time>2026-04-04T15:39:19.01Z</time></trkpt><trkpt lat="43.6223217" lon="11.4855317"><ele>124.0</ele><time>2026-04-04T15:39:20.009Z</time></trkpt><trkpt lat="43.6222733" lon="11.4856217"><ele>124.33333333333333</ele><time>2026-04-04T15:39:21.011Z</time></trkpt><trkpt lat="43.62223" lon="11.4857117"><ele>124.66666666666666</ele><time>2026-04-04T15:39:22.01Z</time></trkpt><trkpt lat="43.622185" lon="11.4858033"><ele>125.0</ele><time>2026-04-04T15:39:23.009Z</time></trkpt><trkpt lat="43.6221433" lon="11.485895"><ele>124.99999999999999</ele><time>2026-04-04T15:39:24.011Z</time></trkpt><trkpt lat="43.6221" lon="11.4859867"><ele>125.0</ele><time>2026-04-04T15:39:25.011Z</time></trkpt><trkpt lat="43.622055" lon="11.4860783"><ele>125.0</ele><time>2026-04-04T15:39:26.01Z</time></trkpt><trkpt lat="43.6220117" lon="11.48617"><ele>125.0</ele><time>2026-04-04T15:39:27.009Z</time></trkpt><trkpt lat="43.6219717" lon="11.48626"><ele>124.99999999999999</ele><time>2026-04-04T15:39:28.009Z</time></trkpt><trkpt lat="43.6219217" lon="11.48635"><ele>125.0</ele><time>2026-04-04T15:39:29.01Z</time></trkpt><trkpt lat="43.6218783" lon="11.48644"><ele>124.83333333333333</ele><time>2026-04-04T15:39:30.009Z</time></trkpt><trkpt lat="43.6218283" lon="11.48653"><ele>124.66666666666666</ele><time>2026-04-04T15:39:31.01Z</time></trkpt><trkpt lat="43.6217867" lon="11.4866217"><ele>124.5</ele><time>2026-04-04T15:39:32.009Z</time></trkpt><trkpt lat="43.6217417" lon="11.486715"><ele>124.33333333333334</ele><time>2026-04-04T15:39:33.01Z</time></trkpt><trkpt lat="43.6217033" lon="11.4868117"><ele>124.16666666666667</ele><time>2026-04-04T15:39:34.011Z</time></trkpt><trkpt lat="43.6216733" lon="11.48691"><ele>124.0</ele><time>2026-04-04T15:39:35.01Z</time></trkpt><trkpt lat="43.621645" lon="11.4870117"><ele>124.16666666666667</ele><time>2026-04-04T15:39:36.01Z</time></trkpt><trkpt lat="43.6216183" lon="11.4871133"><ele>124.33333333333334</ele><time>2026-04-04T15:39:37.009Z</time></trkpt><trkpt lat="43.6215983" lon="11.48722"><ele>124.5</ele><time>2026-04-04T15:39:38.011Z</time></trkpt><trkpt lat="43.6215833" lon="11.487325"><ele>124.66666666666666</ele><time>2026-04-04T15:39:39.01Z</time></trkpt><trkpt lat="43.6215683" lon="11.487435"><ele>124.83333333333333</ele><time>2026-04-04T15:39:40.01Z</time></trkpt><trkpt lat="43.6215567" lon="11.4875433"><ele>125.0</ele><time>2026-04-04T15:39:41.012Z</time></trkpt><trkpt lat="43.62155" lon="11.4876517"><ele>124.99999999999999</ele><time>2026-04-04T15:39:42.01Z</time></trkpt><trkpt lat="43.6215467" lon="11.4877633"><ele>125.0</ele><time>2026-04-04T15:39:43.01Z</time></trkpt><trkpt lat="43.6215483" lon="11.4878717"><ele>125.0</ele><time>2026-04-04T15:39:44.011Z</time></trkpt><trkpt lat="43.6215517" lon="11.4879833"><ele>125.0</ele><time>2026-04-04T15:39:45.01Z</time></trkpt><trkpt lat="43.6215567" lon="11.48809"><ele>124.99999999999999</ele><time>2026-04-04T15:39:46.009Z</time></trkpt><trkpt lat="43.6215667" lon="11.4881983"><ele>125.0</ele><time>2026-04-04T15:39:47.01Z</time></trkpt><trkpt lat="43.6215817" lon="11.4883067"><ele>124.66666666666666</ele><time>2026-04-04T15:39:48.01Z</time></trkpt><trkpt lat="43.621595" lon="11.4884167"><ele>124.33333333333333</ele><time>2026-04-04T15:39:49.01Z</time></trkpt><trkpt lat="43.6216117" lon="11.4885233"><ele>124.0</ele><time>2026-04-04T15:39:50.01Z</time></trkpt><trkpt lat="43.6216317" lon="11.4886317"><ele>123.66666666666666</ele><time>2026-04-04T15:39:51.011Z</time></trkpt><trkpt lat="43.6216533" lon="11.48874"><ele>123.33333333333333</ele><time>2026-04-04T15:39:52.011Z</time></trkpt><trkpt lat="43.6216733" lon="11.4888467"><ele>123.0</ele><time>2026-04-04T15:39:53.01Z</time></trkpt><trkpt lat="43.6217" lon="11.4889517"><ele>123.0</ele><time>2026-04-04T15:39:54.01Z</time></trkpt><trkpt lat="43.6217233" lon="11.489055"><ele>123.0</ele><time>2026-04-04T15:39:55.011Z</time></trkpt><trkpt lat="43.6217483" lon="11.489165"><ele>123.0</ele><time>2026-04-04T15:39:56.009Z</time></trkpt><trkpt lat="43.6217717" lon="11.4892733"><ele>123.0</ele><time>2026-04-04T15:39:57.009Z</time></trkpt><trkpt lat="43.6218" lon="11.48939"><ele>123.0</ele><time>2026-04-04T15:39:58.009Z</time></trkpt><trkpt lat="43.6218233" lon="11.4894933"><ele>123.0</ele><time>2026-04-04T15:39:59.01Z</time></trkpt><trkpt lat="43.6218467" lon="11.489595"><ele>122.83333333333333</ele><time>2026-04-04T15:40:00.01Z</time></trkpt><trkpt lat="43.6218733" lon="11.489695"><ele>122.66666666666666</ele><time>2026-04-04T15:40:01.009Z</time></trkpt><trkpt lat="43.6218967" lon="11.4898"><ele>122.5</ele><time>2026-04-04T15:40:02.011Z</time></trkpt><trkpt lat="43.62192" lon="11.4899067"><ele>122.33333333333333</ele><time>2026-04-04T15:40:03.011Z</time></trkpt><trkpt lat="43.621945" lon="11.490015"><ele>122.16666666666666</ele><time>2026-04-04T15:40:04.009Z</time></trkpt><trkpt lat="43.6219733" lon="11.4901233"><ele>122.0</ele><time>2026-04-04T15:40:05.01Z</time></trkpt><trkpt lat="43.622" lon="11.490235"><ele>122.16666666666666</ele><time>2026-04-04T15:40:06.009Z</time></trkpt><trkpt lat="43.6220267" lon="11.4903467"><ele>122.33333333333333</ele><time>2026-04-04T15:40:07.009Z</time></trkpt><trkpt lat="43.622055" lon="11.490455"><ele>122.5</ele><time>2026-04-04T15:40:08.011Z</time></trkpt><trkpt lat="43.6220817" lon="11.4905633"><ele>122.66666666666666</ele><time>2026-04-04T15:40:09.011Z</time></trkpt><trkpt lat="43.6221067" lon="11.4906683"><ele>122.83333333333333</ele><time>2026-04-04T15:40:10.009Z</time></trkpt><trkpt lat="43.6221317" lon="11.4907733"><ele>123.0</ele><time>2026-04-04T15:40:11.011Z</time></trkpt><trkpt lat="43.6221583" lon="11.4908767"><ele>123.0</ele><time>2026-04-04T15:40:12.009Z</time></trkpt><trkpt lat="43.622185" lon="11.4909817"><ele>123.0</ele><time>2026-04-04T15:40:13.011Z</time></trkpt><trkpt lat="43.6222117" lon="11.4910883"><ele>123.0</ele><time>2026-04-04T15:40:14.01Z</time></trkpt><trkpt lat="43.6222383" lon="11.4911933"><ele>123.0</ele><time>2026-04-04T15:40:15.01Z</time></trkpt><trkpt lat="43.622265" lon="11.491295"><ele>123.0</ele><time>2026-04-04T15:40:16.009Z</time></trkpt><trkpt lat="43.6222917" lon="11.4913983"><ele>123.0</ele><time>2026-04-04T15:40:17.01Z</time></trkpt><trkpt lat="43.6223167" lon="11.4915017"><ele>123.0</ele><time>2026-04-04T15:40:18.011Z</time></trkpt><trkpt lat="43.6223433" lon="11.4916067"><ele>123.0</ele><time>2026-04-04T15:40:19.01Z</time></trkpt><trkpt lat="43.6223683" lon="11.4917117"><ele>123.0</ele><time>2026-04-04T15:40:20.01Z</time></trkpt><trkpt lat="43.6223933" lon="11.491815"><ele>123.0</ele><time>2026-04-04T15:40:21.009Z</time></trkpt><trkpt lat="43.62242" lon="11.49192"><ele>123.0</ele><time>2026-04-04T15:40:22.009Z</time></trkpt><trkpt lat="43.622445" lon="11.49203"><ele>123.0</ele><time>2026-04-04T15:40:23.009Z</time></trkpt><trkpt lat="43.62247" lon="11.4921367"><ele>123.0</ele><time>2026-04-04T15:40:24.009Z</time></trkpt><trkpt lat="43.622495" lon="11.4922433"><ele>123.0</ele><time>2026-04-04T15:40:25.011Z</time></trkpt><trkpt lat="43.6225183" lon="11.492355"><ele>123.0</ele><time>2026-04-04T15:40:26.01Z</time></trkpt><trkpt lat="43.622545" lon="11.4924617"><ele>123.0</ele><time>2026-04-04T15:40:27.009Z</time></trkpt><trkpt lat="43.6225683" lon="11.4925733"><ele>123.0</ele><time>2026-04-04T15:40:28.01Z</time></trkpt><trkpt lat="43.62259" lon="11.4926883"><ele>123.0</ele><time>2026-04-04T15:40:29.013Z</time></trkpt><trkpt lat="43.6226067" lon="11.4928"><ele>123.0</ele><time>2026-04-04T15:40:30.009Z</time></trkpt><trkpt lat="43.6226233" lon="11.4929117"><ele>123.0</ele><time>2026-04-04T15:40:31.01Z</time></trkpt><trkpt lat="43.6226317" lon="11.4930267"><ele>123.0</ele><time>2026-04-04T15:40:32.01Z</time></trkpt><trkpt lat="43.622645" lon="11.4931383"><ele>123.0</ele><time>2026-04-04T15:40:33.011Z</time></trkpt><trkpt lat="43.6226567" lon="11.493255"><ele>123.0</ele><time>2026-04-04T15:40:34.009Z</time></trkpt><trkpt lat="43.6226583" lon="11.4933683"><ele>123.0</ele><time>2026-04-04T15:40:35.011Z</time></trkpt><trkpt lat="43.6226583" lon="11.4934817"><ele>123.0</ele><time>2026-04-04T15:40:36.009Z</time></trkpt><trkpt lat="43.6226467" lon="11.4935967"><ele>123.0</ele><time>2026-04-04T15:40:37.01Z</time></trkpt><trkpt lat="43.6226317" lon="11.49371"><ele>123.0</ele><time>2026-04-04T15:40:38.009Z</time></trkpt><trkpt lat="43.6226117" lon="11.4938233"><ele>123.0</ele><time>2026-04-04T15:40:39.011Z</time></trkpt><trkpt lat="43.6225867" lon="11.4939333"><ele>123.0</ele><time>2026-04-04T15:40:40.01Z</time></trkpt><trkpt lat="43.6225617" lon="11.4940433"><ele>123.0</ele><time>2026-04-04T15:40:41.01Z</time></trkpt><trkpt lat="43.622535" lon="11.49415"><ele>123.0</ele><time>2026-04-04T15:40:42.011Z</time></trkpt><trkpt lat="43.6225033" lon="11.4942567"><ele>123.0</ele><time>2026-04-04T15:40:43.011Z</time></trkpt><trkpt lat="43.6224733" lon="11.4943617"><ele>123.0</ele><time>2026-04-04T15:40:44.01Z</time></trkpt><trkpt lat="43.6224383" lon="11.4944633"><ele>123.0</ele><time>2026-04-04T15:40:45.009Z</time></trkpt><trkpt lat="43.6223983" lon="11.494565"><ele>123.0</ele><time>2026-04-04T15:40:46.01Z</time></trkpt><trkpt lat="43.622355" lon="11.494665"><ele>123.0</ele><time>2026-04-04T15:40:47.009Z</time></trkpt><trkpt lat="43.622305" lon="11.49476"><ele>122.83333333333333</ele><time>2026-04-04T15:40:48.008Z</time></trkpt><trkpt lat="43.622255" lon="11.4948517"><ele>122.66666666666666</ele><time>2026-04-04T15:40:49.012Z</time></trkpt><trkpt lat="43.6222033" lon="11.4949417"><ele>122.5</ele><time>2026-04-04T15:40:50.011Z</time></trkpt><trkpt lat="43.6221483" lon="11.49503"><ele>122.33333333333333</ele><time>2026-04-04T15:40:51.012Z</time></trkpt><trkpt lat="43.62209" lon="11.4951167"><ele>122.16666666666666</ele><time>2026-04-04T15:40:52.01Z</time></trkpt><trkpt lat="43.6220267" lon="11.4951967"><ele>122.0</ele><time>2026-04-04T15:40:53.011Z</time></trkpt><trkpt lat="43.6219567" lon="11.49527"><ele>121.99999999999999</ele><time>2026-04-04T15:40:54.009Z</time></trkpt><trkpt lat="43.6218883" lon="11.4953367"><ele>122.0</ele><time>2026-04-04T15:40:55.011Z</time></trkpt><trkpt lat="43.6218167" lon="11.4953983"><ele>122.0</ele><time>2026-04-04T15:40:56.01Z</time></trkpt><trkpt lat="43.621745" lon="11.4954583"><ele>122.0</ele><time>2026-04-04T15:40:57.01Z</time></trkpt><trkpt lat="43.6216717" lon="11.4955133"><ele>121.99999999999999</ele><time>2026-04-04T15:40:58.009Z</time></trkpt><trkpt lat="43.6215967" lon="11.495565"><ele>122.0</ele><time>2026-04-04T15:40:59.01Z</time></trkpt><trkpt lat="43.6215217" lon="11.4956167"><ele>122.49999999999999</ele><time>2026-04-04T15:41:00.009Z</time></trkpt><trkpt lat="43.6214417" lon="11.4956667"><ele>123.0</ele><time>2026-04-04T15:41:01.01Z</time></trkpt><trkpt lat="43.6213633" lon="11.4957167"><ele>123.5</ele><time>2026-04-04T15:41:02.009Z</time></trkpt><trkpt lat="43.6212867" lon="11.4957667"><ele>124.0</ele><time>2026-04-04T15:41:03.009Z</time></trkpt><trkpt lat="43.62121" lon="11.4958183"><ele>124.49999999999999</ele><time>2026-04-04T15:41:04.01Z</time></trkpt><trkpt lat="43.6211333" lon="11.49587"><ele>125.0</ele><time>2026-04-04T15:41:05.01Z</time></trkpt><trkpt lat="43.6210567" lon="11.49592"><ele>124.99999999999999</ele><time>2026-04-04T15:41:06.009Z</time></trkpt><trkpt lat="43.6209783" lon="11.4959683"><ele>125.0</ele><time>2026-04-04T15:41:07.009Z</time></trkpt><trkpt lat="43.6208983" lon="11.4960083"><ele>125.0</ele><time>2026-04-04T15:41:08.01Z</time></trkpt><trkpt lat="43.6208133" lon="11.4960417"><ele>125.0</ele><time>2026-04-04T15:41:09.01Z</time></trkpt><trkpt lat="43.62073" lon="11.496065"><ele>124.99999999999999</ele><time>2026-04-04T15:41:10.008Z</time></trkpt><trkpt lat="43.620645" lon="11.4960833"><ele>125.0</ele><time>2026-04-04T15:41:11.011Z</time></trkpt><trkpt lat="43.6205617" lon="11.4960983"><ele>124.99999999999999</ele><time>2026-04-04T15:41:12.009Z</time></trkpt><trkpt lat="43.620475" lon="11.49611"><ele>125.0</ele><time>2026-04-04T15:41:13.01Z</time></trkpt><trkpt lat="43.6203917" lon="11.4961183"><ele>125.0</ele><time>2026-04-04T15:41:14.01Z</time></trkpt><trkpt lat="43.6203083" lon="11.4961283"><ele>125.0</ele><time>2026-04-04T15:41:15.008Z</time></trkpt><trkpt lat="43.6202233" lon="11.4961383"><ele>124.99999999999999</ele><time>2026-04-04T15:41:16.01Z</time></trkpt><trkpt lat="43.6201367" lon="11.49615"><ele>125.0</ele><time>2026-04-04T15:41:17.011Z</time></trkpt><trkpt lat="43.62005" lon="11.4961633"><ele>124.99999999999999</ele><time>2026-04-04T15:41:18.008Z</time></trkpt><trkpt lat="43.619965" lon="11.4961733"><ele>125.0</ele><time>2026-04-04T15:41:19.011Z</time></trkpt><trkpt lat="43.6198783" lon="11.4961867"><ele>125.0</ele><time>2026-04-04T15:41:20.01Z</time></trkpt><trkpt lat="43.61979" lon="11.4961933"><ele>125.0</ele><time>2026-04-04T15:41:21.01Z</time></trkpt><trkpt lat="43.619705" lon="11.4961933"><ele>124.99999999999999</ele><time>2026-04-04T15:41:22.011Z</time></trkpt><trkpt lat="43.6196167" lon="11.4962017"><ele>125.0</ele><time>2026-04-04T15:41:23.01Z</time></trkpt><trkpt lat="43.6195267" lon="11.4962167"><ele>124.66666666666666</ele><time>2026-04-04T15:41:24.008Z</time></trkpt><trkpt lat="43.6194367" lon="11.4962317"><ele>124.33333333333333</ele><time>2026-04-04T15:41:25.01Z</time></trkpt><trkpt lat="43.6193483" lon="11.49624"><ele>124.0</ele><time>2026-04-04T15:41:26.01Z</time></trkpt><trkpt lat="43.6192633" lon="11.4962467"><ele>123.66666666666666</ele><time>2026-04-04T15:41:27.011Z</time></trkpt><trkpt lat="43.6191767" lon="11.4962567"><ele>123.33333333333333</ele><time>2026-04-04T15:41:28.01Z</time></trkpt><trkpt lat="43.6190883" lon="11.4962633"><ele>123.0</ele><time>2026-04-04T15:41:29.01Z</time></trkpt><trkpt lat="43.6190017" lon="11.4962717"><ele>123.33333333333333</ele><time>2026-04-04T15:41:30.008Z</time></trkpt><trkpt lat="43.618915" lon="11.4962817"><ele>123.66666666666666</ele><time>2026-04-04T15:41:31.008Z</time></trkpt><trkpt lat="43.6188283" lon="11.4962933"><ele>124.0</ele><time>2026-04-04T15:41:32.011Z</time></trkpt><trkpt lat="43.61874" lon="11.496305"><ele>124.33333333333333</ele><time>2026-04-04T15:41:33.01Z</time></trkpt><trkpt lat="43.6186533" lon="11.4963183"><ele>124.66666666666666</ele><time>2026-04-04T15:41:34.011Z</time></trkpt><trkpt lat="43.6185667" lon="11.4963383"><ele>125.0</ele><time>2026-04-04T15:41:35.011Z</time></trkpt><trkpt lat="43.6184783" lon="11.4963583"><ele>124.99999999999999</ele><time>2026-04-04T15:41:36.009Z</time></trkpt><trkpt lat="43.6183933" lon="11.4963817"><ele>125.0</ele><time>2026-04-04T15:41:37.009Z</time></trkpt><trkpt lat="43.6183033" lon="11.4964067"><ele>125.0</ele><time>2026-04-04T15:41:38.01Z</time></trkpt><trkpt lat="43.61822" lon="11.49644"><ele>125.0</ele><time>2026-04-04T15:41:39.009Z</time></trkpt><trkpt lat="43.6181383" lon="11.4964783"><ele>124.99999999999999</ele><time>2026-04-04T15:41:40.008Z</time></trkpt><trkpt lat="43.6180567" lon="11.49652"><ele>125.0</ele><time>2026-04-04T15:41:41.011Z</time></trkpt><trkpt lat="43.6179733" lon="11.4965633"><ele>124.99999999999999</ele><time>2026-04-04T15:41:42.009Z</time></trkpt><trkpt lat="43.6178917" lon="11.4966133"><ele>125.0</ele><time>2026-04-04T15:41:43.009Z</time></trkpt><trkpt lat="43.6178133" lon="11.4966667"><ele>125.0</ele><time>2026-04-04T15:41:44.011Z</time></trkpt><trkpt lat="43.6177367" lon="11.496725"><ele>125.0</ele><time>2026-04-04T15:41:45.009Z</time></trkpt><trkpt lat="43.6176617" lon="11.4967883"><ele>124.99999999999999</ele><time>2026-04-04T15:41:46.009Z</time></trkpt><trkpt lat="43.6175917" lon="11.4968567"><ele>125.0</ele><time>2026-04-04T15:41:47.011Z</time></trkpt><trkpt lat="43.6175217" lon="11.49693"><ele>125.16666666666666</ele><time>2026-04-04T15:41:48.011Z</time></trkpt><trkpt lat="43.6174533" lon="11.4970067"><ele>125.33333333333333</ele><time>2026-04-04T15:41:49.01Z</time></trkpt><trkpt lat="43.617385" lon="11.4970833"><ele>125.5</ele><time>2026-04-04T15:41:50.012Z</time></trkpt><trkpt lat="43.617315" lon="11.4971617"><ele>125.66666666666666</ele><time>2026-04-04T15:41:51.01Z</time></trkpt><trkpt lat="43.6172467" lon="11.49724"><ele>125.83333333333333</ele><time>2026-04-04T15:41:52.01Z</time></trkpt><trkpt lat="43.617175" lon="11.4973217"><ele>126.0</ele><time>2026-04-04T15:41:53.01Z</time></trkpt><trkpt lat="43.6171067" lon="11.497405"><ele>126.0</ele><time>2026-04-04T15:41:54.01Z</time></trkpt><trkpt lat="43.6170367" lon="11.4974883"><ele>126.0</ele><time>2026-04-04T15:41:55.011Z</time></trkpt><trkpt lat="43.616965" lon="11.4975733"><ele>126.0</ele><time>2026-04-04T15:41:56.01Z</time></trkpt><trkpt lat="43.6168933" lon="11.4976583"><ele>126.0</ele><time>2026-04-04T15:41:57.01Z</time></trkpt><trkpt lat="43.6168217" lon="11.4977417"><ele>126.0</ele><time>2026-04-04T15:41:58.009Z</time></trkpt><trkpt lat="43.61675" lon="11.4978267"><ele>125.8</ele><time>2026-04-04T15:41:59.009Z</time></trkpt><trkpt lat="43.6166767" lon="11.4979117"><ele>125.6</ele><time>2026-04-04T15:42:00.009Z</time></trkpt><trkpt lat="43.6166017" lon="11.497995"><ele>125.4</ele><time>2026-04-04T15:42:01.01Z</time></trkpt><trkpt lat="43.61653" lon="11.4980783"><ele>125.2</ele><time>2026-04-04T15:42:02.009Z</time></trkpt><trkpt lat="43.6164617" lon="11.49816"><ele>125.0</ele><time>2026-04-04T15:42:03.01Z</time></trkpt><trkpt lat="43.6163917" lon="11.4982417"><ele>125.0</ele><time>2026-04-04T15:42:04.009Z</time></trkpt><trkpt lat="43.6163167" lon="11.4983217"><ele>125.0</ele><time>2026-04-04T15:42:05.011Z</time></trkpt><trkpt lat="43.6162483" lon="11.4984"><ele>125.0</ele><time>2026-04-04T15:42:06.011Z</time></trkpt><trkpt lat="43.6161817" lon="11.4984767"><ele>125.0</ele><time>2026-04-04T15:42:07.012Z</time></trkpt><trkpt lat="43.6161117" lon="11.4985567"><ele>125.0</ele><time>2026-04-04T15:42:08.01Z</time></trkpt><trkpt lat="43.616045" lon="11.4986383"><ele>124.99999999999999</ele><time>2026-04-04T15:42:09.011Z</time></trkpt><trkpt lat="43.6159783" lon="11.49872"><ele>125.0</ele><time>2026-04-04T15:42:10.011Z</time></trkpt><trkpt lat="43.6159117" lon="11.4988"><ele>125.0</ele><time>2026-04-04T15:42:11.01Z</time></trkpt><trkpt lat="43.615845" lon="11.49888"><ele>125.0</ele><time>2026-04-04T15:42:12.01Z</time></trkpt><trkpt lat="43.6157767" lon="11.49896"><ele>124.99999999999999</ele><time>2026-04-04T15:42:13.012Z</time></trkpt><trkpt lat="43.6157117" lon="11.4990383"><ele>125.0</ele><time>2026-04-04T15:42:14.011Z</time></trkpt><trkpt lat="43.6156467" lon="11.49912"><ele>124.99999999999999</ele><time>2026-04-04T15:42:15.009Z</time></trkpt><trkpt lat="43.61558" lon="11.4992017"><ele>125.0</ele><time>2026-04-04T15:42:16.013Z</time></trkpt><trkpt lat="43.615515" lon="11.4992817"><ele>125.0</ele><time>2026-04-04T15:42:17.009Z</time></trkpt><trkpt lat="43.61545" lon="11.499365"><ele>125.0</ele><time>2026-04-04T15:42:18.01Z</time></trkpt><trkpt lat="43.61539" lon="11.49945"><ele>124.99999999999999</ele><time>2026-04-04T15:42:19.01Z</time></trkpt><trkpt lat="43.615335" lon="11.49954"><ele>125.0</ele><time>2026-04-04T15:42:20.011Z</time></trkpt><trkpt lat="43.6152817" lon="11.4996317"><ele>124.99999999999999</ele><time>2026-04-04T15:42:21.009Z</time></trkpt><trkpt lat="43.6152283" lon="11.499725"><ele>125.0</ele><time>2026-04-04T15:42:22.01Z</time></trkpt><trkpt lat="43.6151767" lon="11.4998217"><ele>125.0</ele><time>2026-04-04T15:42:23.011Z</time></trkpt><trkpt lat="43.615125" lon="11.4999183"><ele>125.0</ele><time>2026-04-04T15:42:24.01Z</time></trkpt><trkpt lat="43.615075" lon="11.5000167"><ele>124.99999999999999</ele><time>2026-04-04T15:42:25.011Z</time></trkpt><trkpt lat="43.6150267" lon="11.5001167"><ele>125.0</ele><time>2026-04-04T15:42:26.011Z</time></trkpt><trkpt lat="43.614985" lon="11.50022"><ele>124.99999999999999</ele><time>2026-04-04T15:42:27.01Z</time></trkpt><trkpt lat="43.6149467" lon="11.500325"><ele>125.0</ele><time>2026-04-04T15:42:28.011Z</time></trkpt><trkpt lat="43.6149133" lon="11.500435"><ele>125.0</ele><time>2026-04-04T15:42:29.011Z</time></trkpt><trkpt lat="43.6148867" lon="11.500545"><ele>125.0</ele><time>2026-04-04T15:42:30.01Z</time></trkpt><trkpt lat="43.6148667" lon="11.5006567"><ele>124.99999999999999</ele><time>2026-04-04T15:42:31.012Z</time></trkpt><trkpt lat="43.614855" lon="11.5007683"><ele>125.0</ele><time>2026-04-04T15:42:32.011Z</time></trkpt><trkpt lat="43.6148417" lon="11.5008833"><ele>125.16666666666666</ele><time>2026-04-04T15:42:33.01Z</time></trkpt><trkpt lat="43.614835" lon="11.5009983"><ele>125.33333333333333</ele><time>2026-04-04T15:42:34.011Z</time></trkpt><trkpt lat="43.6148233" lon="11.5011167"><ele>125.5</ele><time>2026-04-04T15:42:35.009Z</time></trkpt><trkpt lat="43.6148183" lon="11.5012333"><ele>125.66666666666666</ele><time>2026-04-04T15:42:36.01Z</time></trkpt><trkpt lat="43.6148133" lon="11.5013483"><ele>125.83333333333333</ele><time>2026-04-04T15:42:37.011Z</time></trkpt><trkpt lat="43.6148133" lon="11.50146"><ele>126.0</ele><time>2026-04-04T15:42:38.01Z</time></trkpt><trkpt lat="43.614815" lon="11.5015717"><ele>126.16666666666667</ele><time>2026-04-04T15:42:39.01Z</time></trkpt><trkpt lat="43.6148183" lon="11.5016883"><ele>126.33333333333334</ele><time>2026-04-04T15:42:40.011Z</time></trkpt><trkpt lat="43.61482" lon="11.5018067"><ele>126.5</ele><time>2026-04-04T15:42:41.011Z</time></trkpt><trkpt lat="43.6148283" lon="11.5019233"><ele>126.66666666666667</ele><time>2026-04-04T15:42:42.01Z</time></trkpt><trkpt lat="43.6148433" lon="11.5020367"><ele>126.83333333333334</ele><time>2026-04-04T15:42:43.011Z</time></trkpt><trkpt lat="43.614855" lon="11.5021467"><ele>127.0</ele><time>2026-04-04T15:42:44.012Z</time></trkpt><trkpt lat="43.6148683" lon="11.5022567"><ele>127.00000000000001</ele><time>2026-04-04T15:42:45.011Z</time></trkpt><trkpt lat="43.6148867" lon="11.5023633"><ele>127.0</ele><time>2026-04-04T15:42:46.011Z</time></trkpt><trkpt lat="43.6149117" lon="11.5024633"><ele>127.0</ele><time>2026-04-04T15:42:47.012Z</time></trkpt><trkpt lat="43.6149367" lon="11.5025633"><ele>127.0</ele><time>2026-04-04T15:42:48.012Z</time></trkpt><trkpt lat="43.6149633" lon="11.5026633"><ele>127.00000000000001</ele><time>2026-04-04T15:42:49.01Z</time></trkpt><trkpt lat="43.614995" lon="11.50276"><ele>127.0</ele><time>2026-04-04T15:42:50.011Z</time></trkpt><trkpt lat="43.61503" lon="11.5028517"><ele>127.28571428571429</ele><time>2026-04-04T15:42:51.011Z</time></trkpt><trkpt lat="43.6150667" lon="11.50294"><ele>127.57142857142856</ele><time>2026-04-04T15:42:52.012Z</time></trkpt><trkpt lat="43.6151067" lon="11.5030283"><ele>127.85714285714285</ele><time>2026-04-04T15:42:53.012Z</time></trkpt><trkpt lat="43.6151467" lon="11.50311"><ele>128.14285714285714</ele><time>2026-04-04T15:42:54.011Z</time></trkpt><trkpt lat="43.6151883" lon="11.5031967"><ele>128.42857142857142</ele><time>2026-04-04T15:42:55.011Z</time></trkpt><trkpt lat="43.6152317" lon="11.50328"><ele>128.7142857142857</ele><time>2026-04-04T15:42:56.011Z</time></trkpt><trkpt lat="43.6152767" lon="11.5033617"><ele>129.0</ele><time>2026-04-04T15:42:57.01Z</time></trkpt><trkpt lat="43.6153233" lon="11.50344"><ele>129.14285714285714</ele><time>2026-04-04T15:42:58.011Z</time></trkpt><trkpt lat="43.6153717" lon="11.5035167"><ele>129.28571428571428</ele><time>2026-04-04T15:42:59.011Z</time></trkpt><trkpt lat="43.6154217" lon="11.5035917"><ele>129.42857142857144</ele><time>2026-04-04T15:43:00.01Z</time></trkpt><trkpt lat="43.615475" lon="11.5036667"><ele>129.57142857142856</ele><time>2026-04-04T15:43:01.012Z</time></trkpt><trkpt lat="43.6155283" lon="11.5037383"><ele>129.71428571428572</ele><time>2026-04-04T15:43:02.014Z</time></trkpt><trkpt lat="43.6155817" lon="11.5038117"><ele>129.85714285714286</ele><time>2026-04-04T15:43:03.011Z</time></trkpt><trkpt lat="43.6156383" lon="11.503875"><ele>130.0</ele><time>2026-04-04T15:43:04.012Z</time></trkpt><trkpt lat="43.615695" lon="11.5039383"><ele>129.71428571428572</ele><time>2026-04-04T15:43:05.009Z</time></trkpt><trkpt lat="43.615755" lon="11.5039967"><ele>129.42857142857144</ele><time>2026-04-04T15:43:06.009Z</time></trkpt><trkpt lat="43.6158117" lon="11.5040517"><ele>129.14285714285714</ele><time>2026-04-04T15:43:07.01Z</time></trkpt><trkpt lat="43.6158683" lon="11.5041017"><ele>128.85714285714286</ele><time>2026-04-04T15:43:08.01Z</time></trkpt><trkpt lat="43.61593" lon="11.5041583"><ele>128.57142857142856</ele><time>2026-04-04T15:43:09.009Z</time></trkpt><trkpt lat="43.61599" lon="11.5041983"><ele>128.28571428571428</ele><time>2026-04-04T15:43:10.011Z</time></trkpt><trkpt lat="43.6160567" lon="11.5042417"><ele>128.0</ele><time>2026-04-04T15:43:11.009Z</time></trkpt><trkpt lat="43.61612" lon="11.504285"><ele>129.0</ele><time>2026-04-04T15:43:12.009Z</time></trkpt><trkpt lat="43.6161833" lon="11.5043217"><ele>130.0</ele><time>2026-04-04T15:43:13.009Z</time></trkpt><trkpt lat="43.616245" lon="11.5043533"><ele>131.0</ele><time>2026-04-04T15:43:14.008Z</time></trkpt><trkpt lat="43.61631" lon="11.5043833"><ele>132.0</ele><time>2026-04-04T15:43:15.009Z</time></trkpt><trkpt lat="43.6163767" lon="11.50442"><ele>133.0</ele><time>2026-04-04T15:43:16.011Z</time></trkpt><trkpt lat="43.6164433" lon="11.504455"><ele>134.0</ele><time>2026-04-04T15:43:17.01Z</time></trkpt><trkpt lat="43.6165117" lon="11.5044833"><ele>135.0</ele><time>2026-04-04T15:43:18.01Z</time></trkpt><trkpt lat="43.6165817" lon="11.5045183"><ele>135.0</ele><time>2026-04-04T15:43:19.009Z</time></trkpt><trkpt lat="43.61665" lon="11.5045517"><ele>135.0</ele><time>2026-04-04T15:43:20.012Z</time></trkpt><trkpt lat="43.61672" lon="11.5045833"><ele>135.0</ele><time>2026-04-04T15:43:21.009Z</time></trkpt><trkpt lat="43.6167883" lon="11.50461"><ele>135.0</ele><time>2026-04-04T15:43:22.01Z</time></trkpt><trkpt lat="43.6168567" lon="11.5046417"><ele>135.0</ele><time>2026-04-04T15:43:23.008Z</time></trkpt><trkpt lat="43.616925" lon="11.5046717"><ele>135.0</ele><time>2026-04-04T15:43:24.009Z</time></trkpt><trkpt lat="43.6169917" lon="11.5047017"><ele>135.0</ele><time>2026-04-04T15:43:25.01Z</time></trkpt><trkpt lat="43.61706" lon="11.5047283"><ele>134.71428571428572</ele><time>2026-04-04T15:43:26.011Z</time></trkpt><trkpt lat="43.6171283" lon="11.50476"><ele>134.42857142857142</ele><time>2026-04-04T15:43:27.009Z</time></trkpt><trkpt lat="43.6171983" lon="11.5048017"><ele>134.14285714285714</ele><time>2026-04-04T15:43:28.009Z</time></trkpt><trkpt lat="43.6172667" lon="11.5048367"><ele>133.85714285714286</ele><time>2026-04-04T15:43:29.01Z</time></trkpt><trkpt lat="43.6173333" lon="11.5048683"><ele>133.57142857142856</ele><time>2026-04-04T15:43:30.009Z</time></trkpt><trkpt lat="43.6174017" lon="11.5049"><ele>133.28571428571428</ele><time>2026-04-04T15:43:31.009Z</time></trkpt><trkpt lat="43.61747" lon="11.5049317"><ele>133.0</ele><time>2026-04-04T15:43:32.009Z</time></trkpt><trkpt lat="43.6175333" lon="11.504965"><ele>133.0</ele><time>2026-04-04T15:43:33.008Z</time></trkpt><trkpt lat="43.6176017" lon="11.504995"><ele>133.0</ele><time>2026-04-04T15:43:34.01Z</time></trkpt><trkpt lat="43.6176683" lon="11.5050233"><ele>133.0</ele><time>2026-04-04T15:43:35.008Z</time></trkpt><trkpt lat="43.6177383" lon="11.505055"><ele>133.0</ele><time>2026-04-04T15:43:36.009Z</time></trkpt><trkpt lat="43.6178033" lon="11.5050867"><ele>133.0</ele><time>2026-04-04T15:43:37.009Z</time></trkpt><trkpt lat="43.6178683" lon="11.505115"><ele>133.0</ele><time>2026-04-04T15:43:38.009Z</time></trkpt><trkpt lat="43.6179367" lon="11.50515"><ele>133.0</ele><time>2026-04-04T15:43:39.009Z</time></trkpt><trkpt lat="43.618" lon="11.5051817"><ele>134.0</ele><time>2026-04-04T15:43:40.009Z</time></trkpt><trkpt lat="43.6180633" lon="11.5052083"><ele>135.0</ele><time>2026-04-04T15:43:41.009Z</time></trkpt><trkpt lat="43.6181283" lon="11.5052367"><ele>136.0</ele><time>2026-04-04T15:43:42.009Z</time></trkpt><trkpt lat="43.6181933" lon="11.50526"><ele>137.0</ele><time>2026-04-04T15:43:43.01Z</time></trkpt><trkpt lat="43.6182567" lon="11.5052883"><ele>138.0</ele><time>2026-04-04T15:43:44.009Z</time></trkpt><trkpt lat="43.6183217" lon="11.50532"><ele>139.0</ele><time>2026-04-04T15:43:45.012Z</time></trkpt><trkpt lat="43.6183867" lon="11.505345"><ele>140.0</ele><time>2026-04-04T15:43:46.008Z</time></trkpt><trkpt lat="43.6184517" lon="11.5053667"><ele>140.0</ele><time>2026-04-04T15:43:47.009Z</time></trkpt><trkpt lat="43.61852" lon="11.5053817"><ele>140.0</ele><time>2026-04-04T15:43:48.01Z</time></trkpt><trkpt lat="43.618585" lon="11.505395"><ele>140.0</ele><time>2026-04-04T15:43:49.011Z</time></trkpt><trkpt lat="43.6186517" lon="11.50541"><ele>140.0</ele><time>2026-04-04T15:43:50.009Z</time></trkpt><trkpt lat="43.61872" lon="11.5054283"><ele>140.0</ele><time>2026-04-04T15:43:51.01Z</time></trkpt><trkpt lat="43.618785" lon="11.50544"><ele>140.0</ele><time>2026-04-04T15:43:52.009Z</time></trkpt><trkpt lat="43.6188533" lon="11.50545"><ele>140.0</ele><time>2026-04-04T15:43:53.01Z</time></trkpt><trkpt lat="43.61893" lon="11.5054533"><ele>138.5</ele><time>2026-04-04T15:43:54.01Z</time></trkpt><trkpt lat="43.6189983" lon="11.5054583"><ele>137.0</ele><time>2026-04-04T15:43:55.01Z</time></trkpt><trkpt lat="43.619125" lon="11.5054567"><ele>135.5</ele><time>2026-04-04T15:43:57.01Z</time></trkpt><trkpt lat="43.6191933" lon="11.5054583"><ele>134.0</ele><time>2026-04-04T15:43:58.009Z</time></trkpt><trkpt lat="43.6192633" lon="11.505455"><ele>132.5</ele><time>2026-04-04T15:43:59.009Z</time></trkpt><trkpt lat="43.6193333" lon="11.5054467"><ele>131.0</ele><time>2026-04-04T15:44:00.01Z</time></trkpt><trkpt lat="43.619405" lon="11.505445"><ele>131.0</ele><time>2026-04-04T15:44:01.009Z</time></trkpt><trkpt lat="43.6194767" lon="11.5054367"><ele>131.0</ele><time>2026-04-04T15:44:02.009Z</time></trkpt><trkpt lat="43.6195467" lon="11.5054367"><ele>131.0</ele><time>2026-04-04T15:44:03.009Z</time></trkpt><trkpt lat="43.6196183" lon="11.5054367"><ele>131.0</ele><time>2026-04-04T15:44:04.01Z</time></trkpt><trkpt lat="43.61969" lon="11.505435"><ele>131.0</ele><time>2026-04-04T15:44:05.009Z</time></trkpt><trkpt lat="43.6197617" lon="11.505435"><ele>131.0</ele><time>2026-04-04T15:44:06.008Z</time></trkpt><trkpt lat="43.6198317" lon="11.50543"><ele>131.0</ele><time>2026-04-04T15:44:07.009Z</time></trkpt><trkpt lat="43.6199" lon="11.5054283"><ele>131.14285714285714</ele><time>2026-04-04T15:44:08.01Z</time></trkpt><trkpt lat="43.6199717" lon="11.50543"><ele>131.2857142857143</ele><time>2026-04-04T15:44:09.009Z</time></trkpt><trkpt lat="43.620045" lon="11.5054367"><ele>131.42857142857144</ele><time>2026-04-04T15:44:10.01Z</time></trkpt><trkpt lat="43.6201167" lon="11.5054417"><ele>131.57142857142858</ele><time>2026-04-04T15:44:11.009Z</time></trkpt><trkpt lat="43.620185" lon="11.5054417"><ele>131.71428571428572</ele><time>2026-04-04T15:44:12.009Z</time></trkpt><trkpt lat="43.620255" lon="11.5054483"><ele>131.85714285714286</ele><time>2026-04-04T15:44:13.014Z</time></trkpt><trkpt lat="43.6203267" lon="11.5054617"><ele>132.0</ele><time>2026-04-04T15:44:14.01Z</time></trkpt><trkpt lat="43.6203983" lon="11.5054783"><ele>132.14285714285714</ele><time>2026-04-04T15:44:15.01Z</time></trkpt><trkpt lat="43.6204667" lon="11.5054983"><ele>132.28571428571428</ele><time>2026-04-04T15:44:16.008Z</time></trkpt><trkpt lat="43.6205367" lon="11.50552"><ele>132.42857142857144</ele><time>2026-04-04T15:44:17.011Z</time></trkpt><trkpt lat="43.620605" lon="11.5055417"><ele>132.57142857142856</ele><time>2026-04-04T15:44:18.009Z</time></trkpt><trkpt lat="43.6206733" lon="11.505565"><ele>132.71428571428572</ele><time>2026-04-04T15:44:19.01Z</time></trkpt><trkpt lat="43.6207417" lon="11.5055933"><ele>132.85714285714286</ele><time>2026-04-04T15:44:20.008Z</time></trkpt><trkpt lat="43.62081" lon="11.5056217"><ele>133.0</ele><time>2026-04-04T15:44:21.009Z</time></trkpt><trkpt lat="43.6208783" lon="11.5056567"><ele>133.0</ele><time>2026-04-04T15:44:22.012Z</time></trkpt><trkpt lat="43.620945" lon="11.505695"><ele>133.0</ele><time>2026-04-04T15:44:23.011Z</time></trkpt><trkpt lat="43.6210167" lon="11.5057417"><ele>133.0</ele><time>2026-04-04T15:44:24.009Z</time></trkpt><trkpt lat="43.6210833" lon="11.50579"><ele>133.0</ele><time>2026-04-04T15:44:25.011Z</time></trkpt><trkpt lat="43.62115" lon="11.505835"><ele>133.0</ele><time>2026-04-04T15:44:26.008Z</time></trkpt><trkpt lat="43.621215" lon="11.505885"><ele>133.0</ele><time>2026-04-04T15:44:27.008Z</time></trkpt><trkpt lat="43.62128" lon="11.50593"><ele>133.0</ele><time>2026-04-04T15:44:28.01Z</time></trkpt><trkpt lat="43.621345" lon="11.5059767"><ele>133.0</ele><time>2026-04-04T15:44:29.008Z</time></trkpt><trkpt lat="43.6214083" lon="11.5060217"><ele>133.0</ele><time>2026-04-04T15:44:30.008Z</time></trkpt><trkpt lat="43.621475" lon="11.5060717"><ele>133.0</ele><time>2026-04-04T15:44:31.011Z</time></trkpt><trkpt lat="43.62154" lon="11.50612"><ele>133.0</ele><time>2026-04-04T15:44:32.008Z</time></trkpt><trkpt lat="43.6216067" lon="11.5061717"><ele>133.0</ele><time>2026-04-04T15:44:33.011Z</time></trkpt><trkpt lat="43.6216733" lon="11.5062183"><ele>133.0</ele><time>2026-04-04T15:44:34.011Z</time></trkpt><trkpt lat="43.62174" lon="11.50627"><ele>133.0</ele><time>2026-04-04T15:44:35.012Z</time></trkpt><trkpt lat="43.621805" lon="11.5063183"><ele>133.0</ele><time>2026-04-04T15:44:36.011Z</time></trkpt><trkpt lat="43.6218717" lon="11.5063683"><ele>133.0</ele><time>2026-04-04T15:44:37.012Z</time></trkpt><trkpt lat="43.6219383" lon="11.506415"><ele>133.0</ele><time>2026-04-04T15:44:38.01Z</time></trkpt><trkpt lat="43.622005" lon="11.5064467"><ele>133.0</ele><time>2026-04-04T15:44:39.009Z</time></trkpt><trkpt lat="43.6220717" lon="11.50649"><ele>133.0</ele><time>2026-04-04T15:44:40.011Z</time></trkpt><trkpt lat="43.6221383" lon="11.506535"><ele>133.0</ele><time>2026-04-04T15:44:41.01Z</time></trkpt><trkpt lat="43.6222" lon="11.5065783"><ele>133.0</ele><time>2026-04-04T15:44:42.008Z</time></trkpt><trkpt lat="43.6222667" lon="11.5066267"><ele>133.14285714285714</ele><time>2026-04-04T15:44:43.012Z</time></trkpt><trkpt lat="43.62233" lon="11.5066683"><ele>133.28571428571428</ele><time>2026-04-04T15:44:44.013Z</time></trkpt><trkpt lat="43.62239" lon="11.5067167"><ele>133.42857142857144</ele><time>2026-04-04T15:44:45.012Z</time></trkpt><trkpt lat="43.622455" lon="11.5067667"><ele>133.57142857142856</ele><time>2026-04-04T15:44:46.011Z</time></trkpt><trkpt lat="43.62252" lon="11.5068167"><ele>133.71428571428572</ele><time>2026-04-04T15:44:47.012Z</time></trkpt><trkpt lat="43.622585" lon="11.506865"><ele>133.85714285714286</ele><time>2026-04-04T15:44:48.012Z</time></trkpt><trkpt lat="43.62265" lon="11.506905"><ele>134.0</ele><time>2026-04-04T15:44:49.01Z</time></trkpt><trkpt lat="43.6227133" lon="11.5069467"><ele>134.0</ele><time>2026-04-04T15:44:50.009Z</time></trkpt><trkpt lat="43.6227767" lon="11.506995"><ele>134.0</ele><time>2026-04-04T15:44:51.008Z</time></trkpt><trkpt lat="43.6228417" lon="11.5070433"><ele>134.0</ele><time>2026-04-04T15:44:52.009Z</time></trkpt><trkpt lat="43.6229017" lon="11.5070817"><ele>134.0</ele><time>2026-04-04T15:44:53.011Z</time></trkpt><trkpt lat="43.6229633" lon="11.507125"><ele>134.0</ele><time>2026-04-04T15:44:54.009Z</time></trkpt><trkpt lat="43.623025" lon="11.5071717"><ele>134.0</ele><time>2026-04-04T15:44:55.011Z</time></trkpt><trkpt lat="43.623085" lon="11.5072217"><ele>134.0</ele><time>2026-04-04T15:44:56.011Z</time></trkpt><trkpt lat="43.6231433" lon="11.5072733"><ele>133.85714285714286</ele><time>2026-04-04T15:44:57.012Z</time></trkpt><trkpt lat="43.623205" lon="11.5073317"><ele>133.71428571428572</ele><time>2026-04-04T15:44:58.01Z</time></trkpt><trkpt lat="43.6232633" lon="11.5073917"><ele>133.57142857142856</ele><time>2026-04-04T15:44:59.01Z</time></trkpt><trkpt lat="43.6233217" lon="11.5074517"><ele>133.42857142857144</ele><time>2026-04-04T15:45:00.012Z</time></trkpt><trkpt lat="43.62338" lon="11.507515"><ele>133.28571428571428</ele><time>2026-04-04T15:45:01.012Z</time></trkpt><trkpt lat="43.623435" lon="11.5075817"><ele>133.14285714285714</ele><time>2026-04-04T15:45:02.013Z</time></trkpt><trkpt lat="43.62349" lon="11.50765"><ele>133.0</ele><time>2026-04-04T15:45:03.009Z</time></trkpt><trkpt lat="43.6235433" lon="11.50772"><ele>133.0</ele><time>2026-04-04T15:45:04.01Z</time></trkpt><trkpt lat="43.6235933" lon="11.507795"><ele>133.0</ele><time>2026-04-04T15:45:05.01Z</time></trkpt><trkpt lat="43.6236417" lon="11.507875"><ele>133.0</ele><time>2026-04-04T15:45:06.01Z</time></trkpt><trkpt lat="43.6236883" lon="11.5079567"><ele>133.0</ele><time>2026-04-04T15:45:07.009Z</time></trkpt><trkpt lat="43.6237317" lon="11.50804"><ele>133.0</ele><time>2026-04-04T15:45:08.009Z</time></trkpt><trkpt lat="43.6237733" lon="11.5081233"><ele>133.0</ele><time>2026-04-04T15:45:09.009Z</time></trkpt><trkpt lat="43.6238117" lon="11.508205"><ele>133.0</ele><time>2026-04-04T15:45:10.009Z</time></trkpt><trkpt lat="43.6238467" lon="11.5082933"><ele>133.28571428571428</ele><time>2026-04-04T15:45:11.011Z</time></trkpt><trkpt lat="43.6238817" lon="11.508385"><ele>133.57142857142856</ele><time>2026-04-04T15:45:12.01Z</time></trkpt><trkpt lat="43.6239183" lon="11.5084783"><ele>133.85714285714286</ele><time>2026-04-04T15:45:13.011Z</time></trkpt><trkpt lat="43.6239517" lon="11.5085717"><ele>134.14285714285714</ele><time>2026-04-04T15:45:14.01Z</time></trkpt><trkpt lat="43.6239833" lon="11.50866"><ele>134.42857142857142</ele><time>2026-04-04T15:45:15.009Z</time></trkpt><trkpt lat="43.6240117" lon="11.5087517"><ele>134.71428571428572</ele><time>2026-04-04T15:45:16.01Z</time></trkpt><trkpt lat="43.62404" lon="11.50885"><ele>135.0</ele><time>2026-04-04T15:45:17.011Z</time></trkpt><trkpt lat="43.6240667" lon="11.50895"><ele>135.16666666666666</ele><time>2026-04-04T15:45:18.011Z</time></trkpt><trkpt lat="43.62409" lon="11.50905"><ele>135.33333333333334</ele><time>2026-04-04T15:45:19.009Z</time></trkpt><trkpt lat="43.6241133" lon="11.5091483"><ele>135.5</ele><time>2026-04-04T15:45:20.009Z</time></trkpt><trkpt lat="43.6241383" lon="11.5092517"><ele>135.66666666666669</ele><time>2026-04-04T15:45:21.009Z</time></trkpt><trkpt lat="43.6241617" lon="11.5093567"><ele>135.83333333333334</ele><time>2026-04-04T15:45:22.009Z</time></trkpt><trkpt lat="43.624185" lon="11.5094583"><ele>136.0</ele><time>2026-04-04T15:45:23.011Z</time></trkpt><trkpt lat="43.6242083" lon="11.5095583"><ele>136.16666666666669</ele><time>2026-04-04T15:45:24.01Z</time></trkpt><trkpt lat="43.6242317" lon="11.509655"><ele>136.33333333333334</ele><time>2026-04-04T15:45:25.01Z</time></trkpt><trkpt lat="43.6242567" lon="11.509755"><ele>136.5</ele><time>2026-04-04T15:45:26.009Z</time></trkpt><trkpt lat="43.624285" lon="11.5098567"><ele>136.66666666666666</ele><time>2026-04-04T15:45:27.01Z</time></trkpt><trkpt lat="43.62431" lon="11.5099583"><ele>136.83333333333331</ele><time>2026-04-04T15:45:28.009Z</time></trkpt><trkpt lat="43.624335" lon="11.51006"><ele>137.0</ele><time>2026-04-04T15:45:29.011Z</time></trkpt><trkpt lat="43.6243617" lon="11.5101617"><ele>137.0</ele><time>2026-04-04T15:45:30.009Z</time></trkpt><trkpt lat="43.6243867" lon="11.5102633"><ele>137.0</ele><time>2026-04-04T15:45:31.009Z</time></trkpt><trkpt lat="43.6244083" lon="11.5103683"><ele>137.0</ele><time>2026-04-04T15:45:32.009Z</time></trkpt><trkpt lat="43.6244333" lon="11.510475"><ele>137.0</ele><time>2026-04-04T15:45:33.012Z</time></trkpt><trkpt lat="43.6244617" lon="11.5105767"><ele>137.0</ele><time>2026-04-04T15:45:34.011Z</time></trkpt><trkpt lat="43.6244883" lon="11.5106783"><ele>137.0</ele><time>2026-04-04T15:45:35.009Z</time></trkpt><trkpt lat="43.6245167" lon="11.5107783"><ele>137.2</ele><time>2026-04-04T15:45:36.01Z</time></trkpt><trkpt lat="43.6245433" lon="11.5108717"><ele>137.39999999999998</ele><time>2026-04-04T15:45:37.01Z</time></trkpt><trkpt lat="43.624565" lon="11.510955"><ele>137.60000000000002</ele><time>2026-04-04T15:45:38.01Z</time></trkpt><trkpt lat="43.6245967" lon="11.5111"><ele>137.8</ele><time>2026-04-04T15:45:40.011Z</time></trkpt><trkpt lat="43.62464" lon="11.5112267"><ele>138.0</ele><time>2026-04-04T15:45:42.01Z</time></trkpt><trkpt lat="43.6247017" lon="11.5113533"><ele>138.0</ele><time>2026-04-04T15:45:44.01Z</time></trkpt><trkpt lat="43.62479" lon="11.5114667"><ele>138.0</ele><time>2026-04-04T15:45:46.009Z</time></trkpt><trkpt lat="43.62484" lon="11.51152"><ele>138.0</ele><time>2026-04-04T15:45:47.01Z</time></trkpt><trkpt lat="43.624895" lon="11.5115683"><ele>138.0</ele><time>2026-04-04T15:45:48.011Z</time></trkpt><trkpt lat="43.624955" lon="11.5116133"><ele>138.0</ele><time>2026-04-04T15:45:49.009Z</time></trkpt><trkpt lat="43.6250183" lon="11.51166"><ele>138.0</ele><time>2026-04-04T15:45:50.01Z</time></trkpt><trkpt lat="43.6250817" lon="11.5117067"><ele>138.0</ele><time>2026-04-04T15:45:51.009Z</time></trkpt><trkpt lat="43.6251467" lon="11.5117667"><ele>138.0</ele><time>2026-04-04T15:45:52.009Z</time></trkpt><trkpt lat="43.62521" lon="11.5118267"><ele>138.0</ele><time>2026-04-04T15:45:53.009Z</time></trkpt><trkpt lat="43.6252717" lon="11.5118917"><ele>138.0</ele><time>2026-04-04T15:45:54.009Z</time></trkpt><trkpt lat="43.6253333" lon="11.51196"><ele>138.0</ele><time>2026-04-04T15:45:55.009Z</time></trkpt><trkpt lat="43.6254033" lon="11.51203"><ele>138.0</ele><time>2026-04-04T15:45:56.009Z</time></trkpt><trkpt lat="43.62547" lon="11.51209"><ele>138.28571428571428</ele><time>2026-04-04T15:45:57.009Z</time></trkpt><trkpt lat="43.6255333" lon="11.5121517"><ele>138.57142857142858</ele><time>2026-04-04T15:45:58.009Z</time></trkpt><trkpt lat="43.625595" lon="11.5122083"><ele>138.85714285714286</ele><time>2026-04-04T15:45:59.01Z</time></trkpt><trkpt lat="43.62566" lon="11.5122567"><ele>139.14285714285714</ele><time>2026-04-04T15:46:00.009Z</time></trkpt><trkpt lat="43.6257217" lon="11.5123033"><ele>139.42857142857144</ele><time>2026-04-04T15:46:01.009Z</time></trkpt><trkpt lat="43.6257817" lon="11.51234"><ele>139.71428571428572</ele><time>2026-04-04T15:46:02.009Z</time></trkpt><trkpt lat="43.6258433" lon="11.51237"><ele>140.0</ele><time>2026-04-04T15:46:03.01Z</time></trkpt><trkpt lat="43.6259667" lon="11.5124217"><ele>140.0</ele><time>2026-04-04T15:46:05.009Z</time></trkpt><trkpt lat="43.6260283" lon="11.512445"><ele>140.0</ele><time>2026-04-04T15:46:06.009Z</time></trkpt><trkpt lat="43.62609" lon="11.51247"><ele>140.0</ele><time>2026-04-04T15:46:07.01Z</time></trkpt><trkpt lat="43.62615" lon="11.5124983"><ele>140.0</ele><time>2026-04-04T15:46:08.01Z</time></trkpt><trkpt lat="43.6262117" lon="11.5125233"><ele>140.0</ele><time>2026-04-04T15:46:09.011Z</time></trkpt><trkpt lat="43.6262733" lon="11.5125483"><ele>140.0</ele><time>2026-04-04T15:46:10.009Z</time></trkpt><trkpt lat="43.6263917" lon="11.512595"><ele>140.0</ele><time>2026-04-04T15:46:12.01Z</time></trkpt><trkpt lat="43.62646" lon="11.5126233"><ele>140.16666666666666</ele><time>2026-04-04T15:46:13.01Z</time></trkpt><trkpt lat="43.6265183" lon="11.5126567"><ele>140.33333333333331</ele><time>2026-04-04T15:46:14.012Z</time></trkpt><trkpt lat="43.6265783" lon="11.51269"><ele>140.5</ele><time>2026-04-04T15:46:15.011Z</time></trkpt><trkpt lat="43.6266883" lon="11.51277"><ele>140.66666666666666</ele><time>2026-04-04T15:46:17.01Z</time></trkpt><trkpt lat="43.6267967" lon="11.51286"><ele>140.83333333333334</ele><time>2026-04-04T15:46:19.009Z</time></trkpt><trkpt lat="43.626855" lon="11.5129017"><ele>141.0</ele><time>2026-04-04T15:46:20.01Z</time></trkpt><trkpt lat="43.626915" lon="11.5129367"><ele>141.0</ele><time>2026-04-04T15:46:21.01Z</time></trkpt><trkpt lat="43.6269767" lon="11.5129633"><ele>141.0</ele><time>2026-04-04T15:46:22.009Z</time></trkpt><trkpt lat="43.6270383" lon="11.5129933"><ele>141.0</ele><time>2026-04-04T15:46:23.01Z</time></trkpt><trkpt lat="43.6271033" lon="11.5130167"><ele>141.0</ele><time>2026-04-04T15:46:24.011Z</time></trkpt><trkpt lat="43.627225" lon="11.51307"><ele>141.0</ele><time>2026-04-04T15:46:26.009Z</time></trkpt><trkpt lat="43.6273433" lon="11.5131183"><ele>141.0</ele><time>2026-04-04T15:46:28.009Z</time></trkpt><trkpt lat="43.6274533" lon="11.51316"><ele>141.2</ele><time>2026-04-04T15:46:30.011Z</time></trkpt><trkpt lat="43.627545" lon="11.51321"><ele>141.39999999999998</ele><time>2026-04-04T15:46:32.011Z</time></trkpt><trkpt lat="43.6276067" lon="11.5132983"><ele>141.6</ele><time>2026-04-04T15:46:34.011Z</time></trkpt><trkpt lat="43.6276333" lon="11.5134067"><ele>141.79999999999998</ele><time>2026-04-04T15:46:36.011Z</time></trkpt><trkpt lat="43.6276433" lon="11.5135317"><ele>142.0</ele><time>2026-04-04T15:46:38.011Z</time></trkpt><trkpt lat="43.62764" lon="11.513655"><ele>142.5</ele><time>2026-04-04T15:46:40.01Z</time></trkpt><trkpt lat="43.6276283" lon="11.513775"><ele>143.0</ele><time>2026-04-04T15:46:42.008Z</time></trkpt><trkpt lat="43.62762" lon="11.513885"><ele>143.5</ele><time>2026-04-04T15:46:44.01Z</time></trkpt><trkpt lat="43.6276367" lon="11.51399"><ele>144.0</ele><time>2026-04-04T15:46:46.008Z</time></trkpt><trkpt lat="43.62765" lon="11.51409"><ele>144.5</ele><time>2026-04-04T15:46:48.008Z</time></trkpt><trkpt lat="43.62765" lon="11.5141967"><ele>145.0</ele><time>2026-04-04T15:46:50.009Z</time></trkpt><trkpt lat="43.6276567" lon="11.5143233"><ele>145.0</ele><time>2026-04-04T15:46:52.008Z</time></trkpt><trkpt lat="43.6276717" lon="11.5144583"><ele>145.0</ele><time>2026-04-04T15:46:54.008Z</time></trkpt><trkpt lat="43.6276867" lon="11.5145983"><ele>145.0</ele><time>2026-04-04T15:46:56.009Z</time></trkpt><trkpt lat="43.6277017" lon="11.5147383"><ele>145.0</ele><time>2026-04-04T15:46:58.008Z</time></trkpt><trkpt lat="43.6277117" lon="11.5148833"><ele>145.0</ele><time>2026-04-04T15:47:00.008Z</time></trkpt><trkpt lat="43.6277217" lon="11.5150267"><ele>145.0</ele><time>2026-04-04T15:47:02.011Z</time></trkpt><trkpt lat="43.62773" lon="11.51517"><ele>145.0</ele><time>2026-04-04T15:47:04.012Z</time></trkpt><trkpt lat="43.6277417" lon="11.5153233"><ele>145.0</ele><time>2026-04-04T15:47:06.008Z</time></trkpt><trkpt lat="43.6277617" lon="11.515465"><ele>145.0</ele><time>2026-04-04T15:47:08.01Z</time></trkpt><trkpt lat="43.6277783" lon="11.5156117"><ele>145.0</ele><time>2026-04-04T15:47:10.01Z</time></trkpt><trkpt lat="43.6277917" lon="11.5157617"><ele>145.0</ele><time>2026-04-04T15:47:12.009Z</time></trkpt><trkpt lat="43.6278017" lon="11.515925"><ele>145.0</ele><time>2026-04-04T15:47:14.012Z</time></trkpt><trkpt lat="43.627805" lon="11.5160867"><ele>145.0</ele><time>2026-04-04T15:47:16.011Z</time></trkpt><trkpt lat="43.62781" lon="11.5162417"><ele>145.0</ele><time>2026-04-04T15:47:18.012Z</time></trkpt><trkpt lat="43.6278083" lon="11.516395"><ele>145.4</ele><time>2026-04-04T15:47:20.011Z</time></trkpt><trkpt lat="43.627805" lon="11.51655"><ele>145.8</ele><time>2026-04-04T15:47:22.011Z</time></trkpt><trkpt lat="43.6278067" lon="11.5167"><ele>146.2</ele><time>2026-04-04T15:47:24.009Z</time></trkpt><trkpt lat="43.6278067" lon="11.5168267"><ele>146.6</ele><time>2026-04-04T15:47:26.012Z</time></trkpt><trkpt lat="43.6277967" lon="11.5169433"><ele>147.0</ele><time>2026-04-04T15:47:29.01Z</time></trkpt><trkpt lat="43.6277967" lon="11.5170333"><ele>147.5</ele><time>2026-04-04T15:47:31.01Z</time></trkpt><trkpt lat="43.6277767" lon="11.5171317"><ele>148.0</ele><time>2026-04-04T15:47:33.009Z</time></trkpt><trkpt lat="43.62775" lon="11.5172183"><ele>148.5</ele><time>2026-04-04T15:47:35.009Z</time></trkpt><trkpt lat="43.62768" lon="11.5172967"><ele>149.0</ele><time>2026-04-04T15:47:38.009Z</time></trkpt><trkpt lat="43.627615" lon="11.51733"><ele>149.5</ele><time>2026-04-04T15:47:40.008Z</time></trkpt><trkpt lat="43.6275317" lon="11.5173333"><ele>150.0</ele><time>2026-04-04T15:47:42.009Z</time></trkpt><trkpt lat="43.6274383" lon="11.5172767"><ele>150.0</ele><time>2026-04-04T15:47:44.011Z</time></trkpt><trkpt lat="43.6274183" lon="11.5171417"><ele>150.0</ele><time>2026-04-04T15:47:46.011Z</time></trkpt><trkpt lat="43.62743" lon="11.516985"><ele>150.0</ele><time>2026-04-04T15:47:48.008Z</time></trkpt><trkpt lat="43.62744" lon="11.5168933"><ele>150.0</ele><time>2026-04-04T15:47:49.01Z</time></trkpt><trkpt lat="43.62744" lon="11.5167483"><ele>150.0</ele><time>2026-04-04T15:47:51.01Z</time></trkpt><trkpt lat="43.627425" lon="11.516655"><ele>149.5</ele><time>2026-04-04T15:47:53.011Z</time></trkpt><trkpt lat="43.6274383" lon="11.5165467"><ele>149.0</ele><time>2026-04-04T15:47:56.011Z</time></trkpt><trkpt lat="43.6274383" lon="11.5164083"><ele>148.5</ele><time>2026-04-04T15:47:59.009Z</time></trkpt><trkpt lat="43.62742" lon="11.51632"><ele>148.0</ele><time>2026-04-04T15:48:01.011Z</time></trkpt><trkpt lat="43.6274317" lon="11.5162167"><ele>147.5</ele><time>2026-04-04T15:48:04.011Z</time></trkpt><trkpt lat="43.6273833" lon="11.5163533"><ele>147.0</ele><time>2026-04-04T15:48:11.011Z</time></trkpt><trkpt lat="43.6273867" lon="11.5164817"><ele>147.0</ele><time>2026-04-04T15:48:24.013Z</time></trkpt><trkpt lat="43.6274467" lon="11.5164133"><ele>147.0</ele><time>2026-04-04T15:48:54.013Z</time></trkpt><trkpt lat="43.6273867" lon="11.5163767"><ele>147.0</ele><time>2026-04-04T15:49:01.01Z</time></trkpt></trkseg></trk></gpx>